<?xml version="1.0" encoding="UTF-8" standalone="no" ?>
<gpx xmlns="http://www.topografix.com/GPX/1/1" xmlns:xsi="http://www.w3.org/2001/XMLSchema-instance" xsi:schemaLocation="http://www.topografix.com/GPX/1/1 http://www.topografix.com/GPX/1/1/gpx.xsd" version="1.1" creator="VisuGPX - https://www.visugpx.com">
  <metadata>
    <name>0506mai12</name>
    <desc><![CDATA[Vallée Seille]]></desc>
  </metadata>
  <trk>
    <name><![CDATA[2012-05-05T12:25:29Z]]></name>
    <trkseg>
      <trkpt lat="49.0936" lon="6.15139">
        <ele>-76.7680664</ele>
        <time>2012-05-05T12:26:52Z</time>
      </trkpt>
      <trkpt lat="49.09353" lon="6.15124">
        <ele>-77.2487793</ele>
        <time>2012-05-05T12:26:57Z</time>
      </trkpt>
      <trkpt lat="49.09353" lon="6.15124">
        <ele>-77.2487793</ele>
        <time>2012-05-05T12:26:58Z</time>
      </trkpt>
      <trkpt lat="49.09351" lon="6.15123">
        <ele>-75.3261719</ele>
        <time>2012-05-05T12:27:17Z</time>
      </trkpt>
      <trkpt lat="49.09348" lon="6.15115">
        <ele>-74.3648682</ele>
        <time>2012-05-05T12:27:19Z</time>
      </trkpt>
      <trkpt lat="49.09336" lon="6.1509">
        <ele>-71.9615479</ele>
        <time>2012-05-05T12:27:24Z</time>
      </trkpt>
      <trkpt lat="49.09314" lon="6.15042">
        <ele>-72.4422607</ele>
        <time>2012-05-05T12:27:31Z</time>
      </trkpt>
      <trkpt lat="49.09272" lon="6.14947">
        <ele>-69.5582275</ele>
        <time>2012-05-05T12:27:43Z</time>
      </trkpt>
      <trkpt lat="49.09249" lon="6.14899">
        <ele>-68.5969238</ele>
        <time>2012-05-05T12:27:50Z</time>
      </trkpt>
      <trkpt lat="49.09234" lon="6.14874">
        <ele>-67.6356201</ele>
        <time>2012-05-05T12:27:56Z</time>
      </trkpt>
      <trkpt lat="49.09216" lon="6.14845">
        <ele>-66.6743164</ele>
        <time>2012-05-05T12:28:03Z</time>
      </trkpt>
      <trkpt lat="49.09193" lon="6.14806">
        <ele>-64.751709</ele>
        <time>2012-05-05T12:28:09Z</time>
      </trkpt>
      <trkpt lat="49.09154" lon="6.14736">
        <ele>-63.7902832</ele>
        <time>2012-05-05T12:28:19Z</time>
      </trkpt>
      <trkpt lat="49.0915" lon="6.14729">
        <ele>-63.7902832</ele>
        <time>2012-05-05T12:28:20Z</time>
      </trkpt>
      <trkpt lat="49.09105" lon="6.14653">
        <ele>-63.3095703</ele>
        <time>2012-05-05T12:28:31Z</time>
      </trkpt>
      <trkpt lat="49.09071" lon="6.14598">
        <ele>-61.3869629</ele>
        <time>2012-05-05T12:28:39Z</time>
      </trkpt>
      <trkpt lat="49.09046" lon="6.14555">
        <ele>-60.4257813</ele>
        <time>2012-05-05T12:28:45Z</time>
      </trkpt>
      <trkpt lat="49.09028" lon="6.14527">
        <ele>-59.4643555</ele>
        <time>2012-05-05T12:28:49Z</time>
      </trkpt>
      <trkpt lat="49.08989" lon="6.14463">
        <ele>-58.0224609</ele>
        <time>2012-05-05T12:28:58Z</time>
      </trkpt>
      <trkpt lat="49.08938" lon="6.14381">
        <ele>-56.5805664</ele>
        <time>2012-05-05T12:29:10Z</time>
      </trkpt>
      <trkpt lat="49.08888" lon="6.14304">
        <ele>-55.1384277</ele>
        <time>2012-05-05T12:29:21Z</time>
      </trkpt>
      <trkpt lat="49.08846" lon="6.14237">
        <ele>-54.177124</ele>
        <time>2012-05-05T12:29:31Z</time>
      </trkpt>
      <trkpt lat="49.08801" lon="6.14167">
        <ele>-53.2158203</ele>
        <time>2012-05-05T12:29:41Z</time>
      </trkpt>
      <trkpt lat="49.08768" lon="6.14108">
        <ele>-51.2932129</ele>
        <time>2012-05-05T12:29:49Z</time>
      </trkpt>
      <trkpt lat="49.08737" lon="6.14059">
        <ele>-51.2932129</ele>
        <time>2012-05-05T12:29:56Z</time>
      </trkpt>
      <trkpt lat="49.0873" lon="6.14023">
        <ele>-50.3319092</ele>
        <time>2012-05-05T12:30:00Z</time>
      </trkpt>
      <trkpt lat="49.08735" lon="6.14004">
        <ele>-49.8511963</ele>
        <time>2012-05-05T12:30:02Z</time>
      </trkpt>
      <trkpt lat="49.08757" lon="6.13925">
        <ele>-47.447876</ele>
        <time>2012-05-05T12:30:10Z</time>
      </trkpt>
      <trkpt lat="49.08785" lon="6.13798">
        <ele>-46.9672852</ele>
        <time>2012-05-05T12:30:23Z</time>
      </trkpt>
      <trkpt lat="49.08802" lon="6.13711">
        <ele>-44.5639648</ele>
        <time>2012-05-05T12:30:32Z</time>
      </trkpt>
      <trkpt lat="49.08803" lon="6.13691">
        <ele>-43.6026611</ele>
        <time>2012-05-05T12:30:34Z</time>
      </trkpt>
      <trkpt lat="49.08795" lon="6.13631">
        <ele>-43.1220703</ele>
        <time>2012-05-05T12:30:40Z</time>
      </trkpt>
      <trkpt lat="49.08775" lon="6.13587">
        <ele>-43.6026611</ele>
        <time>2012-05-05T12:30:45Z</time>
      </trkpt>
      <trkpt lat="49.08712" lon="6.13491">
        <ele>-44.5639648</ele>
        <time>2012-05-05T12:30:57Z</time>
      </trkpt>
      <trkpt lat="49.08648" lon="6.13392">
        <ele>-45.5252686</ele>
        <time>2012-05-05T12:31:08Z</time>
      </trkpt>
      <trkpt lat="49.08594" lon="6.13309">
        <ele>-45.0446777</ele>
        <time>2012-05-05T12:31:17Z</time>
      </trkpt>
      <trkpt lat="49.08544" lon="6.13232">
        <ele>-45.5252686</ele>
        <time>2012-05-05T12:31:25Z</time>
      </trkpt>
      <trkpt lat="49.08498" lon="6.13161">
        <ele>-44.083252</ele>
        <time>2012-05-05T12:31:33Z</time>
      </trkpt>
      <trkpt lat="49.08446" lon="6.1308">
        <ele>-42.1606445</ele>
        <time>2012-05-05T12:31:43Z</time>
      </trkpt>
      <trkpt lat="49.08383" lon="6.12982">
        <ele>-40.2380371</ele>
        <time>2012-05-05T12:31:55Z</time>
      </trkpt>
      <trkpt lat="49.08327" lon="6.12896">
        <ele>-38.7960205</ele>
        <time>2012-05-05T12:32:05Z</time>
      </trkpt>
      <trkpt lat="49.08289" lon="6.12842">
        <ele>-36.8734131</ele>
        <time>2012-05-05T12:32:12Z</time>
      </trkpt>
      <trkpt lat="49.08254" lon="6.1281">
        <ele>-35.4315186</ele>
        <time>2012-05-05T12:32:18Z</time>
      </trkpt>
      <trkpt lat="49.08192" lon="6.12772">
        <ele>-34.4700928</ele>
        <time>2012-05-05T12:32:28Z</time>
      </trkpt>
      <trkpt lat="49.08132" lon="6.12735">
        <ele>-30.6247559</ele>
        <time>2012-05-05T12:32:38Z</time>
      </trkpt>
      <trkpt lat="49.08099" lon="6.12704">
        <ele>-30.144165</ele>
        <time>2012-05-05T12:32:44Z</time>
      </trkpt>
      <trkpt lat="49.08075" lon="6.12668">
        <ele>-29.1828613</ele>
        <time>2012-05-05T12:32:49Z</time>
      </trkpt>
      <trkpt lat="49.08044" lon="6.1261">
        <ele>-27.7409668</ele>
        <time>2012-05-05T12:32:56Z</time>
      </trkpt>
      <trkpt lat="49.08008" lon="6.12543">
        <ele>-27.2602539</ele>
        <time>2012-05-05T12:33:04Z</time>
      </trkpt>
      <trkpt lat="49.07977" lon="6.12483">
        <ele>-26.2989502</ele>
        <time>2012-05-05T12:33:11Z</time>
      </trkpt>
      <trkpt lat="49.07939" lon="6.1241">
        <ele>-26.2989502</ele>
        <time>2012-05-05T12:33:19Z</time>
      </trkpt>
      <trkpt lat="49.07906" lon="6.12347">
        <ele>-27.2602539</ele>
        <time>2012-05-05T12:33:26Z</time>
      </trkpt>
      <trkpt lat="49.07892" lon="6.1232">
        <ele>-27.2602539</ele>
        <time>2012-05-05T12:33:29Z</time>
      </trkpt>
      <trkpt lat="49.07886" lon="6.12281">
        <ele>-27.2602539</ele>
        <time>2012-05-05T12:33:33Z</time>
      </trkpt>
      <trkpt lat="49.07892" lon="6.12248">
        <ele>-28.2215576</ele>
        <time>2012-05-05T12:33:36Z</time>
      </trkpt>
      <trkpt lat="49.07885" lon="6.12228">
        <ele>-27.7409668</ele>
        <time>2012-05-05T12:33:38Z</time>
      </trkpt>
      <trkpt lat="49.07871" lon="6.12227">
        <ele>-26.2989502</ele>
        <time>2012-05-05T12:33:40Z</time>
      </trkpt>
      <trkpt lat="49.07841" lon="6.12217">
        <ele>-24.3763428</ele>
        <time>2012-05-05T12:33:45Z</time>
      </trkpt>
      <trkpt lat="49.07837" lon="6.12208">
        <ele>-23.8956299</ele>
        <time>2012-05-05T12:33:46Z</time>
      </trkpt>
      <trkpt lat="49.07804" lon="6.12135">
        <ele>-23.414917</ele>
        <time>2012-05-05T12:33:54Z</time>
      </trkpt>
      <trkpt lat="49.07782" lon="6.12061">
        <ele>-24.3763428</ele>
        <time>2012-05-05T12:34:01Z</time>
      </trkpt>
      <trkpt lat="49.07754" lon="6.11974">
        <ele>-25.8183594</ele>
        <time>2012-05-05T12:34:09Z</time>
      </trkpt>
      <trkpt lat="49.0772" lon="6.11903">
        <ele>-25.3376465</ele>
        <time>2012-05-05T12:34:16Z</time>
      </trkpt>
      <trkpt lat="49.07682" lon="6.11837">
        <ele>-24.3763428</ele>
        <time>2012-05-05T12:34:23Z</time>
      </trkpt>
      <trkpt lat="49.07632" lon="6.11752">
        <ele>-22.9342041</ele>
        <time>2012-05-05T12:34:33Z</time>
      </trkpt>
      <trkpt lat="49.07611" lon="6.11722">
        <ele>-21.4923096</ele>
        <time>2012-05-05T12:34:37Z</time>
      </trkpt>
      <trkpt lat="49.07568" lon="6.1166">
        <ele>-17.6470947</ele>
        <time>2012-05-05T12:34:46Z</time>
      </trkpt>
      <trkpt lat="49.07527" lon="6.11607">
        <ele>-14.7630615</ele>
        <time>2012-05-05T12:34:55Z</time>
      </trkpt>
      <trkpt lat="49.07519" lon="6.11594">
        <ele>-13.3210449</ele>
        <time>2012-05-05T12:34:57Z</time>
      </trkpt>
      <trkpt lat="49.07481" lon="6.11532">
        <ele>-11.8791504</ele>
        <time>2012-05-05T12:35:06Z</time>
      </trkpt>
      <trkpt lat="49.07455" lon="6.11487">
        <ele>-9.956543</ele>
        <time>2012-05-05T12:35:12Z</time>
      </trkpt>
      <trkpt lat="49.07451" lon="6.1148">
        <ele>-11.3984375</ele>
        <time>2012-05-05T12:35:13Z</time>
      </trkpt>
      <trkpt lat="49.07398" lon="6.11402">
        <ele>-10.4372559</ele>
        <time>2012-05-05T12:35:24Z</time>
      </trkpt>
      <trkpt lat="49.07335" lon="6.11319">
        <ele>-8.5146484</ele>
        <time>2012-05-05T12:35:36Z</time>
      </trkpt>
      <trkpt lat="49.07296" lon="6.11276">
        <ele>-8.0339355</ele>
        <time>2012-05-05T12:35:43Z</time>
      </trkpt>
      <trkpt lat="49.07264" lon="6.11268">
        <ele>-7.0725098</ele>
        <time>2012-05-05T12:35:48Z</time>
      </trkpt>
      <trkpt lat="49.07246" lon="6.11274">
        <ele>-6.5919189</ele>
        <time>2012-05-05T12:35:51Z</time>
      </trkpt>
      <trkpt lat="49.07229" lon="6.11267">
        <ele>-5.1499023</ele>
        <time>2012-05-05T12:35:54Z</time>
      </trkpt>
      <trkpt lat="49.07224" lon="6.11241">
        <ele>-4.1885986</ele>
        <time>2012-05-05T12:35:57Z</time>
      </trkpt>
      <trkpt lat="49.07227" lon="6.11221">
        <ele>-4.6693115</ele>
        <time>2012-05-05T12:35:59Z</time>
      </trkpt>
      <trkpt lat="49.07246" lon="6.11124">
        <ele>-4.6693115</ele>
        <time>2012-05-05T12:36:08Z</time>
      </trkpt>
      <trkpt lat="49.07263" lon="6.11051">
        <ele>-6.5919189</ele>
        <time>2012-05-05T12:36:14Z</time>
      </trkpt>
      <trkpt lat="49.07275" lon="6.11012">
        <ele>-8.9952393</ele>
        <time>2012-05-05T12:36:17Z</time>
      </trkpt>
      <trkpt lat="49.07296" lon="6.10964">
        <ele>-12.3598633</ele>
        <time>2012-05-05T12:36:21Z</time>
      </trkpt>
      <trkpt lat="49.07306" lon="6.10944">
        <ele>-13.3210449</ele>
        <time>2012-05-05T12:36:23Z</time>
      </trkpt>
      <trkpt lat="49.07336" lon="6.10906">
        <ele>-14.2824707</ele>
        <time>2012-05-05T12:36:28Z</time>
      </trkpt>
      <trkpt lat="49.07347" lon="6.10872">
        <ele>-13.8017578</ele>
        <time>2012-05-05T12:36:31Z</time>
      </trkpt>
      <trkpt lat="49.07353" lon="6.10862">
        <ele>-14.2824707</ele>
        <time>2012-05-05T12:36:32Z</time>
      </trkpt>
      <trkpt lat="49.0739" lon="6.10813">
        <ele>-17.6470947</ele>
        <time>2012-05-05T12:36:37Z</time>
      </trkpt>
      <trkpt lat="49.07398" lon="6.10803">
        <ele>-17.6470947</ele>
        <time>2012-05-05T12:36:38Z</time>
      </trkpt>
      <trkpt lat="49.07466" lon="6.10726">
        <ele>-18.6083984</ele>
        <time>2012-05-05T12:36:46Z</time>
      </trkpt>
      <trkpt lat="49.07501" lon="6.10687">
        <ele>-19.5697021</ele>
        <time>2012-05-05T12:36:51Z</time>
      </trkpt>
      <trkpt lat="49.07513" lon="6.10667">
        <ele>-19.0889893</ele>
        <time>2012-05-05T12:36:55Z</time>
      </trkpt>
      <trkpt lat="49.07519" lon="6.10657">
        <ele>-18.6083984</ele>
        <time>2012-05-05T12:36:59Z</time>
      </trkpt>
      <trkpt lat="49.07529" lon="6.10648">
        <ele>-18.1278076</ele>
        <time>2012-05-05T12:37:05Z</time>
      </trkpt>
      <trkpt lat="49.07532" lon="6.10648">
        <ele>-18.1278076</ele>
        <time>2012-05-05T12:37:06Z</time>
      </trkpt>
      <trkpt lat="49.07546" lon="6.1065">
        <ele>-17.6470947</ele>
        <time>2012-05-05T12:37:09Z</time>
      </trkpt>
      <trkpt lat="49.07568" lon="6.10633">
        <ele>-15.7243652</ele>
        <time>2012-05-05T12:37:13Z</time>
      </trkpt>
      <trkpt lat="49.07595" lon="6.10603">
        <ele>-15.2436523</ele>
        <time>2012-05-05T12:37:18Z</time>
      </trkpt>
      <trkpt lat="49.07632" lon="6.10586">
        <ele>-14.7630615</ele>
        <time>2012-05-05T12:37:23Z</time>
      </trkpt>
      <trkpt lat="49.07692" lon="6.10538">
        <ele>-13.3210449</ele>
        <time>2012-05-05T12:37:32Z</time>
      </trkpt>
      <trkpt lat="49.07718" lon="6.10517">
        <ele>-13.8017578</ele>
        <time>2012-05-05T12:37:36Z</time>
      </trkpt>
      <trkpt lat="49.07744" lon="6.10477">
        <ele>-12.3598633</ele>
        <time>2012-05-05T12:37:41Z</time>
      </trkpt>
      <trkpt lat="49.07755" lon="6.10434">
        <ele>-11.8791504</ele>
        <time>2012-05-05T12:37:45Z</time>
      </trkpt>
      <trkpt lat="49.07757" lon="6.10412">
        <ele>-12.3598633</ele>
        <time>2012-05-05T12:37:47Z</time>
      </trkpt>
      <trkpt lat="49.07752" lon="6.10347">
        <ele>-11.8791504</ele>
        <time>2012-05-05T12:37:53Z</time>
      </trkpt>
      <trkpt lat="49.07754" lon="6.10273">
        <ele>-10.9178467</ele>
        <time>2012-05-05T12:38:00Z</time>
      </trkpt>
      <trkpt lat="49.07759" lon="6.1023">
        <ele>-10.9178467</ele>
        <time>2012-05-05T12:38:05Z</time>
      </trkpt>
      <trkpt lat="49.07767" lon="6.10206">
        <ele>-9.956543</ele>
        <time>2012-05-05T12:38:10Z</time>
      </trkpt>
      <trkpt lat="49.07778" lon="6.10201">
        <ele>-9.956543</ele>
        <time>2012-05-05T12:38:14Z</time>
      </trkpt>
      <trkpt lat="49.07788" lon="6.10197">
        <ele>-10.4372559</ele>
        <time>2012-05-05T12:38:16Z</time>
      </trkpt>
      <trkpt lat="49.07813" lon="6.10169">
        <ele>-9.956543</ele>
        <time>2012-05-05T12:38:21Z</time>
      </trkpt>
      <trkpt lat="49.0782" lon="6.10139">
        <ele>-9.956543</ele>
        <time>2012-05-05T12:38:24Z</time>
      </trkpt>
      <trkpt lat="49.07816" lon="6.10105">
        <ele>-8.5146484</ele>
        <time>2012-05-05T12:38:27Z</time>
      </trkpt>
      <trkpt lat="49.07803" lon="6.10077">
        <ele>-8.5146484</ele>
        <time>2012-05-05T12:38:30Z</time>
      </trkpt>
      <trkpt lat="49.07782" lon="6.10063">
        <ele>-8.5146484</ele>
        <time>2012-05-05T12:38:33Z</time>
      </trkpt>
      <trkpt lat="49.07755" lon="6.10063">
        <ele>-8.5146484</ele>
        <time>2012-05-05T12:38:37Z</time>
      </trkpt>
      <trkpt lat="49.07741" lon="6.10064">
        <ele>-5.1499023</ele>
        <time>2012-05-05T12:38:39Z</time>
      </trkpt>
      <trkpt lat="49.07734" lon="6.1006">
        <ele>-5.1499023</ele>
        <time>2012-05-05T12:38:40Z</time>
      </trkpt>
      <trkpt lat="49.07724" lon="6.10047">
        <ele>-5.1499023</ele>
        <time>2012-05-05T12:38:42Z</time>
      </trkpt>
      <trkpt lat="49.07676" lon="6.09966">
        <ele>-4.6693115</ele>
        <time>2012-05-05T12:38:52Z</time>
      </trkpt>
      <trkpt lat="49.07632" lon="6.09893">
        <ele>-3.2272949</ele>
        <time>2012-05-05T12:39:01Z</time>
      </trkpt>
      <trkpt lat="49.07597" lon="6.09836">
        <ele>-2.7467041</ele>
        <time>2012-05-05T12:39:08Z</time>
      </trkpt>
      <trkpt lat="49.07583" lon="6.09812">
        <ele>-2.7467041</ele>
        <time>2012-05-05T12:39:11Z</time>
      </trkpt>
      <trkpt lat="49.07569" lon="6.0979">
        <ele>-2.2659912</ele>
        <time>2012-05-05T12:39:14Z</time>
      </trkpt>
      <trkpt lat="49.07564" lon="6.09783">
        <ele>-1.7852783</ele>
        <time>2012-05-05T12:39:15Z</time>
      </trkpt>
      <trkpt lat="49.07559" lon="6.09775">
        <ele>-1.3046875</ele>
        <time>2012-05-05T12:39:16Z</time>
      </trkpt>
      <trkpt lat="49.07551" lon="6.0976">
        <ele>-1.7852783</ele>
        <time>2012-05-05T12:39:18Z</time>
      </trkpt>
      <trkpt lat="49.07546" lon="6.09752">
        <ele>-1.3046875</ele>
        <time>2012-05-05T12:39:19Z</time>
      </trkpt>
      <trkpt lat="49.07542" lon="6.09745">
        <ele>-1.7852783</ele>
        <time>2012-05-05T12:39:20Z</time>
      </trkpt>
      <trkpt lat="49.07532" lon="6.09729">
        <ele>-1.3046875</ele>
        <time>2012-05-05T12:39:22Z</time>
      </trkpt>
      <trkpt lat="49.07528" lon="6.09721">
        <ele>-1.7852783</ele>
        <time>2012-05-05T12:39:23Z</time>
      </trkpt>
      <trkpt lat="49.07504" lon="6.09682">
        <ele>-1.3046875</ele>
        <time>2012-05-05T12:39:28Z</time>
      </trkpt>
      <trkpt lat="49.07467" lon="6.09623">
        <ele>-1.3046875</ele>
        <time>2012-05-05T12:39:36Z</time>
      </trkpt>
      <trkpt lat="49.07457" lon="6.09601">
        <ele>-0.8240967</ele>
        <time>2012-05-05T12:39:39Z</time>
      </trkpt>
      <trkpt lat="49.07431" lon="6.09559">
        <ele>-0.8240967</ele>
        <time>2012-05-05T12:39:45Z</time>
      </trkpt>
      <trkpt lat="49.07417" lon="6.09536">
        <ele>0.1374512</ele>
        <time>2012-05-05T12:39:48Z</time>
      </trkpt>
      <trkpt lat="49.07356" lon="6.09434">
        <ele>0.618042</ele>
        <time>2012-05-05T12:40:01Z</time>
      </trkpt>
      <trkpt lat="49.07313" lon="6.09353">
        <ele>2.5406494</ele>
        <time>2012-05-05T12:40:11Z</time>
      </trkpt>
      <trkpt lat="49.07258" lon="6.09223">
        <ele>2.5406494</ele>
        <time>2012-05-05T12:40:26Z</time>
      </trkpt>
      <trkpt lat="49.07219" lon="6.09127">
        <ele>3.5019531</ele>
        <time>2012-05-05T12:40:37Z</time>
      </trkpt>
      <trkpt lat="49.07183" lon="6.09038">
        <ele>4.9438477</ele>
        <time>2012-05-05T12:40:47Z</time>
      </trkpt>
      <trkpt lat="49.07164" lon="6.08993">
        <ele>5.4245605</ele>
        <time>2012-05-05T12:40:52Z</time>
      </trkpt>
      <trkpt lat="49.07158" lon="6.08964">
        <ele>5.9052734</ele>
        <time>2012-05-05T12:40:55Z</time>
      </trkpt>
      <trkpt lat="49.07141" lon="6.08931">
        <ele>6.3858643</ele>
        <time>2012-05-05T12:40:59Z</time>
      </trkpt>
      <trkpt lat="49.07137" lon="6.08923">
        <ele>6.3858643</ele>
        <time>2012-05-05T12:41:00Z</time>
      </trkpt>
      <trkpt lat="49.07101" lon="6.08832">
        <ele>8.7891846</ele>
        <time>2012-05-05T12:41:10Z</time>
      </trkpt>
      <trkpt lat="49.07054" lon="6.0871">
        <ele>9.7506104</ele>
        <time>2012-05-05T12:41:23Z</time>
      </trkpt>
      <trkpt lat="49.07022" lon="6.08628">
        <ele>11.1925049</ele>
        <time>2012-05-05T12:41:32Z</time>
      </trkpt>
      <trkpt lat="49.06988" lon="6.08552">
        <ele>12.1538086</ele>
        <time>2012-05-05T12:41:41Z</time>
      </trkpt>
      <trkpt lat="49.06968" lon="6.08513">
        <ele>13.5958252</ele>
        <time>2012-05-05T12:41:46Z</time>
      </trkpt>
      <trkpt lat="49.06936" lon="6.08449">
        <ele>15.0377197</ele>
        <time>2012-05-05T12:41:54Z</time>
      </trkpt>
      <trkpt lat="49.06902" lon="6.08377">
        <ele>18.4023438</ele>
        <time>2012-05-05T12:42:03Z</time>
      </trkpt>
      <trkpt lat="49.06899" lon="6.08369">
        <ele>18.8830566</ele>
        <time>2012-05-05T12:42:04Z</time>
      </trkpt>
      <trkpt lat="49.06897" lon="6.08332">
        <ele>19.3637695</ele>
        <time>2012-05-05T12:42:08Z</time>
      </trkpt>
      <trkpt lat="49.06904" lon="6.08315">
        <ele>18.4023438</ele>
        <time>2012-05-05T12:42:10Z</time>
      </trkpt>
      <trkpt lat="49.06946" lon="6.08246">
        <ele>20.8056641</ele>
        <time>2012-05-05T12:42:19Z</time>
      </trkpt>
      <trkpt lat="49.06966" lon="6.08212">
        <ele>18.4023438</ele>
        <time>2012-05-05T12:42:23Z</time>
      </trkpt>
      <trkpt lat="49.06977" lon="6.08193">
        <ele>19.8443604</ele>
        <time>2012-05-05T12:42:25Z</time>
      </trkpt>
      <trkpt lat="49.07004" lon="6.08147">
        <ele>21.286377</ele>
        <time>2012-05-05T12:42:30Z</time>
      </trkpt>
      <trkpt lat="49.07066" lon="6.08041">
        <ele>21.286377</ele>
        <time>2012-05-05T12:42:42Z</time>
      </trkpt>
      <trkpt lat="49.07127" lon="6.0794">
        <ele>22.7282715</ele>
        <time>2012-05-05T12:42:54Z</time>
      </trkpt>
      <trkpt lat="49.07164" lon="6.07896">
        <ele>25.6123047</ele>
        <time>2012-05-05T12:43:01Z</time>
      </trkpt>
      <trkpt lat="49.07221" lon="6.07839">
        <ele>27.0543213</ele>
        <time>2012-05-05T12:43:11Z</time>
      </trkpt>
      <trkpt lat="49.07262" lon="6.07809">
        <ele>25.1317139</ele>
        <time>2012-05-05T12:43:17Z</time>
      </trkpt>
      <trkpt lat="49.07325" lon="6.07775">
        <ele>25.6123047</ele>
        <time>2012-05-05T12:43:25Z</time>
      </trkpt>
      <trkpt lat="49.07363" lon="6.0775">
        <ele>27.5349121</ele>
        <time>2012-05-05T12:43:31Z</time>
      </trkpt>
      <trkpt lat="49.07401" lon="6.07707">
        <ele>28.9769287</ele>
        <time>2012-05-05T12:43:38Z</time>
      </trkpt>
      <trkpt lat="49.0743" lon="6.07654">
        <ele>28.0155029</ele>
        <time>2012-05-05T12:43:44Z</time>
      </trkpt>
      <trkpt lat="49.07446" lon="6.0761">
        <ele>26.5736084</ele>
        <time>2012-05-05T12:43:48Z</time>
      </trkpt>
      <trkpt lat="49.07469" lon="6.07573">
        <ele>24.651001</ele>
        <time>2012-05-05T12:43:52Z</time>
      </trkpt>
      <trkpt lat="49.07491" lon="6.07567">
        <ele>25.1317139</ele>
        <time>2012-05-05T12:43:55Z</time>
      </trkpt>
      <trkpt lat="49.07502" lon="6.07567">
        <ele>25.1317139</ele>
        <time>2012-05-05T12:43:57Z</time>
      </trkpt>
      <trkpt lat="49.07516" lon="6.07571">
        <ele>25.6123047</ele>
        <time>2012-05-05T12:44:00Z</time>
      </trkpt>
      <trkpt lat="49.07538" lon="6.07567">
        <ele>26.0928955</ele>
        <time>2012-05-05T12:44:04Z</time>
      </trkpt>
      <trkpt lat="49.07538" lon="6.07542">
        <ele>27.0543213</ele>
        <time>2012-05-05T12:44:07Z</time>
      </trkpt>
      <trkpt lat="49.07525" lon="6.07529">
        <ele>26.5736084</ele>
        <time>2012-05-05T12:44:09Z</time>
      </trkpt>
      <trkpt lat="49.07519" lon="6.07522">
        <ele>26.5736084</ele>
        <time>2012-05-05T12:44:10Z</time>
      </trkpt>
      <trkpt lat="49.07508" lon="6.07505">
        <ele>26.5736084</ele>
        <time>2012-05-05T12:44:12Z</time>
      </trkpt>
      <trkpt lat="49.07458" lon="6.07452">
        <ele>26.5736084</ele>
        <time>2012-05-05T12:44:20Z</time>
      </trkpt>
      <trkpt lat="49.07445" lon="6.0744">
        <ele>27.5349121</ele>
        <time>2012-05-05T12:44:22Z</time>
      </trkpt>
      <trkpt lat="49.0741" lon="6.07415">
        <ele>27.5349121</ele>
        <time>2012-05-05T12:44:27Z</time>
      </trkpt>
      <trkpt lat="49.07358" lon="6.07401">
        <ele>27.5349121</ele>
        <time>2012-05-05T12:44:34Z</time>
      </trkpt>
      <trkpt lat="49.07286" lon="6.07394">
        <ele>28.4962158</ele>
        <time>2012-05-05T12:44:44Z</time>
      </trkpt>
      <trkpt lat="49.07237" lon="6.07389">
        <ele>28.9769287</ele>
        <time>2012-05-05T12:44:51Z</time>
      </trkpt>
      <trkpt lat="49.07188" lon="6.07378">
        <ele>29.4575195</ele>
        <time>2012-05-05T12:44:58Z</time>
      </trkpt>
      <trkpt lat="49.0714" lon="6.07352">
        <ele>29.9381104</ele>
        <time>2012-05-05T12:45:05Z</time>
      </trkpt>
      <trkpt lat="49.07081" lon="6.0732">
        <ele>30.8995361</ele>
        <time>2012-05-05T12:45:14Z</time>
      </trkpt>
      <trkpt lat="49.07029" lon="6.0729">
        <ele>31.380127</ele>
        <time>2012-05-05T12:45:22Z</time>
      </trkpt>
      <trkpt lat="49.06974" lon="6.07251">
        <ele>31.8607178</ele>
        <time>2012-05-05T12:45:31Z</time>
      </trkpt>
      <trkpt lat="49.06921" lon="6.07212">
        <ele>32.3415527</ele>
        <time>2012-05-05T12:45:40Z</time>
      </trkpt>
      <trkpt lat="49.06855" lon="6.07163">
        <ele>33.3028564</ele>
        <time>2012-05-05T12:45:51Z</time>
      </trkpt>
      <trkpt lat="49.06778" lon="6.07105">
        <ele>34.744873</ele>
        <time>2012-05-05T12:46:04Z</time>
      </trkpt>
      <trkpt lat="49.06767" lon="6.07096">
        <ele>34.744873</ele>
        <time>2012-05-05T12:46:06Z</time>
      </trkpt>
      <trkpt lat="49.06706" lon="6.07047">
        <ele>35.2254639</ele>
        <time>2012-05-05T12:46:16Z</time>
      </trkpt>
      <trkpt lat="49.0664" lon="6.06992">
        <ele>36.1867676</ele>
        <time>2012-05-05T12:46:27Z</time>
      </trkpt>
      <trkpt lat="49.06558" lon="6.06923">
        <ele>37.6286621</ele>
        <time>2012-05-05T12:46:41Z</time>
      </trkpt>
      <trkpt lat="49.06487" lon="6.06865">
        <ele>38.5900879</ele>
        <time>2012-05-05T12:46:53Z</time>
      </trkpt>
      <trkpt lat="49.06412" lon="6.06803">
        <ele>39.0706787</ele>
        <time>2012-05-05T12:47:06Z</time>
      </trkpt>
      <trkpt lat="49.06347" lon="6.0675">
        <ele>40.5128174</ele>
        <time>2012-05-05T12:47:17Z</time>
      </trkpt>
      <trkpt lat="49.06263" lon="6.06682">
        <ele>41.473999</ele>
        <time>2012-05-05T12:47:31Z</time>
      </trkpt>
      <trkpt lat="49.06229" lon="6.06657">
        <ele>41.473999</ele>
        <time>2012-05-05T12:47:36Z</time>
      </trkpt>
      <trkpt lat="49.06198" lon="6.06626">
        <ele>41.9547119</ele>
        <time>2012-05-05T12:47:41Z</time>
      </trkpt>
      <trkpt lat="49.0613" lon="6.0656">
        <ele>42.4354248</ele>
        <time>2012-05-05T12:47:52Z</time>
      </trkpt>
      <trkpt lat="49.06079" lon="6.06507">
        <ele>42.4354248</ele>
        <time>2012-05-05T12:48:01Z</time>
      </trkpt>
      <trkpt lat="49.06031" lon="6.06462">
        <ele>43.8773193</ele>
        <time>2012-05-05T12:48:09Z</time>
      </trkpt>
      <trkpt lat="49.05989" lon="6.06423">
        <ele>44.838623</ele>
        <time>2012-05-05T12:48:16Z</time>
      </trkpt>
      <trkpt lat="49.05928" lon="6.06368">
        <ele>44.838623</ele>
        <time>2012-05-05T12:48:26Z</time>
      </trkpt>
      <trkpt lat="49.0589" lon="6.06335">
        <ele>45.7999268</ele>
        <time>2012-05-05T12:48:32Z</time>
      </trkpt>
      <trkpt lat="49.0583" lon="6.06276">
        <ele>47.2418213</ele>
        <time>2012-05-05T12:48:42Z</time>
      </trkpt>
      <trkpt lat="49.05787" lon="6.06242">
        <ele>47.7225342</ele>
        <time>2012-05-05T12:48:49Z</time>
      </trkpt>
      <trkpt lat="49.05749" lon="6.06214">
        <ele>47.7225342</ele>
        <time>2012-05-05T12:48:55Z</time>
      </trkpt>
      <trkpt lat="49.05729" lon="6.06185">
        <ele>47.7225342</ele>
        <time>2012-05-05T12:48:59Z</time>
      </trkpt>
      <trkpt lat="49.05722" lon="6.06167">
        <ele>48.2033691</ele>
        <time>2012-05-05T12:49:01Z</time>
      </trkpt>
      <trkpt lat="49.05715" lon="6.06118">
        <ele>48.2033691</ele>
        <time>2012-05-05T12:49:06Z</time>
      </trkpt>
      <trkpt lat="49.05718" lon="6.06098">
        <ele>48.2033691</ele>
        <time>2012-05-05T12:49:08Z</time>
      </trkpt>
      <trkpt lat="49.05722" lon="6.06078">
        <ele>48.2033691</ele>
        <time>2012-05-05T12:49:10Z</time>
      </trkpt>
      <trkpt lat="49.05726" lon="6.06058">
        <ele>48.2033691</ele>
        <time>2012-05-05T12:49:12Z</time>
      </trkpt>
      <trkpt lat="49.0574" lon="6.06">
        <ele>48.68396</ele>
        <time>2012-05-05T12:49:18Z</time>
      </trkpt>
      <trkpt lat="49.05748" lon="6.05971">
        <ele>49.6452637</ele>
        <time>2012-05-05T12:49:21Z</time>
      </trkpt>
      <trkpt lat="49.05765" lon="6.0592">
        <ele>51.5678711</ele>
        <time>2012-05-05T12:49:27Z</time>
      </trkpt>
      <trkpt lat="49.05784" lon="6.05856">
        <ele>51.5678711</ele>
        <time>2012-05-05T12:49:35Z</time>
      </trkpt>
      <trkpt lat="49.05792" lon="6.05834">
        <ele>52.5291748</ele>
        <time>2012-05-05T12:49:38Z</time>
      </trkpt>
      <trkpt lat="49.05795" lon="6.05806">
        <ele>53.4904785</ele>
        <time>2012-05-05T12:49:42Z</time>
      </trkpt>
      <trkpt lat="49.05784" lon="6.05801">
        <ele>54.932373</ele>
        <time>2012-05-05T12:49:44Z</time>
      </trkpt>
      <trkpt lat="49.05756" lon="6.05788">
        <ele>54.4517822</ele>
        <time>2012-05-05T12:49:49Z</time>
      </trkpt>
      <trkpt lat="49.05708" lon="6.05764">
        <ele>55.4130859</ele>
        <time>2012-05-05T12:49:58Z</time>
      </trkpt>
      <trkpt lat="49.05688" lon="6.05751">
        <ele>55.8937988</ele>
        <time>2012-05-05T12:50:02Z</time>
      </trkpt>
      <trkpt lat="49.05663" lon="6.05725">
        <ele>58.2971191</ele>
        <time>2012-05-05T12:50:09Z</time>
      </trkpt>
      <trkpt lat="49.05646" lon="6.05707">
        <ele>59.7391357</ele>
        <time>2012-05-05T12:50:14Z</time>
      </trkpt>
      <trkpt lat="49.05611" lon="6.05692">
        <ele>59.2584229</ele>
        <time>2012-05-05T12:50:22Z</time>
      </trkpt>
      <trkpt lat="49.0559" lon="6.05689">
        <ele>60.7003174</ele>
        <time>2012-05-05T12:50:26Z</time>
      </trkpt>
      <trkpt lat="49.05568" lon="6.05683">
        <ele>60.7003174</ele>
        <time>2012-05-05T12:50:30Z</time>
      </trkpt>
      <trkpt lat="49.05532" lon="6.05658">
        <ele>60.7003174</ele>
        <time>2012-05-05T12:50:38Z</time>
      </trkpt>
      <trkpt lat="49.05528" lon="6.05656">
        <ele>61.1810303</ele>
        <time>2012-05-05T12:50:39Z</time>
      </trkpt>
      <trkpt lat="49.0551" lon="6.05634">
        <ele>61.6617432</ele>
        <time>2012-05-05T12:50:44Z</time>
      </trkpt>
      <trkpt lat="49.05506" lon="6.0563">
        <ele>61.6617432</ele>
        <time>2012-05-05T12:50:45Z</time>
      </trkpt>
      <trkpt lat="49.05484" lon="6.05606">
        <ele>64.5456543</ele>
        <time>2012-05-05T12:50:51Z</time>
      </trkpt>
      <trkpt lat="49.05468" lon="6.0558">
        <ele>66.4682617</ele>
        <time>2012-05-05T12:50:57Z</time>
      </trkpt>
      <trkpt lat="49.05472" lon="6.05564">
        <ele>67.9102783</ele>
        <time>2012-05-05T12:51:01Z</time>
      </trkpt>
      <trkpt lat="49.05487" lon="6.05535">
        <ele>70.3134766</ele>
        <time>2012-05-05T12:51:11Z</time>
      </trkpt>
      <trkpt lat="49.05493" lon="6.05514">
        <ele>72.2362061</ele>
        <time>2012-05-05T12:51:18Z</time>
      </trkpt>
      <trkpt lat="49.05497" lon="6.05499">
        <ele>74.6395264</ele>
        <time>2012-05-05T12:51:23Z</time>
      </trkpt>
      <trkpt lat="49.055" lon="6.05491">
        <ele>76.0814209</ele>
        <time>2012-05-05T12:51:26Z</time>
      </trkpt>
      <trkpt lat="49.05503" lon="6.05476">
        <ele>78.0040283</ele>
        <time>2012-05-05T12:51:31Z</time>
      </trkpt>
      <trkpt lat="49.05509" lon="6.05454">
        <ele>80.4074707</ele>
        <time>2012-05-05T12:51:39Z</time>
      </trkpt>
      <trkpt lat="49.05514" lon="6.05428">
        <ele>83.2913818</ele>
        <time>2012-05-05T12:51:49Z</time>
      </trkpt>
      <trkpt lat="49.05521" lon="6.05406">
        <ele>86.175293</ele>
        <time>2012-05-05T12:51:58Z</time>
      </trkpt>
      <trkpt lat="49.05521" lon="6.05404">
        <ele>86.175293</ele>
        <time>2012-05-05T12:51:59Z</time>
      </trkpt>
      <trkpt lat="49.05531" lon="6.05388">
        <ele>89.539917</ele>
        <time>2012-05-05T12:52:07Z</time>
      </trkpt>
      <trkpt lat="49.05542" lon="6.05372">
        <ele>91.4625244</ele>
        <time>2012-05-05T12:52:17Z</time>
      </trkpt>
      <trkpt lat="49.0555" lon="6.05362">
        <ele>94.8271484</ele>
        <time>2012-05-05T12:52:24Z</time>
      </trkpt>
      <trkpt lat="49.05559" lon="6.05351">
        <ele>96.2692871</ele>
        <time>2012-05-05T12:52:31Z</time>
      </trkpt>
      <trkpt lat="49.05569" lon="6.05343">
        <ele>98.1918945</ele>
        <time>2012-05-05T12:52:38Z</time>
      </trkpt>
      <trkpt lat="49.05573" lon="6.05338">
        <ele>100.114502</ele>
        <time>2012-05-05T12:52:41Z</time>
      </trkpt>
      <trkpt lat="49.05581" lon="6.05328">
        <ele>102.5177002</ele>
        <time>2012-05-05T12:52:48Z</time>
      </trkpt>
      <trkpt lat="49.05588" lon="6.05322">
        <ele>103.9597168</ele>
        <time>2012-05-05T12:52:53Z</time>
      </trkpt>
      <trkpt lat="49.05598" lon="6.05316">
        <ele>105.8824463</ele>
        <time>2012-05-05T12:53:00Z</time>
      </trkpt>
      <trkpt lat="49.05613" lon="6.05303">
        <ele>107.8050537</ele>
        <time>2012-05-05T12:53:08Z</time>
      </trkpt>
      <trkpt lat="49.05628" lon="6.05292">
        <ele>109.7276611</ele>
        <time>2012-05-05T12:53:16Z</time>
      </trkpt>
      <trkpt lat="49.05637" lon="6.05285">
        <ele>111.1695557</ele>
        <time>2012-05-05T12:53:22Z</time>
      </trkpt>
      <trkpt lat="49.0565" lon="6.05277">
        <ele>113.0922852</ele>
        <time>2012-05-05T12:53:29Z</time>
      </trkpt>
      <trkpt lat="49.05668" lon="6.05265">
        <ele>115.4956055</ele>
        <time>2012-05-05T12:53:38Z</time>
      </trkpt>
      <trkpt lat="49.05681" lon="6.05253">
        <ele>117.4182129</ele>
        <time>2012-05-05T12:53:45Z</time>
      </trkpt>
      <trkpt lat="49.05695" lon="6.05238">
        <ele>119.3408203</ele>
        <time>2012-05-05T12:53:52Z</time>
      </trkpt>
      <trkpt lat="49.05701" lon="6.05224">
        <ele>120.302124</ele>
        <time>2012-05-05T12:53:57Z</time>
      </trkpt>
      <trkpt lat="49.05706" lon="6.05204">
        <ele>122.2247314</ele>
        <time>2012-05-05T12:54:03Z</time>
      </trkpt>
      <trkpt lat="49.05706" lon="6.05186">
        <ele>123.666748</ele>
        <time>2012-05-05T12:54:08Z</time>
      </trkpt>
      <trkpt lat="49.05703" lon="6.0516">
        <ele>124.6280518</ele>
        <time>2012-05-05T12:54:15Z</time>
      </trkpt>
      <trkpt lat="49.05703" lon="6.05153">
        <ele>125.1087646</ele>
        <time>2012-05-05T12:54:17Z</time>
      </trkpt>
      <trkpt lat="49.05698" lon="6.05116">
        <ele>127.5119629</ele>
        <time>2012-05-05T12:54:26Z</time>
      </trkpt>
      <trkpt lat="49.05695" lon="6.05076">
        <ele>130.876709</ele>
        <time>2012-05-05T12:54:35Z</time>
      </trkpt>
      <trkpt lat="49.05695" lon="6.05048">
        <ele>131.8378906</ele>
        <time>2012-05-05T12:54:41Z</time>
      </trkpt>
      <trkpt lat="49.05701" lon="6.05013">
        <ele>132.7993164</ele>
        <time>2012-05-05T12:54:48Z</time>
      </trkpt>
      <trkpt lat="49.05712" lon="6.04958">
        <ele>134.2412109</ele>
        <time>2012-05-05T12:54:58Z</time>
      </trkpt>
      <trkpt lat="49.05713" lon="6.04913">
        <ele>135.2025146</ele>
        <time>2012-05-05T12:55:06Z</time>
      </trkpt>
      <trkpt lat="49.05708" lon="6.04868">
        <ele>137.605835</ele>
        <time>2012-05-05T12:55:14Z</time>
      </trkpt>
      <trkpt lat="49.05701" lon="6.04824">
        <ele>139.0478516</ele>
        <time>2012-05-05T12:55:23Z</time>
      </trkpt>
      <trkpt lat="49.05696" lon="6.0478">
        <ele>140.970459</ele>
        <time>2012-05-05T12:55:32Z</time>
      </trkpt>
      <trkpt lat="49.05689" lon="6.04737">
        <ele>142.8930664</ele>
        <time>2012-05-05T12:55:41Z</time>
      </trkpt>
      <trkpt lat="49.05684" lon="6.04699">
        <ele>144.8157959</ele>
        <time>2012-05-05T12:55:49Z</time>
      </trkpt>
      <trkpt lat="49.05678" lon="6.04664">
        <ele>147.2189941</ele>
        <time>2012-05-05T12:55:57Z</time>
      </trkpt>
      <trkpt lat="49.05673" lon="6.04632">
        <ele>149.6223145</ele>
        <time>2012-05-05T12:56:05Z</time>
      </trkpt>
      <trkpt lat="49.05668" lon="6.04599">
        <ele>151.064209</ele>
        <time>2012-05-05T12:56:13Z</time>
      </trkpt>
      <trkpt lat="49.05663" lon="6.04571">
        <ele>152.9869385</ele>
        <time>2012-05-05T12:56:21Z</time>
      </trkpt>
      <trkpt lat="49.05657" lon="6.04548">
        <ele>155.3902588</ele>
        <time>2012-05-05T12:56:28Z</time>
      </trkpt>
      <trkpt lat="49.05653" lon="6.04524">
        <ele>157.3128662</ele>
        <time>2012-05-05T12:56:36Z</time>
      </trkpt>
      <trkpt lat="49.05647" lon="6.04506">
        <ele>159.7161865</ele>
        <time>2012-05-05T12:56:43Z</time>
      </trkpt>
      <trkpt lat="49.05637" lon="6.04481">
        <ele>162.6000977</ele>
        <time>2012-05-05T12:56:52Z</time>
      </trkpt>
      <trkpt lat="49.05631" lon="6.04462">
        <ele>164.0421143</ele>
        <time>2012-05-05T12:56:58Z</time>
      </trkpt>
      <trkpt lat="49.0563" lon="6.04454">
        <ele>165.003418</ele>
        <time>2012-05-05T12:57:01Z</time>
      </trkpt>
      <trkpt lat="49.05631" lon="6.04434">
        <ele>166.9260254</ele>
        <time>2012-05-05T12:57:08Z</time>
      </trkpt>
      <trkpt lat="49.05635" lon="6.04421">
        <ele>167.8873291</ele>
        <time>2012-05-05T12:57:14Z</time>
      </trkpt>
      <trkpt lat="49.05636" lon="6.04413">
        <ele>168.8487549</ele>
        <time>2012-05-05T12:57:17Z</time>
      </trkpt>
      <trkpt lat="49.05636" lon="6.04393">
        <ele>171.2520752</ele>
        <time>2012-05-05T12:57:24Z</time>
      </trkpt>
      <trkpt lat="49.05636" lon="6.04375">
        <ele>174.1358643</ele>
        <time>2012-05-05T12:57:31Z</time>
      </trkpt>
      <trkpt lat="49.05635" lon="6.04372">
        <ele>174.1358643</ele>
        <time>2012-05-05T12:57:32Z</time>
      </trkpt>
      <trkpt lat="49.05632" lon="6.0436">
        <ele>175.5778809</ele>
        <time>2012-05-05T12:57:38Z</time>
      </trkpt>
      <trkpt lat="49.0562" lon="6.04349">
        <ele>176.5393066</ele>
        <time>2012-05-05T12:57:45Z</time>
      </trkpt>
      <trkpt lat="49.05606" lon="6.04343">
        <ele>178.942627</ele>
        <time>2012-05-05T12:57:52Z</time>
      </trkpt>
      <trkpt lat="49.05602" lon="6.0434">
        <ele>180.3845215</ele>
        <time>2012-05-05T12:57:55Z</time>
      </trkpt>
      <trkpt lat="49.05598" lon="6.04338">
        <ele>182.3071289</ele>
        <time>2012-05-05T12:57:58Z</time>
      </trkpt>
      <trkpt lat="49.05593" lon="6.04336">
        <ele>182.7878418</ele>
        <time>2012-05-05T12:58:01Z</time>
      </trkpt>
      <trkpt lat="49.05592" lon="6.04334">
        <ele>182.7878418</ele>
        <time>2012-05-05T12:58:02Z</time>
      </trkpt>
      <trkpt lat="49.05586" lon="6.04324">
        <ele>184.7105713</ele>
        <time>2012-05-05T12:58:07Z</time>
      </trkpt>
      <trkpt lat="49.05587" lon="6.04318">
        <ele>185.1911621</ele>
        <time>2012-05-05T12:58:10Z</time>
      </trkpt>
      <trkpt lat="49.05601" lon="6.04312">
        <ele>186.6331787</ele>
        <time>2012-05-05T12:58:17Z</time>
      </trkpt>
      <trkpt lat="49.05614" lon="6.04316">
        <ele>189.036377</ele>
        <time>2012-05-05T12:58:23Z</time>
      </trkpt>
      <trkpt lat="49.0563" lon="6.04321">
        <ele>189.9976807</ele>
        <time>2012-05-05T12:58:31Z</time>
      </trkpt>
      <trkpt lat="49.05642" lon="6.04321">
        <ele>190.9589844</ele>
        <time>2012-05-05T12:58:37Z</time>
      </trkpt>
      <trkpt lat="49.05648" lon="6.04319">
        <ele>190.9589844</ele>
        <time>2012-05-05T12:58:39Z</time>
      </trkpt>
      <trkpt lat="49.05646" lon="6.04305">
        <ele>192.8817139</ele>
        <time>2012-05-05T12:58:45Z</time>
      </trkpt>
      <trkpt lat="49.05645" lon="6.04304">
        <ele>193.8430176</ele>
        <time>2012-05-05T12:58:46Z</time>
      </trkpt>
      <trkpt lat="49.05626" lon="6.04297">
        <ele>196.7269287</ele>
        <time>2012-05-05T12:58:56Z</time>
      </trkpt>
      <trkpt lat="49.05614" lon="6.04291">
        <ele>198.6495361</ele>
        <time>2012-05-05T12:59:03Z</time>
      </trkpt>
      <trkpt lat="49.05597" lon="6.04283">
        <ele>200.5722656</ele>
        <time>2012-05-05T12:59:11Z</time>
      </trkpt>
      <trkpt lat="49.05586" lon="6.04279">
        <ele>201.5335693</ele>
        <time>2012-05-05T12:59:17Z</time>
      </trkpt>
      <trkpt lat="49.05571" lon="6.04272">
        <ele>202.9754639</ele>
        <time>2012-05-05T12:59:25Z</time>
      </trkpt>
      <trkpt lat="49.0556" lon="6.04267">
        <ele>204.8980713</ele>
        <time>2012-05-05T12:59:31Z</time>
      </trkpt>
      <trkpt lat="49.05551" lon="6.04263">
        <ele>205.8594971</ele>
        <time>2012-05-05T12:59:36Z</time>
      </trkpt>
      <trkpt lat="49.05541" lon="6.04258">
        <ele>206.8206787</ele>
        <time>2012-05-05T12:59:42Z</time>
      </trkpt>
      <trkpt lat="49.05532" lon="6.04251">
        <ele>208.2628174</ele>
        <time>2012-05-05T12:59:49Z</time>
      </trkpt>
      <trkpt lat="49.05527" lon="6.04248">
        <ele>209.704834</ele>
        <time>2012-05-05T12:59:53Z</time>
      </trkpt>
      <trkpt lat="49.05521" lon="6.04243">
        <ele>210.6660156</ele>
        <time>2012-05-05T12:59:58Z</time>
      </trkpt>
      <trkpt lat="49.05508" lon="6.04234">
        <ele>212.1080322</ele>
        <time>2012-05-05T13:00:05Z</time>
      </trkpt>
      <trkpt lat="49.05496" lon="6.04228">
        <ele>213.0693359</ele>
        <time>2012-05-05T13:00:11Z</time>
      </trkpt>
      <trkpt lat="49.05487" lon="6.04224">
        <ele>214.0306396</ele>
        <time>2012-05-05T13:00:16Z</time>
      </trkpt>
      <trkpt lat="49.05476" lon="6.04216">
        <ele>215.9532471</ele>
        <time>2012-05-05T13:00:23Z</time>
      </trkpt>
      <trkpt lat="49.05462" lon="6.04205">
        <ele>219.3179932</ele>
        <time>2012-05-05T13:00:31Z</time>
      </trkpt>
      <trkpt lat="49.05447" lon="6.04195">
        <ele>221.2406006</ele>
        <time>2012-05-05T13:00:39Z</time>
      </trkpt>
      <trkpt lat="49.05436" lon="6.04188">
        <ele>222.6824951</ele>
        <time>2012-05-05T13:00:45Z</time>
      </trkpt>
      <trkpt lat="49.05426" lon="6.04178">
        <ele>224.1245117</ele>
        <time>2012-05-05T13:00:51Z</time>
      </trkpt>
      <trkpt lat="49.05425" lon="6.04177">
        <ele>224.6052246</ele>
        <time>2012-05-05T13:00:52Z</time>
      </trkpt>
      <trkpt lat="49.05414" lon="6.04167">
        <ele>227.4891357</ele>
        <time>2012-05-05T13:00:59Z</time>
      </trkpt>
      <trkpt lat="49.05403" lon="6.04158">
        <ele>229.4117432</ele>
        <time>2012-05-05T13:01:06Z</time>
      </trkpt>
      <trkpt lat="49.05391" lon="6.04149">
        <ele>230.8537598</ele>
        <time>2012-05-05T13:01:13Z</time>
      </trkpt>
      <trkpt lat="49.05378" lon="6.04139">
        <ele>232.7764893</ele>
        <time>2012-05-05T13:01:20Z</time>
      </trkpt>
      <trkpt lat="49.05374" lon="6.04134">
        <ele>233.7376709</ele>
        <time>2012-05-05T13:01:23Z</time>
      </trkpt>
      <trkpt lat="49.05365" lon="6.0412">
        <ele>236.1409912</ele>
        <time>2012-05-05T13:01:31Z</time>
      </trkpt>
      <trkpt lat="49.05363" lon="6.04112">
        <ele>237.1022949</ele>
        <time>2012-05-05T13:01:34Z</time>
      </trkpt>
      <trkpt lat="49.05356" lon="6.04091">
        <ele>239.0249023</ele>
        <time>2012-05-05T13:01:41Z</time>
      </trkpt>
      <trkpt lat="49.0535" lon="6.0407">
        <ele>241.4282227</ele>
        <time>2012-05-05T13:01:48Z</time>
      </trkpt>
      <trkpt lat="49.0535" lon="6.04064">
        <ele>242.3896484</ele>
        <time>2012-05-05T13:01:50Z</time>
      </trkpt>
      <trkpt lat="49.05349" lon="6.04043">
        <ele>243.831543</ele>
        <time>2012-05-05T13:01:57Z</time>
      </trkpt>
      <trkpt lat="49.05351" lon="6.04031">
        <ele>245.7541504</ele>
        <time>2012-05-05T13:02:02Z</time>
      </trkpt>
      <trkpt lat="49.05352" lon="6.04012">
        <ele>247.1960449</ele>
        <time>2012-05-05T13:02:09Z</time>
      </trkpt>
      <trkpt lat="49.05354" lon="6.03989">
        <ele>247.6767578</ele>
        <time>2012-05-05T13:02:17Z</time>
      </trkpt>
      <trkpt lat="49.05353" lon="6.0397">
        <ele>248.6381836</ele>
        <time>2012-05-05T13:02:23Z</time>
      </trkpt>
      <trkpt lat="49.05354" lon="6.03946">
        <ele>250.0802002</ele>
        <time>2012-05-05T13:02:30Z</time>
      </trkpt>
      <trkpt lat="49.05355" lon="6.03936">
        <ele>251.5220947</ele>
        <time>2012-05-05T13:02:33Z</time>
      </trkpt>
      <trkpt lat="49.05356" lon="6.03924">
        <ele>252.9639893</ele>
        <time>2012-05-05T13:02:37Z</time>
      </trkpt>
      <trkpt lat="49.0536" lon="6.03893">
        <ele>253.4447021</ele>
        <time>2012-05-05T13:02:46Z</time>
      </trkpt>
      <trkpt lat="49.05366" lon="6.03865">
        <ele>255.3673096</ele>
        <time>2012-05-05T13:02:53Z</time>
      </trkpt>
      <trkpt lat="49.0537" lon="6.0382">
        <ele>256.3287354</ele>
        <time>2012-05-05T13:03:02Z</time>
      </trkpt>
      <trkpt lat="49.05376" lon="6.03782">
        <ele>257.2900391</ele>
        <time>2012-05-05T13:03:10Z</time>
      </trkpt>
      <trkpt lat="49.0538" lon="6.03749">
        <ele>258.2513428</ele>
        <time>2012-05-05T13:03:16Z</time>
      </trkpt>
      <trkpt lat="49.05381" lon="6.03731">
        <ele>258.2513428</ele>
        <time>2012-05-05T13:03:19Z</time>
      </trkpt>
      <trkpt lat="49.05383" lon="6.03698">
        <ele>258.7319336</ele>
        <time>2012-05-05T13:03:24Z</time>
      </trkpt>
      <trkpt lat="49.05384" lon="6.03677">
        <ele>258.7319336</ele>
        <time>2012-05-05T13:03:27Z</time>
      </trkpt>
      <trkpt lat="49.0539" lon="6.03642">
        <ele>258.7319336</ele>
        <time>2012-05-05T13:03:32Z</time>
      </trkpt>
      <trkpt lat="49.05393" lon="6.03627">
        <ele>258.7319336</ele>
        <time>2012-05-05T13:03:34Z</time>
      </trkpt>
      <trkpt lat="49.05408" lon="6.03582">
        <ele>259.2126465</ele>
        <time>2012-05-05T13:03:40Z</time>
      </trkpt>
      <trkpt lat="49.05421" lon="6.03529">
        <ele>257.2900391</ele>
        <time>2012-05-05T13:03:46Z</time>
      </trkpt>
      <trkpt lat="49.05444" lon="6.03489">
        <ele>256.3287354</ele>
        <time>2012-05-05T13:03:51Z</time>
      </trkpt>
      <trkpt lat="49.0545" lon="6.03483">
        <ele>256.3287354</ele>
        <time>2012-05-05T13:03:52Z</time>
      </trkpt>
      <trkpt lat="49.05483" lon="6.0346">
        <ele>253.925415</ele>
        <time>2012-05-05T13:03:57Z</time>
      </trkpt>
      <trkpt lat="49.05506" lon="6.03444">
        <ele>252.4833984</ele>
        <time>2012-05-05T13:04:01Z</time>
      </trkpt>
      <trkpt lat="49.05523" lon="6.03404">
        <ele>249.5994873</ele>
        <time>2012-05-05T13:04:06Z</time>
      </trkpt>
      <trkpt lat="49.05523" lon="6.03383">
        <ele>247.6767578</ele>
        <time>2012-05-05T13:04:08Z</time>
      </trkpt>
      <trkpt lat="49.0552" lon="6.03363">
        <ele>247.1960449</ele>
        <time>2012-05-05T13:04:10Z</time>
      </trkpt>
      <trkpt lat="49.0551" lon="6.03322">
        <ele>243.3508301</ele>
        <time>2012-05-05T13:04:14Z</time>
      </trkpt>
      <trkpt lat="49.05491" lon="6.03259">
        <ele>239.5054932</ele>
        <time>2012-05-05T13:04:19Z</time>
      </trkpt>
      <trkpt lat="49.0548" lon="6.03221">
        <ele>234.6990967</ele>
        <time>2012-05-05T13:04:22Z</time>
      </trkpt>
      <trkpt lat="49.05467" lon="6.03143">
        <ele>229.4117432</ele>
        <time>2012-05-05T13:04:27Z</time>
      </trkpt>
      <trkpt lat="49.05458" lon="6.03087">
        <ele>225.0859375</ele>
        <time>2012-05-05T13:04:30Z</time>
      </trkpt>
      <trkpt lat="49.05454" lon="6.03069">
        <ele>224.1245117</ele>
        <time>2012-05-05T13:04:31Z</time>
      </trkpt>
      <trkpt lat="49.05425" lon="6.02993">
        <ele>218.3565674</ele>
        <time>2012-05-05T13:04:35Z</time>
      </trkpt>
      <trkpt lat="49.05405" lon="6.02936">
        <ele>214.0306396</ele>
        <time>2012-05-05T13:04:38Z</time>
      </trkpt>
      <trkpt lat="49.05392" lon="6.02899">
        <ele>213.0693359</ele>
        <time>2012-05-05T13:04:40Z</time>
      </trkpt>
      <trkpt lat="49.05374" lon="6.02846">
        <ele>211.1467285</ele>
        <time>2012-05-05T13:04:43Z</time>
      </trkpt>
      <trkpt lat="49.05339" lon="6.02748">
        <ele>207.7821045</ele>
        <time>2012-05-05T13:04:49Z</time>
      </trkpt>
      <trkpt lat="49.05312" lon="6.02673">
        <ele>205.3787842</ele>
        <time>2012-05-05T13:04:54Z</time>
      </trkpt>
      <trkpt lat="49.05285" lon="6.02603">
        <ele>203.9368896</ele>
        <time>2012-05-05T13:04:59Z</time>
      </trkpt>
      <trkpt lat="49.05273" lon="6.02561">
        <ele>202.0142822</ele>
        <time>2012-05-05T13:05:02Z</time>
      </trkpt>
      <trkpt lat="49.0527" lon="6.025">
        <ele>196.7269287</ele>
        <time>2012-05-05T13:05:06Z</time>
      </trkpt>
      <trkpt lat="49.05272" lon="6.02484">
        <ele>196.7269287</ele>
        <time>2012-05-05T13:05:07Z</time>
      </trkpt>
      <trkpt lat="49.05285" lon="6.02389">
        <ele>192.401123</ele>
        <time>2012-05-05T13:05:13Z</time>
      </trkpt>
      <trkpt lat="49.0529" lon="6.02359">
        <ele>191.4395752</ele>
        <time>2012-05-05T13:05:15Z</time>
      </trkpt>
      <trkpt lat="49.05295" lon="6.02329">
        <ele>188.0750732</ele>
        <time>2012-05-05T13:05:17Z</time>
      </trkpt>
      <trkpt lat="49.05306" lon="6.02267">
        <ele>184.7105713</ele>
        <time>2012-05-05T13:05:21Z</time>
      </trkpt>
      <trkpt lat="49.05314" lon="6.02221">
        <ele>180.3845215</ele>
        <time>2012-05-05T13:05:24Z</time>
      </trkpt>
      <trkpt lat="49.05327" lon="6.0216">
        <ele>177.0200195</ele>
        <time>2012-05-05T13:05:28Z</time>
      </trkpt>
      <trkpt lat="49.05334" lon="6.02091">
        <ele>173.6552734</ele>
        <time>2012-05-05T13:05:32Z</time>
      </trkpt>
      <trkpt lat="49.05336" lon="6.02038">
        <ele>169.8100586</ele>
        <time>2012-05-05T13:05:35Z</time>
      </trkpt>
      <trkpt lat="49.05337" lon="6.02021">
        <ele>169.8100586</ele>
        <time>2012-05-05T13:05:36Z</time>
      </trkpt>
      <trkpt lat="49.05335" lon="6.01964">
        <ele>165.9647217</ele>
        <time>2012-05-05T13:05:40Z</time>
      </trkpt>
      <trkpt lat="49.05334" lon="6.0195">
        <ele>165.4841309</ele>
        <time>2012-05-05T13:05:41Z</time>
      </trkpt>
      <trkpt lat="49.0534" lon="6.0189">
        <ele>161.638916</ele>
        <time>2012-05-05T13:05:45Z</time>
      </trkpt>
      <trkpt lat="49.05359" lon="6.01795">
        <ele>157.7935791</ele>
        <time>2012-05-05T13:05:51Z</time>
      </trkpt>
      <trkpt lat="49.05381" lon="6.01682">
        <ele>153.9483643</ele>
        <time>2012-05-05T13:05:58Z</time>
      </trkpt>
      <trkpt lat="49.05393" lon="6.01622">
        <ele>150.5836182</ele>
        <time>2012-05-05T13:06:02Z</time>
      </trkpt>
      <trkpt lat="49.05396" lon="6.01609">
        <ele>150.1030273</ele>
        <time>2012-05-05T13:06:03Z</time>
      </trkpt>
      <trkpt lat="49.05399" lon="6.01597">
        <ele>149.6223145</ele>
        <time>2012-05-05T13:06:04Z</time>
      </trkpt>
      <trkpt lat="49.05421" lon="6.01539">
        <ele>146.2578125</ele>
        <time>2012-05-05T13:06:09Z</time>
      </trkpt>
      <trkpt lat="49.05438" lon="6.01505">
        <ele>142.4124756</ele>
        <time>2012-05-05T13:06:12Z</time>
      </trkpt>
      <trkpt lat="49.0545" lon="6.01444">
        <ele>140.0091553</ele>
        <time>2012-05-05T13:06:16Z</time>
      </trkpt>
      <trkpt lat="49.05452" lon="6.01394">
        <ele>137.605835</ele>
        <time>2012-05-05T13:06:19Z</time>
      </trkpt>
      <trkpt lat="49.05453" lon="6.01377">
        <ele>136.6446533</ele>
        <time>2012-05-05T13:06:20Z</time>
      </trkpt>
      <trkpt lat="49.05464" lon="6.0133">
        <ele>135.2025146</ele>
        <time>2012-05-05T13:06:23Z</time>
      </trkpt>
      <trkpt lat="49.05487" lon="6.01257">
        <ele>133.2799072</ele>
        <time>2012-05-05T13:06:28Z</time>
      </trkpt>
      <trkpt lat="49.05493" lon="6.01214">
        <ele>133.760498</ele>
        <time>2012-05-05T13:06:31Z</time>
      </trkpt>
      <trkpt lat="49.05486" lon="6.01167">
        <ele>133.2799072</ele>
        <time>2012-05-05T13:06:35Z</time>
      </trkpt>
      <trkpt lat="49.0547" lon="6.01141">
        <ele>133.760498</ele>
        <time>2012-05-05T13:06:38Z</time>
      </trkpt>
      <trkpt lat="49.05436" lon="6.01092">
        <ele>134.7219238</ele>
        <time>2012-05-05T13:06:44Z</time>
      </trkpt>
      <trkpt lat="49.05413" lon="6.01052">
        <ele>136.1639404</ele>
        <time>2012-05-05T13:06:50Z</time>
      </trkpt>
      <trkpt lat="49.05399" lon="6.01019">
        <ele>138.5672607</ele>
        <time>2012-05-05T13:06:56Z</time>
      </trkpt>
      <trkpt lat="49.05392" lon="6.00989">
        <ele>140.4898682</ele>
        <time>2012-05-05T13:07:02Z</time>
      </trkpt>
      <trkpt lat="49.05388" lon="6.00969">
        <ele>142.4124756</ele>
        <time>2012-05-05T13:07:07Z</time>
      </trkpt>
      <trkpt lat="49.05387" lon="6.00945">
        <ele>144.8157959</ele>
        <time>2012-05-05T13:07:13Z</time>
      </trkpt>
      <trkpt lat="49.05387" lon="6.00937">
        <ele>145.7770996</ele>
        <time>2012-05-05T13:07:15Z</time>
      </trkpt>
      <trkpt lat="49.05387" lon="6.00906">
        <ele>148.6610107</ele>
        <time>2012-05-05T13:07:23Z</time>
      </trkpt>
      <trkpt lat="49.05387" lon="6.00902">
        <ele>148.6610107</ele>
        <time>2012-05-05T13:07:24Z</time>
      </trkpt>
      <trkpt lat="49.05388" lon="6.00865">
        <ele>151.5449219</ele>
        <time>2012-05-05T13:07:33Z</time>
      </trkpt>
      <trkpt lat="49.05391" lon="6.00831">
        <ele>154.4289551</ele>
        <time>2012-05-05T13:07:41Z</time>
      </trkpt>
      <trkpt lat="49.05388" lon="6.00796">
        <ele>155.3902588</ele>
        <time>2012-05-05T13:07:49Z</time>
      </trkpt>
      <trkpt lat="49.05382" lon="6.00763">
        <ele>157.7935791</ele>
        <time>2012-05-05T13:07:56Z</time>
      </trkpt>
      <trkpt lat="49.05381" lon="6.00757">
        <ele>157.7935791</ele>
        <time>2012-05-05T13:07:57Z</time>
      </trkpt>
      <trkpt lat="49.05372" lon="6.00712">
        <ele>157.7935791</ele>
        <time>2012-05-05T13:08:05Z</time>
      </trkpt>
      <trkpt lat="49.05364" lon="6.00671">
        <ele>157.3128662</ele>
        <time>2012-05-05T13:08:11Z</time>
      </trkpt>
      <trkpt lat="49.05355" lon="6.00618">
        <ele>155.8709717</ele>
        <time>2012-05-05T13:08:17Z</time>
      </trkpt>
      <trkpt lat="49.0534" lon="6.0054">
        <ele>154.9095459</ele>
        <time>2012-05-05T13:08:25Z</time>
      </trkpt>
      <trkpt lat="49.05329" lon="6.00472">
        <ele>153.9483643</ele>
        <time>2012-05-05T13:08:32Z</time>
      </trkpt>
      <trkpt lat="49.05322" lon="6.00421">
        <ele>151.5449219</ele>
        <time>2012-05-05T13:08:38Z</time>
      </trkpt>
      <trkpt lat="49.05321" lon="6.00407">
        <ele>150.5836182</ele>
        <time>2012-05-05T13:08:43Z</time>
      </trkpt>
      <trkpt lat="49.05317" lon="6.00389">
        <ele>150.5836182</ele>
        <time>2012-05-05T13:08:48Z</time>
      </trkpt>
      <trkpt lat="49.05311" lon="6.00357">
        <ele>150.1030273</ele>
        <time>2012-05-05T13:08:52Z</time>
      </trkpt>
      <trkpt lat="49.053" lon="6.0029">
        <ele>149.1416016</ele>
        <time>2012-05-05T13:08:59Z</time>
      </trkpt>
      <trkpt lat="49.05296" lon="6.00232">
        <ele>147.2189941</ele>
        <time>2012-05-05T13:09:05Z</time>
      </trkpt>
      <trkpt lat="49.05295" lon="6.00224">
        <ele>147.699707</ele>
        <time>2012-05-05T13:09:06Z</time>
      </trkpt>
      <trkpt lat="49.05295" lon="6.00175">
        <ele>144.8157959</ele>
        <time>2012-05-05T13:09:12Z</time>
      </trkpt>
      <trkpt lat="49.05297" lon="6.00157">
        <ele>144.8157959</ele>
        <time>2012-05-05T13:09:14Z</time>
      </trkpt>
      <trkpt lat="49.05305" lon="6.00121">
        <ele>144.8157959</ele>
        <time>2012-05-05T13:09:18Z</time>
      </trkpt>
      <trkpt lat="49.05327" lon="6.00071">
        <ele>144.3352051</ele>
        <time>2012-05-05T13:09:25Z</time>
      </trkpt>
      <trkpt lat="49.05349" lon="6.00017">
        <ele>144.3352051</ele>
        <time>2012-05-05T13:09:32Z</time>
      </trkpt>
      <trkpt lat="49.05365" lon="5.99961">
        <ele>144.3352051</ele>
        <time>2012-05-05T13:09:39Z</time>
      </trkpt>
      <trkpt lat="49.05378" lon="5.99916">
        <ele>143.8543701</ele>
        <time>2012-05-05T13:09:46Z</time>
      </trkpt>
      <trkpt lat="49.05393" lon="5.99894">
        <ele>144.8157959</ele>
        <time>2012-05-05T13:09:53Z</time>
      </trkpt>
      <trkpt lat="49.05407" lon="5.99874">
        <ele>145.2963867</ele>
        <time>2012-05-05T13:09:59Z</time>
      </trkpt>
      <trkpt lat="49.05406" lon="5.99858">
        <ele>145.2963867</ele>
        <time>2012-05-05T13:10:03Z</time>
      </trkpt>
      <trkpt lat="49.05407" lon="5.9985">
        <ele>146.2578125</ele>
        <time>2012-05-05T13:10:06Z</time>
      </trkpt>
      <trkpt lat="49.05406" lon="5.99847">
        <ele>146.7384033</ele>
        <time>2012-05-05T13:10:16Z</time>
      </trkpt>
      <trkpt lat="49.05408" lon="5.99829">
        <ele>147.699707</ele>
        <time>2012-05-05T13:10:22Z</time>
      </trkpt>
      <trkpt lat="49.05408" lon="5.99805">
        <ele>149.6223145</ele>
        <time>2012-05-05T13:10:29Z</time>
      </trkpt>
      <trkpt lat="49.0541" lon="5.99774">
        <ele>150.5836182</ele>
        <time>2012-05-05T13:10:36Z</time>
      </trkpt>
      <trkpt lat="49.0541" lon="5.99761">
        <ele>152.5063477</ele>
        <time>2012-05-05T13:10:39Z</time>
      </trkpt>
      <trkpt lat="49.0541" lon="5.99724">
        <ele>154.4289551</ele>
        <time>2012-05-05T13:10:48Z</time>
      </trkpt>
      <trkpt lat="49.05412" lon="5.9969">
        <ele>156.8321533</ele>
        <time>2012-05-05T13:10:56Z</time>
      </trkpt>
      <trkpt lat="49.05411" lon="5.99655">
        <ele>159.2354736</ele>
        <time>2012-05-05T13:11:05Z</time>
      </trkpt>
      <trkpt lat="49.05414" lon="5.99622">
        <ele>160.6774902</ele>
        <time>2012-05-05T13:11:14Z</time>
      </trkpt>
      <trkpt lat="49.05417" lon="5.99606">
        <ele>162.1195068</ele>
        <time>2012-05-05T13:11:18Z</time>
      </trkpt>
      <trkpt lat="49.05428" lon="5.99581">
        <ele>163.5615234</ele>
        <time>2012-05-05T13:11:26Z</time>
      </trkpt>
      <trkpt lat="49.05432" lon="5.99571">
        <ele>165.003418</ele>
        <time>2012-05-05T13:11:29Z</time>
      </trkpt>
      <trkpt lat="49.05452" lon="5.99541">
        <ele>166.9260254</ele>
        <time>2012-05-05T13:11:39Z</time>
      </trkpt>
      <trkpt lat="49.05468" lon="5.99512">
        <ele>168.8487549</ele>
        <time>2012-05-05T13:11:49Z</time>
      </trkpt>
      <trkpt lat="49.05482" lon="5.99494">
        <ele>170.7713623</ele>
        <time>2012-05-05T13:11:56Z</time>
      </trkpt>
      <trkpt lat="49.05496" lon="5.9947">
        <ele>173.1746826</ele>
        <time>2012-05-05T13:12:04Z</time>
      </trkpt>
      <trkpt lat="49.0552" lon="5.99436">
        <ele>175.09729</ele>
        <time>2012-05-05T13:12:16Z</time>
      </trkpt>
      <trkpt lat="49.05539" lon="5.99407">
        <ele>177.9812012</ele>
        <time>2012-05-05T13:12:26Z</time>
      </trkpt>
      <trkpt lat="49.05564" lon="5.99375">
        <ele>179.4232178</ele>
        <time>2012-05-05T13:12:38Z</time>
      </trkpt>
      <trkpt lat="49.05572" lon="5.99364">
        <ele>180.8652344</ele>
        <time>2012-05-05T13:12:42Z</time>
      </trkpt>
      <trkpt lat="49.0559" lon="5.99339">
        <ele>182.3071289</ele>
        <time>2012-05-05T13:12:51Z</time>
      </trkpt>
      <trkpt lat="49.05602" lon="5.99313">
        <ele>184.7105713</ele>
        <time>2012-05-05T13:12:58Z</time>
      </trkpt>
      <trkpt lat="49.05612" lon="5.99286">
        <ele>186.1524658</ele>
        <time>2012-05-05T13:13:04Z</time>
      </trkpt>
      <trkpt lat="49.05616" lon="5.99257">
        <ele>187.5943604</ele>
        <time>2012-05-05T13:13:10Z</time>
      </trkpt>
      <trkpt lat="49.0562" lon="5.99222">
        <ele>189.5169678</ele>
        <time>2012-05-05T13:13:17Z</time>
      </trkpt>
      <trkpt lat="49.05622" lon="5.99186">
        <ele>189.9976807</ele>
        <time>2012-05-05T13:13:24Z</time>
      </trkpt>
      <trkpt lat="49.05626" lon="5.99144">
        <ele>190.9589844</ele>
        <time>2012-05-05T13:13:32Z</time>
      </trkpt>
      <trkpt lat="49.05628" lon="5.99107">
        <ele>191.9202881</ele>
        <time>2012-05-05T13:13:39Z</time>
      </trkpt>
      <trkpt lat="49.0563" lon="5.99071">
        <ele>193.8430176</ele>
        <time>2012-05-05T13:13:46Z</time>
      </trkpt>
      <trkpt lat="49.05633" lon="5.99032">
        <ele>194.8043213</ele>
        <time>2012-05-05T13:13:53Z</time>
      </trkpt>
      <trkpt lat="49.05637" lon="5.98996">
        <ele>197.2075195</ele>
        <time>2012-05-05T13:14:01Z</time>
      </trkpt>
      <trkpt lat="49.05642" lon="5.98958">
        <ele>198.1689453</ele>
        <time>2012-05-05T13:14:09Z</time>
      </trkpt>
      <trkpt lat="49.05643" lon="5.98923">
        <ele>200.0916748</ele>
        <time>2012-05-05T13:14:17Z</time>
      </trkpt>
      <trkpt lat="49.05641" lon="5.98883">
        <ele>201.5335693</ele>
        <time>2012-05-05T13:14:25Z</time>
      </trkpt>
      <trkpt lat="49.05636" lon="5.98839">
        <ele>203.4561768</ele>
        <time>2012-05-05T13:14:34Z</time>
      </trkpt>
      <trkpt lat="49.05631" lon="5.98803">
        <ele>204.8980713</ele>
        <time>2012-05-05T13:14:41Z</time>
      </trkpt>
      <trkpt lat="49.05625" lon="5.9876">
        <ele>205.8594971</ele>
        <time>2012-05-05T13:14:50Z</time>
      </trkpt>
      <trkpt lat="49.05616" lon="5.98738">
        <ele>206.8206787</ele>
        <time>2012-05-05T13:14:55Z</time>
      </trkpt>
      <trkpt lat="49.05602" lon="5.98734">
        <ele>206.8206787</ele>
        <time>2012-05-05T13:14:59Z</time>
      </trkpt>
      <trkpt lat="49.05579" lon="5.98746">
        <ele>207.7821045</ele>
        <time>2012-05-05T13:15:06Z</time>
      </trkpt>
      <trkpt lat="49.05546" lon="5.98761">
        <ele>208.7434082</ele>
        <time>2012-05-05T13:15:16Z</time>
      </trkpt>
      <trkpt lat="49.05524" lon="5.98772">
        <ele>210.1854248</ele>
        <time>2012-05-05T13:15:23Z</time>
      </trkpt>
      <trkpt lat="49.05502" lon="5.98782">
        <ele>212.1080322</ele>
        <time>2012-05-05T13:15:30Z</time>
      </trkpt>
      <trkpt lat="49.05472" lon="5.98793">
        <ele>214.9919434</ele>
        <time>2012-05-05T13:15:40Z</time>
      </trkpt>
      <trkpt lat="49.05459" lon="5.98784">
        <ele>216.43396</ele>
        <time>2012-05-05T13:15:45Z</time>
      </trkpt>
      <trkpt lat="49.05452" lon="5.98756">
        <ele>217.3953857</ele>
        <time>2012-05-05T13:15:51Z</time>
      </trkpt>
      <trkpt lat="49.05442" lon="5.98704">
        <ele>218.3565674</ele>
        <time>2012-05-05T13:16:00Z</time>
      </trkpt>
      <trkpt lat="49.05431" lon="5.98652">
        <ele>218.3565674</ele>
        <time>2012-05-05T13:16:09Z</time>
      </trkpt>
      <trkpt lat="49.0542" lon="5.98594">
        <ele>219.798584</ele>
        <time>2012-05-05T13:16:19Z</time>
      </trkpt>
      <trkpt lat="49.05409" lon="5.98541">
        <ele>220.2791748</ele>
        <time>2012-05-05T13:16:28Z</time>
      </trkpt>
      <trkpt lat="49.05397" lon="5.98487">
        <ele>220.7598877</ele>
        <time>2012-05-05T13:16:37Z</time>
      </trkpt>
      <trkpt lat="49.05385" lon="5.9843">
        <ele>222.2017822</ele>
        <time>2012-05-05T13:16:46Z</time>
      </trkpt>
      <trkpt lat="49.05371" lon="5.98369">
        <ele>222.2017822</ele>
        <time>2012-05-05T13:16:56Z</time>
      </trkpt>
      <trkpt lat="49.05358" lon="5.98305">
        <ele>223.163208</ele>
        <time>2012-05-05T13:17:07Z</time>
      </trkpt>
      <trkpt lat="49.05347" lon="5.98254">
        <ele>224.6052246</ele>
        <time>2012-05-05T13:17:16Z</time>
      </trkpt>
      <trkpt lat="49.05334" lon="5.98193">
        <ele>226.527832</ele>
        <time>2012-05-05T13:17:27Z</time>
      </trkpt>
      <trkpt lat="49.05322" lon="5.98136">
        <ele>227.0085449</ele>
        <time>2012-05-05T13:17:37Z</time>
      </trkpt>
      <trkpt lat="49.05309" lon="5.98078">
        <ele>229.4117432</ele>
        <time>2012-05-05T13:17:47Z</time>
      </trkpt>
      <trkpt lat="49.05295" lon="5.98011">
        <ele>230.3730469</ele>
        <time>2012-05-05T13:17:59Z</time>
      </trkpt>
      <trkpt lat="49.05284" lon="5.97956">
        <ele>230.8537598</ele>
        <time>2012-05-05T13:18:09Z</time>
      </trkpt>
      <trkpt lat="49.05272" lon="5.97903">
        <ele>232.2957764</ele>
        <time>2012-05-05T13:18:19Z</time>
      </trkpt>
      <trkpt lat="49.05258" lon="5.97857">
        <ele>233.2570801</ele>
        <time>2012-05-05T13:18:28Z</time>
      </trkpt>
      <trkpt lat="49.05242" lon="5.97803">
        <ele>235.1796875</ele>
        <time>2012-05-05T13:18:39Z</time>
      </trkpt>
      <trkpt lat="49.0523" lon="5.97767">
        <ele>236.6217041</ele>
        <time>2012-05-05T13:18:47Z</time>
      </trkpt>
      <trkpt lat="49.05224" lon="5.9775">
        <ele>238.5443115</ele>
        <time>2012-05-05T13:18:51Z</time>
      </trkpt>
      <trkpt lat="49.05209" lon="5.97713">
        <ele>239.0249023</ele>
        <time>2012-05-05T13:19:00Z</time>
      </trkpt>
      <trkpt lat="49.05196" lon="5.97674">
        <ele>239.9862061</ele>
        <time>2012-05-05T13:19:09Z</time>
      </trkpt>
      <trkpt lat="49.05185" lon="5.9764">
        <ele>242.3896484</ele>
        <time>2012-05-05T13:19:17Z</time>
      </trkpt>
      <trkpt lat="49.05174" lon="5.97605">
        <ele>243.831543</ele>
        <time>2012-05-05T13:19:25Z</time>
      </trkpt>
      <trkpt lat="49.05171" lon="5.97597">
        <ele>244.7928467</ele>
        <time>2012-05-05T13:19:27Z</time>
      </trkpt>
      <trkpt lat="49.05161" lon="5.97569">
        <ele>245.7541504</ele>
        <time>2012-05-05T13:19:34Z</time>
      </trkpt>
      <trkpt lat="49.05148" lon="5.97532">
        <ele>247.1960449</ele>
        <time>2012-05-05T13:19:43Z</time>
      </trkpt>
      <trkpt lat="49.05137" lon="5.97512">
        <ele>249.1187744</ele>
        <time>2012-05-05T13:19:49Z</time>
      </trkpt>
      <trkpt lat="49.05128" lon="5.97496">
        <ele>250.560791</ele>
        <time>2012-05-05T13:19:55Z</time>
      </trkpt>
      <trkpt lat="49.05117" lon="5.97478">
        <ele>252.9639893</ele>
        <time>2012-05-05T13:20:02Z</time>
      </trkpt>
      <trkpt lat="49.0511" lon="5.97464">
        <ele>253.925415</ele>
        <time>2012-05-05T13:20:07Z</time>
      </trkpt>
      <trkpt lat="49.05103" lon="5.9745">
        <ele>255.3673096</ele>
        <time>2012-05-05T13:20:13Z</time>
      </trkpt>
      <trkpt lat="49.05093" lon="5.97435">
        <ele>256.8093262</ele>
        <time>2012-05-05T13:20:19Z</time>
      </trkpt>
      <trkpt lat="49.05082" lon="5.9742">
        <ele>258.2513428</ele>
        <time>2012-05-05T13:20:25Z</time>
      </trkpt>
      <trkpt lat="49.05074" lon="5.97408">
        <ele>259.6933594</ele>
        <time>2012-05-05T13:20:30Z</time>
      </trkpt>
      <trkpt lat="49.05065" lon="5.97393">
        <ele>260.654541</ele>
        <time>2012-05-05T13:20:36Z</time>
      </trkpt>
      <trkpt lat="49.05055" lon="5.97378">
        <ele>262.5771484</ele>
        <time>2012-05-05T13:20:42Z</time>
      </trkpt>
      <trkpt lat="49.0504" lon="5.97358">
        <ele>263.5385742</ele>
        <time>2012-05-05T13:20:49Z</time>
      </trkpt>
      <trkpt lat="49.0503" lon="5.97342">
        <ele>264.0192871</ele>
        <time>2012-05-05T13:20:54Z</time>
      </trkpt>
      <trkpt lat="49.05011" lon="5.9731">
        <ele>264.9805908</ele>
        <time>2012-05-05T13:21:03Z</time>
      </trkpt>
      <trkpt lat="49.04989" lon="5.97274">
        <ele>265.9418945</ele>
        <time>2012-05-05T13:21:13Z</time>
      </trkpt>
      <trkpt lat="49.04963" lon="5.97243">
        <ele>268.3450928</ele>
        <time>2012-05-05T13:21:23Z</time>
      </trkpt>
      <trkpt lat="49.04939" lon="5.97219">
        <ele>270.2677002</ele>
        <time>2012-05-05T13:21:32Z</time>
      </trkpt>
      <trkpt lat="49.04926" lon="5.97203">
        <ele>271.7097168</ele>
        <time>2012-05-05T13:21:37Z</time>
      </trkpt>
      <trkpt lat="49.049" lon="5.97172">
        <ele>273.6324463</ele>
        <time>2012-05-05T13:21:47Z</time>
      </trkpt>
      <trkpt lat="49.04877" lon="5.97145">
        <ele>275.5550537</ele>
        <time>2012-05-05T13:21:56Z</time>
      </trkpt>
      <trkpt lat="49.04852" lon="5.97121">
        <ele>276.9970703</ele>
        <time>2012-05-05T13:22:05Z</time>
      </trkpt>
      <trkpt lat="49.04829" lon="5.97103">
        <ele>278.4389648</ele>
        <time>2012-05-05T13:22:13Z</time>
      </trkpt>
      <trkpt lat="49.04803" lon="5.97082">
        <ele>280.3616943</ele>
        <time>2012-05-05T13:22:22Z</time>
      </trkpt>
      <trkpt lat="49.0478" lon="5.97062">
        <ele>281.322998</ele>
        <time>2012-05-05T13:22:30Z</time>
      </trkpt>
      <trkpt lat="49.04756" lon="5.97035">
        <ele>281.8035889</ele>
        <time>2012-05-05T13:22:38Z</time>
      </trkpt>
      <trkpt lat="49.04736" lon="5.96999">
        <ele>281.8035889</ele>
        <time>2012-05-05T13:22:45Z</time>
      </trkpt>
      <trkpt lat="49.04715" lon="5.96961">
        <ele>281.8035889</ele>
        <time>2012-05-05T13:22:51Z</time>
      </trkpt>
      <trkpt lat="49.04695" lon="5.96913">
        <ele>281.322998</ele>
        <time>2012-05-05T13:22:57Z</time>
      </trkpt>
      <trkpt lat="49.04666" lon="5.96833">
        <ele>280.8424072</ele>
        <time>2012-05-05T13:23:06Z</time>
      </trkpt>
      <trkpt lat="49.04661" lon="5.96826">
        <ele>281.8035889</ele>
        <time>2012-05-05T13:23:07Z</time>
      </trkpt>
      <trkpt lat="49.04642" lon="5.96806">
        <ele>281.8035889</ele>
        <time>2012-05-05T13:23:11Z</time>
      </trkpt>
      <trkpt lat="49.04625" lon="5.96807">
        <ele>282.2843018</ele>
        <time>2012-05-05T13:23:14Z</time>
      </trkpt>
      <trkpt lat="49.04592" lon="5.96829">
        <ele>283.7261963</ele>
        <time>2012-05-05T13:23:21Z</time>
      </trkpt>
      <trkpt lat="49.04581" lon="5.96836">
        <ele>285.1682129</ele>
        <time>2012-05-05T13:23:24Z</time>
      </trkpt>
      <trkpt lat="49.04557" lon="5.96841">
        <ele>287.0908203</ele>
        <time>2012-05-05T13:23:30Z</time>
      </trkpt>
      <trkpt lat="49.04535" lon="5.96834">
        <ele>288.532959</ele>
        <time>2012-05-05T13:23:36Z</time>
      </trkpt>
      <trkpt lat="49.04513" lon="5.96821">
        <ele>289.4941406</ele>
        <time>2012-05-05T13:23:43Z</time>
      </trkpt>
      <trkpt lat="49.04497" lon="5.96809">
        <ele>290.4555664</ele>
        <time>2012-05-05T13:23:49Z</time>
      </trkpt>
      <trkpt lat="49.04482" lon="5.96796">
        <ele>291.8974609</ele>
        <time>2012-05-05T13:23:55Z</time>
      </trkpt>
      <trkpt lat="49.04476" lon="5.96791">
        <ele>292.8587646</ele>
        <time>2012-05-05T13:23:57Z</time>
      </trkpt>
      <trkpt lat="49.04462" lon="5.96777">
        <ele>293.8200684</ele>
        <time>2012-05-05T13:24:03Z</time>
      </trkpt>
      <trkpt lat="49.04443" lon="5.96759">
        <ele>294.7813721</ele>
        <time>2012-05-05T13:24:10Z</time>
      </trkpt>
      <trkpt lat="49.04427" lon="5.96746">
        <ele>296.7041016</ele>
        <time>2012-05-05T13:24:15Z</time>
      </trkpt>
      <trkpt lat="49.04412" lon="5.96732">
        <ele>297.1846924</ele>
        <time>2012-05-05T13:24:20Z</time>
      </trkpt>
      <trkpt lat="49.04394" lon="5.96716">
        <ele>298.1461182</ele>
        <time>2012-05-05T13:24:26Z</time>
      </trkpt>
      <trkpt lat="49.04371" lon="5.96697">
        <ele>300.5493164</ele>
        <time>2012-05-05T13:24:34Z</time>
      </trkpt>
      <trkpt lat="49.04359" lon="5.96686">
        <ele>301.5106201</ele>
        <time>2012-05-05T13:24:39Z</time>
      </trkpt>
      <trkpt lat="49.0434" lon="5.96671">
        <ele>301.991333</ele>
        <time>2012-05-05T13:24:46Z</time>
      </trkpt>
      <trkpt lat="49.04323" lon="5.96658">
        <ele>303.4332275</ele>
        <time>2012-05-05T13:24:52Z</time>
      </trkpt>
      <trkpt lat="49.04307" lon="5.96644">
        <ele>304.8752441</ele>
        <time>2012-05-05T13:24:58Z</time>
      </trkpt>
      <trkpt lat="49.04285" lon="5.96626">
        <ele>306.3172607</ele>
        <time>2012-05-05T13:25:06Z</time>
      </trkpt>
      <trkpt lat="49.04265" lon="5.96609">
        <ele>307.7592773</ele>
        <time>2012-05-05T13:25:13Z</time>
      </trkpt>
      <trkpt lat="49.04245" lon="5.96593">
        <ele>308.720459</ele>
        <time>2012-05-05T13:25:20Z</time>
      </trkpt>
      <trkpt lat="49.0423" lon="5.96579">
        <ele>309.6818848</ele>
        <time>2012-05-05T13:25:26Z</time>
      </trkpt>
      <trkpt lat="49.04214" lon="5.96565">
        <ele>310.6430664</ele>
        <time>2012-05-05T13:25:32Z</time>
      </trkpt>
      <trkpt lat="49.04191" lon="5.96548">
        <ele>311.6044922</ele>
        <time>2012-05-05T13:25:40Z</time>
      </trkpt>
      <trkpt lat="49.04177" lon="5.96535">
        <ele>312.5657959</ele>
        <time>2012-05-05T13:25:45Z</time>
      </trkpt>
      <trkpt lat="49.04157" lon="5.96516">
        <ele>314.4884033</ele>
        <time>2012-05-05T13:25:52Z</time>
      </trkpt>
      <trkpt lat="49.04151" lon="5.96511">
        <ele>314.4884033</ele>
        <time>2012-05-05T13:25:54Z</time>
      </trkpt>
      <trkpt lat="49.04134" lon="5.96495">
        <ele>315.4498291</ele>
        <time>2012-05-05T13:25:59Z</time>
      </trkpt>
      <trkpt lat="49.04116" lon="5.96476">
        <ele>315.9304199</ele>
        <time>2012-05-05T13:26:05Z</time>
      </trkpt>
      <trkpt lat="49.04099" lon="5.96456">
        <ele>316.8917236</ele>
        <time>2012-05-05T13:26:11Z</time>
      </trkpt>
      <trkpt lat="49.04071" lon="5.96432">
        <ele>316.8917236</ele>
        <time>2012-05-05T13:26:18Z</time>
      </trkpt>
      <trkpt lat="49.04037" lon="5.96416">
        <ele>316.8917236</ele>
        <time>2012-05-05T13:26:25Z</time>
      </trkpt>
      <trkpt lat="49.03992" lon="5.96399">
        <ele>316.8917236</ele>
        <time>2012-05-05T13:26:34Z</time>
      </trkpt>
      <trkpt lat="49.03978" lon="5.9639">
        <ele>317.3724365</ele>
        <time>2012-05-05T13:26:37Z</time>
      </trkpt>
      <trkpt lat="49.03954" lon="5.96359">
        <ele>317.3724365</ele>
        <time>2012-05-05T13:26:43Z</time>
      </trkpt>
      <trkpt lat="49.0392" lon="5.96298">
        <ele>317.8530273</ele>
        <time>2012-05-05T13:26:52Z</time>
      </trkpt>
      <trkpt lat="49.03889" lon="5.96244">
        <ele>316.4110107</ele>
        <time>2012-05-05T13:27:00Z</time>
      </trkpt>
      <trkpt lat="49.03869" lon="5.96205">
        <ele>315.9304199</ele>
        <time>2012-05-05T13:27:06Z</time>
      </trkpt>
      <trkpt lat="49.03845" lon="5.96163">
        <ele>315.4498291</ele>
        <time>2012-05-05T13:27:13Z</time>
      </trkpt>
      <trkpt lat="49.03825" lon="5.96125">
        <ele>314.9691162</ele>
        <time>2012-05-05T13:27:20Z</time>
      </trkpt>
      <trkpt lat="49.03818" lon="5.96112">
        <ele>314.9691162</ele>
        <time>2012-05-05T13:27:23Z</time>
      </trkpt>
      <trkpt lat="49.03805" lon="5.96116">
        <ele>313.5272217</ele>
        <time>2012-05-05T13:27:27Z</time>
      </trkpt>
      <trkpt lat="49.03803" lon="5.96122">
        <ele>314.0078125</ele>
        <time>2012-05-05T13:27:28Z</time>
      </trkpt>
      <trkpt lat="49.03779" lon="5.9617">
        <ele>312.0852051</ele>
        <time>2012-05-05T13:27:35Z</time>
      </trkpt>
      <trkpt lat="49.03756" lon="5.96217">
        <ele>311.1237793</ele>
        <time>2012-05-05T13:27:40Z</time>
      </trkpt>
      <trkpt lat="49.0374" lon="5.9625">
        <ele>307.7592773</ele>
        <time>2012-05-05T13:27:43Z</time>
      </trkpt>
      <trkpt lat="49.03734" lon="5.96261">
        <ele>307.7592773</ele>
        <time>2012-05-05T13:27:44Z</time>
      </trkpt>
      <trkpt lat="49.03708" lon="5.96311">
        <ele>305.8366699</ele>
        <time>2012-05-05T13:27:48Z</time>
      </trkpt>
      <trkpt lat="49.03689" lon="5.96352">
        <ele>302.4719238</ele>
        <time>2012-05-05T13:27:51Z</time>
      </trkpt>
      <trkpt lat="49.03674" lon="5.96417">
        <ele>300.0687256</ele>
        <time>2012-05-05T13:27:55Z</time>
      </trkpt>
      <trkpt lat="49.03675" lon="5.96466">
        <ele>298.1461182</ele>
        <time>2012-05-05T13:27:58Z</time>
      </trkpt>
      <trkpt lat="49.03682" lon="5.96509">
        <ele>295.7426758</ele>
        <time>2012-05-05T13:28:01Z</time>
      </trkpt>
      <trkpt lat="49.03675" lon="5.9656">
        <ele>295.2619629</ele>
        <time>2012-05-05T13:28:05Z</time>
      </trkpt>
      <trkpt lat="49.0366" lon="5.9657">
        <ele>295.2619629</ele>
        <time>2012-05-05T13:28:07Z</time>
      </trkpt>
      <trkpt lat="49.03645" lon="5.96565">
        <ele>296.2235107</ele>
        <time>2012-05-05T13:28:09Z</time>
      </trkpt>
      <trkpt lat="49.03632" lon="5.96538">
        <ele>296.2235107</ele>
        <time>2012-05-05T13:28:12Z</time>
      </trkpt>
      <trkpt lat="49.03616" lon="5.96473">
        <ele>295.2619629</ele>
        <time>2012-05-05T13:28:18Z</time>
      </trkpt>
      <trkpt lat="49.03589" lon="5.9641">
        <ele>292.8587646</ele>
        <time>2012-05-05T13:28:24Z</time>
      </trkpt>
      <trkpt lat="49.03576" lon="5.9639">
        <ele>289.0135498</ele>
        <time>2012-05-05T13:28:26Z</time>
      </trkpt>
      <trkpt lat="49.0357" lon="5.9638">
        <ele>289.9748535</ele>
        <time>2012-05-05T13:28:27Z</time>
      </trkpt>
      <trkpt lat="49.0355" lon="5.96349">
        <ele>287.0908203</ele>
        <time>2012-05-05T13:28:30Z</time>
      </trkpt>
      <trkpt lat="49.03544" lon="5.96339">
        <ele>286.6102295</ele>
        <time>2012-05-05T13:28:31Z</time>
      </trkpt>
      <trkpt lat="49.03522" lon="5.96309">
        <ele>284.6876221</ele>
        <time>2012-05-05T13:28:34Z</time>
      </trkpt>
      <trkpt lat="49.03487" lon="5.96277">
        <ele>283.2456055</ele>
        <time>2012-05-05T13:28:38Z</time>
      </trkpt>
      <trkpt lat="49.03477" lon="5.96271">
        <ele>281.322998</ele>
        <time>2012-05-05T13:28:39Z</time>
      </trkpt>
      <trkpt lat="49.03446" lon="5.96262">
        <ele>278.9196777</ele>
        <time>2012-05-05T13:28:42Z</time>
      </trkpt>
      <trkpt lat="49.03425" lon="5.96266">
        <ele>276.9970703</ele>
        <time>2012-05-05T13:28:44Z</time>
      </trkpt>
      <trkpt lat="49.03381" lon="5.9628">
        <ele>273.6324463</ele>
        <time>2012-05-05T13:28:49Z</time>
      </trkpt>
      <trkpt lat="49.0334" lon="5.96273">
        <ele>271.7097168</ele>
        <time>2012-05-05T13:28:54Z</time>
      </trkpt>
      <trkpt lat="49.03303" lon="5.96259">
        <ele>267.864502</ele>
        <time>2012-05-05T13:28:58Z</time>
      </trkpt>
      <trkpt lat="49.0327" lon="5.96246">
        <ele>264.9805908</ele>
        <time>2012-05-05T13:29:02Z</time>
      </trkpt>
      <trkpt lat="49.03232" lon="5.96231">
        <ele>263.0578613</ele>
        <time>2012-05-05T13:29:07Z</time>
      </trkpt>
      <trkpt lat="49.03199" lon="5.96238">
        <ele>261.1352539</ele>
        <time>2012-05-05T13:29:11Z</time>
      </trkpt>
      <trkpt lat="49.03191" lon="5.96244">
        <ele>259.6933594</ele>
        <time>2012-05-05T13:29:12Z</time>
      </trkpt>
      <trkpt lat="49.03152" lon="5.96289">
        <ele>256.8093262</ele>
        <time>2012-05-05T13:29:18Z</time>
      </trkpt>
      <trkpt lat="49.03132" lon="5.9631">
        <ele>253.4447021</ele>
        <time>2012-05-05T13:29:21Z</time>
      </trkpt>
      <trkpt lat="49.03126" lon="5.96318">
        <ele>253.4447021</ele>
        <time>2012-05-05T13:29:22Z</time>
      </trkpt>
      <trkpt lat="49.03112" lon="5.9633">
        <ele>252.0028076</ele>
        <time>2012-05-05T13:29:24Z</time>
      </trkpt>
      <trkpt lat="49.03077" lon="5.96339">
        <ele>250.0802002</ele>
        <time>2012-05-05T13:29:28Z</time>
      </trkpt>
      <trkpt lat="49.03068" lon="5.96339">
        <ele>249.5994873</ele>
        <time>2012-05-05T13:29:29Z</time>
      </trkpt>
      <trkpt lat="49.03018" lon="5.96332">
        <ele>246.2348633</ele>
        <time>2012-05-05T13:29:34Z</time>
      </trkpt>
      <trkpt lat="49.02973" lon="5.96323">
        <ele>242.3896484</ele>
        <time>2012-05-05T13:29:38Z</time>
      </trkpt>
      <trkpt lat="49.02913" lon="5.96313">
        <ele>239.5054932</ele>
        <time>2012-05-05T13:29:43Z</time>
      </trkpt>
      <trkpt lat="49.02853" lon="5.96303">
        <ele>237.5828857</ele>
        <time>2012-05-05T13:29:48Z</time>
      </trkpt>
      <trkpt lat="49.0282" lon="5.96302">
        <ele>235.6602783</ele>
        <time>2012-05-05T13:29:51Z</time>
      </trkpt>
      <trkpt lat="49.02765" lon="5.96304">
        <ele>233.2570801</ele>
        <time>2012-05-05T13:29:56Z</time>
      </trkpt>
      <trkpt lat="49.02721" lon="5.96319">
        <ele>231.3343506</ele>
        <time>2012-05-05T13:30:00Z</time>
      </trkpt>
      <trkpt lat="49.02671" lon="5.96353">
        <ele>227.9697266</ele>
        <time>2012-05-05T13:30:05Z</time>
      </trkpt>
      <trkpt lat="49.02661" lon="5.96359">
        <ele>227.9697266</ele>
        <time>2012-05-05T13:30:06Z</time>
      </trkpt>
      <trkpt lat="49.02612" lon="5.96389">
        <ele>224.6052246</ele>
        <time>2012-05-05T13:30:11Z</time>
      </trkpt>
      <trkpt lat="49.02581" lon="5.96404">
        <ele>222.6824951</ele>
        <time>2012-05-05T13:30:14Z</time>
      </trkpt>
      <trkpt lat="49.02509" lon="5.96451">
        <ele>218.8372803</ele>
        <time>2012-05-05T13:30:21Z</time>
      </trkpt>
      <trkpt lat="49.02446" lon="5.96497">
        <ele>215.4726563</ele>
        <time>2012-05-05T13:30:27Z</time>
      </trkpt>
      <trkpt lat="49.02426" lon="5.96512">
        <ele>214.9919434</ele>
        <time>2012-05-05T13:30:29Z</time>
      </trkpt>
      <trkpt lat="49.02406" lon="5.96527">
        <ele>213.5500488</ele>
        <time>2012-05-05T13:30:31Z</time>
      </trkpt>
      <trkpt lat="49.02365" lon="5.96558">
        <ele>210.1854248</ele>
        <time>2012-05-05T13:30:35Z</time>
      </trkpt>
      <trkpt lat="49.02356" lon="5.96565">
        <ele>210.1854248</ele>
        <time>2012-05-05T13:30:36Z</time>
      </trkpt>
      <trkpt lat="49.02321" lon="5.96592">
        <ele>206.8206787</ele>
        <time>2012-05-05T13:30:40Z</time>
      </trkpt>
      <trkpt lat="49.02276" lon="5.96622">
        <ele>203.4561768</ele>
        <time>2012-05-05T13:30:45Z</time>
      </trkpt>
      <trkpt lat="49.02226" lon="5.9665">
        <ele>199.6108398</ele>
        <time>2012-05-05T13:30:50Z</time>
      </trkpt>
      <trkpt lat="49.02186" lon="5.9667">
        <ele>196.7269287</ele>
        <time>2012-05-05T13:30:54Z</time>
      </trkpt>
      <trkpt lat="49.02154" lon="5.96685">
        <ele>193.3623047</ele>
        <time>2012-05-05T13:30:57Z</time>
      </trkpt>
      <trkpt lat="49.02108" lon="5.96698">
        <ele>189.9976807</ele>
        <time>2012-05-05T13:31:01Z</time>
      </trkpt>
      <trkpt lat="49.02074" lon="5.96708">
        <ele>188.5557861</ele>
        <time>2012-05-05T13:31:04Z</time>
      </trkpt>
      <trkpt lat="49.02053" lon="5.96714">
        <ele>186.1524658</ele>
        <time>2012-05-05T13:31:06Z</time>
      </trkpt>
      <trkpt lat="49.02008" lon="5.96727">
        <ele>184.2298584</ele>
        <time>2012-05-05T13:31:10Z</time>
      </trkpt>
      <trkpt lat="49.01963" lon="5.96747">
        <ele>181.3458252</ele>
        <time>2012-05-05T13:31:14Z</time>
      </trkpt>
      <trkpt lat="49.01922" lon="5.96768">
        <ele>177.9812012</ele>
        <time>2012-05-05T13:31:18Z</time>
      </trkpt>
      <trkpt lat="49.01879" lon="5.9679">
        <ele>175.5778809</ele>
        <time>2012-05-05T13:31:23Z</time>
      </trkpt>
      <trkpt lat="49.01833" lon="5.96813">
        <ele>172.2132568</ele>
        <time>2012-05-05T13:31:29Z</time>
      </trkpt>
      <trkpt lat="49.01826" lon="5.96816">
        <ele>171.732666</ele>
        <time>2012-05-05T13:31:30Z</time>
      </trkpt>
      <trkpt lat="49.01792" lon="5.96834">
        <ele>169.8100586</ele>
        <time>2012-05-05T13:31:35Z</time>
      </trkpt>
      <trkpt lat="49.01759" lon="5.96852">
        <ele>167.4067383</ele>
        <time>2012-05-05T13:31:40Z</time>
      </trkpt>
      <trkpt lat="49.01736" lon="5.96866">
        <ele>165.9647217</ele>
        <time>2012-05-05T13:31:45Z</time>
      </trkpt>
      <trkpt lat="49.0172" lon="5.96877">
        <ele>165.4841309</ele>
        <time>2012-05-05T13:31:49Z</time>
      </trkpt>
      <trkpt lat="49.01688" lon="5.969">
        <ele>165.003418</ele>
        <time>2012-05-05T13:31:55Z</time>
      </trkpt>
      <trkpt lat="49.01651" lon="5.96923">
        <ele>163.5615234</ele>
        <time>2012-05-05T13:32:01Z</time>
      </trkpt>
      <trkpt lat="49.01619" lon="5.96939">
        <ele>163.5615234</ele>
        <time>2012-05-05T13:32:06Z</time>
      </trkpt>
      <trkpt lat="49.01589" lon="5.96937">
        <ele>162.6000977</ele>
        <time>2012-05-05T13:32:11Z</time>
      </trkpt>
      <trkpt lat="49.01575" lon="5.96926">
        <ele>161.1582031</ele>
        <time>2012-05-05T13:32:15Z</time>
      </trkpt>
      <trkpt lat="49.01571" lon="5.96912">
        <ele>161.638916</ele>
        <time>2012-05-05T13:32:19Z</time>
      </trkpt>
      <trkpt lat="49.01571" lon="5.96909">
        <ele>160.6774902</ele>
        <time>2012-05-05T13:32:22Z</time>
      </trkpt>
      <trkpt lat="49.01573" lon="5.96909">
        <ele>164.0421143</ele>
        <time>2012-05-05T13:34:45Z</time>
      </trkpt>
      <trkpt lat="49.01572" lon="5.96907">
        <ele>163.5615234</ele>
        <time>2012-05-05T13:34:46Z</time>
      </trkpt>
      <trkpt lat="49.01572" lon="5.96905">
        <ele>164.5227051</ele>
        <time>2012-05-05T13:34:47Z</time>
      </trkpt>
      <trkpt lat="49.01564" lon="5.96904">
        <ele>164.0421143</ele>
        <time>2012-05-05T13:34:50Z</time>
      </trkpt>
      <trkpt lat="49.01544" lon="5.9692">
        <ele>164.0421143</ele>
        <time>2012-05-05T13:34:57Z</time>
      </trkpt>
      <trkpt lat="49.01526" lon="5.96942">
        <ele>164.0421143</ele>
        <time>2012-05-05T13:35:02Z</time>
      </trkpt>
      <trkpt lat="49.01507" lon="5.96989">
        <ele>164.0421143</ele>
        <time>2012-05-05T13:35:08Z</time>
      </trkpt>
      <trkpt lat="49.01497" lon="5.97052">
        <ele>164.0421143</ele>
        <time>2012-05-05T13:35:14Z</time>
      </trkpt>
      <trkpt lat="49.01491" lon="5.97147">
        <ele>163.0808105</ele>
        <time>2012-05-05T13:35:22Z</time>
      </trkpt>
      <trkpt lat="49.01496" lon="5.97224">
        <ele>162.1195068</ele>
        <time>2012-05-05T13:35:28Z</time>
      </trkpt>
      <trkpt lat="49.01511" lon="5.973">
        <ele>161.1582031</ele>
        <time>2012-05-05T13:35:34Z</time>
      </trkpt>
      <trkpt lat="49.0153" lon="5.97386">
        <ele>162.6000977</ele>
        <time>2012-05-05T13:35:41Z</time>
      </trkpt>
      <trkpt lat="49.01545" lon="5.97481">
        <ele>164.0421143</ele>
        <time>2012-05-05T13:35:49Z</time>
      </trkpt>
      <trkpt lat="49.01556" lon="5.97611">
        <ele>163.5615234</ele>
        <time>2012-05-05T13:36:00Z</time>
      </trkpt>
      <trkpt lat="49.01573" lon="5.97724">
        <ele>165.4841309</ele>
        <time>2012-05-05T13:36:10Z</time>
      </trkpt>
      <trkpt lat="49.01591" lon="5.97819">
        <ele>163.5615234</ele>
        <time>2012-05-05T13:36:18Z</time>
      </trkpt>
      <trkpt lat="49.01605" lon="5.97909">
        <ele>163.0808105</ele>
        <time>2012-05-05T13:36:25Z</time>
      </trkpt>
      <trkpt lat="49.01611" lon="5.97997">
        <ele>162.6000977</ele>
        <time>2012-05-05T13:36:32Z</time>
      </trkpt>
      <trkpt lat="49.01613" lon="5.98087">
        <ele>162.1195068</ele>
        <time>2012-05-05T13:36:39Z</time>
      </trkpt>
      <trkpt lat="49.01606" lon="5.98174">
        <ele>163.0808105</ele>
        <time>2012-05-05T13:36:46Z</time>
      </trkpt>
      <trkpt lat="49.01599" lon="5.98269">
        <ele>164.5227051</ele>
        <time>2012-05-05T13:36:54Z</time>
      </trkpt>
      <trkpt lat="49.01593" lon="5.98341">
        <ele>164.5227051</ele>
        <time>2012-05-05T13:37:00Z</time>
      </trkpt>
      <trkpt lat="49.01592" lon="5.98363">
        <ele>164.0421143</ele>
        <time>2012-05-05T13:37:02Z</time>
      </trkpt>
      <trkpt lat="49.01581" lon="5.98452">
        <ele>165.003418</ele>
        <time>2012-05-05T13:37:10Z</time>
      </trkpt>
      <trkpt lat="49.01572" lon="5.98542">
        <ele>165.003418</ele>
        <time>2012-05-05T13:37:18Z</time>
      </trkpt>
      <trkpt lat="49.01563" lon="5.98632">
        <ele>164.5227051</ele>
        <time>2012-05-05T13:37:26Z</time>
      </trkpt>
      <trkpt lat="49.01553" lon="5.98734">
        <ele>164.0421143</ele>
        <time>2012-05-05T13:37:35Z</time>
      </trkpt>
      <trkpt lat="49.0154" lon="5.98823">
        <ele>165.003418</ele>
        <time>2012-05-05T13:37:43Z</time>
      </trkpt>
      <trkpt lat="49.01518" lon="5.9892">
        <ele>167.4067383</ele>
        <time>2012-05-05T13:37:52Z</time>
      </trkpt>
      <trkpt lat="49.01515" lon="5.9893">
        <ele>166.4453125</ele>
        <time>2012-05-05T13:37:53Z</time>
      </trkpt>
      <trkpt lat="49.01487" lon="5.98986">
        <ele>165.003418</ele>
        <time>2012-05-05T13:37:59Z</time>
      </trkpt>
      <trkpt lat="49.01473" lon="5.99014">
        <ele>165.003418</ele>
        <time>2012-05-05T13:38:02Z</time>
      </trkpt>
      <trkpt lat="49.01448" lon="5.99039">
        <ele>165.9647217</ele>
        <time>2012-05-05T13:38:06Z</time>
      </trkpt>
      <trkpt lat="49.01432" lon="5.99047">
        <ele>164.0421143</ele>
        <time>2012-05-05T13:38:08Z</time>
      </trkpt>
      <trkpt lat="49.01405" lon="5.99079">
        <ele>163.0808105</ele>
        <time>2012-05-05T13:38:12Z</time>
      </trkpt>
      <trkpt lat="49.01395" lon="5.99119">
        <ele>162.6000977</ele>
        <time>2012-05-05T13:38:15Z</time>
      </trkpt>
      <trkpt lat="49.01394" lon="5.99202">
        <ele>161.638916</ele>
        <time>2012-05-05T13:38:21Z</time>
      </trkpt>
      <trkpt lat="49.01407" lon="5.99294">
        <ele>162.6000977</ele>
        <time>2012-05-05T13:38:28Z</time>
      </trkpt>
      <trkpt lat="49.01427" lon="5.99403">
        <ele>163.5615234</ele>
        <time>2012-05-05T13:38:37Z</time>
      </trkpt>
      <trkpt lat="49.01456" lon="5.99555">
        <ele>165.4841309</ele>
        <time>2012-05-05T13:38:50Z</time>
      </trkpt>
      <trkpt lat="49.01479" lon="5.99661">
        <ele>164.5227051</ele>
        <time>2012-05-05T13:38:59Z</time>
      </trkpt>
      <trkpt lat="49.01501" lon="5.99741">
        <ele>162.6000977</ele>
        <time>2012-05-05T13:39:05Z</time>
      </trkpt>
      <trkpt lat="49.01525" lon="5.99849">
        <ele>162.1195068</ele>
        <time>2012-05-05T13:39:13Z</time>
      </trkpt>
      <trkpt lat="49.01553" lon="5.99978">
        <ele>161.638916</ele>
        <time>2012-05-05T13:39:23Z</time>
      </trkpt>
      <trkpt lat="49.01577" lon="6.00073">
        <ele>163.5615234</ele>
        <time>2012-05-05T13:39:31Z</time>
      </trkpt>
      <trkpt lat="49.01593" lon="6.00137">
        <ele>165.4841309</ele>
        <time>2012-05-05T13:39:37Z</time>
      </trkpt>
      <trkpt lat="49.01606" lon="6.00203">
        <ele>167.8873291</ele>
        <time>2012-05-05T13:39:44Z</time>
      </trkpt>
      <trkpt lat="49.01618" lon="6.0027">
        <ele>169.8100586</ele>
        <time>2012-05-05T13:39:52Z</time>
      </trkpt>
      <trkpt lat="49.01631" lon="6.00343">
        <ele>170.7713623</ele>
        <time>2012-05-05T13:40:00Z</time>
      </trkpt>
      <trkpt lat="49.01644" lon="6.00419">
        <ele>168.8487549</ele>
        <time>2012-05-05T13:40:07Z</time>
      </trkpt>
      <trkpt lat="49.01657" lon="6.0051">
        <ele>166.9260254</ele>
        <time>2012-05-05T13:40:14Z</time>
      </trkpt>
      <trkpt lat="49.0167" lon="6.00609">
        <ele>166.4453125</ele>
        <time>2012-05-05T13:40:21Z</time>
      </trkpt>
      <trkpt lat="49.01695" lon="6.00715">
        <ele>166.4453125</ele>
        <time>2012-05-05T13:40:29Z</time>
      </trkpt>
      <trkpt lat="49.01722" lon="6.00827">
        <ele>168.368042</ele>
        <time>2012-05-05T13:40:38Z</time>
      </trkpt>
      <trkpt lat="49.01724" lon="6.0084">
        <ele>168.8487549</ele>
        <time>2012-05-05T13:40:39Z</time>
      </trkpt>
      <trkpt lat="49.01739" lon="6.00949">
        <ele>168.8487549</ele>
        <time>2012-05-05T13:40:48Z</time>
      </trkpt>
      <trkpt lat="49.01749" lon="6.0108">
        <ele>170.2906494</ele>
        <time>2012-05-05T13:40:59Z</time>
      </trkpt>
      <trkpt lat="49.01754" lon="6.01203">
        <ele>169.3294678</ele>
        <time>2012-05-05T13:41:09Z</time>
      </trkpt>
      <trkpt lat="49.01747" lon="6.01275">
        <ele>169.3294678</ele>
        <time>2012-05-05T13:41:15Z</time>
      </trkpt>
      <trkpt lat="49.01735" lon="6.01369">
        <ele>169.8100586</ele>
        <time>2012-05-05T13:41:23Z</time>
      </trkpt>
      <trkpt lat="49.01717" lon="6.01483">
        <ele>169.3294678</ele>
        <time>2012-05-05T13:41:33Z</time>
      </trkpt>
      <trkpt lat="49.01696" lon="6.01551">
        <ele>167.8873291</ele>
        <time>2012-05-05T13:41:39Z</time>
      </trkpt>
      <trkpt lat="49.01654" lon="6.01655">
        <ele>167.8873291</ele>
        <time>2012-05-05T13:41:48Z</time>
      </trkpt>
      <trkpt lat="49.01621" lon="6.01725">
        <ele>167.8873291</ele>
        <time>2012-05-05T13:41:55Z</time>
      </trkpt>
      <trkpt lat="49.01583" lon="6.01786">
        <ele>168.8487549</ele>
        <time>2012-05-05T13:42:02Z</time>
      </trkpt>
      <trkpt lat="49.01572" lon="6.01818">
        <ele>167.8873291</ele>
        <time>2012-05-05T13:42:05Z</time>
      </trkpt>
      <trkpt lat="49.0156" lon="6.01902">
        <ele>166.9260254</ele>
        <time>2012-05-05T13:42:12Z</time>
      </trkpt>
      <trkpt lat="49.01547" lon="6.01962">
        <ele>166.4453125</ele>
        <time>2012-05-05T13:42:17Z</time>
      </trkpt>
      <trkpt lat="49.01522" lon="6.02028">
        <ele>166.4453125</ele>
        <time>2012-05-05T13:42:23Z</time>
      </trkpt>
      <trkpt lat="49.01482" lon="6.02093">
        <ele>166.9260254</ele>
        <time>2012-05-05T13:42:30Z</time>
      </trkpt>
      <trkpt lat="49.01444" lon="6.02157">
        <ele>166.4453125</ele>
        <time>2012-05-05T13:42:37Z</time>
      </trkpt>
      <trkpt lat="49.01417" lon="6.0223">
        <ele>167.4067383</ele>
        <time>2012-05-05T13:42:44Z</time>
      </trkpt>
      <trkpt lat="49.01393" lon="6.02301">
        <ele>168.368042</ele>
        <time>2012-05-05T13:42:51Z</time>
      </trkpt>
      <trkpt lat="49.01359" lon="6.02402">
        <ele>170.7713623</ele>
        <time>2012-05-05T13:43:02Z</time>
      </trkpt>
      <trkpt lat="49.01335" lon="6.02458">
        <ele>172.6939697</ele>
        <time>2012-05-05T13:43:09Z</time>
      </trkpt>
      <trkpt lat="49.013" lon="6.02516">
        <ele>176.0585938</ele>
        <time>2012-05-05T13:43:18Z</time>
      </trkpt>
      <trkpt lat="49.01285" lon="6.0256">
        <ele>177.5006104</ele>
        <time>2012-05-05T13:43:24Z</time>
      </trkpt>
      <trkpt lat="49.01264" lon="6.02635">
        <ele>177.9812012</ele>
        <time>2012-05-05T13:43:34Z</time>
      </trkpt>
      <trkpt lat="49.01242" lon="6.02699">
        <ele>179.4232178</ele>
        <time>2012-05-05T13:43:43Z</time>
      </trkpt>
      <trkpt lat="49.01222" lon="6.02761">
        <ele>179.4232178</ele>
        <time>2012-05-05T13:43:51Z</time>
      </trkpt>
      <trkpt lat="49.01218" lon="6.02778">
        <ele>178.4619141</ele>
        <time>2012-05-05T13:43:53Z</time>
      </trkpt>
      <trkpt lat="49.01208" lon="6.02814">
        <ele>178.4619141</ele>
        <time>2012-05-05T13:43:57Z</time>
      </trkpt>
      <trkpt lat="49.01182" lon="6.02887">
        <ele>177.0200195</ele>
        <time>2012-05-05T13:44:05Z</time>
      </trkpt>
      <trkpt lat="49.01156" lon="6.02959">
        <ele>175.5778809</ele>
        <time>2012-05-05T13:44:12Z</time>
      </trkpt>
      <trkpt lat="49.01125" lon="6.03023">
        <ele>174.6165771</ele>
        <time>2012-05-05T13:44:18Z</time>
      </trkpt>
      <trkpt lat="49.01112" lon="6.03069">
        <ele>172.6939697</ele>
        <time>2012-05-05T13:44:22Z</time>
      </trkpt>
      <trkpt lat="49.0111" lon="6.03081">
        <ele>171.732666</ele>
        <time>2012-05-05T13:44:23Z</time>
      </trkpt>
      <trkpt lat="49.01097" lon="6.03163">
        <ele>168.8487549</ele>
        <time>2012-05-05T13:44:29Z</time>
      </trkpt>
      <trkpt lat="49.01082" lon="6.03244">
        <ele>164.5227051</ele>
        <time>2012-05-05T13:44:34Z</time>
      </trkpt>
      <trkpt lat="49.01072" lon="6.03308">
        <ele>161.1582031</ele>
        <time>2012-05-05T13:44:38Z</time>
      </trkpt>
      <trkpt lat="49.0106" lon="6.03385">
        <ele>158.2741699</ele>
        <time>2012-05-05T13:44:43Z</time>
      </trkpt>
      <trkpt lat="49.01043" lon="6.03475">
        <ele>156.8321533</ele>
        <time>2012-05-05T13:44:49Z</time>
      </trkpt>
      <trkpt lat="49.01038" lon="6.03501">
        <ele>157.3128662</ele>
        <time>2012-05-05T13:44:51Z</time>
      </trkpt>
      <trkpt lat="49.01026" lon="6.03539">
        <ele>156.3515625</ele>
        <time>2012-05-05T13:44:55Z</time>
      </trkpt>
      <trkpt lat="49.0103" lon="6.03568">
        <ele>157.3128662</ele>
        <time>2012-05-05T13:44:58Z</time>
      </trkpt>
      <trkpt lat="49.01031" lon="6.03579">
        <ele>156.8321533</ele>
        <time>2012-05-05T13:44:59Z</time>
      </trkpt>
      <trkpt lat="49.01032" lon="6.03649">
        <ele>157.3128662</ele>
        <time>2012-05-05T13:45:05Z</time>
      </trkpt>
      <trkpt lat="49.01043" lon="6.03713">
        <ele>158.2741699</ele>
        <time>2012-05-05T13:45:11Z</time>
      </trkpt>
      <trkpt lat="49.01067" lon="6.03794">
        <ele>159.2354736</ele>
        <time>2012-05-05T13:45:19Z</time>
      </trkpt>
      <trkpt lat="49.01088" lon="6.03839">
        <ele>158.7547607</ele>
        <time>2012-05-05T13:45:24Z</time>
      </trkpt>
      <trkpt lat="49.01132" lon="6.03902">
        <ele>158.7547607</ele>
        <time>2012-05-05T13:45:32Z</time>
      </trkpt>
      <trkpt lat="49.01176" lon="6.03961">
        <ele>158.7547607</ele>
        <time>2012-05-05T13:45:40Z</time>
      </trkpt>
      <trkpt lat="49.01228" lon="6.04027">
        <ele>160.1968994</ele>
        <time>2012-05-05T13:45:50Z</time>
      </trkpt>
      <trkpt lat="49.01273" lon="6.04081">
        <ele>160.6774902</ele>
        <time>2012-05-05T13:45:59Z</time>
      </trkpt>
      <trkpt lat="49.01312" lon="6.04125">
        <ele>162.1195068</ele>
        <time>2012-05-05T13:46:08Z</time>
      </trkpt>
      <trkpt lat="49.01346" lon="6.04175">
        <ele>164.5227051</ele>
        <time>2012-05-05T13:46:17Z</time>
      </trkpt>
      <trkpt lat="49.01355" lon="6.04192">
        <ele>165.9647217</ele>
        <time>2012-05-05T13:46:20Z</time>
      </trkpt>
      <trkpt lat="49.01389" lon="6.04254">
        <ele>167.8873291</ele>
        <time>2012-05-05T13:46:31Z</time>
      </trkpt>
      <trkpt lat="49.01409" lon="6.04293">
        <ele>169.8100586</ele>
        <time>2012-05-05T13:46:38Z</time>
      </trkpt>
      <trkpt lat="49.01442" lon="6.04352">
        <ele>171.2520752</ele>
        <time>2012-05-05T13:46:48Z</time>
      </trkpt>
      <trkpt lat="49.01474" lon="6.04405">
        <ele>169.8100586</ele>
        <time>2012-05-05T13:46:56Z</time>
      </trkpt>
      <trkpt lat="49.01509" lon="6.04455">
        <ele>169.3294678</ele>
        <time>2012-05-05T13:47:03Z</time>
      </trkpt>
      <trkpt lat="49.01545" lon="6.04498">
        <ele>168.8487549</ele>
        <time>2012-05-05T13:47:09Z</time>
      </trkpt>
      <trkpt lat="49.01566" lon="6.04519">
        <ele>166.9260254</ele>
        <time>2012-05-05T13:47:12Z</time>
      </trkpt>
      <trkpt lat="49.01614" lon="6.04557">
        <ele>165.9647217</ele>
        <time>2012-05-05T13:47:18Z</time>
      </trkpt>
      <trkpt lat="49.01677" lon="6.04594">
        <ele>163.0808105</ele>
        <time>2012-05-05T13:47:25Z</time>
      </trkpt>
      <trkpt lat="49.0176" lon="6.04646">
        <ele>161.638916</ele>
        <time>2012-05-05T13:47:34Z</time>
      </trkpt>
      <trkpt lat="49.01835" lon="6.04704">
        <ele>162.1195068</ele>
        <time>2012-05-05T13:47:43Z</time>
      </trkpt>
      <trkpt lat="49.01914" lon="6.04769">
        <ele>160.1968994</ele>
        <time>2012-05-05T13:47:53Z</time>
      </trkpt>
      <trkpt lat="49.01993" lon="6.04832">
        <ele>159.7161865</ele>
        <time>2012-05-05T13:48:03Z</time>
      </trkpt>
      <trkpt lat="49.02079" lon="6.04896">
        <ele>159.2354736</ele>
        <time>2012-05-05T13:48:14Z</time>
      </trkpt>
      <trkpt lat="49.02102" lon="6.04913">
        <ele>163.0808105</ele>
        <time>2012-05-05T13:48:17Z</time>
      </trkpt>
      <trkpt lat="49.02124" lon="6.04929">
        <ele>159.7161865</ele>
        <time>2012-05-05T13:48:20Z</time>
      </trkpt>
      <trkpt lat="49.02193" lon="6.04975">
        <ele>159.7161865</ele>
        <time>2012-05-05T13:48:29Z</time>
      </trkpt>
      <trkpt lat="49.02251" lon="6.04999">
        <ele>158.7547607</ele>
        <time>2012-05-05T13:48:36Z</time>
      </trkpt>
      <trkpt lat="49.02318" lon="6.05022">
        <ele>158.2741699</ele>
        <time>2012-05-05T13:48:44Z</time>
      </trkpt>
      <trkpt lat="49.02375" lon="6.05041">
        <ele>158.2741699</ele>
        <time>2012-05-05T13:48:51Z</time>
      </trkpt>
      <trkpt lat="49.02437" lon="6.05053">
        <ele>158.2741699</ele>
        <time>2012-05-05T13:48:59Z</time>
      </trkpt>
      <trkpt lat="49.025" lon="6.05073">
        <ele>158.2741699</ele>
        <time>2012-05-05T13:49:07Z</time>
      </trkpt>
      <trkpt lat="49.02555" lon="6.05082">
        <ele>158.7547607</ele>
        <time>2012-05-05T13:49:14Z</time>
      </trkpt>
      <trkpt lat="49.02595" lon="6.05089">
        <ele>159.2354736</ele>
        <time>2012-05-05T13:49:19Z</time>
      </trkpt>
      <trkpt lat="49.02649" lon="6.05098">
        <ele>158.7547607</ele>
        <time>2012-05-05T13:49:26Z</time>
      </trkpt>
      <trkpt lat="49.02714" lon="6.05108">
        <ele>159.2354736</ele>
        <time>2012-05-05T13:49:34Z</time>
      </trkpt>
      <trkpt lat="49.02778" lon="6.05124">
        <ele>158.7547607</ele>
        <time>2012-05-05T13:49:42Z</time>
      </trkpt>
      <trkpt lat="49.02795" lon="6.05127">
        <ele>158.2741699</ele>
        <time>2012-05-05T13:49:44Z</time>
      </trkpt>
      <trkpt lat="49.02825" lon="6.05146">
        <ele>158.7547607</ele>
        <time>2012-05-05T13:49:48Z</time>
      </trkpt>
      <trkpt lat="49.02861" lon="6.0516">
        <ele>160.1968994</ele>
        <time>2012-05-05T13:49:53Z</time>
      </trkpt>
      <trkpt lat="49.02909" lon="6.05162">
        <ele>162.1195068</ele>
        <time>2012-05-05T13:50:00Z</time>
      </trkpt>
      <trkpt lat="49.0296" lon="6.05158">
        <ele>163.0808105</ele>
        <time>2012-05-05T13:50:08Z</time>
      </trkpt>
      <trkpt lat="49.02981" lon="6.0517">
        <ele>163.5615234</ele>
        <time>2012-05-05T13:50:12Z</time>
      </trkpt>
      <trkpt lat="49.02986" lon="6.05195">
        <ele>165.4841309</ele>
        <time>2012-05-05T13:50:15Z</time>
      </trkpt>
      <trkpt lat="49.02989" lon="6.05262">
        <ele>166.4453125</ele>
        <time>2012-05-05T13:50:22Z</time>
      </trkpt>
      <trkpt lat="49.02994" lon="6.05366">
        <ele>165.003418</ele>
        <time>2012-05-05T13:50:32Z</time>
      </trkpt>
      <trkpt lat="49.02997" lon="6.05447">
        <ele>164.0421143</ele>
        <time>2012-05-05T13:50:39Z</time>
      </trkpt>
      <trkpt lat="49.03" lon="6.05508">
        <ele>160.6774902</ele>
        <time>2012-05-05T13:50:45Z</time>
      </trkpt>
      <trkpt lat="49.03001" lon="6.05542">
        <ele>160.1968994</ele>
        <time>2012-05-05T13:50:50Z</time>
      </trkpt>
      <trkpt lat="49.03001" lon="6.05557">
        <ele>160.1968994</ele>
        <time>2012-05-05T13:50:54Z</time>
      </trkpt>
      <trkpt lat="49.03002" lon="6.05562">
        <ele>160.1968994</ele>
        <time>2012-05-05T13:50:55Z</time>
      </trkpt>
      <trkpt lat="49.03017" lon="6.05575">
        <ele>159.7161865</ele>
        <time>2012-05-05T13:50:59Z</time>
      </trkpt>
      <trkpt lat="49.03049" lon="6.05596">
        <ele>160.1968994</ele>
        <time>2012-05-05T13:51:05Z</time>
      </trkpt>
      <trkpt lat="49.03109" lon="6.05642">
        <ele>161.638916</ele>
        <time>2012-05-05T13:51:15Z</time>
      </trkpt>
      <trkpt lat="49.03115" lon="6.05647">
        <ele>161.638916</ele>
        <time>2012-05-05T13:51:16Z</time>
      </trkpt>
      <trkpt lat="49.03167" lon="6.05688">
        <ele>163.0808105</ele>
        <time>2012-05-05T13:51:25Z</time>
      </trkpt>
      <trkpt lat="49.03236" lon="6.05743">
        <ele>163.5615234</ele>
        <time>2012-05-05T13:51:37Z</time>
      </trkpt>
      <trkpt lat="49.03289" lon="6.05788">
        <ele>165.4841309</ele>
        <time>2012-05-05T13:51:46Z</time>
      </trkpt>
      <trkpt lat="49.03323" lon="6.05823">
        <ele>163.0808105</ele>
        <time>2012-05-05T13:51:52Z</time>
      </trkpt>
      <trkpt lat="49.03345" lon="6.05846">
        <ele>165.003418</ele>
        <time>2012-05-05T13:51:56Z</time>
      </trkpt>
      <trkpt lat="49.03377" lon="6.05875">
        <ele>165.4841309</ele>
        <time>2012-05-05T13:52:02Z</time>
      </trkpt>
      <trkpt lat="49.03417" lon="6.05916">
        <ele>163.5615234</ele>
        <time>2012-05-05T13:52:09Z</time>
      </trkpt>
      <trkpt lat="49.03471" lon="6.05971">
        <ele>163.0808105</ele>
        <time>2012-05-05T13:52:18Z</time>
      </trkpt>
      <trkpt lat="49.035" lon="6.06005">
        <ele>162.6000977</ele>
        <time>2012-05-05T13:52:23Z</time>
      </trkpt>
      <trkpt lat="49.03524" lon="6.06034">
        <ele>163.5615234</ele>
        <time>2012-05-05T13:52:27Z</time>
      </trkpt>
      <trkpt lat="49.03542" lon="6.06053">
        <ele>160.6774902</ele>
        <time>2012-05-05T13:52:30Z</time>
      </trkpt>
      <trkpt lat="49.03598" lon="6.06106">
        <ele>162.1195068</ele>
        <time>2012-05-05T13:52:39Z</time>
      </trkpt>
      <trkpt lat="49.03639" lon="6.06138">
        <ele>161.638916</ele>
        <time>2012-05-05T13:52:45Z</time>
      </trkpt>
      <trkpt lat="49.03645" lon="6.06144">
        <ele>161.1582031</ele>
        <time>2012-05-05T13:52:46Z</time>
      </trkpt>
      <trkpt lat="49.03664" lon="6.06178">
        <ele>161.638916</ele>
        <time>2012-05-05T13:52:50Z</time>
      </trkpt>
      <trkpt lat="49.03682" lon="6.0624">
        <ele>161.638916</ele>
        <time>2012-05-05T13:52:56Z</time>
      </trkpt>
      <trkpt lat="49.03702" lon="6.06316">
        <ele>162.1195068</ele>
        <time>2012-05-05T13:53:03Z</time>
      </trkpt>
      <trkpt lat="49.03729" lon="6.06436">
        <ele>162.1195068</ele>
        <time>2012-05-05T13:53:14Z</time>
      </trkpt>
      <trkpt lat="49.03743" lon="6.06518">
        <ele>163.0808105</ele>
        <time>2012-05-05T13:53:22Z</time>
      </trkpt>
      <trkpt lat="49.0376" lon="6.0662">
        <ele>163.5615234</ele>
        <time>2012-05-05T13:53:32Z</time>
      </trkpt>
      <trkpt lat="49.03773" lon="6.06686">
        <ele>164.0421143</ele>
        <time>2012-05-05T13:53:39Z</time>
      </trkpt>
      <trkpt lat="49.03789" lon="6.0674">
        <ele>165.003418</ele>
        <time>2012-05-05T13:53:45Z</time>
      </trkpt>
      <trkpt lat="49.03805" lon="6.06802">
        <ele>165.9647217</ele>
        <time>2012-05-05T13:53:52Z</time>
      </trkpt>
      <trkpt lat="49.03807" lon="6.06855">
        <ele>166.9260254</ele>
        <time>2012-05-05T13:53:58Z</time>
      </trkpt>
      <trkpt lat="49.03801" lon="6.06909">
        <ele>168.368042</ele>
        <time>2012-05-05T13:54:05Z</time>
      </trkpt>
      <trkpt lat="49.03799" lon="6.06924">
        <ele>169.3294678</ele>
        <time>2012-05-05T13:54:07Z</time>
      </trkpt>
      <trkpt lat="49.03794" lon="6.06952">
        <ele>171.2520752</ele>
        <time>2012-05-05T13:54:11Z</time>
      </trkpt>
      <trkpt lat="49.03779" lon="6.07016">
        <ele>173.1746826</ele>
        <time>2012-05-05T13:54:20Z</time>
      </trkpt>
      <trkpt lat="49.03759" lon="6.07065">
        <ele>173.6552734</ele>
        <time>2012-05-05T13:54:27Z</time>
      </trkpt>
      <trkpt lat="49.03742" lon="6.07127">
        <ele>173.6552734</ele>
        <time>2012-05-05T13:54:35Z</time>
      </trkpt>
      <trkpt lat="49.03725" lon="6.07196">
        <ele>175.09729</ele>
        <time>2012-05-05T13:54:44Z</time>
      </trkpt>
      <trkpt lat="49.03713" lon="6.07246">
        <ele>177.0200195</ele>
        <time>2012-05-05T13:54:50Z</time>
      </trkpt>
      <trkpt lat="49.037" lon="6.07323">
        <ele>177.9812012</ele>
        <time>2012-05-05T13:54:59Z</time>
      </trkpt>
      <trkpt lat="49.03687" lon="6.07423">
        <ele>177.5006104</ele>
        <time>2012-05-05T13:55:10Z</time>
      </trkpt>
      <trkpt lat="49.03677" lon="6.07498">
        <ele>177.5006104</ele>
        <time>2012-05-05T13:55:17Z</time>
      </trkpt>
      <trkpt lat="49.03661" lon="6.07573">
        <ele>177.5006104</ele>
        <time>2012-05-05T13:55:24Z</time>
      </trkpt>
      <trkpt lat="49.03636" lon="6.0766">
        <ele>177.9812012</ele>
        <time>2012-05-05T13:55:33Z</time>
      </trkpt>
      <trkpt lat="49.03602" lon="6.0777">
        <ele>177.9812012</ele>
        <time>2012-05-05T13:55:44Z</time>
      </trkpt>
      <trkpt lat="49.03571" lon="6.07871">
        <ele>177.5006104</ele>
        <time>2012-05-05T13:55:54Z</time>
      </trkpt>
      <trkpt lat="49.03541" lon="6.07973">
        <ele>179.4232178</ele>
        <time>2012-05-05T13:56:04Z</time>
      </trkpt>
      <trkpt lat="49.03507" lon="6.08097">
        <ele>179.9038086</ele>
        <time>2012-05-05T13:56:16Z</time>
      </trkpt>
      <trkpt lat="49.03479" lon="6.08214">
        <ele>180.8652344</ele>
        <time>2012-05-05T13:56:27Z</time>
      </trkpt>
      <trkpt lat="49.03451" lon="6.0834">
        <ele>180.8652344</ele>
        <time>2012-05-05T13:56:39Z</time>
      </trkpt>
      <trkpt lat="49.03425" lon="6.0843">
        <ele>182.3071289</ele>
        <time>2012-05-05T13:56:48Z</time>
      </trkpt>
      <trkpt lat="49.03392" lon="6.085">
        <ele>183.7490234</ele>
        <time>2012-05-05T13:56:56Z</time>
      </trkpt>
      <trkpt lat="49.03357" lon="6.08551">
        <ele>183.7490234</ele>
        <time>2012-05-05T13:57:03Z</time>
      </trkpt>
      <trkpt lat="49.0332" lon="6.08594">
        <ele>184.7105713</ele>
        <time>2012-05-05T13:57:10Z</time>
      </trkpt>
      <trkpt lat="49.03291" lon="6.08635">
        <ele>185.1911621</ele>
        <time>2012-05-05T13:57:16Z</time>
      </trkpt>
      <trkpt lat="49.03277" lon="6.08678">
        <ele>185.1911621</ele>
        <time>2012-05-05T13:57:21Z</time>
      </trkpt>
      <trkpt lat="49.03275" lon="6.08718">
        <ele>186.1524658</ele>
        <time>2012-05-05T13:57:25Z</time>
      </trkpt>
      <trkpt lat="49.03278" lon="6.08826">
        <ele>186.6331787</ele>
        <time>2012-05-05T13:57:36Z</time>
      </trkpt>
      <trkpt lat="49.0328" lon="6.08903">
        <ele>189.036377</ele>
        <time>2012-05-05T13:57:45Z</time>
      </trkpt>
      <trkpt lat="49.03275" lon="6.08982">
        <ele>190.4783936</ele>
        <time>2012-05-05T13:57:55Z</time>
      </trkpt>
      <trkpt lat="49.0327" lon="6.09045">
        <ele>193.3623047</ele>
        <time>2012-05-05T13:58:03Z</time>
      </trkpt>
      <trkpt lat="49.03262" lon="6.09115">
        <ele>194.8043213</ele>
        <time>2012-05-05T13:58:12Z</time>
      </trkpt>
      <trkpt lat="49.03248" lon="6.09173">
        <ele>196.2463379</ele>
        <time>2012-05-05T13:58:20Z</time>
      </trkpt>
      <trkpt lat="49.03228" lon="6.09223">
        <ele>199.130127</ele>
        <time>2012-05-05T13:58:28Z</time>
      </trkpt>
      <trkpt lat="49.03199" lon="6.09278">
        <ele>201.5335693</ele>
        <time>2012-05-05T13:58:38Z</time>
      </trkpt>
      <trkpt lat="49.03179" lon="6.09311">
        <ele>202.0142822</ele>
        <time>2012-05-05T13:58:45Z</time>
      </trkpt>
      <trkpt lat="49.03164" lon="6.09345">
        <ele>204.8980713</ele>
        <time>2012-05-05T13:58:52Z</time>
      </trkpt>
      <trkpt lat="49.03148" lon="6.09399">
        <ele>206.8206787</ele>
        <time>2012-05-05T13:59:02Z</time>
      </trkpt>
      <trkpt lat="49.03141" lon="6.09453">
        <ele>208.2628174</ele>
        <time>2012-05-05T13:59:11Z</time>
      </trkpt>
      <trkpt lat="49.03137" lon="6.09482">
        <ele>210.1854248</ele>
        <time>2012-05-05T13:59:16Z</time>
      </trkpt>
      <trkpt lat="49.03127" lon="6.09537">
        <ele>211.1467285</ele>
        <time>2012-05-05T13:59:26Z</time>
      </trkpt>
      <trkpt lat="49.03118" lon="6.09588">
        <ele>212.588623</ele>
        <time>2012-05-05T13:59:35Z</time>
      </trkpt>
      <trkpt lat="49.03111" lon="6.09636">
        <ele>213.5500488</ele>
        <time>2012-05-05T13:59:43Z</time>
      </trkpt>
      <trkpt lat="49.03111" lon="6.09649">
        <ele>214.0306396</ele>
        <time>2012-05-05T13:59:45Z</time>
      </trkpt>
      <trkpt lat="49.03123" lon="6.09693">
        <ele>214.0306396</ele>
        <time>2012-05-05T13:59:52Z</time>
      </trkpt>
      <trkpt lat="49.03134" lon="6.09743">
        <ele>214.5112305</ele>
        <time>2012-05-05T13:59:59Z</time>
      </trkpt>
      <trkpt lat="49.03136" lon="6.0975">
        <ele>214.5112305</ele>
        <time>2012-05-05T14:00:00Z</time>
      </trkpt>
      <trkpt lat="49.0314" lon="6.09781">
        <ele>214.5112305</ele>
        <time>2012-05-05T14:00:04Z</time>
      </trkpt>
      <trkpt lat="49.03153" lon="6.09802">
        <ele>214.0306396</ele>
        <time>2012-05-05T14:00:08Z</time>
      </trkpt>
      <trkpt lat="49.03195" lon="6.09829">
        <ele>214.0306396</ele>
        <time>2012-05-05T14:00:15Z</time>
      </trkpt>
      <trkpt lat="49.03258" lon="6.09877">
        <ele>212.1080322</ele>
        <time>2012-05-05T14:00:25Z</time>
      </trkpt>
      <trkpt lat="49.03289" lon="6.09922">
        <ele>213.5500488</ele>
        <time>2012-05-05T14:00:31Z</time>
      </trkpt>
      <trkpt lat="49.03327" lon="6.09971">
        <ele>212.588623</ele>
        <time>2012-05-05T14:00:38Z</time>
      </trkpt>
      <trkpt lat="49.03388" lon="6.10032">
        <ele>213.0693359</ele>
        <time>2012-05-05T14:00:48Z</time>
      </trkpt>
      <trkpt lat="49.03455" lon="6.10099">
        <ele>213.0693359</ele>
        <time>2012-05-05T14:00:59Z</time>
      </trkpt>
      <trkpt lat="49.03501" lon="6.10132">
        <ele>213.5500488</ele>
        <time>2012-05-05T14:01:06Z</time>
      </trkpt>
      <trkpt lat="49.03544" lon="6.10159">
        <ele>216.43396</ele>
        <time>2012-05-05T14:01:13Z</time>
      </trkpt>
      <trkpt lat="49.03591" lon="6.10191">
        <ele>217.8759766</ele>
        <time>2012-05-05T14:01:22Z</time>
      </trkpt>
      <trkpt lat="49.03637" lon="6.10233">
        <ele>219.3179932</ele>
        <time>2012-05-05T14:01:31Z</time>
      </trkpt>
      <trkpt lat="49.03672" lon="6.1028">
        <ele>220.7598877</ele>
        <time>2012-05-05T14:01:39Z</time>
      </trkpt>
      <trkpt lat="49.03709" lon="6.10336">
        <ele>221.2406006</ele>
        <time>2012-05-05T14:01:48Z</time>
      </trkpt>
      <trkpt lat="49.03748" lon="6.104">
        <ele>220.7598877</ele>
        <time>2012-05-05T14:01:57Z</time>
      </trkpt>
      <trkpt lat="49.03798" lon="6.10487">
        <ele>221.2406006</ele>
        <time>2012-05-05T14:02:09Z</time>
      </trkpt>
      <trkpt lat="49.03835" lon="6.10546">
        <ele>221.2406006</ele>
        <time>2012-05-05T14:02:17Z</time>
      </trkpt>
      <trkpt lat="49.03874" lon="6.10585">
        <ele>222.2017822</ele>
        <time>2012-05-05T14:02:24Z</time>
      </trkpt>
      <trkpt lat="49.03924" lon="6.10627">
        <ele>222.2017822</ele>
        <time>2012-05-05T14:02:33Z</time>
      </trkpt>
      <trkpt lat="49.03965" lon="6.10666">
        <ele>223.6437988</ele>
        <time>2012-05-05T14:02:41Z</time>
      </trkpt>
      <trkpt lat="49.03994" lon="6.107">
        <ele>223.163208</ele>
        <time>2012-05-05T14:02:47Z</time>
      </trkpt>
      <trkpt lat="49.04035" lon="6.1075">
        <ele>223.163208</ele>
        <time>2012-05-05T14:02:55Z</time>
      </trkpt>
      <trkpt lat="49.04085" lon="6.1081">
        <ele>222.2017822</ele>
        <time>2012-05-05T14:03:04Z</time>
      </trkpt>
      <trkpt lat="49.04144" lon="6.10883">
        <ele>221.2406006</ele>
        <time>2012-05-05T14:03:14Z</time>
      </trkpt>
      <trkpt lat="49.04201" lon="6.10948">
        <ele>220.2791748</ele>
        <time>2012-05-05T14:03:23Z</time>
      </trkpt>
      <trkpt lat="49.04251" lon="6.1099">
        <ele>220.2791748</ele>
        <time>2012-05-05T14:03:30Z</time>
      </trkpt>
      <trkpt lat="49.04312" lon="6.11022">
        <ele>219.798584</ele>
        <time>2012-05-05T14:03:38Z</time>
      </trkpt>
      <trkpt lat="49.04356" lon="6.11047">
        <ele>216.9146729</ele>
        <time>2012-05-05T14:03:43Z</time>
      </trkpt>
      <trkpt lat="49.04366" lon="6.11053">
        <ele>216.9146729</ele>
        <time>2012-05-05T14:03:44Z</time>
      </trkpt>
      <trkpt lat="49.04406" lon="6.11075">
        <ele>213.5500488</ele>
        <time>2012-05-05T14:03:48Z</time>
      </trkpt>
      <trkpt lat="49.04428" lon="6.11082">
        <ele>212.588623</ele>
        <time>2012-05-05T14:03:50Z</time>
      </trkpt>
      <trkpt lat="49.04473" lon="6.11084">
        <ele>210.1854248</ele>
        <time>2012-05-05T14:03:54Z</time>
      </trkpt>
      <trkpt lat="49.04496" lon="6.1108">
        <ele>209.2241211</ele>
        <time>2012-05-05T14:03:56Z</time>
      </trkpt>
      <trkpt lat="49.04531" lon="6.11073">
        <ele>206.8206787</ele>
        <time>2012-05-05T14:03:59Z</time>
      </trkpt>
      <trkpt lat="49.04597" lon="6.1106">
        <ele>203.9368896</ele>
        <time>2012-05-05T14:04:05Z</time>
      </trkpt>
      <trkpt lat="49.04608" lon="6.11059">
        <ele>204.4174805</ele>
        <time>2012-05-05T14:04:06Z</time>
      </trkpt>
      <trkpt lat="49.04628" lon="6.1106">
        <ele>202.494873</ele>
        <time>2012-05-05T14:04:08Z</time>
      </trkpt>
      <trkpt lat="49.04638" lon="6.11062">
        <ele>202.9754639</ele>
        <time>2012-05-05T14:04:09Z</time>
      </trkpt>
      <trkpt lat="49.04672" lon="6.11085">
        <ele>202.0142822</ele>
        <time>2012-05-05T14:04:13Z</time>
      </trkpt>
      <trkpt lat="49.04698" lon="6.11123">
        <ele>202.0142822</ele>
        <time>2012-05-05T14:04:17Z</time>
      </trkpt>
      <trkpt lat="49.04711" lon="6.1116">
        <ele>201.0528564</ele>
        <time>2012-05-05T14:04:20Z</time>
      </trkpt>
      <trkpt lat="49.04721" lon="6.11199">
        <ele>200.0916748</ele>
        <time>2012-05-05T14:04:23Z</time>
      </trkpt>
      <trkpt lat="49.04724" lon="6.11213">
        <ele>200.5722656</ele>
        <time>2012-05-05T14:04:24Z</time>
      </trkpt>
      <trkpt lat="49.04728" lon="6.11242">
        <ele>200.0916748</ele>
        <time>2012-05-05T14:04:26Z</time>
      </trkpt>
      <trkpt lat="49.04749" lon="6.11302">
        <ele>199.6108398</ele>
        <time>2012-05-05T14:04:31Z</time>
      </trkpt>
      <trkpt lat="49.04762" lon="6.11323">
        <ele>199.130127</ele>
        <time>2012-05-05T14:04:33Z</time>
      </trkpt>
      <trkpt lat="49.04826" lon="6.11406">
        <ele>198.6495361</ele>
        <time>2012-05-05T14:04:42Z</time>
      </trkpt>
      <trkpt lat="49.04873" lon="6.11472">
        <ele>199.130127</ele>
        <time>2012-05-05T14:04:49Z</time>
      </trkpt>
      <trkpt lat="49.04917" lon="6.11521">
        <ele>199.6108398</ele>
        <time>2012-05-05T14:04:55Z</time>
      </trkpt>
      <trkpt lat="49.04979" lon="6.11565">
        <ele>199.6108398</ele>
        <time>2012-05-05T14:05:03Z</time>
      </trkpt>
      <trkpt lat="49.05037" lon="6.11607">
        <ele>199.6108398</ele>
        <time>2012-05-05T14:05:11Z</time>
      </trkpt>
      <trkpt lat="49.05098" lon="6.1166">
        <ele>198.6495361</ele>
        <time>2012-05-05T14:05:19Z</time>
      </trkpt>
      <trkpt lat="49.05145" lon="6.1169">
        <ele>198.6495361</ele>
        <time>2012-05-05T14:05:25Z</time>
      </trkpt>
      <trkpt lat="49.05209" lon="6.11716">
        <ele>198.6495361</ele>
        <time>2012-05-05T14:05:33Z</time>
      </trkpt>
      <trkpt lat="49.05269" lon="6.1174">
        <ele>196.7269287</ele>
        <time>2012-05-05T14:05:40Z</time>
      </trkpt>
      <trkpt lat="49.05321" lon="6.11767">
        <ele>196.2463379</ele>
        <time>2012-05-05T14:05:46Z</time>
      </trkpt>
      <trkpt lat="49.05358" lon="6.11805">
        <ele>196.2463379</ele>
        <time>2012-05-05T14:05:51Z</time>
      </trkpt>
      <trkpt lat="49.05388" lon="6.11854">
        <ele>194.8043213</ele>
        <time>2012-05-05T14:05:56Z</time>
      </trkpt>
      <trkpt lat="49.0541" lon="6.11915">
        <ele>193.3623047</ele>
        <time>2012-05-05T14:06:01Z</time>
      </trkpt>
      <trkpt lat="49.05458" lon="6.12071">
        <ele>190.9589844</ele>
        <time>2012-05-05T14:06:13Z</time>
      </trkpt>
      <trkpt lat="49.0549" lon="6.12178">
        <ele>189.036377</ele>
        <time>2012-05-05T14:06:21Z</time>
      </trkpt>
      <trkpt lat="49.0554" lon="6.12322">
        <ele>187.5943604</ele>
        <time>2012-05-05T14:06:32Z</time>
      </trkpt>
      <trkpt lat="49.05579" lon="6.12396">
        <ele>185.1911621</ele>
        <time>2012-05-05T14:06:39Z</time>
      </trkpt>
      <trkpt lat="49.05585" lon="6.12406">
        <ele>185.1911621</ele>
        <time>2012-05-05T14:06:40Z</time>
      </trkpt>
      <trkpt lat="49.05601" lon="6.12434">
        <ele>185.1911621</ele>
        <time>2012-05-05T14:06:43Z</time>
      </trkpt>
      <trkpt lat="49.05617" lon="6.12447">
        <ele>185.1911621</ele>
        <time>2012-05-05T14:06:46Z</time>
      </trkpt>
      <trkpt lat="49.05628" lon="6.12439">
        <ele>185.1911621</ele>
        <time>2012-05-05T14:06:48Z</time>
      </trkpt>
      <trkpt lat="49.0568" lon="6.1239">
        <ele>186.1524658</ele>
        <time>2012-05-05T14:06:57Z</time>
      </trkpt>
      <trkpt lat="49.05729" lon="6.12344">
        <ele>189.036377</ele>
        <time>2012-05-05T14:07:06Z</time>
      </trkpt>
      <trkpt lat="49.05764" lon="6.12308">
        <ele>189.5169678</ele>
        <time>2012-05-05T14:07:13Z</time>
      </trkpt>
      <trkpt lat="49.05804" lon="6.12262">
        <ele>189.5169678</ele>
        <time>2012-05-05T14:07:21Z</time>
      </trkpt>
      <trkpt lat="49.05835" lon="6.12228">
        <ele>189.5169678</ele>
        <time>2012-05-05T14:07:27Z</time>
      </trkpt>
      <trkpt lat="49.05877" lon="6.12187">
        <ele>189.036377</ele>
        <time>2012-05-05T14:07:35Z</time>
      </trkpt>
      <trkpt lat="49.05922" lon="6.12142">
        <ele>189.5169678</ele>
        <time>2012-05-05T14:07:44Z</time>
      </trkpt>
      <trkpt lat="49.05942" lon="6.12121">
        <ele>189.5169678</ele>
        <time>2012-05-05T14:07:48Z</time>
      </trkpt>
      <trkpt lat="49.0596" lon="6.12084">
        <ele>190.4783936</ele>
        <time>2012-05-05T14:07:53Z</time>
      </trkpt>
      <trkpt lat="49.05962" lon="6.12066">
        <ele>190.9589844</ele>
        <time>2012-05-05T14:07:55Z</time>
      </trkpt>
      <trkpt lat="49.05963" lon="6.12028">
        <ele>189.5169678</ele>
        <time>2012-05-05T14:07:59Z</time>
      </trkpt>
      <trkpt lat="49.05972" lon="6.11991">
        <ele>188.5557861</ele>
        <time>2012-05-05T14:08:03Z</time>
      </trkpt>
      <trkpt lat="49.05977" lon="6.11983">
        <ele>189.036377</ele>
        <time>2012-05-05T14:08:04Z</time>
      </trkpt>
      <trkpt lat="49.06019" lon="6.11938">
        <ele>187.1137695</ele>
        <time>2012-05-05T14:08:11Z</time>
      </trkpt>
      <trkpt lat="49.06026" lon="6.11934">
        <ele>187.1137695</ele>
        <time>2012-05-05T14:08:12Z</time>
      </trkpt>
      <trkpt lat="49.06068" lon="6.11912">
        <ele>187.1137695</ele>
        <time>2012-05-05T14:08:18Z</time>
      </trkpt>
      <trkpt lat="49.06107" lon="6.11883">
        <ele>187.1137695</ele>
        <time>2012-05-05T14:08:24Z</time>
      </trkpt>
      <trkpt lat="49.06113" lon="6.11876">
        <ele>187.1137695</ele>
        <time>2012-05-05T14:08:25Z</time>
      </trkpt>
      <trkpt lat="49.06128" lon="6.11843">
        <ele>187.5943604</ele>
        <time>2012-05-05T14:08:29Z</time>
      </trkpt>
      <trkpt lat="49.0613" lon="6.11813">
        <ele>187.1137695</ele>
        <time>2012-05-05T14:08:32Z</time>
      </trkpt>
      <trkpt lat="49.0613" lon="6.11793">
        <ele>187.1137695</ele>
        <time>2012-05-05T14:08:34Z</time>
      </trkpt>
      <trkpt lat="49.06138" lon="6.11756">
        <ele>187.5943604</ele>
        <time>2012-05-05T14:08:38Z</time>
      </trkpt>
      <trkpt lat="49.06147" lon="6.11741">
        <ele>187.5943604</ele>
        <time>2012-05-05T14:08:40Z</time>
      </trkpt>
      <trkpt lat="49.06181" lon="6.11689">
        <ele>189.9976807</ele>
        <time>2012-05-05T14:08:48Z</time>
      </trkpt>
      <trkpt lat="49.06222" lon="6.11644">
        <ele>190.4783936</ele>
        <time>2012-05-05T14:08:56Z</time>
      </trkpt>
      <trkpt lat="49.06234" lon="6.11634">
        <ele>190.4783936</ele>
        <time>2012-05-05T14:08:58Z</time>
      </trkpt>
      <trkpt lat="49.06259" lon="6.11627">
        <ele>190.4783936</ele>
        <time>2012-05-05T14:09:02Z</time>
      </trkpt>
      <trkpt lat="49.06307" lon="6.11638">
        <ele>189.9976807</ele>
        <time>2012-05-05T14:09:09Z</time>
      </trkpt>
      <trkpt lat="49.06361" lon="6.11651">
        <ele>189.9976807</ele>
        <time>2012-05-05T14:09:17Z</time>
      </trkpt>
      <trkpt lat="49.06414" lon="6.11665">
        <ele>189.9976807</ele>
        <time>2012-05-05T14:09:25Z</time>
      </trkpt>
      <trkpt lat="49.06467" lon="6.11678">
        <ele>189.9976807</ele>
        <time>2012-05-05T14:09:33Z</time>
      </trkpt>
      <trkpt lat="49.06525" lon="6.11691">
        <ele>189.9976807</ele>
        <time>2012-05-05T14:09:42Z</time>
      </trkpt>
      <trkpt lat="49.06538" lon="6.11698">
        <ele>190.4783936</ele>
        <time>2012-05-05T14:09:44Z</time>
      </trkpt>
      <trkpt lat="49.06564" lon="6.11698">
        <ele>191.4395752</ele>
        <time>2012-05-05T14:09:48Z</time>
      </trkpt>
      <trkpt lat="49.06616" lon="6.11692">
        <ele>191.9202881</ele>
        <time>2012-05-05T14:09:56Z</time>
      </trkpt>
      <trkpt lat="49.06679" lon="6.11686">
        <ele>193.3623047</ele>
        <time>2012-05-05T14:10:06Z</time>
      </trkpt>
      <trkpt lat="49.06736" lon="6.11685">
        <ele>193.8430176</ele>
        <time>2012-05-05T14:10:15Z</time>
      </trkpt>
      <trkpt lat="49.06787" lon="6.11687">
        <ele>192.401123</ele>
        <time>2012-05-05T14:10:22Z</time>
      </trkpt>
      <trkpt lat="49.06862" lon="6.11691">
        <ele>189.5169678</ele>
        <time>2012-05-05T14:10:31Z</time>
      </trkpt>
      <trkpt lat="49.06925" lon="6.11691">
        <ele>189.5169678</ele>
        <time>2012-05-05T14:10:38Z</time>
      </trkpt>
      <trkpt lat="49.06974" lon="6.11679">
        <ele>187.5943604</ele>
        <time>2012-05-05T14:10:44Z</time>
      </trkpt>
      <trkpt lat="49.0704" lon="6.11651">
        <ele>188.5557861</ele>
        <time>2012-05-05T14:10:52Z</time>
      </trkpt>
      <trkpt lat="49.0707" lon="6.11626">
        <ele>188.5557861</ele>
        <time>2012-05-05T14:10:56Z</time>
      </trkpt>
      <trkpt lat="49.071" lon="6.11583">
        <ele>187.1137695</ele>
        <time>2012-05-05T14:11:01Z</time>
      </trkpt>
      <trkpt lat="49.07132" lon="6.11512">
        <ele>186.6331787</ele>
        <time>2012-05-05T14:11:08Z</time>
      </trkpt>
      <trkpt lat="49.07168" lon="6.11428">
        <ele>186.1524658</ele>
        <time>2012-05-05T14:11:16Z</time>
      </trkpt>
      <trkpt lat="49.07194" lon="6.11356">
        <ele>185.1911621</ele>
        <time>2012-05-05T14:11:23Z</time>
      </trkpt>
      <trkpt lat="49.07198" lon="6.11346">
        <ele>185.6717529</ele>
        <time>2012-05-05T14:11:24Z</time>
      </trkpt>
      <trkpt lat="49.0722" lon="6.11317">
        <ele>184.2298584</ele>
        <time>2012-05-05T14:11:28Z</time>
      </trkpt>
      <trkpt lat="49.07246" lon="6.11293">
        <ele>183.2684326</ele>
        <time>2012-05-05T14:11:32Z</time>
      </trkpt>
      <trkpt lat="49.07276" lon="6.11274">
        <ele>183.2684326</ele>
        <time>2012-05-05T14:11:36Z</time>
      </trkpt>
      <trkpt lat="49.07301" lon="6.11286">
        <ele>182.3071289</ele>
        <time>2012-05-05T14:11:39Z</time>
      </trkpt>
      <trkpt lat="49.07308" lon="6.11293">
        <ele>181.3458252</ele>
        <time>2012-05-05T14:11:40Z</time>
      </trkpt>
      <trkpt lat="49.07348" lon="6.11343">
        <ele>183.2684326</ele>
        <time>2012-05-05T14:11:46Z</time>
      </trkpt>
      <trkpt lat="49.07406" lon="6.11425">
        <ele>182.7878418</ele>
        <time>2012-05-05T14:11:56Z</time>
      </trkpt>
      <trkpt lat="49.07451" lon="6.11491">
        <ele>181.3458252</ele>
        <time>2012-05-05T14:12:04Z</time>
      </trkpt>
      <trkpt lat="49.07511" lon="6.11592">
        <ele>180.8652344</ele>
        <time>2012-05-05T14:12:15Z</time>
      </trkpt>
      <trkpt lat="49.07556" lon="6.11661">
        <ele>178.4619141</ele>
        <time>2012-05-05T14:12:22Z</time>
      </trkpt>
      <trkpt lat="49.076" lon="6.11723">
        <ele>175.5778809</ele>
        <time>2012-05-05T14:12:28Z</time>
      </trkpt>
      <trkpt lat="49.07645" lon="6.11792">
        <ele>174.1358643</ele>
        <time>2012-05-05T14:12:35Z</time>
      </trkpt>
      <trkpt lat="49.07705" lon="6.11895">
        <ele>175.09729</ele>
        <time>2012-05-05T14:12:45Z</time>
      </trkpt>
      <trkpt lat="49.07754" lon="6.11986">
        <ele>175.5778809</ele>
        <time>2012-05-05T14:12:54Z</time>
      </trkpt>
      <trkpt lat="49.07779" lon="6.12063">
        <ele>176.5393066</ele>
        <time>2012-05-05T14:13:01Z</time>
      </trkpt>
      <trkpt lat="49.07806" lon="6.12155">
        <ele>177.9812012</ele>
        <time>2012-05-05T14:13:10Z</time>
      </trkpt>
      <trkpt lat="49.07835" lon="6.12217">
        <ele>177.9812012</ele>
        <time>2012-05-05T14:13:17Z</time>
      </trkpt>
      <trkpt lat="49.07849" lon="6.12242">
        <ele>177.5006104</ele>
        <time>2012-05-05T14:13:21Z</time>
      </trkpt>
      <trkpt lat="49.07863" lon="6.12259">
        <ele>177.0200195</ele>
        <time>2012-05-05T14:13:26Z</time>
      </trkpt>
      <trkpt lat="49.0788" lon="6.12291">
        <ele>177.5006104</ele>
        <time>2012-05-05T14:13:31Z</time>
      </trkpt>
      <trkpt lat="49.079" lon="6.12344">
        <ele>177.9812012</ele>
        <time>2012-05-05T14:13:37Z</time>
      </trkpt>
      <trkpt lat="49.07935" lon="6.1241">
        <ele>178.942627</ele>
        <time>2012-05-05T14:13:45Z</time>
      </trkpt>
      <trkpt lat="49.07976" lon="6.12488">
        <ele>180.3845215</ele>
        <time>2012-05-05T14:13:55Z</time>
      </trkpt>
      <trkpt lat="49.08017" lon="6.12565">
        <ele>181.3458252</ele>
        <time>2012-05-05T14:14:05Z</time>
      </trkpt>
      <trkpt lat="49.08055" lon="6.12636">
        <ele>182.3071289</ele>
        <time>2012-05-05T14:14:14Z</time>
      </trkpt>
      <trkpt lat="49.08098" lon="6.12709">
        <ele>182.3071289</ele>
        <time>2012-05-05T14:14:24Z</time>
      </trkpt>
      <trkpt lat="49.08133" lon="6.12743">
        <ele>182.3071289</ele>
        <time>2012-05-05T14:14:30Z</time>
      </trkpt>
      <trkpt lat="49.08188" lon="6.12778">
        <ele>179.9038086</ele>
        <time>2012-05-05T14:14:38Z</time>
      </trkpt>
      <trkpt lat="49.08261" lon="6.12825">
        <ele>177.5006104</ele>
        <time>2012-05-05T14:14:48Z</time>
      </trkpt>
      <trkpt lat="49.08296" lon="6.12858">
        <ele>177.0200195</ele>
        <time>2012-05-05T14:14:53Z</time>
      </trkpt>
      <trkpt lat="49.08343" lon="6.1293">
        <ele>175.5778809</ele>
        <time>2012-05-05T14:15:01Z</time>
      </trkpt>
      <trkpt lat="49.08398" lon="6.13015">
        <ele>176.5393066</ele>
        <time>2012-05-05T14:15:11Z</time>
      </trkpt>
      <trkpt lat="49.0846" lon="6.13112">
        <ele>176.0585938</ele>
        <time>2012-05-05T14:15:22Z</time>
      </trkpt>
      <trkpt lat="49.08536" lon="6.13231">
        <ele>175.5778809</ele>
        <time>2012-05-05T14:15:35Z</time>
      </trkpt>
      <trkpt lat="49.08577" lon="6.13295">
        <ele>174.6165771</ele>
        <time>2012-05-05T14:15:42Z</time>
      </trkpt>
      <trkpt lat="49.08612" lon="6.1335">
        <ele>176.5393066</ele>
        <time>2012-05-05T14:15:49Z</time>
      </trkpt>
      <trkpt lat="49.08669" lon="6.1344">
        <ele>177.5006104</ele>
        <time>2012-05-05T14:16:01Z</time>
      </trkpt>
      <trkpt lat="49.08705" lon="6.13495">
        <ele>178.942627</ele>
        <time>2012-05-05T14:16:09Z</time>
      </trkpt>
      <trkpt lat="49.08762" lon="6.13581">
        <ele>180.8652344</ele>
        <time>2012-05-05T14:16:22Z</time>
      </trkpt>
      <trkpt lat="49.08789" lon="6.13633">
        <ele>181.3458252</ele>
        <time>2012-05-05T14:16:29Z</time>
      </trkpt>
      <trkpt lat="49.08799" lon="6.13679">
        <ele>182.3071289</ele>
        <time>2012-05-05T14:16:34Z</time>
      </trkpt>
      <trkpt lat="49.08796" lon="6.13728">
        <ele>182.3071289</ele>
        <time>2012-05-05T14:16:39Z</time>
      </trkpt>
      <trkpt lat="49.0878" lon="6.13802">
        <ele>181.826416</ele>
        <time>2012-05-05T14:16:47Z</time>
      </trkpt>
      <trkpt lat="49.08758" lon="6.13903">
        <ele>181.826416</ele>
        <time>2012-05-05T14:16:58Z</time>
      </trkpt>
      <trkpt lat="49.08742" lon="6.13979">
        <ele>182.3071289</ele>
        <time>2012-05-05T14:17:06Z</time>
      </trkpt>
      <trkpt lat="49.08721" lon="6.14016">
        <ele>183.7490234</ele>
        <time>2012-05-05T14:17:11Z</time>
      </trkpt>
      <trkpt lat="49.08702" lon="6.14038">
        <ele>182.7878418</ele>
        <time>2012-05-05T14:17:15Z</time>
      </trkpt>
      <trkpt lat="49.08706" lon="6.14053">
        <ele>183.7490234</ele>
        <time>2012-05-05T14:17:17Z</time>
      </trkpt>
      <trkpt lat="49.08717" lon="6.14063">
        <ele>183.2684326</ele>
        <time>2012-05-05T14:17:19Z</time>
      </trkpt>
      <trkpt lat="49.08734" lon="6.14079">
        <ele>183.7490234</ele>
        <time>2012-05-05T14:17:22Z</time>
      </trkpt>
      <trkpt lat="49.08784" lon="6.14151">
        <ele>183.2684326</ele>
        <time>2012-05-05T14:17:32Z</time>
      </trkpt>
      <trkpt lat="49.08816" lon="6.14202">
        <ele>183.7490234</ele>
        <time>2012-05-05T14:17:39Z</time>
      </trkpt>
      <trkpt lat="49.08848" lon="6.14251">
        <ele>182.7878418</ele>
        <time>2012-05-05T14:17:46Z</time>
      </trkpt>
      <trkpt lat="49.08884" lon="6.14306">
        <ele>183.2684326</ele>
        <time>2012-05-05T14:17:54Z</time>
      </trkpt>
      <trkpt lat="49.08926" lon="6.14371">
        <ele>183.2684326</ele>
        <time>2012-05-05T14:18:03Z</time>
      </trkpt>
      <trkpt lat="49.08952" lon="6.14414">
        <ele>183.7490234</ele>
        <time>2012-05-05T14:18:09Z</time>
      </trkpt>
      <trkpt lat="49.08993" lon="6.14479">
        <ele>183.2684326</ele>
        <time>2012-05-05T14:18:18Z</time>
      </trkpt>
      <trkpt lat="49.09029" lon="6.14537">
        <ele>182.3071289</ele>
        <time>2012-05-05T14:18:26Z</time>
      </trkpt>
      <trkpt lat="49.09059" lon="6.14588">
        <ele>182.7878418</ele>
        <time>2012-05-05T14:18:33Z</time>
      </trkpt>
      <trkpt lat="49.091" lon="6.14654">
        <ele>182.7878418</ele>
        <time>2012-05-05T14:18:42Z</time>
      </trkpt>
      <trkpt lat="49.0914" lon="6.1472">
        <ele>181.826416</ele>
        <time>2012-05-05T14:18:51Z</time>
      </trkpt>
      <trkpt lat="49.09185" lon="6.14796">
        <ele>181.3458252</ele>
        <time>2012-05-05T14:19:01Z</time>
      </trkpt>
      <trkpt lat="49.09202" lon="6.14827">
        <ele>181.826416</ele>
        <time>2012-05-05T14:19:06Z</time>
      </trkpt>
      <trkpt lat="49.09208" lon="6.14839">
        <ele>180.8652344</ele>
        <time>2012-05-05T14:19:10Z</time>
      </trkpt>
      <trkpt lat="49.09208" lon="6.14839">
        <ele>180.8652344</ele>
        <time>2012-05-05T14:19:11Z</time>
      </trkpt>
      <trkpt lat="49.09206" lon="6.14839">
        <ele>180.8652344</ele>
        <time>2012-05-05T14:19:35Z</time>
      </trkpt>
      <trkpt lat="49.09207" lon="6.1484">
        <ele>180.3845215</ele>
        <time>2012-05-05T14:19:36Z</time>
      </trkpt>
      <trkpt lat="49.09219" lon="6.14859">
        <ele>180.3845215</ele>
        <time>2012-05-05T14:19:41Z</time>
      </trkpt>
      <trkpt lat="49.09235" lon="6.14885">
        <ele>181.3458252</ele>
        <time>2012-05-05T14:19:46Z</time>
      </trkpt>
      <trkpt lat="49.09266" lon="6.14941">
        <ele>180.8652344</ele>
        <time>2012-05-05T14:19:54Z</time>
      </trkpt>
      <trkpt lat="49.09298" lon="6.15015">
        <ele>181.3458252</ele>
        <time>2012-05-05T14:20:03Z</time>
      </trkpt>
      <trkpt lat="49.09336" lon="6.15099">
        <ele>181.3458252</ele>
        <time>2012-05-05T14:20:13Z</time>
      </trkpt>
      <trkpt lat="49.09364" lon="6.15164">
        <ele>181.3458252</ele>
        <time>2012-05-05T14:20:21Z</time>
      </trkpt>
      <trkpt lat="49.094" lon="6.15216">
        <ele>181.3458252</ele>
        <time>2012-05-05T14:20:29Z</time>
      </trkpt>
      <trkpt lat="49.09439" lon="6.1527">
        <ele>180.3845215</ele>
        <time>2012-05-05T14:20:37Z</time>
      </trkpt>
      <trkpt lat="49.09491" lon="6.15339">
        <ele>181.826416</ele>
        <time>2012-05-05T14:20:47Z</time>
      </trkpt>
      <trkpt lat="49.09532" lon="6.1539">
        <ele>181.826416</ele>
        <time>2012-05-05T14:20:55Z</time>
      </trkpt>
      <trkpt lat="49.09572" lon="6.1543">
        <ele>180.8652344</ele>
        <time>2012-05-05T14:21:02Z</time>
      </trkpt>
      <trkpt lat="49.09599" lon="6.1544">
        <ele>180.8652344</ele>
        <time>2012-05-05T14:21:06Z</time>
      </trkpt>
      <trkpt lat="49.09633" lon="6.15444">
        <ele>181.3458252</ele>
        <time>2012-05-05T14:21:11Z</time>
      </trkpt>
      <trkpt lat="49.09651" lon="6.15455">
        <ele>182.7878418</ele>
        <time>2012-05-05T14:21:14Z</time>
      </trkpt>
      <trkpt lat="49.09667" lon="6.15474">
        <ele>181.3458252</ele>
        <time>2012-05-05T14:21:17Z</time>
      </trkpt>
      <trkpt lat="49.09715" lon="6.15531">
        <ele>182.3071289</ele>
        <time>2012-05-05T14:21:26Z</time>
      </trkpt>
      <trkpt lat="49.09748" lon="6.15566">
        <ele>182.3071289</ele>
        <time>2012-05-05T14:21:32Z</time>
      </trkpt>
      <trkpt lat="49.09783" lon="6.15613">
        <ele>182.3071289</ele>
        <time>2012-05-05T14:21:39Z</time>
      </trkpt>
      <trkpt lat="49.09792" lon="6.15627">
        <ele>181.3458252</ele>
        <time>2012-05-05T14:21:41Z</time>
      </trkpt>
      <trkpt lat="49.09825" lon="6.15676">
        <ele>180.3845215</ele>
        <time>2012-05-05T14:21:48Z</time>
      </trkpt>
      <trkpt lat="49.09856" lon="6.1571">
        <ele>179.9038086</ele>
        <time>2012-05-05T14:21:54Z</time>
      </trkpt>
      <trkpt lat="49.09882" lon="6.15734">
        <ele>179.9038086</ele>
        <time>2012-05-05T14:21:59Z</time>
      </trkpt>
      <trkpt lat="49.09903" lon="6.15749">
        <ele>179.9038086</ele>
        <time>2012-05-05T14:22:03Z</time>
      </trkpt>
      <trkpt lat="49.09919" lon="6.15771">
        <ele>179.9038086</ele>
        <time>2012-05-05T14:22:07Z</time>
      </trkpt>
      <trkpt lat="49.0992" lon="6.15778">
        <ele>179.4232178</ele>
        <time>2012-05-05T14:22:08Z</time>
      </trkpt>
      <trkpt lat="49.09923" lon="6.15793">
        <ele>179.9038086</ele>
        <time>2012-05-05T14:22:12Z</time>
      </trkpt>
      <trkpt lat="49.09935" lon="6.15801">
        <ele>179.4232178</ele>
        <time>2012-05-05T14:22:19Z</time>
      </trkpt>
      <trkpt lat="49.09938" lon="6.15803">
        <ele>179.4232178</ele>
        <time>2012-05-05T14:22:22Z</time>
      </trkpt>
    </trkseg>
    </trkseg>
      <trkpt lat="49.1061" lon="6.16801">
        <ele>180.8652344</ele>
        <time>2012-05-06T05:59:28Z</time>
      </trkpt>
      <trkpt lat="49.1061" lon="6.16801">
        <ele>180.8652344</ele>
        <time>2012-05-06T05:59:29Z</time>
      </trkpt>
      <trkpt lat="49.1061" lon="6.16801">
        <ele>180.8652344</ele>
        <time>2012-05-06T05:59:30Z</time>
      </trkpt>
    </trkseg>
    </trkseg>
      <trkpt lat="49.1061" lon="6.16801">
        <ele>181.826416</ele>
        <time>2012-05-06T06:00:37Z</time>
      </trkpt>
      <trkpt lat="49.10611" lon="6.16803">
        <ele>181.3458252</ele>
        <time>2012-05-06T06:00:40Z</time>
      </trkpt>
      <trkpt lat="49.10611" lon="6.16803">
        <ele>181.3458252</ele>
        <time>2012-05-06T06:00:50Z</time>
      </trkpt>
      <trkpt lat="49.1061" lon="6.16815">
        <ele>182.3071289</ele>
        <time>2012-05-06T06:00:54Z</time>
      </trkpt>
      <trkpt lat="49.10609" lon="6.16818">
        <ele>182.7878418</ele>
        <time>2012-05-06T06:00:55Z</time>
      </trkpt>
      <trkpt lat="49.106" lon="6.16833">
        <ele>183.2684326</ele>
        <time>2012-05-06T06:00:59Z</time>
      </trkpt>
      <trkpt lat="49.10585" lon="6.16847">
        <ele>183.2684326</ele>
        <time>2012-05-06T06:01:03Z</time>
      </trkpt>
      <trkpt lat="49.1055" lon="6.1686">
        <ele>183.7490234</ele>
        <time>2012-05-06T06:01:10Z</time>
      </trkpt>
      <trkpt lat="49.10534" lon="6.16865">
        <ele>183.7490234</ele>
        <time>2012-05-06T06:01:13Z</time>
      </trkpt>
      <trkpt lat="49.10482" lon="6.16884">
        <ele>184.7105713</ele>
        <time>2012-05-06T06:01:23Z</time>
      </trkpt>
      <trkpt lat="49.10456" lon="6.1689">
        <ele>185.1911621</ele>
        <time>2012-05-06T06:01:28Z</time>
      </trkpt>
      <trkpt lat="49.10436" lon="6.16904">
        <ele>184.7105713</ele>
        <time>2012-05-06T06:01:32Z</time>
      </trkpt>
      <trkpt lat="49.10408" lon="6.16949">
        <ele>186.1524658</ele>
        <time>2012-05-06T06:01:39Z</time>
      </trkpt>
      <trkpt lat="49.10379" lon="6.17004">
        <ele>185.6717529</ele>
        <time>2012-05-06T06:01:47Z</time>
      </trkpt>
      <trkpt lat="49.10351" lon="6.17061">
        <ele>184.2298584</ele>
        <time>2012-05-06T06:01:55Z</time>
      </trkpt>
      <trkpt lat="49.10342" lon="6.17083">
        <ele>182.7878418</ele>
        <time>2012-05-06T06:01:58Z</time>
      </trkpt>
      <trkpt lat="49.10336" lon="6.17096">
        <ele>183.2684326</ele>
        <time>2012-05-06T06:02:00Z</time>
      </trkpt>
      <trkpt lat="49.10318" lon="6.1711">
        <ele>182.7878418</ele>
        <time>2012-05-06T06:02:04Z</time>
      </trkpt>
      <trkpt lat="49.10306" lon="6.17107">
        <ele>183.2684326</ele>
        <time>2012-05-06T06:02:06Z</time>
      </trkpt>
      <trkpt lat="49.10283" lon="6.17097">
        <ele>183.7490234</ele>
        <time>2012-05-06T06:02:10Z</time>
      </trkpt>
      <trkpt lat="49.10246" lon="6.1706">
        <ele>184.2298584</ele>
        <time>2012-05-06T06:02:18Z</time>
      </trkpt>
      <trkpt lat="49.10215" lon="6.17026">
        <ele>185.1911621</ele>
        <time>2012-05-06T06:02:25Z</time>
      </trkpt>
      <trkpt lat="49.10202" lon="6.1701">
        <ele>185.6717529</ele>
        <time>2012-05-06T06:02:28Z</time>
      </trkpt>
      <trkpt lat="49.10189" lon="6.16971">
        <ele>185.1911621</ele>
        <time>2012-05-06T06:02:33Z</time>
      </trkpt>
      <trkpt lat="49.10185" lon="6.16954">
        <ele>184.7105713</ele>
        <time>2012-05-06T06:02:35Z</time>
      </trkpt>
      <trkpt lat="49.10174" lon="6.16924">
        <ele>184.2298584</ele>
        <time>2012-05-06T06:02:40Z</time>
      </trkpt>
      <trkpt lat="49.10166" lon="6.16913">
        <ele>184.2298584</ele>
        <time>2012-05-06T06:02:46Z</time>
      </trkpt>
      <trkpt lat="49.10166" lon="6.16913">
        <ele>184.2298584</ele>
        <time>2012-05-06T06:02:47Z</time>
      </trkpt>
      <trkpt lat="49.10166" lon="6.16914">
        <ele>184.2298584</ele>
        <time>2012-05-06T06:03:21Z</time>
      </trkpt>
      <trkpt lat="49.10164" lon="6.16913">
        <ele>184.7105713</ele>
        <time>2012-05-06T06:03:22Z</time>
      </trkpt>
      <trkpt lat="49.10152" lon="6.16908">
        <ele>185.6717529</ele>
        <time>2012-05-06T06:03:25Z</time>
      </trkpt>
      <trkpt lat="49.10142" lon="6.16905">
        <ele>185.1911621</ele>
        <time>2012-05-06T06:03:27Z</time>
      </trkpt>
      <trkpt lat="49.10125" lon="6.16898">
        <ele>184.7105713</ele>
        <time>2012-05-06T06:03:30Z</time>
      </trkpt>
      <trkpt lat="49.10119" lon="6.16895">
        <ele>185.1911621</ele>
        <time>2012-05-06T06:03:31Z</time>
      </trkpt>
      <trkpt lat="49.10114" lon="6.16893">
        <ele>184.2298584</ele>
        <time>2012-05-06T06:03:32Z</time>
      </trkpt>
      <trkpt lat="49.1009" lon="6.16884">
        <ele>183.7490234</ele>
        <time>2012-05-06T06:03:36Z</time>
      </trkpt>
      <trkpt lat="49.10048" lon="6.16877">
        <ele>184.7105713</ele>
        <time>2012-05-06T06:03:43Z</time>
      </trkpt>
      <trkpt lat="49.10043" lon="6.16876">
        <ele>184.7105713</ele>
        <time>2012-05-06T06:03:44Z</time>
      </trkpt>
      <trkpt lat="49.09989" lon="6.1687">
        <ele>185.6717529</ele>
        <time>2012-05-06T06:03:53Z</time>
      </trkpt>
      <trkpt lat="49.09933" lon="6.16869">
        <ele>185.1911621</ele>
        <time>2012-05-06T06:04:02Z</time>
      </trkpt>
      <trkpt lat="49.09896" lon="6.16879">
        <ele>185.1911621</ele>
        <time>2012-05-06T06:04:08Z</time>
      </trkpt>
      <trkpt lat="49.09856" lon="6.16907">
        <ele>185.1911621</ele>
        <time>2012-05-06T06:04:15Z</time>
      </trkpt>
      <trkpt lat="49.0981" lon="6.16941">
        <ele>184.2298584</ele>
        <time>2012-05-06T06:04:23Z</time>
      </trkpt>
      <trkpt lat="49.0975" lon="6.16971">
        <ele>184.7105713</ele>
        <time>2012-05-06T06:04:33Z</time>
      </trkpt>
      <trkpt lat="49.0972" lon="6.16985">
        <ele>183.2684326</ele>
        <time>2012-05-06T06:04:38Z</time>
      </trkpt>
      <trkpt lat="49.09673" lon="6.17015">
        <ele>184.2298584</ele>
        <time>2012-05-06T06:04:46Z</time>
      </trkpt>
      <trkpt lat="49.09641" lon="6.17039">
        <ele>183.7490234</ele>
        <time>2012-05-06T06:04:52Z</time>
      </trkpt>
      <trkpt lat="49.09598" lon="6.17078">
        <ele>183.7490234</ele>
        <time>2012-05-06T06:05:00Z</time>
      </trkpt>
      <trkpt lat="49.09559" lon="6.17132">
        <ele>182.3071289</ele>
        <time>2012-05-06T06:05:08Z</time>
      </trkpt>
      <trkpt lat="49.09502" lon="6.17212">
        <ele>181.3458252</ele>
        <time>2012-05-06T06:05:19Z</time>
      </trkpt>
      <trkpt lat="49.0944" lon="6.17304">
        <ele>179.4232178</ele>
        <time>2012-05-06T06:05:31Z</time>
      </trkpt>
      <trkpt lat="49.09408" lon="6.17354">
        <ele>181.3458252</ele>
        <time>2012-05-06T06:05:38Z</time>
      </trkpt>
      <trkpt lat="49.09384" lon="6.17395">
        <ele>181.3458252</ele>
        <time>2012-05-06T06:05:44Z</time>
      </trkpt>
      <trkpt lat="49.09353" lon="6.17449">
        <ele>183.2684326</ele>
        <time>2012-05-06T06:05:53Z</time>
      </trkpt>
      <trkpt lat="49.09342" lon="6.17466">
        <ele>182.7878418</ele>
        <time>2012-05-06T06:05:58Z</time>
      </trkpt>
      <trkpt lat="49.09341" lon="6.17467">
        <ele>182.7878418</ele>
        <time>2012-05-06T06:06:01Z</time>
      </trkpt>
      <trkpt lat="49.09341" lon="6.17467">
        <ele>183.2684326</ele>
        <time>2012-05-06T06:06:04Z</time>
      </trkpt>
      <trkpt lat="49.09333" lon="6.17477">
        <ele>183.7490234</ele>
        <time>2012-05-06T06:06:07Z</time>
      </trkpt>
      <trkpt lat="49.09322" lon="6.17498">
        <ele>184.2298584</ele>
        <time>2012-05-06T06:06:11Z</time>
      </trkpt>
      <trkpt lat="49.09291" lon="6.17539">
        <ele>182.7878418</ele>
        <time>2012-05-06T06:06:18Z</time>
      </trkpt>
      <trkpt lat="49.09242" lon="6.17606">
        <ele>181.826416</ele>
        <time>2012-05-06T06:06:28Z</time>
      </trkpt>
      <trkpt lat="49.09191" lon="6.1767">
        <ele>178.942627</ele>
        <time>2012-05-06T06:06:37Z</time>
      </trkpt>
      <trkpt lat="49.09137" lon="6.17754">
        <ele>177.5006104</ele>
        <time>2012-05-06T06:06:47Z</time>
      </trkpt>
      <trkpt lat="49.09098" lon="6.17817">
        <ele>174.1358643</ele>
        <time>2012-05-06T06:06:54Z</time>
      </trkpt>
      <trkpt lat="49.09093" lon="6.17827">
        <ele>174.6165771</ele>
        <time>2012-05-06T06:06:55Z</time>
      </trkpt>
      <trkpt lat="49.09065" lon="6.17888">
        <ele>173.1746826</ele>
        <time>2012-05-06T06:07:01Z</time>
      </trkpt>
      <trkpt lat="49.09054" lon="6.17923">
        <ele>171.2520752</ele>
        <time>2012-05-06T06:07:04Z</time>
      </trkpt>
      <trkpt lat="49.09036" lon="6.18005">
        <ele>169.8100586</ele>
        <time>2012-05-06T06:07:11Z</time>
      </trkpt>
      <trkpt lat="49.09032" lon="6.18076">
        <ele>169.8100586</ele>
        <time>2012-05-06T06:07:17Z</time>
      </trkpt>
      <trkpt lat="49.09031" lon="6.18108">
        <ele>168.368042</ele>
        <time>2012-05-06T06:07:20Z</time>
      </trkpt>
      <trkpt lat="49.09031" lon="6.18145">
        <ele>167.4067383</ele>
        <time>2012-05-06T06:07:24Z</time>
      </trkpt>
      <trkpt lat="49.09021" lon="6.18166">
        <ele>167.4067383</ele>
        <time>2012-05-06T06:07:28Z</time>
      </trkpt>
      <trkpt lat="49.09016" lon="6.18167">
        <ele>167.8873291</ele>
        <time>2012-05-06T06:07:29Z</time>
      </trkpt>
      <trkpt lat="49.08964" lon="6.1817">
        <ele>167.8873291</ele>
        <time>2012-05-06T06:07:37Z</time>
      </trkpt>
      <trkpt lat="49.08933" lon="6.18171">
        <ele>168.368042</ele>
        <time>2012-05-06T06:07:42Z</time>
      </trkpt>
      <trkpt lat="49.08885" lon="6.18173">
        <ele>167.8873291</ele>
        <time>2012-05-06T06:07:50Z</time>
      </trkpt>
      <trkpt lat="49.08866" lon="6.18175">
        <ele>167.4067383</ele>
        <time>2012-05-06T06:07:55Z</time>
      </trkpt>
      <trkpt lat="49.08856" lon="6.18175">
        <ele>167.8873291</ele>
        <time>2012-05-06T06:08:01Z</time>
      </trkpt>
      <trkpt lat="49.08849" lon="6.18175">
        <ele>168.368042</ele>
        <time>2012-05-06T06:08:08Z</time>
      </trkpt>
      <trkpt lat="49.08833" lon="6.18174">
        <ele>168.368042</ele>
        <time>2012-05-06T06:08:14Z</time>
      </trkpt>
      <trkpt lat="49.08823" lon="6.18175">
        <ele>168.368042</ele>
        <time>2012-05-06T06:08:16Z</time>
      </trkpt>
      <trkpt lat="49.08801" lon="6.18179">
        <ele>168.368042</ele>
        <time>2012-05-06T06:08:20Z</time>
      </trkpt>
      <trkpt lat="49.08743" lon="6.18186">
        <ele>168.8487549</ele>
        <time>2012-05-06T06:08:29Z</time>
      </trkpt>
      <trkpt lat="49.08703" lon="6.18197">
        <ele>168.368042</ele>
        <time>2012-05-06T06:08:35Z</time>
      </trkpt>
      <trkpt lat="49.08642" lon="6.1822">
        <ele>167.4067383</ele>
        <time>2012-05-06T06:08:44Z</time>
      </trkpt>
      <trkpt lat="49.08577" lon="6.18247">
        <ele>167.4067383</ele>
        <time>2012-05-06T06:08:54Z</time>
      </trkpt>
      <trkpt lat="49.08517" lon="6.1826">
        <ele>166.9260254</ele>
        <time>2012-05-06T06:09:03Z</time>
      </trkpt>
      <trkpt lat="49.08466" lon="6.18268">
        <ele>167.4067383</ele>
        <time>2012-05-06T06:09:11Z</time>
      </trkpt>
      <trkpt lat="49.08396" lon="6.18282">
        <ele>167.8873291</ele>
        <time>2012-05-06T06:09:22Z</time>
      </trkpt>
      <trkpt lat="49.08356" lon="6.18289">
        <ele>167.8873291</ele>
        <time>2012-05-06T06:09:29Z</time>
      </trkpt>
      <trkpt lat="49.08335" lon="6.18296">
        <ele>167.4067383</ele>
        <time>2012-05-06T06:09:35Z</time>
      </trkpt>
      <trkpt lat="49.0833" lon="6.18297">
        <ele>167.4067383</ele>
        <time>2012-05-06T06:09:40Z</time>
      </trkpt>
      <trkpt lat="49.08329" lon="6.18298">
        <ele>167.8873291</ele>
        <time>2012-05-06T06:09:51Z</time>
      </trkpt>
      <trkpt lat="49.08316" lon="6.18302">
        <ele>167.8873291</ele>
        <time>2012-05-06T06:09:55Z</time>
      </trkpt>
      <trkpt lat="49.08309" lon="6.18303">
        <ele>167.8873291</ele>
        <time>2012-05-06T06:09:57Z</time>
      </trkpt>
      <trkpt lat="49.08299" lon="6.18324">
        <ele>168.368042</ele>
        <time>2012-05-06T06:10:01Z</time>
      </trkpt>
      <trkpt lat="49.08286" lon="6.18351">
        <ele>168.368042</ele>
        <time>2012-05-06T06:10:05Z</time>
      </trkpt>
      <trkpt lat="49.08251" lon="6.18396">
        <ele>169.3294678</ele>
        <time>2012-05-06T06:10:12Z</time>
      </trkpt>
      <trkpt lat="49.08209" lon="6.1845">
        <ele>169.3294678</ele>
        <time>2012-05-06T06:10:20Z</time>
      </trkpt>
      <trkpt lat="49.08155" lon="6.18518">
        <ele>168.8487549</ele>
        <time>2012-05-06T06:10:30Z</time>
      </trkpt>
      <trkpt lat="49.08118" lon="6.18569">
        <ele>168.8487549</ele>
        <time>2012-05-06T06:10:37Z</time>
      </trkpt>
      <trkpt lat="49.08079" lon="6.18628">
        <ele>168.368042</ele>
        <time>2012-05-06T06:10:45Z</time>
      </trkpt>
      <trkpt lat="49.08033" lon="6.18693">
        <ele>168.368042</ele>
        <time>2012-05-06T06:10:54Z</time>
      </trkpt>
      <trkpt lat="49.08015" lon="6.18709">
        <ele>168.8487549</ele>
        <time>2012-05-06T06:10:57Z</time>
      </trkpt>
      <trkpt lat="49.07987" lon="6.18716">
        <ele>168.8487549</ele>
        <time>2012-05-06T06:11:01Z</time>
      </trkpt>
      <trkpt lat="49.07963" lon="6.18739">
        <ele>167.8873291</ele>
        <time>2012-05-06T06:11:05Z</time>
      </trkpt>
      <trkpt lat="49.07929" lon="6.18823">
        <ele>168.8487549</ele>
        <time>2012-05-06T06:11:14Z</time>
      </trkpt>
      <trkpt lat="49.07896" lon="6.18903">
        <ele>168.368042</ele>
        <time>2012-05-06T06:11:23Z</time>
      </trkpt>
      <trkpt lat="49.07866" lon="6.18983">
        <ele>168.8487549</ele>
        <time>2012-05-06T06:11:32Z</time>
      </trkpt>
      <trkpt lat="49.0784" lon="6.19074">
        <ele>169.8100586</ele>
        <time>2012-05-06T06:11:42Z</time>
      </trkpt>
      <trkpt lat="49.0782" lon="6.19146">
        <ele>170.2906494</ele>
        <time>2012-05-06T06:11:50Z</time>
      </trkpt>
      <trkpt lat="49.07794" lon="6.19215">
        <ele>171.2520752</ele>
        <time>2012-05-06T06:11:58Z</time>
      </trkpt>
      <trkpt lat="49.07765" lon="6.19283">
        <ele>171.2520752</ele>
        <time>2012-05-06T06:12:06Z</time>
      </trkpt>
      <trkpt lat="49.07757" lon="6.19299">
        <ele>171.732666</ele>
        <time>2012-05-06T06:12:08Z</time>
      </trkpt>
      <trkpt lat="49.07753" lon="6.19308">
        <ele>171.2520752</ele>
        <time>2012-05-06T06:12:09Z</time>
      </trkpt>
      <trkpt lat="49.07709" lon="6.19392">
        <ele>172.2132568</ele>
        <time>2012-05-06T06:12:20Z</time>
      </trkpt>
      <trkpt lat="49.07704" lon="6.19399">
        <ele>172.6939697</ele>
        <time>2012-05-06T06:12:21Z</time>
      </trkpt>
      <trkpt lat="49.077" lon="6.19406">
        <ele>172.6939697</ele>
        <time>2012-05-06T06:12:22Z</time>
      </trkpt>
      <trkpt lat="49.07695" lon="6.19413">
        <ele>172.6939697</ele>
        <time>2012-05-06T06:12:23Z</time>
      </trkpt>
      <trkpt lat="49.07691" lon="6.1942">
        <ele>172.2132568</ele>
        <time>2012-05-06T06:12:24Z</time>
      </trkpt>
      <trkpt lat="49.07682" lon="6.19434">
        <ele>172.2132568</ele>
        <time>2012-05-06T06:12:26Z</time>
      </trkpt>
      <trkpt lat="49.07678" lon="6.19442">
        <ele>172.6939697</ele>
        <time>2012-05-06T06:12:27Z</time>
      </trkpt>
      <trkpt lat="49.07649" lon="6.19493">
        <ele>173.1746826</ele>
        <time>2012-05-06T06:12:34Z</time>
      </trkpt>
      <trkpt lat="49.07624" lon="6.19556">
        <ele>173.6552734</ele>
        <time>2012-05-06T06:12:42Z</time>
      </trkpt>
      <trkpt lat="49.0761" lon="6.19595">
        <ele>174.6165771</ele>
        <time>2012-05-06T06:12:47Z</time>
      </trkpt>
      <trkpt lat="49.07607" lon="6.19602">
        <ele>174.6165771</ele>
        <time>2012-05-06T06:12:48Z</time>
      </trkpt>
      <trkpt lat="49.076" lon="6.19627">
        <ele>174.6165771</ele>
        <time>2012-05-06T06:12:51Z</time>
      </trkpt>
      <trkpt lat="49.07598" lon="6.19635">
        <ele>174.6165771</ele>
        <time>2012-05-06T06:12:52Z</time>
      </trkpt>
      <trkpt lat="49.07589" lon="6.19706">
        <ele>175.09729</ele>
        <time>2012-05-06T06:13:00Z</time>
      </trkpt>
      <trkpt lat="49.07581" lon="6.19786">
        <ele>177.0200195</ele>
        <time>2012-05-06T06:13:09Z</time>
      </trkpt>
      <trkpt lat="49.07571" lon="6.19891">
        <ele>178.4619141</ele>
        <time>2012-05-06T06:13:21Z</time>
      </trkpt>
      <trkpt lat="49.07564" lon="6.19972">
        <ele>180.3845215</ele>
        <time>2012-05-06T06:13:31Z</time>
      </trkpt>
      <trkpt lat="49.07558" lon="6.20031">
        <ele>182.7878418</ele>
        <time>2012-05-06T06:13:39Z</time>
      </trkpt>
      <trkpt lat="49.07553" lon="6.20082">
        <ele>185.1911621</ele>
        <time>2012-05-06T06:13:46Z</time>
      </trkpt>
      <trkpt lat="49.07552" lon="6.20096">
        <ele>185.1911621</ele>
        <time>2012-05-06T06:13:48Z</time>
      </trkpt>
      <trkpt lat="49.07551" lon="6.20111">
        <ele>185.6717529</ele>
        <time>2012-05-06T06:13:50Z</time>
      </trkpt>
      <trkpt lat="49.0755" lon="6.20118">
        <ele>185.6717529</ele>
        <time>2012-05-06T06:13:51Z</time>
      </trkpt>
      <trkpt lat="49.07548" lon="6.2014">
        <ele>186.6331787</ele>
        <time>2012-05-06T06:13:54Z</time>
      </trkpt>
      <trkpt lat="49.07547" lon="6.20154">
        <ele>186.6331787</ele>
        <time>2012-05-06T06:13:56Z</time>
      </trkpt>
      <trkpt lat="49.07546" lon="6.20169">
        <ele>186.6331787</ele>
        <time>2012-05-06T06:13:58Z</time>
      </trkpt>
      <trkpt lat="49.07543" lon="6.20205">
        <ele>187.5943604</ele>
        <time>2012-05-06T06:14:03Z</time>
      </trkpt>
      <trkpt lat="49.07537" lon="6.20259">
        <ele>189.036377</ele>
        <time>2012-05-06T06:14:10Z</time>
      </trkpt>
      <trkpt lat="49.07528" lon="6.20335">
        <ele>189.9976807</ele>
        <time>2012-05-06T06:14:19Z</time>
      </trkpt>
      <trkpt lat="49.07519" lon="6.20414">
        <ele>189.036377</ele>
        <time>2012-05-06T06:14:28Z</time>
      </trkpt>
      <trkpt lat="49.07511" lon="6.20492">
        <ele>188.5557861</ele>
        <time>2012-05-06T06:14:36Z</time>
      </trkpt>
      <trkpt lat="49.07509" lon="6.20554">
        <ele>188.0750732</ele>
        <time>2012-05-06T06:14:42Z</time>
      </trkpt>
      <trkpt lat="49.07509" lon="6.20661">
        <ele>187.5943604</ele>
        <time>2012-05-06T06:14:52Z</time>
      </trkpt>
      <trkpt lat="49.07511" lon="6.20791">
        <ele>187.5943604</ele>
        <time>2012-05-06T06:15:04Z</time>
      </trkpt>
      <trkpt lat="49.07515" lon="6.2092">
        <ele>187.1137695</ele>
        <time>2012-05-06T06:15:16Z</time>
      </trkpt>
      <trkpt lat="49.07519" lon="6.2105">
        <ele>187.5943604</ele>
        <time>2012-05-06T06:15:28Z</time>
      </trkpt>
      <trkpt lat="49.0752" lon="6.21191">
        <ele>187.5943604</ele>
        <time>2012-05-06T06:15:41Z</time>
      </trkpt>
      <trkpt lat="49.07511" lon="6.21265">
        <ele>187.1137695</ele>
        <time>2012-05-06T06:15:48Z</time>
      </trkpt>
      <trkpt lat="49.07494" lon="6.21325">
        <ele>187.1137695</ele>
        <time>2012-05-06T06:15:54Z</time>
      </trkpt>
      <trkpt lat="49.07462" lon="6.21387">
        <ele>186.1524658</ele>
        <time>2012-05-06T06:16:01Z</time>
      </trkpt>
      <trkpt lat="49.07426" lon="6.21431">
        <ele>185.6717529</ele>
        <time>2012-05-06T06:16:07Z</time>
      </trkpt>
      <trkpt lat="49.07349" lon="6.21515">
        <ele>184.7105713</ele>
        <time>2012-05-06T06:16:19Z</time>
      </trkpt>
      <trkpt lat="49.07323" lon="6.21559">
        <ele>184.2298584</ele>
        <time>2012-05-06T06:16:24Z</time>
      </trkpt>
      <trkpt lat="49.073" lon="6.2162">
        <ele>184.2298584</ele>
        <time>2012-05-06T06:16:30Z</time>
      </trkpt>
      <trkpt lat="49.07286" lon="6.21671">
        <ele>184.2298584</ele>
        <time>2012-05-06T06:16:35Z</time>
      </trkpt>
      <trkpt lat="49.07276" lon="6.21712">
        <ele>184.2298584</ele>
        <time>2012-05-06T06:16:39Z</time>
      </trkpt>
      <trkpt lat="49.07275" lon="6.21756">
        <ele>183.7490234</ele>
        <time>2012-05-06T06:16:43Z</time>
      </trkpt>
      <trkpt lat="49.07294" lon="6.21841">
        <ele>183.7490234</ele>
        <time>2012-05-06T06:16:51Z</time>
      </trkpt>
      <trkpt lat="49.07309" lon="6.219">
        <ele>184.2298584</ele>
        <time>2012-05-06T06:16:57Z</time>
      </trkpt>
      <trkpt lat="49.0732" lon="6.21946">
        <ele>184.7105713</ele>
        <time>2012-05-06T06:17:02Z</time>
      </trkpt>
      <trkpt lat="49.0734" lon="6.22007">
        <ele>185.1911621</ele>
        <time>2012-05-06T06:17:09Z</time>
      </trkpt>
      <trkpt lat="49.07358" lon="6.22054">
        <ele>187.1137695</ele>
        <time>2012-05-06T06:17:15Z</time>
      </trkpt>
      <trkpt lat="49.07358" lon="6.22087">
        <ele>188.5557861</ele>
        <time>2012-05-06T06:17:19Z</time>
      </trkpt>
      <trkpt lat="49.0735" lon="6.22118">
        <ele>188.5557861</ele>
        <time>2012-05-06T06:17:23Z</time>
      </trkpt>
      <trkpt lat="49.0735" lon="6.22127">
        <ele>189.036377</ele>
        <time>2012-05-06T06:17:24Z</time>
      </trkpt>
      <trkpt lat="49.07353" lon="6.22146">
        <ele>189.036377</ele>
        <time>2012-05-06T06:17:26Z</time>
      </trkpt>
      <trkpt lat="49.07349" lon="6.22184">
        <ele>189.5169678</ele>
        <time>2012-05-06T06:17:30Z</time>
      </trkpt>
      <trkpt lat="49.0732" lon="6.22287">
        <ele>189.5169678</ele>
        <time>2012-05-06T06:17:41Z</time>
      </trkpt>
      <trkpt lat="49.07294" lon="6.22381">
        <ele>189.5169678</ele>
        <time>2012-05-06T06:17:51Z</time>
      </trkpt>
      <trkpt lat="49.07264" lon="6.22516">
        <ele>189.9976807</ele>
        <time>2012-05-06T06:18:05Z</time>
      </trkpt>
      <trkpt lat="49.07247" lon="6.22614">
        <ele>190.4783936</ele>
        <time>2012-05-06T06:18:15Z</time>
      </trkpt>
      <trkpt lat="49.07238" lon="6.22675">
        <ele>190.4783936</ele>
        <time>2012-05-06T06:18:21Z</time>
      </trkpt>
      <trkpt lat="49.07217" lon="6.2272">
        <ele>188.5557861</ele>
        <time>2012-05-06T06:18:26Z</time>
      </trkpt>
      <trkpt lat="49.07146" lon="6.22802">
        <ele>188.0750732</ele>
        <time>2012-05-06T06:18:38Z</time>
      </trkpt>
      <trkpt lat="49.07095" lon="6.22849">
        <ele>187.1137695</ele>
        <time>2012-05-06T06:18:46Z</time>
      </trkpt>
      <trkpt lat="49.07048" lon="6.22877">
        <ele>187.1137695</ele>
        <time>2012-05-06T06:18:53Z</time>
      </trkpt>
      <trkpt lat="49.07006" lon="6.22929">
        <ele>185.6717529</ele>
        <time>2012-05-06T06:19:00Z</time>
      </trkpt>
      <trkpt lat="49.06985" lon="6.22963">
        <ele>185.6717529</ele>
        <time>2012-05-06T06:19:04Z</time>
      </trkpt>
      <trkpt lat="49.06958" lon="6.22983">
        <ele>185.6717529</ele>
        <time>2012-05-06T06:19:08Z</time>
      </trkpt>
      <trkpt lat="49.06937" lon="6.22975">
        <ele>185.6717529</ele>
        <time>2012-05-06T06:19:11Z</time>
      </trkpt>
      <trkpt lat="49.06869" lon="6.22941">
        <ele>186.1524658</ele>
        <time>2012-05-06T06:19:21Z</time>
      </trkpt>
      <trkpt lat="49.06848" lon="6.22938">
        <ele>186.6331787</ele>
        <time>2012-05-06T06:19:24Z</time>
      </trkpt>
      <trkpt lat="49.06816" lon="6.22951">
        <ele>187.1137695</ele>
        <time>2012-05-06T06:19:29Z</time>
      </trkpt>
      <trkpt lat="49.0677" lon="6.22993">
        <ele>187.5943604</ele>
        <time>2012-05-06T06:19:37Z</time>
      </trkpt>
      <trkpt lat="49.06729" lon="6.23019">
        <ele>189.5169678</ele>
        <time>2012-05-06T06:19:44Z</time>
      </trkpt>
      <trkpt lat="49.06687" lon="6.23025">
        <ele>191.4395752</ele>
        <time>2012-05-06T06:19:52Z</time>
      </trkpt>
      <trkpt lat="49.06648" lon="6.23033">
        <ele>193.3623047</ele>
        <time>2012-05-06T06:20:00Z</time>
      </trkpt>
      <trkpt lat="49.06604" lon="6.23046">
        <ele>194.8043213</ele>
        <time>2012-05-06T06:20:10Z</time>
      </trkpt>
      <trkpt lat="49.06591" lon="6.2305">
        <ele>196.7269287</ele>
        <time>2012-05-06T06:20:13Z</time>
      </trkpt>
      <trkpt lat="49.06545" lon="6.23065">
        <ele>197.6882324</ele>
        <time>2012-05-06T06:20:23Z</time>
      </trkpt>
      <trkpt lat="49.06502" lon="6.23081">
        <ele>198.6495361</ele>
        <time>2012-05-06T06:20:32Z</time>
      </trkpt>
      <trkpt lat="49.06467" lon="6.23103">
        <ele>197.6882324</ele>
        <time>2012-05-06T06:20:39Z</time>
      </trkpt>
      <trkpt lat="49.06436" lon="6.23137">
        <ele>196.2463379</ele>
        <time>2012-05-06T06:20:45Z</time>
      </trkpt>
      <trkpt lat="49.06431" lon="6.23143">
        <ele>196.2463379</ele>
        <time>2012-05-06T06:20:46Z</time>
      </trkpt>
      <trkpt lat="49.06389" lon="6.23189">
        <ele>195.765625</ele>
        <time>2012-05-06T06:20:53Z</time>
      </trkpt>
      <trkpt lat="49.06355" lon="6.23217">
        <ele>193.3623047</ele>
        <time>2012-05-06T06:20:58Z</time>
      </trkpt>
      <trkpt lat="49.06294" lon="6.23253">
        <ele>192.401123</ele>
        <time>2012-05-06T06:21:06Z</time>
      </trkpt>
      <trkpt lat="49.06221" lon="6.23301">
        <ele>191.4395752</ele>
        <time>2012-05-06T06:21:16Z</time>
      </trkpt>
      <trkpt lat="49.062" lon="6.23327">
        <ele>191.9202881</ele>
        <time>2012-05-06T06:21:20Z</time>
      </trkpt>
      <trkpt lat="49.06172" lon="6.23368">
        <ele>193.3623047</ele>
        <time>2012-05-06T06:21:26Z</time>
      </trkpt>
      <trkpt lat="49.06153" lon="6.23399">
        <ele>194.3237305</ele>
        <time>2012-05-06T06:21:31Z</time>
      </trkpt>
      <trkpt lat="49.06146" lon="6.23409">
        <ele>195.2849121</ele>
        <time>2012-05-06T06:21:33Z</time>
      </trkpt>
      <trkpt lat="49.06128" lon="6.23438">
        <ele>196.7269287</ele>
        <time>2012-05-06T06:21:38Z</time>
      </trkpt>
      <trkpt lat="49.06102" lon="6.23471">
        <ele>197.2075195</ele>
        <time>2012-05-06T06:21:44Z</time>
      </trkpt>
      <trkpt lat="49.06071" lon="6.23498">
        <ele>198.1689453</ele>
        <time>2012-05-06T06:21:50Z</time>
      </trkpt>
      <trkpt lat="49.06017" lon="6.23535">
        <ele>198.6495361</ele>
        <time>2012-05-06T06:22:00Z</time>
      </trkpt>
      <trkpt lat="49.05975" lon="6.23557">
        <ele>197.2075195</ele>
        <time>2012-05-06T06:22:07Z</time>
      </trkpt>
      <trkpt lat="49.05962" lon="6.23559">
        <ele>197.6882324</ele>
        <time>2012-05-06T06:22:09Z</time>
      </trkpt>
      <trkpt lat="49.05918" lon="6.23547">
        <ele>198.1689453</ele>
        <time>2012-05-06T06:22:16Z</time>
      </trkpt>
      <trkpt lat="49.05883" lon="6.23523">
        <ele>200.0916748</ele>
        <time>2012-05-06T06:22:23Z</time>
      </trkpt>
      <trkpt lat="49.05846" lon="6.23497">
        <ele>202.494873</ele>
        <time>2012-05-06T06:22:31Z</time>
      </trkpt>
      <trkpt lat="49.05818" lon="6.23481">
        <ele>202.9754639</ele>
        <time>2012-05-06T06:22:37Z</time>
      </trkpt>
      <trkpt lat="49.05793" lon="6.23476">
        <ele>203.9368896</ele>
        <time>2012-05-06T06:22:42Z</time>
      </trkpt>
      <trkpt lat="49.05765" lon="6.23488">
        <ele>204.4174805</ele>
        <time>2012-05-06T06:22:48Z</time>
      </trkpt>
      <trkpt lat="49.05761" lon="6.23492">
        <ele>204.8980713</ele>
        <time>2012-05-06T06:22:49Z</time>
      </trkpt>
      <trkpt lat="49.05748" lon="6.23509">
        <ele>205.3787842</ele>
        <time>2012-05-06T06:22:52Z</time>
      </trkpt>
      <trkpt lat="49.05733" lon="6.23547">
        <ele>203.9368896</ele>
        <time>2012-05-06T06:22:57Z</time>
      </trkpt>
      <trkpt lat="49.0572" lon="6.23618">
        <ele>202.494873</ele>
        <time>2012-05-06T06:23:04Z</time>
      </trkpt>
      <trkpt lat="49.05714" lon="6.23684">
        <ele>202.9754639</ele>
        <time>2012-05-06T06:23:10Z</time>
      </trkpt>
      <trkpt lat="49.05721" lon="6.23734">
        <ele>202.9754639</ele>
        <time>2012-05-06T06:23:15Z</time>
      </trkpt>
      <trkpt lat="49.05732" lon="6.23799">
        <ele>203.4561768</ele>
        <time>2012-05-06T06:23:22Z</time>
      </trkpt>
      <trkpt lat="49.05728" lon="6.23843">
        <ele>205.3787842</ele>
        <time>2012-05-06T06:23:27Z</time>
      </trkpt>
      <trkpt lat="49.05711" lon="6.23868">
        <ele>205.8594971</ele>
        <time>2012-05-06T06:23:31Z</time>
      </trkpt>
      <trkpt lat="49.05706" lon="6.23874">
        <ele>205.3787842</ele>
        <time>2012-05-06T06:23:32Z</time>
      </trkpt>
      <trkpt lat="49.05656" lon="6.23922">
        <ele>204.8980713</ele>
        <time>2012-05-06T06:23:41Z</time>
      </trkpt>
      <trkpt lat="49.05615" lon="6.2397">
        <ele>205.3787842</ele>
        <time>2012-05-06T06:23:49Z</time>
      </trkpt>
      <trkpt lat="49.05579" lon="6.2399">
        <ele>205.8594971</ele>
        <time>2012-05-06T06:23:55Z</time>
      </trkpt>
      <trkpt lat="49.05519" lon="6.24022">
        <ele>205.8594971</ele>
        <time>2012-05-06T06:24:05Z</time>
      </trkpt>
      <trkpt lat="49.05475" lon="6.24038">
        <ele>205.3787842</ele>
        <time>2012-05-06T06:24:12Z</time>
      </trkpt>
      <trkpt lat="49.05443" lon="6.2405">
        <ele>205.8594971</ele>
        <time>2012-05-06T06:24:17Z</time>
      </trkpt>
      <trkpt lat="49.05428" lon="6.24075">
        <ele>205.3787842</ele>
        <time>2012-05-06T06:24:21Z</time>
      </trkpt>
      <trkpt lat="49.0543" lon="6.24084">
        <ele>205.3787842</ele>
        <time>2012-05-06T06:24:22Z</time>
      </trkpt>
      <trkpt lat="49.05438" lon="6.24123">
        <ele>205.3787842</ele>
        <time>2012-05-06T06:24:26Z</time>
      </trkpt>
      <trkpt lat="49.05432" lon="6.24151">
        <ele>203.9368896</ele>
        <time>2012-05-06T06:24:30Z</time>
      </trkpt>
      <trkpt lat="49.0542" lon="6.24156">
        <ele>203.4561768</ele>
        <time>2012-05-06T06:24:32Z</time>
      </trkpt>
      <trkpt lat="49.05395" lon="6.24164">
        <ele>203.4561768</ele>
        <time>2012-05-06T06:24:36Z</time>
      </trkpt>
      <trkpt lat="49.05373" lon="6.24183">
        <ele>202.9754639</ele>
        <time>2012-05-06T06:24:40Z</time>
      </trkpt>
      <trkpt lat="49.05369" lon="6.24191">
        <ele>202.9754639</ele>
        <time>2012-05-06T06:24:41Z</time>
      </trkpt>
      <trkpt lat="49.05344" lon="6.24247">
        <ele>203.4561768</ele>
        <time>2012-05-06T06:24:48Z</time>
      </trkpt>
      <trkpt lat="49.05323" lon="6.24268">
        <ele>204.8980713</ele>
        <time>2012-05-06T06:24:52Z</time>
      </trkpt>
      <trkpt lat="49.05283" lon="6.24296">
        <ele>204.4174805</ele>
        <time>2012-05-06T06:24:59Z</time>
      </trkpt>
      <trkpt lat="49.05254" lon="6.24345">
        <ele>204.4174805</ele>
        <time>2012-05-06T06:25:06Z</time>
      </trkpt>
      <trkpt lat="49.05219" lon="6.24429">
        <ele>204.8980713</ele>
        <time>2012-05-06T06:25:16Z</time>
      </trkpt>
      <trkpt lat="49.052" lon="6.2448">
        <ele>205.8594971</ele>
        <time>2012-05-06T06:25:22Z</time>
      </trkpt>
      <trkpt lat="49.05195" lon="6.24528">
        <ele>205.3787842</ele>
        <time>2012-05-06T06:25:27Z</time>
      </trkpt>
      <trkpt lat="49.05199" lon="6.24547">
        <ele>204.8980713</ele>
        <time>2012-05-06T06:25:29Z</time>
      </trkpt>
      <trkpt lat="49.05213" lon="6.24612">
        <ele>205.8594971</ele>
        <time>2012-05-06T06:25:36Z</time>
      </trkpt>
      <trkpt lat="49.05212" lon="6.2466">
        <ele>205.8594971</ele>
        <time>2012-05-06T06:25:41Z</time>
      </trkpt>
      <trkpt lat="49.05205" lon="6.24732">
        <ele>207.7821045</ele>
        <time>2012-05-06T06:25:49Z</time>
      </trkpt>
      <trkpt lat="49.05194" lon="6.24818">
        <ele>209.2241211</ele>
        <time>2012-05-06T06:25:59Z</time>
      </trkpt>
      <trkpt lat="49.05185" lon="6.24877">
        <ele>209.2241211</ele>
        <time>2012-05-06T06:26:06Z</time>
      </trkpt>
      <trkpt lat="49.05171" lon="6.24971">
        <ele>210.6660156</ele>
        <time>2012-05-06T06:26:17Z</time>
      </trkpt>
      <trkpt lat="49.05152" lon="6.25064">
        <ele>211.6274414</ele>
        <time>2012-05-06T06:26:28Z</time>
      </trkpt>
      <trkpt lat="49.05135" lon="6.2515">
        <ele>212.588623</ele>
        <time>2012-05-06T06:26:38Z</time>
      </trkpt>
      <trkpt lat="49.05124" lon="6.25208">
        <ele>212.588623</ele>
        <time>2012-05-06T06:26:45Z</time>
      </trkpt>
      <trkpt lat="49.05106" lon="6.25302">
        <ele>213.0693359</ele>
        <time>2012-05-06T06:26:56Z</time>
      </trkpt>
      <trkpt lat="49.05089" lon="6.25406">
        <ele>213.0693359</ele>
        <time>2012-05-06T06:27:07Z</time>
      </trkpt>
      <trkpt lat="49.05086" lon="6.25482">
        <ele>211.6274414</ele>
        <time>2012-05-06T06:27:14Z</time>
      </trkpt>
      <trkpt lat="49.05084" lon="6.25597">
        <ele>210.1854248</ele>
        <time>2012-05-06T06:27:24Z</time>
      </trkpt>
      <trkpt lat="49.0508" lon="6.25659">
        <ele>208.2628174</ele>
        <time>2012-05-06T06:27:30Z</time>
      </trkpt>
      <trkpt lat="49.05065" lon="6.25678">
        <ele>209.2241211</ele>
        <time>2012-05-06T06:27:34Z</time>
      </trkpt>
      <trkpt lat="49.05002" lon="6.25697">
        <ele>211.6274414</ele>
        <time>2012-05-06T06:27:46Z</time>
      </trkpt>
      <trkpt lat="49.04966" lon="6.25708">
        <ele>214.0306396</ele>
        <time>2012-05-06T06:27:54Z</time>
      </trkpt>
      <trkpt lat="49.04922" lon="6.2572">
        <ele>215.9532471</ele>
        <time>2012-05-06T06:28:04Z</time>
      </trkpt>
      <trkpt lat="49.04885" lon="6.25726">
        <ele>217.3953857</ele>
        <time>2012-05-06T06:28:12Z</time>
      </trkpt>
      <trkpt lat="49.04836" lon="6.25733">
        <ele>218.3565674</ele>
        <time>2012-05-06T06:28:22Z</time>
      </trkpt>
      <trkpt lat="49.0478" lon="6.25744">
        <ele>218.8372803</ele>
        <time>2012-05-06T06:28:33Z</time>
      </trkpt>
      <trkpt lat="49.04724" lon="6.25767">
        <ele>218.8372803</ele>
        <time>2012-05-06T06:28:43Z</time>
      </trkpt>
      <trkpt lat="49.0466" lon="6.25795">
        <ele>218.3565674</ele>
        <time>2012-05-06T06:28:54Z</time>
      </trkpt>
      <trkpt lat="49.04602" lon="6.25817">
        <ele>217.8759766</ele>
        <time>2012-05-06T06:29:04Z</time>
      </trkpt>
      <trkpt lat="49.04542" lon="6.25831">
        <ele>218.8372803</ele>
        <time>2012-05-06T06:29:14Z</time>
      </trkpt>
      <trkpt lat="49.04501" lon="6.25841">
        <ele>218.3565674</ele>
        <time>2012-05-06T06:29:21Z</time>
      </trkpt>
      <trkpt lat="49.0446" lon="6.25835">
        <ele>219.3179932</ele>
        <time>2012-05-06T06:29:28Z</time>
      </trkpt>
      <trkpt lat="49.04434" lon="6.25817">
        <ele>219.798584</ele>
        <time>2012-05-06T06:29:33Z</time>
      </trkpt>
      <trkpt lat="49.04404" lon="6.25778">
        <ele>220.2791748</ele>
        <time>2012-05-06T06:29:40Z</time>
      </trkpt>
      <trkpt lat="49.04369" lon="6.2572">
        <ele>221.2406006</ele>
        <time>2012-05-06T06:29:49Z</time>
      </trkpt>
      <trkpt lat="49.04356" lon="6.25703">
        <ele>222.2017822</ele>
        <time>2012-05-06T06:29:52Z</time>
      </trkpt>
      <trkpt lat="49.04324" lon="6.25685">
        <ele>222.2017822</ele>
        <time>2012-05-06T06:29:58Z</time>
      </trkpt>
      <trkpt lat="49.04295" lon="6.25689">
        <ele>222.2017822</ele>
        <time>2012-05-06T06:30:03Z</time>
      </trkpt>
      <trkpt lat="49.04268" lon="6.25711">
        <ele>221.7211914</ele>
        <time>2012-05-06T06:30:08Z</time>
      </trkpt>
      <trkpt lat="49.0426" lon="6.25724">
        <ele>221.7211914</ele>
        <time>2012-05-06T06:30:10Z</time>
      </trkpt>
      <trkpt lat="49.04243" lon="6.25752">
        <ele>221.7211914</ele>
        <time>2012-05-06T06:30:14Z</time>
      </trkpt>
      <trkpt lat="49.04219" lon="6.25775">
        <ele>221.2406006</ele>
        <time>2012-05-06T06:30:19Z</time>
      </trkpt>
      <trkpt lat="49.04212" lon="6.2579">
        <ele>221.7211914</ele>
        <time>2012-05-06T06:30:21Z</time>
      </trkpt>
      <trkpt lat="49.04186" lon="6.25831">
        <ele>221.2406006</ele>
        <time>2012-05-06T06:30:27Z</time>
      </trkpt>
      <trkpt lat="49.04129" lon="6.25882">
        <ele>221.7211914</ele>
        <time>2012-05-06T06:30:38Z</time>
      </trkpt>
      <trkpt lat="49.04073" lon="6.25931">
        <ele>222.2017822</ele>
        <time>2012-05-06T06:30:49Z</time>
      </trkpt>
      <trkpt lat="49.04027" lon="6.25971">
        <ele>222.2017822</ele>
        <time>2012-05-06T06:30:58Z</time>
      </trkpt>
      <trkpt lat="49.0398" lon="6.26007">
        <ele>223.6437988</ele>
        <time>2012-05-06T06:31:07Z</time>
      </trkpt>
      <trkpt lat="49.0393" lon="6.26028">
        <ele>223.6437988</ele>
        <time>2012-05-06T06:31:16Z</time>
      </trkpt>
      <trkpt lat="49.03854" lon="6.26053">
        <ele>223.163208</ele>
        <time>2012-05-06T06:31:29Z</time>
      </trkpt>
      <trkpt lat="49.03791" lon="6.26066">
        <ele>222.2017822</ele>
        <time>2012-05-06T06:31:39Z</time>
      </trkpt>
      <trkpt lat="49.03752" lon="6.26061">
        <ele>221.2406006</ele>
        <time>2012-05-06T06:31:45Z</time>
      </trkpt>
      <trkpt lat="49.03709" lon="6.26039">
        <ele>221.2406006</ele>
        <time>2012-05-06T06:31:52Z</time>
      </trkpt>
      <trkpt lat="49.03678" lon="6.26006">
        <ele>221.7211914</ele>
        <time>2012-05-06T06:31:58Z</time>
      </trkpt>
      <trkpt lat="49.03649" lon="6.2596">
        <ele>221.7211914</ele>
        <time>2012-05-06T06:32:05Z</time>
      </trkpt>
      <trkpt lat="49.03609" lon="6.25892">
        <ele>221.7211914</ele>
        <time>2012-05-06T06:32:15Z</time>
      </trkpt>
      <trkpt lat="49.03563" lon="6.25803">
        <ele>221.7211914</ele>
        <time>2012-05-06T06:32:27Z</time>
      </trkpt>
      <trkpt lat="49.0353" lon="6.25733">
        <ele>221.2406006</ele>
        <time>2012-05-06T06:32:36Z</time>
      </trkpt>
      <trkpt lat="49.0351" lon="6.25667">
        <ele>221.7211914</ele>
        <time>2012-05-06T06:32:44Z</time>
      </trkpt>
      <trkpt lat="49.03486" lon="6.2558">
        <ele>221.2406006</ele>
        <time>2012-05-06T06:32:54Z</time>
      </trkpt>
      <trkpt lat="49.03482" lon="6.25561">
        <ele>220.7598877</ele>
        <time>2012-05-06T06:32:56Z</time>
      </trkpt>
      <trkpt lat="49.03481" lon="6.25522">
        <ele>220.2791748</ele>
        <time>2012-05-06T06:33:00Z</time>
      </trkpt>
      <trkpt lat="49.03486" lon="6.25422">
        <ele>219.798584</ele>
        <time>2012-05-06T06:33:10Z</time>
      </trkpt>
      <trkpt lat="49.03478" lon="6.25371">
        <ele>219.3179932</ele>
        <time>2012-05-06T06:33:15Z</time>
      </trkpt>
      <trkpt lat="49.03455" lon="6.2526">
        <ele>219.798584</ele>
        <time>2012-05-06T06:33:26Z</time>
      </trkpt>
      <trkpt lat="49.03446" lon="6.25177">
        <ele>218.3565674</ele>
        <time>2012-05-06T06:33:34Z</time>
      </trkpt>
      <trkpt lat="49.03447" lon="6.25072">
        <ele>217.3953857</ele>
        <time>2012-05-06T06:33:43Z</time>
      </trkpt>
      <trkpt lat="49.03447" lon="6.24945">
        <ele>216.43396</ele>
        <time>2012-05-06T06:33:54Z</time>
      </trkpt>
      <trkpt lat="49.03444" lon="6.24845">
        <ele>214.9919434</ele>
        <time>2012-05-06T06:34:03Z</time>
      </trkpt>
      <trkpt lat="49.03426" lon="6.24727">
        <ele>214.9919434</ele>
        <time>2012-05-06T06:34:14Z</time>
      </trkpt>
      <trkpt lat="49.03409" lon="6.24646">
        <ele>214.9919434</ele>
        <time>2012-05-06T06:34:22Z</time>
      </trkpt>
      <trkpt lat="49.03376" lon="6.2458">
        <ele>215.4726563</ele>
        <time>2012-05-06T06:34:30Z</time>
      </trkpt>
      <trkpt lat="49.0334" lon="6.24526">
        <ele>215.9532471</ele>
        <time>2012-05-06T06:34:38Z</time>
      </trkpt>
      <trkpt lat="49.033" lon="6.24465">
        <ele>215.9532471</ele>
        <time>2012-05-06T06:34:47Z</time>
      </trkpt>
      <trkpt lat="49.03261" lon="6.24396">
        <ele>215.4726563</ele>
        <time>2012-05-06T06:34:56Z</time>
      </trkpt>
      <trkpt lat="49.0324" lon="6.24323">
        <ele>214.9919434</ele>
        <time>2012-05-06T06:35:04Z</time>
      </trkpt>
      <trkpt lat="49.03235" lon="6.24266">
        <ele>214.0306396</ele>
        <time>2012-05-06T06:35:10Z</time>
      </trkpt>
      <trkpt lat="49.03232" lon="6.24173">
        <ele>214.9919434</ele>
        <time>2012-05-06T06:35:20Z</time>
      </trkpt>
      <trkpt lat="49.03222" lon="6.2412">
        <ele>214.9919434</ele>
        <time>2012-05-06T06:35:26Z</time>
      </trkpt>
      <trkpt lat="49.0321" lon="6.24087">
        <ele>215.9532471</ele>
        <time>2012-05-06T06:35:30Z</time>
      </trkpt>
      <trkpt lat="49.03183" lon="6.24052">
        <ele>215.9532471</ele>
        <time>2012-05-06T06:35:36Z</time>
      </trkpt>
      <trkpt lat="49.03177" lon="6.24049">
        <ele>216.43396</ele>
        <time>2012-05-06T06:35:37Z</time>
      </trkpt>
      <trkpt lat="49.03137" lon="6.24034">
        <ele>216.9146729</ele>
        <time>2012-05-06T06:35:44Z</time>
      </trkpt>
      <trkpt lat="49.03107" lon="6.24037">
        <ele>216.9146729</ele>
        <time>2012-05-06T06:35:49Z</time>
      </trkpt>
      <trkpt lat="49.03039" lon="6.24046">
        <ele>217.3953857</ele>
        <time>2012-05-06T06:36:01Z</time>
      </trkpt>
      <trkpt lat="49.02987" lon="6.24055">
        <ele>218.3565674</ele>
        <time>2012-05-06T06:36:11Z</time>
      </trkpt>
      <trkpt lat="49.02943" lon="6.2406">
        <ele>219.798584</ele>
        <time>2012-05-06T06:36:20Z</time>
      </trkpt>
      <trkpt lat="49.02881" lon="6.24067">
        <ele>221.2406006</ele>
        <time>2012-05-06T06:36:33Z</time>
      </trkpt>
      <trkpt lat="49.02841" lon="6.2407">
        <ele>222.2017822</ele>
        <time>2012-05-06T06:36:42Z</time>
      </trkpt>
      <trkpt lat="49.02804" lon="6.24068">
        <ele>224.1245117</ele>
        <time>2012-05-06T06:36:51Z</time>
      </trkpt>
      <trkpt lat="49.02777" lon="6.24067">
        <ele>226.0471191</ele>
        <time>2012-05-06T06:36:59Z</time>
      </trkpt>
      <trkpt lat="49.02749" lon="6.24069">
        <ele>227.4891357</ele>
        <time>2012-05-06T06:37:08Z</time>
      </trkpt>
      <trkpt lat="49.0272" lon="6.24074">
        <ele>229.4117432</ele>
        <time>2012-05-06T06:37:17Z</time>
      </trkpt>
      <trkpt lat="49.02687" lon="6.24087">
        <ele>231.3343506</ele>
        <time>2012-05-06T06:37:28Z</time>
      </trkpt>
      <trkpt lat="49.02674" lon="6.24097">
        <ele>232.7764893</ele>
        <time>2012-05-06T06:37:33Z</time>
      </trkpt>
      <trkpt lat="49.02669" lon="6.24102">
        <ele>233.2570801</ele>
        <time>2012-05-06T06:37:35Z</time>
      </trkpt>
      <trkpt lat="49.02649" lon="6.24122">
        <ele>235.1796875</ele>
        <time>2012-05-06T06:37:43Z</time>
      </trkpt>
      <trkpt lat="49.02625" lon="6.24145">
        <ele>237.5828857</ele>
        <time>2012-05-06T06:37:52Z</time>
      </trkpt>
      <trkpt lat="49.02603" lon="6.24169">
        <ele>239.9862061</ele>
        <time>2012-05-06T06:38:01Z</time>
      </trkpt>
      <trkpt lat="49.02581" lon="6.24194">
        <ele>241.4282227</ele>
        <time>2012-05-06T06:38:10Z</time>
      </trkpt>
      <trkpt lat="49.02564" lon="6.24217">
        <ele>243.3508301</ele>
        <time>2012-05-06T06:38:18Z</time>
      </trkpt>
      <trkpt lat="49.02546" lon="6.24234">
        <ele>245.2734375</ele>
        <time>2012-05-06T06:38:25Z</time>
      </trkpt>
      <trkpt lat="49.02516" lon="6.24258">
        <ele>245.7541504</ele>
        <time>2012-05-06T06:38:34Z</time>
      </trkpt>
      <trkpt lat="49.02484" lon="6.24283">
        <ele>244.3122559</ele>
        <time>2012-05-06T06:38:41Z</time>
      </trkpt>
      <trkpt lat="49.02456" lon="6.24308">
        <ele>243.3508301</ele>
        <time>2012-05-06T06:38:46Z</time>
      </trkpt>
      <trkpt lat="49.02428" lon="6.24353">
        <ele>240.9476318</ele>
        <time>2012-05-06T06:38:51Z</time>
      </trkpt>
      <trkpt lat="49.02411" lon="6.24385">
        <ele>239.5054932</ele>
        <time>2012-05-06T06:38:54Z</time>
      </trkpt>
      <trkpt lat="49.02405" lon="6.24396">
        <ele>239.9862061</ele>
        <time>2012-05-06T06:38:55Z</time>
      </trkpt>
      <trkpt lat="49.02375" lon="6.24427">
        <ele>237.5828857</ele>
        <time>2012-05-06T06:38:59Z</time>
      </trkpt>
      <trkpt lat="49.02344" lon="6.24443">
        <ele>237.1022949</ele>
        <time>2012-05-06T06:39:03Z</time>
      </trkpt>
      <trkpt lat="49.02302" lon="6.2445">
        <ele>238.0635986</ele>
        <time>2012-05-06T06:39:09Z</time>
      </trkpt>
      <trkpt lat="49.02259" lon="6.24465">
        <ele>238.0635986</ele>
        <time>2012-05-06T06:39:16Z</time>
      </trkpt>
      <trkpt lat="49.02231" lon="6.24473">
        <ele>236.6217041</ele>
        <time>2012-05-06T06:39:20Z</time>
      </trkpt>
      <trkpt lat="49.02198" lon="6.2447">
        <ele>235.6602783</ele>
        <time>2012-05-06T06:39:24Z</time>
      </trkpt>
      <trkpt lat="49.02165" lon="6.24477">
        <ele>232.2957764</ele>
        <time>2012-05-06T06:39:28Z</time>
      </trkpt>
      <trkpt lat="49.02138" lon="6.24493">
        <ele>230.3730469</ele>
        <time>2012-05-06T06:39:31Z</time>
      </trkpt>
      <trkpt lat="49.02121" lon="6.2451">
        <ele>229.4117432</ele>
        <time>2012-05-06T06:39:33Z</time>
      </trkpt>
      <trkpt lat="49.02101" lon="6.24546">
        <ele>227.9697266</ele>
        <time>2012-05-06T06:39:36Z</time>
      </trkpt>
      <trkpt lat="49.02086" lon="6.24566">
        <ele>226.527832</ele>
        <time>2012-05-06T06:39:38Z</time>
      </trkpt>
      <trkpt lat="49.02069" lon="6.24582">
        <ele>225.0859375</ele>
        <time>2012-05-06T06:39:40Z</time>
      </trkpt>
      <trkpt lat="49.0205" lon="6.24597">
        <ele>223.163208</ele>
        <time>2012-05-06T06:39:42Z</time>
      </trkpt>
      <trkpt lat="49.02007" lon="6.24607">
        <ele>219.3179932</ele>
        <time>2012-05-06T06:39:46Z</time>
      </trkpt>
      <trkpt lat="49.01996" lon="6.24602">
        <ele>218.8372803</ele>
        <time>2012-05-06T06:39:47Z</time>
      </trkpt>
      <trkpt lat="49.01969" lon="6.24572">
        <ele>216.43396</ele>
        <time>2012-05-06T06:39:50Z</time>
      </trkpt>
      <trkpt lat="49.01963" lon="6.24558">
        <ele>215.4726563</ele>
        <time>2012-05-06T06:39:51Z</time>
      </trkpt>
      <trkpt lat="49.01929" lon="6.24477">
        <ele>214.9919434</ele>
        <time>2012-05-06T06:39:57Z</time>
      </trkpt>
      <trkpt lat="49.01896" lon="6.24427">
        <ele>214.5112305</ele>
        <time>2012-05-06T06:40:02Z</time>
      </trkpt>
      <trkpt lat="49.01842" lon="6.24363">
        <ele>214.9919434</ele>
        <time>2012-05-06T06:40:10Z</time>
      </trkpt>
      <trkpt lat="49.01789" lon="6.2431">
        <ele>214.0306396</ele>
        <time>2012-05-06T06:40:18Z</time>
      </trkpt>
      <trkpt lat="49.01756" lon="6.24262">
        <ele>213.5500488</ele>
        <time>2012-05-06T06:40:24Z</time>
      </trkpt>
      <trkpt lat="49.01712" lon="6.24184">
        <ele>212.588623</ele>
        <time>2012-05-06T06:40:33Z</time>
      </trkpt>
      <trkpt lat="49.01678" lon="6.24099">
        <ele>212.1080322</ele>
        <time>2012-05-06T06:40:42Z</time>
      </trkpt>
      <trkpt lat="49.01642" lon="6.24023">
        <ele>212.1080322</ele>
        <time>2012-05-06T06:40:51Z</time>
      </trkpt>
      <trkpt lat="49.01626" lon="6.23989">
        <ele>211.6274414</ele>
        <time>2012-05-06T06:40:55Z</time>
      </trkpt>
      <trkpt lat="49.01596" lon="6.23929">
        <ele>211.1467285</ele>
        <time>2012-05-06T06:41:02Z</time>
      </trkpt>
      <trkpt lat="49.01564" lon="6.239">
        <ele>209.704834</ele>
        <time>2012-05-06T06:41:07Z</time>
      </trkpt>
      <trkpt lat="49.01507" lon="6.23881">
        <ele>209.704834</ele>
        <time>2012-05-06T06:41:15Z</time>
      </trkpt>
      <trkpt lat="49.01484" lon="6.2386">
        <ele>209.704834</ele>
        <time>2012-05-06T06:41:19Z</time>
      </trkpt>
      <trkpt lat="49.01452" lon="6.23798">
        <ele>210.1854248</ele>
        <time>2012-05-06T06:41:27Z</time>
      </trkpt>
      <trkpt lat="49.01417" lon="6.23727">
        <ele>210.6660156</ele>
        <time>2012-05-06T06:41:37Z</time>
      </trkpt>
      <trkpt lat="49.01396" lon="6.23678">
        <ele>211.6274414</ele>
        <time>2012-05-06T06:41:44Z</time>
      </trkpt>
      <trkpt lat="49.01382" lon="6.23644">
        <ele>212.1080322</ele>
        <time>2012-05-06T06:41:49Z</time>
      </trkpt>
      <trkpt lat="49.01362" lon="6.23626">
        <ele>213.0693359</ele>
        <time>2012-05-06T06:41:54Z</time>
      </trkpt>
      <trkpt lat="49.01354" lon="6.23626">
        <ele>214.5112305</ele>
        <time>2012-05-06T06:41:56Z</time>
      </trkpt>
      <trkpt lat="49.01326" lon="6.23632">
        <ele>215.9532471</ele>
        <time>2012-05-06T06:42:03Z</time>
      </trkpt>
      <trkpt lat="49.01314" lon="6.23608">
        <ele>216.43396</ele>
        <time>2012-05-06T06:42:08Z</time>
      </trkpt>
      <trkpt lat="49.01296" lon="6.23545">
        <ele>214.9919434</ele>
        <time>2012-05-06T06:42:16Z</time>
      </trkpt>
      <trkpt lat="49.01287" lon="6.23496">
        <ele>213.0693359</ele>
        <time>2012-05-06T06:42:21Z</time>
      </trkpt>
      <trkpt lat="49.01288" lon="6.23456">
        <ele>211.1467285</ele>
        <time>2012-05-06T06:42:24Z</time>
      </trkpt>
      <trkpt lat="49.01292" lon="6.23401">
        <ele>208.7434082</ele>
        <time>2012-05-06T06:42:28Z</time>
      </trkpt>
      <trkpt lat="49.01298" lon="6.23328">
        <ele>209.704834</ele>
        <time>2012-05-06T06:42:34Z</time>
      </trkpt>
      <trkpt lat="49.01305" lon="6.23241">
        <ele>209.704834</ele>
        <time>2012-05-06T06:42:42Z</time>
      </trkpt>
      <trkpt lat="49.01315" lon="6.2316">
        <ele>209.2241211</ele>
        <time>2012-05-06T06:42:50Z</time>
      </trkpt>
      <trkpt lat="49.01319" lon="6.23132">
        <ele>209.704834</ele>
        <time>2012-05-06T06:42:53Z</time>
      </trkpt>
      <trkpt lat="49.01323" lon="6.23114">
        <ele>208.7434082</ele>
        <time>2012-05-06T06:42:55Z</time>
      </trkpt>
      <trkpt lat="49.01327" lon="6.23069">
        <ele>209.704834</ele>
        <time>2012-05-06T06:43:00Z</time>
      </trkpt>
      <trkpt lat="49.01328" lon="6.23051">
        <ele>209.704834</ele>
        <time>2012-05-06T06:43:02Z</time>
      </trkpt>
      <trkpt lat="49.01332" lon="6.23017">
        <ele>209.704834</ele>
        <time>2012-05-06T06:43:06Z</time>
      </trkpt>
      <trkpt lat="49.01322" lon="6.22999">
        <ele>209.2241211</ele>
        <time>2012-05-06T06:43:10Z</time>
      </trkpt>
      <trkpt lat="49.01319" lon="6.22999">
        <ele>209.704834</ele>
        <time>2012-05-06T06:43:11Z</time>
      </trkpt>
      <trkpt lat="49.01304" lon="6.23007">
        <ele>211.6274414</ele>
        <time>2012-05-06T06:43:16Z</time>
      </trkpt>
      <trkpt lat="49.01291" lon="6.23008">
        <ele>212.588623</ele>
        <time>2012-05-06T06:43:20Z</time>
      </trkpt>
      <trkpt lat="49.01266" lon="6.23017">
        <ele>214.5112305</ele>
        <time>2012-05-06T06:43:27Z</time>
      </trkpt>
      <trkpt lat="49.01229" lon="6.23031">
        <ele>217.3953857</ele>
        <time>2012-05-06T06:43:37Z</time>
      </trkpt>
      <trkpt lat="49.01204" lon="6.23041">
        <ele>218.3565674</ele>
        <time>2012-05-06T06:43:44Z</time>
      </trkpt>
      <trkpt lat="49.01188" lon="6.23049">
        <ele>220.7598877</ele>
        <time>2012-05-06T06:43:49Z</time>
      </trkpt>
      <trkpt lat="49.0117" lon="6.23058">
        <ele>221.7211914</ele>
        <time>2012-05-06T06:43:55Z</time>
      </trkpt>
      <trkpt lat="49.01143" lon="6.23066">
        <ele>223.163208</ele>
        <time>2012-05-06T06:44:03Z</time>
      </trkpt>
      <trkpt lat="49.01118" lon="6.23075">
        <ele>224.1245117</ele>
        <time>2012-05-06T06:44:11Z</time>
      </trkpt>
      <trkpt lat="49.01096" lon="6.23082">
        <ele>225.5665283</ele>
        <time>2012-05-06T06:44:18Z</time>
      </trkpt>
      <trkpt lat="49.01075" lon="6.23077">
        <ele>225.5665283</ele>
        <time>2012-05-06T06:44:24Z</time>
      </trkpt>
      <trkpt lat="49.01065" lon="6.2306">
        <ele>225.5665283</ele>
        <time>2012-05-06T06:44:28Z</time>
      </trkpt>
      <trkpt lat="49.01047" lon="6.23003">
        <ele>225.5665283</ele>
        <time>2012-05-06T06:44:38Z</time>
      </trkpt>
      <trkpt lat="49.01031" lon="6.22951">
        <ele>226.527832</ele>
        <time>2012-05-06T06:44:46Z</time>
      </trkpt>
      <trkpt lat="49.01013" lon="6.22926">
        <ele>226.527832</ele>
        <time>2012-05-06T06:44:51Z</time>
      </trkpt>
      <trkpt lat="49.00994" lon="6.22929">
        <ele>225.5665283</ele>
        <time>2012-05-06T06:44:55Z</time>
      </trkpt>
      <trkpt lat="49.00959" lon="6.22956">
        <ele>226.527832</ele>
        <time>2012-05-06T06:45:03Z</time>
      </trkpt>
      <trkpt lat="49.0094" lon="6.22961">
        <ele>227.0085449</ele>
        <time>2012-05-06T06:45:07Z</time>
      </trkpt>
      <trkpt lat="49.00928" lon="6.22947">
        <ele>227.4891357</ele>
        <time>2012-05-06T06:45:10Z</time>
      </trkpt>
      <trkpt lat="49.00923" lon="6.22932">
        <ele>227.4891357</ele>
        <time>2012-05-06T06:45:12Z</time>
      </trkpt>
      <trkpt lat="49.00917" lon="6.22918">
        <ele>227.0085449</ele>
        <time>2012-05-06T06:45:14Z</time>
      </trkpt>
      <trkpt lat="49.00901" lon="6.229">
        <ele>226.527832</ele>
        <time>2012-05-06T06:45:18Z</time>
      </trkpt>
      <trkpt lat="49.00886" lon="6.22904">
        <ele>227.0085449</ele>
        <time>2012-05-06T06:45:21Z</time>
      </trkpt>
      <trkpt lat="49.00839" lon="6.22927">
        <ele>228.9311523</ele>
        <time>2012-05-06T06:45:31Z</time>
      </trkpt>
      <trkpt lat="49.00801" lon="6.22943">
        <ele>228.9311523</ele>
        <time>2012-05-06T06:45:39Z</time>
      </trkpt>
      <trkpt lat="49.00749" lon="6.22965">
        <ele>231.3343506</ele>
        <time>2012-05-06T06:45:50Z</time>
      </trkpt>
      <trkpt lat="49.00699" lon="6.22986">
        <ele>234.6990967</ele>
        <time>2012-05-06T06:46:01Z</time>
      </trkpt>
      <trkpt lat="49.0066" lon="6.23003">
        <ele>235.6602783</ele>
        <time>2012-05-06T06:46:10Z</time>
      </trkpt>
      <trkpt lat="49.00619" lon="6.2302">
        <ele>236.1409912</ele>
        <time>2012-05-06T06:46:19Z</time>
      </trkpt>
      <trkpt lat="49.00588" lon="6.2304">
        <ele>237.1022949</ele>
        <time>2012-05-06T06:46:26Z</time>
      </trkpt>
      <trkpt lat="49.00557" lon="6.23068">
        <ele>236.1409912</ele>
        <time>2012-05-06T06:46:33Z</time>
      </trkpt>
      <trkpt lat="49.0052" lon="6.23102">
        <ele>235.6602783</ele>
        <time>2012-05-06T06:46:40Z</time>
      </trkpt>
      <trkpt lat="49.00485" lon="6.23133">
        <ele>234.2183838</ele>
        <time>2012-05-06T06:46:46Z</time>
      </trkpt>
      <trkpt lat="49.00458" lon="6.2314">
        <ele>232.7764893</ele>
        <time>2012-05-06T06:46:50Z</time>
      </trkpt>
      <trkpt lat="49.00445" lon="6.2313">
        <ele>232.7764893</ele>
        <time>2012-05-06T06:46:52Z</time>
      </trkpt>
      <trkpt lat="49.00386" lon="6.23074">
        <ele>231.3343506</ele>
        <time>2012-05-06T06:47:02Z</time>
      </trkpt>
      <trkpt lat="49.00353" lon="6.23062">
        <ele>227.9697266</ele>
        <time>2012-05-06T06:47:07Z</time>
      </trkpt>
      <trkpt lat="49.00302" lon="6.23056">
        <ele>225.5665283</ele>
        <time>2012-05-06T06:47:14Z</time>
      </trkpt>
      <trkpt lat="49.00287" lon="6.23054">
        <ele>224.6052246</ele>
        <time>2012-05-06T06:47:16Z</time>
      </trkpt>
      <trkpt lat="49.00244" lon="6.23049">
        <ele>222.2017822</ele>
        <time>2012-05-06T06:47:22Z</time>
      </trkpt>
      <trkpt lat="49.00195" lon="6.23043">
        <ele>218.3565674</ele>
        <time>2012-05-06T06:47:29Z</time>
      </trkpt>
      <trkpt lat="49.00162" lon="6.23032">
        <ele>216.9146729</ele>
        <time>2012-05-06T06:47:34Z</time>
      </trkpt>
      <trkpt lat="49.00128" lon="6.23014">
        <ele>213.5500488</ele>
        <time>2012-05-06T06:47:39Z</time>
      </trkpt>
      <trkpt lat="49.00085" lon="6.22988">
        <ele>210.6660156</ele>
        <time>2012-05-06T06:47:45Z</time>
      </trkpt>
      <trkpt lat="49.00051" lon="6.22967">
        <ele>208.7434082</ele>
        <time>2012-05-06T06:47:49Z</time>
      </trkpt>
      <trkpt lat="49.00025" lon="6.2295">
        <ele>205.8594971</ele>
        <time>2012-05-06T06:47:52Z</time>
      </trkpt>
      <trkpt lat="49.00016" lon="6.22944">
        <ele>205.8594971</ele>
        <time>2012-05-06T06:47:53Z</time>
      </trkpt>
      <trkpt lat="48.99989" lon="6.22925">
        <ele>204.4174805</ele>
        <time>2012-05-06T06:47:56Z</time>
      </trkpt>
      <trkpt lat="48.99938" lon="6.22888">
        <ele>201.0528564</ele>
        <time>2012-05-06T06:48:02Z</time>
      </trkpt>
      <trkpt lat="48.99891" lon="6.22854">
        <ele>200.5722656</ele>
        <time>2012-05-06T06:48:08Z</time>
      </trkpt>
      <trkpt lat="48.99844" lon="6.22815">
        <ele>200.5722656</ele>
        <time>2012-05-06T06:48:15Z</time>
      </trkpt>
      <trkpt lat="48.99818" lon="6.22778">
        <ele>202.0142822</ele>
        <time>2012-05-06T06:48:20Z</time>
      </trkpt>
      <trkpt lat="48.99813" lon="6.22771">
        <ele>202.494873</ele>
        <time>2012-05-06T06:48:21Z</time>
      </trkpt>
      <trkpt lat="48.99804" lon="6.22758">
        <ele>202.494873</ele>
        <time>2012-05-06T06:48:23Z</time>
      </trkpt>
      <trkpt lat="48.99783" lon="6.22704">
        <ele>202.9754639</ele>
        <time>2012-05-06T06:48:30Z</time>
      </trkpt>
      <trkpt lat="48.99759" lon="6.22626">
        <ele>202.9754639</ele>
        <time>2012-05-06T06:48:39Z</time>
      </trkpt>
      <trkpt lat="48.99724" lon="6.22537">
        <ele>202.9754639</ele>
        <time>2012-05-06T06:48:50Z</time>
      </trkpt>
      <trkpt lat="48.9969" lon="6.2247">
        <ele>202.9754639</ele>
        <time>2012-05-06T06:48:59Z</time>
      </trkpt>
      <trkpt lat="48.99656" lon="6.22395">
        <ele>203.9368896</ele>
        <time>2012-05-06T06:49:09Z</time>
      </trkpt>
      <trkpt lat="48.99641" lon="6.22358">
        <ele>205.8594971</ele>
        <time>2012-05-06T06:49:15Z</time>
      </trkpt>
      <trkpt lat="48.99621" lon="6.22312">
        <ele>208.2628174</ele>
        <time>2012-05-06T06:49:23Z</time>
      </trkpt>
      <trkpt lat="48.99618" lon="6.22306">
        <ele>207.7821045</ele>
        <time>2012-05-06T06:49:24Z</time>
      </trkpt>
      <trkpt lat="48.996" lon="6.22287">
        <ele>209.2241211</ele>
        <time>2012-05-06T06:49:29Z</time>
      </trkpt>
      <trkpt lat="48.99587" lon="6.22286">
        <ele>210.1854248</ele>
        <time>2012-05-06T06:49:32Z</time>
      </trkpt>
      <trkpt lat="48.99555" lon="6.22302">
        <ele>212.588623</ele>
        <time>2012-05-06T06:49:40Z</time>
      </trkpt>
      <trkpt lat="48.99528" lon="6.2232">
        <ele>214.0306396</ele>
        <time>2012-05-06T06:49:47Z</time>
      </trkpt>
      <trkpt lat="48.99491" lon="6.22343">
        <ele>215.4726563</ele>
        <time>2012-05-06T06:49:56Z</time>
      </trkpt>
      <trkpt lat="48.99456" lon="6.22366">
        <ele>216.43396</ele>
        <time>2012-05-06T06:50:04Z</time>
      </trkpt>
      <trkpt lat="48.99416" lon="6.2239">
        <ele>216.9146729</ele>
        <time>2012-05-06T06:50:13Z</time>
      </trkpt>
      <trkpt lat="48.99383" lon="6.22409">
        <ele>218.3565674</ele>
        <time>2012-05-06T06:50:21Z</time>
      </trkpt>
      <trkpt lat="48.99364" lon="6.2242">
        <ele>218.3565674</ele>
        <time>2012-05-06T06:50:26Z</time>
      </trkpt>
      <trkpt lat="48.99344" lon="6.22414">
        <ele>219.3179932</ele>
        <time>2012-05-06T06:50:31Z</time>
      </trkpt>
      <trkpt lat="48.99337" lon="6.22397">
        <ele>219.3179932</ele>
        <time>2012-05-06T06:50:34Z</time>
      </trkpt>
      <trkpt lat="48.99323" lon="6.2234">
        <ele>217.8759766</ele>
        <time>2012-05-06T06:50:42Z</time>
      </trkpt>
      <trkpt lat="48.99305" lon="6.22266">
        <ele>216.43396</ele>
        <time>2012-05-06T06:50:50Z</time>
      </trkpt>
      <trkpt lat="48.99282" lon="6.22173">
        <ele>213.0693359</ele>
        <time>2012-05-06T06:50:59Z</time>
      </trkpt>
      <trkpt lat="48.99258" lon="6.22075">
        <ele>210.1854248</ele>
        <time>2012-05-06T06:51:08Z</time>
      </trkpt>
      <trkpt lat="48.99249" lon="6.22043">
        <ele>209.704834</ele>
        <time>2012-05-06T06:51:11Z</time>
      </trkpt>
      <trkpt lat="48.99218" lon="6.2192">
        <ele>207.7821045</ele>
        <time>2012-05-06T06:51:22Z</time>
      </trkpt>
      <trkpt lat="48.99203" lon="6.21864">
        <ele>205.8594971</ele>
        <time>2012-05-06T06:51:27Z</time>
      </trkpt>
      <trkpt lat="48.99189" lon="6.2182">
        <ele>204.4174805</ele>
        <time>2012-05-06T06:51:31Z</time>
      </trkpt>
      <trkpt lat="48.99182" lon="6.21798">
        <ele>203.9368896</ele>
        <time>2012-05-06T06:51:33Z</time>
      </trkpt>
      <trkpt lat="48.99145" lon="6.21694">
        <ele>201.5335693</ele>
        <time>2012-05-06T06:51:43Z</time>
      </trkpt>
      <trkpt lat="48.99134" lon="6.21665">
        <ele>201.0528564</ele>
        <time>2012-05-06T06:51:46Z</time>
      </trkpt>
      <trkpt lat="48.99114" lon="6.21639">
        <ele>200.5722656</ele>
        <time>2012-05-06T06:51:50Z</time>
      </trkpt>
      <trkpt lat="48.99094" lon="6.21641">
        <ele>199.6108398</ele>
        <time>2012-05-06T06:51:53Z</time>
      </trkpt>
      <trkpt lat="48.99025" lon="6.21664">
        <ele>200.0916748</ele>
        <time>2012-05-06T06:52:03Z</time>
      </trkpt>
      <trkpt lat="48.99005" lon="6.21669">
        <ele>199.6108398</ele>
        <time>2012-05-06T06:52:06Z</time>
      </trkpt>
      <trkpt lat="48.98965" lon="6.21658">
        <ele>200.0916748</ele>
        <time>2012-05-06T06:52:12Z</time>
      </trkpt>
      <trkpt lat="48.98913" lon="6.21641">
        <ele>200.0916748</ele>
        <time>2012-05-06T06:52:20Z</time>
      </trkpt>
      <trkpt lat="48.98875" lon="6.21638">
        <ele>199.6108398</ele>
        <time>2012-05-06T06:52:26Z</time>
      </trkpt>
      <trkpt lat="48.9885" lon="6.21639">
        <ele>200.0916748</ele>
        <time>2012-05-06T06:52:32Z</time>
      </trkpt>
      <trkpt lat="48.98822" lon="6.21638">
        <ele>199.6108398</ele>
        <time>2012-05-06T06:52:40Z</time>
      </trkpt>
      <trkpt lat="48.98806" lon="6.21638">
        <ele>199.6108398</ele>
        <time>2012-05-06T06:52:46Z</time>
      </trkpt>
      <trkpt lat="48.98797" lon="6.21642">
        <ele>199.6108398</ele>
        <time>2012-05-06T06:52:51Z</time>
      </trkpt>
      <trkpt lat="48.98793" lon="6.21661">
        <ele>199.6108398</ele>
        <time>2012-05-06T06:52:55Z</time>
      </trkpt>
      <trkpt lat="48.98789" lon="6.2168">
        <ele>201.0528564</ele>
        <time>2012-05-06T06:52:58Z</time>
      </trkpt>
      <trkpt lat="48.98783" lon="6.21717">
        <ele>201.5335693</ele>
        <time>2012-05-06T06:53:03Z</time>
      </trkpt>
      <trkpt lat="48.98768" lon="6.21734">
        <ele>202.494873</ele>
        <time>2012-05-06T06:53:07Z</time>
      </trkpt>
      <trkpt lat="48.98763" lon="6.21734">
        <ele>203.4561768</ele>
        <time>2012-05-06T06:53:08Z</time>
      </trkpt>
      <trkpt lat="48.98711" lon="6.21738">
        <ele>204.4174805</ele>
        <time>2012-05-06T06:53:18Z</time>
      </trkpt>
      <trkpt lat="48.98695" lon="6.21738">
        <ele>205.3787842</ele>
        <time>2012-05-06T06:53:21Z</time>
      </trkpt>
      <trkpt lat="48.98682" lon="6.21746">
        <ele>203.9368896</ele>
        <time>2012-05-06T06:53:24Z</time>
      </trkpt>
      <trkpt lat="48.98676" lon="6.21767">
        <ele>204.4174805</ele>
        <time>2012-05-06T06:53:27Z</time>
      </trkpt>
      <trkpt lat="48.98676" lon="6.21775">
        <ele>203.9368896</ele>
        <time>2012-05-06T06:53:28Z</time>
      </trkpt>
      <trkpt lat="48.9868" lon="6.21834">
        <ele>205.8594971</ele>
        <time>2012-05-06T06:53:36Z</time>
      </trkpt>
      <trkpt lat="48.98671" lon="6.21864">
        <ele>207.7821045</ele>
        <time>2012-05-06T06:53:41Z</time>
      </trkpt>
      <trkpt lat="48.98657" lon="6.21866">
        <ele>208.2628174</ele>
        <time>2012-05-06T06:53:44Z</time>
      </trkpt>
      <trkpt lat="48.98639" lon="6.21856">
        <ele>208.7434082</ele>
        <time>2012-05-06T06:53:48Z</time>
      </trkpt>
      <trkpt lat="48.98626" lon="6.21828">
        <ele>208.7434082</ele>
        <time>2012-05-06T06:53:52Z</time>
      </trkpt>
      <trkpt lat="48.98621" lon="6.21801">
        <ele>207.7821045</ele>
        <time>2012-05-06T06:53:55Z</time>
      </trkpt>
      <trkpt lat="48.98619" lon="6.21792">
        <ele>207.7821045</ele>
        <time>2012-05-06T06:53:56Z</time>
      </trkpt>
      <trkpt lat="48.98607" lon="6.21767">
        <ele>206.3400879</ele>
        <time>2012-05-06T06:53:59Z</time>
      </trkpt>
      <trkpt lat="48.98586" lon="6.21764">
        <ele>205.8594971</ele>
        <time>2012-05-06T06:54:02Z</time>
      </trkpt>
      <trkpt lat="48.98579" lon="6.21767">
        <ele>205.3787842</ele>
        <time>2012-05-06T06:54:03Z</time>
      </trkpt>
      <trkpt lat="48.98558" lon="6.21781">
        <ele>205.8594971</ele>
        <time>2012-05-06T06:54:06Z</time>
      </trkpt>
      <trkpt lat="48.98521" lon="6.2179">
        <ele>204.8980713</ele>
        <time>2012-05-06T06:54:11Z</time>
      </trkpt>
      <trkpt lat="48.98469" lon="6.21789">
        <ele>205.3787842</ele>
        <time>2012-05-06T06:54:19Z</time>
      </trkpt>
      <trkpt lat="48.98431" lon="6.21785">
        <ele>205.8594971</ele>
        <time>2012-05-06T06:54:25Z</time>
      </trkpt>
      <trkpt lat="48.98383" lon="6.21764">
        <ele>206.8206787</ele>
        <time>2012-05-06T06:54:33Z</time>
      </trkpt>
      <trkpt lat="48.98323" lon="6.21734">
        <ele>207.3013916</ele>
        <time>2012-05-06T06:54:43Z</time>
      </trkpt>
      <trkpt lat="48.98279" lon="6.21704">
        <ele>206.8206787</ele>
        <time>2012-05-06T06:54:50Z</time>
      </trkpt>
      <trkpt lat="48.98231" lon="6.21665">
        <ele>206.8206787</ele>
        <time>2012-05-06T06:54:58Z</time>
      </trkpt>
      <trkpt lat="48.98208" lon="6.21648">
        <ele>206.8206787</ele>
        <time>2012-05-06T06:55:02Z</time>
      </trkpt>
      <trkpt lat="48.98179" lon="6.21643">
        <ele>208.2628174</ele>
        <time>2012-05-06T06:55:07Z</time>
      </trkpt>
      <trkpt lat="48.98133" lon="6.21667">
        <ele>209.704834</ele>
        <time>2012-05-06T06:55:16Z</time>
      </trkpt>
      <trkpt lat="48.98089" lon="6.21689">
        <ele>211.6274414</ele>
        <time>2012-05-06T06:55:25Z</time>
      </trkpt>
      <trkpt lat="48.98061" lon="6.21703">
        <ele>212.588623</ele>
        <time>2012-05-06T06:55:31Z</time>
      </trkpt>
      <trkpt lat="48.98015" lon="6.21726">
        <ele>214.5112305</ele>
        <time>2012-05-06T06:55:41Z</time>
      </trkpt>
      <trkpt lat="48.97974" lon="6.21745">
        <ele>215.4726563</ele>
        <time>2012-05-06T06:55:50Z</time>
      </trkpt>
      <trkpt lat="48.97912" lon="6.21776">
        <ele>216.9146729</ele>
        <time>2012-05-06T06:56:04Z</time>
      </trkpt>
      <trkpt lat="48.97869" lon="6.21797">
        <ele>218.3565674</ele>
        <time>2012-05-06T06:56:14Z</time>
      </trkpt>
      <trkpt lat="48.97826" lon="6.2182">
        <ele>219.3179932</ele>
        <time>2012-05-06T06:56:25Z</time>
      </trkpt>
      <trkpt lat="48.97788" lon="6.21844">
        <ele>219.798584</ele>
        <time>2012-05-06T06:56:35Z</time>
      </trkpt>
      <trkpt lat="48.97739" lon="6.21874">
        <ele>221.2406006</ele>
        <time>2012-05-06T06:56:47Z</time>
      </trkpt>
      <trkpt lat="48.97706" lon="6.21896">
        <ele>222.6824951</ele>
        <time>2012-05-06T06:56:55Z</time>
      </trkpt>
      <trkpt lat="48.97662" lon="6.21925">
        <ele>223.163208</ele>
        <time>2012-05-06T06:57:05Z</time>
      </trkpt>
      <trkpt lat="48.97658" lon="6.21927">
        <ele>223.163208</ele>
        <time>2012-05-06T06:57:06Z</time>
      </trkpt>
      <trkpt lat="48.97627" lon="6.21948">
        <ele>224.1245117</ele>
        <time>2012-05-06T06:57:13Z</time>
      </trkpt>
      <trkpt lat="48.9757" lon="6.21986">
        <ele>226.0471191</ele>
        <time>2012-05-06T06:57:26Z</time>
      </trkpt>
      <trkpt lat="48.97536" lon="6.22008">
        <ele>227.4891357</ele>
        <time>2012-05-06T06:57:34Z</time>
      </trkpt>
      <trkpt lat="48.97509" lon="6.22008">
        <ele>227.9697266</ele>
        <time>2012-05-06T06:57:40Z</time>
      </trkpt>
      <trkpt lat="48.975" lon="6.21992">
        <ele>227.4891357</ele>
        <time>2012-05-06T06:57:43Z</time>
      </trkpt>
      <trkpt lat="48.97495" lon="6.21977">
        <ele>227.4891357</ele>
        <time>2012-05-06T06:57:45Z</time>
      </trkpt>
      <trkpt lat="48.97482" lon="6.21929">
        <ele>226.0471191</ele>
        <time>2012-05-06T06:57:51Z</time>
      </trkpt>
      <trkpt lat="48.97465" lon="6.21904">
        <ele>225.0859375</ele>
        <time>2012-05-06T06:57:55Z</time>
      </trkpt>
      <trkpt lat="48.97446" lon="6.219">
        <ele>225.0859375</ele>
        <time>2012-05-06T06:57:58Z</time>
      </trkpt>
      <trkpt lat="48.9744" lon="6.21901">
        <ele>225.5665283</ele>
        <time>2012-05-06T06:57:59Z</time>
      </trkpt>
      <trkpt lat="48.97381" lon="6.21926">
        <ele>225.0859375</ele>
        <time>2012-05-06T06:58:09Z</time>
      </trkpt>
      <trkpt lat="48.97332" lon="6.21949">
        <ele>226.527832</ele>
        <time>2012-05-06T06:58:18Z</time>
      </trkpt>
      <trkpt lat="48.97288" lon="6.2197">
        <ele>226.527832</ele>
        <time>2012-05-06T06:58:26Z</time>
      </trkpt>
      <trkpt lat="48.97233" lon="6.21995">
        <ele>224.6052246</ele>
        <time>2012-05-06T06:58:35Z</time>
      </trkpt>
      <trkpt lat="48.97185" lon="6.22021">
        <ele>225.0859375</ele>
        <time>2012-05-06T06:58:42Z</time>
      </trkpt>
      <trkpt lat="48.9715" lon="6.22044">
        <ele>225.5665283</ele>
        <time>2012-05-06T06:58:48Z</time>
      </trkpt>
      <trkpt lat="48.97113" lon="6.22066">
        <ele>226.0471191</ele>
        <time>2012-05-06T06:58:55Z</time>
      </trkpt>
      <trkpt lat="48.97071" lon="6.22091">
        <ele>227.4891357</ele>
        <time>2012-05-06T06:59:03Z</time>
      </trkpt>
      <trkpt lat="48.97038" lon="6.22109">
        <ele>227.4891357</ele>
        <time>2012-05-06T06:59:09Z</time>
      </trkpt>
      <trkpt lat="48.97016" lon="6.22114">
        <ele>228.9311523</ele>
        <time>2012-05-06T06:59:13Z</time>
      </trkpt>
      <trkpt lat="48.96958" lon="6.22106">
        <ele>228.9311523</ele>
        <time>2012-05-06T06:59:23Z</time>
      </trkpt>
      <trkpt lat="48.9691" lon="6.221">
        <ele>229.892334</ele>
        <time>2012-05-06T06:59:32Z</time>
      </trkpt>
      <trkpt lat="48.96854" lon="6.22094">
        <ele>231.3343506</ele>
        <time>2012-05-06T06:59:43Z</time>
      </trkpt>
      <trkpt lat="48.96819" lon="6.22091">
        <ele>231.3343506</ele>
        <time>2012-05-06T06:59:50Z</time>
      </trkpt>
      <trkpt lat="48.96766" lon="6.2208">
        <ele>234.2183838</ele>
        <time>2012-05-06T07:00:01Z</time>
      </trkpt>
      <trkpt lat="48.96728" lon="6.22074">
        <ele>235.6602783</ele>
        <time>2012-05-06T07:00:09Z</time>
      </trkpt>
      <trkpt lat="48.96682" lon="6.22076">
        <ele>236.6217041</ele>
        <time>2012-05-06T07:00:19Z</time>
      </trkpt>
      <trkpt lat="48.96651" lon="6.22086">
        <ele>237.5828857</ele>
        <time>2012-05-06T07:00:26Z</time>
      </trkpt>
      <trkpt lat="48.96603" lon="6.22111">
        <ele>238.0635986</ele>
        <time>2012-05-06T07:00:37Z</time>
      </trkpt>
      <trkpt lat="48.96559" lon="6.22134">
        <ele>240.9476318</ele>
        <time>2012-05-06T07:00:47Z</time>
      </trkpt>
      <trkpt lat="48.96538" lon="6.22147">
        <ele>240.9476318</ele>
        <time>2012-05-06T07:00:52Z</time>
      </trkpt>
      <trkpt lat="48.96507" lon="6.22149">
        <ele>240.9476318</ele>
        <time>2012-05-06T07:00:58Z</time>
      </trkpt>
      <trkpt lat="48.96502" lon="6.2215">
        <ele>240.9476318</ele>
        <time>2012-05-06T07:00:59Z</time>
      </trkpt>
      <trkpt lat="48.96478" lon="6.22168">
        <ele>241.4282227</ele>
        <time>2012-05-06T07:01:04Z</time>
      </trkpt>
      <trkpt lat="48.96471" lon="6.22181">
        <ele>241.4282227</ele>
        <time>2012-05-06T07:01:06Z</time>
      </trkpt>
      <trkpt lat="48.96465" lon="6.22195">
        <ele>240.9476318</ele>
        <time>2012-05-06T07:01:08Z</time>
      </trkpt>
      <trkpt lat="48.96444" lon="6.22218">
        <ele>241.4282227</ele>
        <time>2012-05-06T07:01:13Z</time>
      </trkpt>
      <trkpt lat="48.96404" lon="6.22242">
        <ele>242.3896484</ele>
        <time>2012-05-06T07:01:22Z</time>
      </trkpt>
      <trkpt lat="48.96376" lon="6.22259">
        <ele>243.3508301</ele>
        <time>2012-05-06T07:01:29Z</time>
      </trkpt>
      <trkpt lat="48.96344" lon="6.22281">
        <ele>245.2734375</ele>
        <time>2012-05-06T07:01:37Z</time>
      </trkpt>
      <trkpt lat="48.96299" lon="6.22309">
        <ele>245.7541504</ele>
        <time>2012-05-06T07:01:48Z</time>
      </trkpt>
      <trkpt lat="48.96257" lon="6.22335">
        <ele>247.6767578</ele>
        <time>2012-05-06T07:01:59Z</time>
      </trkpt>
      <trkpt lat="48.96217" lon="6.22357">
        <ele>249.5994873</ele>
        <time>2012-05-06T07:02:10Z</time>
      </trkpt>
      <trkpt lat="48.9618" lon="6.22376">
        <ele>251.5220947</ele>
        <time>2012-05-06T07:02:20Z</time>
      </trkpt>
      <trkpt lat="48.9614" lon="6.22391">
        <ele>252.4833984</ele>
        <time>2012-05-06T07:02:30Z</time>
      </trkpt>
      <trkpt lat="48.96136" lon="6.22393">
        <ele>252.4833984</ele>
        <time>2012-05-06T07:02:31Z</time>
      </trkpt>
      <trkpt lat="48.96105" lon="6.2241">
        <ele>252.9639893</ele>
        <time>2012-05-06T07:02:39Z</time>
      </trkpt>
      <trkpt lat="48.96072" lon="6.22439">
        <ele>253.4447021</ele>
        <time>2012-05-06T07:02:47Z</time>
      </trkpt>
      <trkpt lat="48.96027" lon="6.22493">
        <ele>253.4447021</ele>
        <time>2012-05-06T07:02:58Z</time>
      </trkpt>
      <trkpt lat="48.95994" lon="6.22533">
        <ele>251.5220947</ele>
        <time>2012-05-06T07:03:05Z</time>
      </trkpt>
      <trkpt lat="48.95959" lon="6.22565">
        <ele>250.0802002</ele>
        <time>2012-05-06T07:03:11Z</time>
      </trkpt>
      <trkpt lat="48.95911" lon="6.226">
        <ele>249.1187744</ele>
        <time>2012-05-06T07:03:18Z</time>
      </trkpt>
      <trkpt lat="48.95853" lon="6.22645">
        <ele>245.7541504</ele>
        <time>2012-05-06T07:03:26Z</time>
      </trkpt>
      <trkpt lat="48.95826" lon="6.22672">
        <ele>243.3508301</ele>
        <time>2012-05-06T07:03:30Z</time>
      </trkpt>
      <trkpt lat="48.9581" lon="6.22709">
        <ele>241.4282227</ele>
        <time>2012-05-06T07:03:34Z</time>
      </trkpt>
      <trkpt lat="48.9581" lon="6.22745">
        <ele>241.4282227</ele>
        <time>2012-05-06T07:03:37Z</time>
      </trkpt>
      <trkpt lat="48.95822" lon="6.22839">
        <ele>240.9476318</ele>
        <time>2012-05-06T07:03:45Z</time>
      </trkpt>
      <trkpt lat="48.95835" lon="6.22969">
        <ele>240.467041</ele>
        <time>2012-05-06T07:03:56Z</time>
      </trkpt>
      <trkpt lat="48.95843" lon="6.23053">
        <ele>242.3896484</ele>
        <time>2012-05-06T07:04:04Z</time>
      </trkpt>
      <trkpt lat="48.95851" lon="6.23147">
        <ele>241.9089355</ele>
        <time>2012-05-06T07:04:13Z</time>
      </trkpt>
      <trkpt lat="48.95861" lon="6.23254">
        <ele>241.9089355</ele>
        <time>2012-05-06T07:04:23Z</time>
      </trkpt>
      <trkpt lat="48.9587" lon="6.23343">
        <ele>239.9862061</ele>
        <time>2012-05-06T07:04:31Z</time>
      </trkpt>
      <trkpt lat="48.95882" lon="6.23444">
        <ele>238.5443115</ele>
        <time>2012-05-06T07:04:39Z</time>
      </trkpt>
      <trkpt lat="48.95887" lon="6.2348">
        <ele>238.0635986</ele>
        <time>2012-05-06T07:04:42Z</time>
      </trkpt>
      <trkpt lat="48.95904" lon="6.23516">
        <ele>238.5443115</ele>
        <time>2012-05-06T07:04:46Z</time>
      </trkpt>
      <trkpt lat="48.95916" lon="6.23524">
        <ele>239.0249023</ele>
        <time>2012-05-06T07:04:48Z</time>
      </trkpt>
      <trkpt lat="48.95934" lon="6.23554">
        <ele>239.5054932</ele>
        <time>2012-05-06T07:04:53Z</time>
      </trkpt>
      <trkpt lat="48.95926" lon="6.23572">
        <ele>239.5054932</ele>
        <time>2012-05-06T07:04:56Z</time>
      </trkpt>
      <trkpt lat="48.95912" lon="6.23565">
        <ele>240.467041</ele>
        <time>2012-05-06T07:04:59Z</time>
      </trkpt>
      <trkpt lat="48.95907" lon="6.23559">
        <ele>239.9862061</ele>
        <time>2012-05-06T07:05:00Z</time>
      </trkpt>
      <trkpt lat="48.95868" lon="6.23506">
        <ele>239.9862061</ele>
        <time>2012-05-06T07:05:08Z</time>
      </trkpt>
      <trkpt lat="48.95858" lon="6.23493">
        <ele>239.5054932</ele>
        <time>2012-05-06T07:05:10Z</time>
      </trkpt>
      <trkpt lat="48.95847" lon="6.23481">
        <ele>238.5443115</ele>
        <time>2012-05-06T07:05:13Z</time>
      </trkpt>
      <trkpt lat="48.95837" lon="6.23466">
        <ele>237.5828857</ele>
        <time>2012-05-06T07:05:14Z</time>
      </trkpt>
      <trkpt lat="48.958" lon="6.23429">
        <ele>237.1022949</ele>
        <time>2012-05-06T07:05:20Z</time>
      </trkpt>
      <trkpt lat="48.95757" lon="6.23391">
        <ele>236.6217041</ele>
        <time>2012-05-06T07:05:27Z</time>
      </trkpt>
      <trkpt lat="48.95729" lon="6.23345">
        <ele>235.1796875</ele>
        <time>2012-05-06T07:05:33Z</time>
      </trkpt>
      <trkpt lat="48.95708" lon="6.23281">
        <ele>235.1796875</ele>
        <time>2012-05-06T07:05:40Z</time>
      </trkpt>
      <trkpt lat="48.95677" lon="6.23193">
        <ele>233.7376709</ele>
        <time>2012-05-06T07:05:50Z</time>
      </trkpt>
      <trkpt lat="48.95648" lon="6.2312">
        <ele>232.7764893</ele>
        <time>2012-05-06T07:05:58Z</time>
      </trkpt>
      <trkpt lat="48.95624" lon="6.23048">
        <ele>231.3343506</ele>
        <time>2012-05-06T07:06:06Z</time>
      </trkpt>
      <trkpt lat="48.95611" lon="6.23035">
        <ele>231.3343506</ele>
        <time>2012-05-06T07:06:09Z</time>
      </trkpt>
      <trkpt lat="48.95597" lon="6.23048">
        <ele>230.8537598</ele>
        <time>2012-05-06T07:06:12Z</time>
      </trkpt>
      <trkpt lat="48.95552" lon="6.23098">
        <ele>231.8149414</ele>
        <time>2012-05-06T07:06:21Z</time>
      </trkpt>
      <trkpt lat="48.95541" lon="6.23104">
        <ele>232.2957764</ele>
        <time>2012-05-06T07:06:23Z</time>
      </trkpt>
      <trkpt lat="48.95508" lon="6.23111">
        <ele>234.2183838</ele>
        <time>2012-05-06T07:06:30Z</time>
      </trkpt>
      <trkpt lat="48.95473" lon="6.23111">
        <ele>236.6217041</ele>
        <time>2012-05-06T07:06:38Z</time>
      </trkpt>
      <trkpt lat="48.95455" lon="6.2311">
        <ele>237.5828857</ele>
        <time>2012-05-06T07:06:42Z</time>
      </trkpt>
      <trkpt lat="48.95407" lon="6.23112">
        <ele>239.5054932</ele>
        <time>2012-05-06T07:06:53Z</time>
      </trkpt>
      <trkpt lat="48.95394" lon="6.23115">
        <ele>239.5054932</ele>
        <time>2012-05-06T07:06:56Z</time>
      </trkpt>
      <trkpt lat="48.95379" lon="6.23121">
        <ele>239.9862061</ele>
        <time>2012-05-06T07:07:00Z</time>
      </trkpt>
      <trkpt lat="48.95339" lon="6.23137">
        <ele>241.9089355</ele>
        <time>2012-05-06T07:07:10Z</time>
      </trkpt>
      <trkpt lat="48.95299" lon="6.23158">
        <ele>244.7928467</ele>
        <time>2012-05-06T07:07:21Z</time>
      </trkpt>
      <trkpt lat="48.95271" lon="6.23176">
        <ele>246.2348633</ele>
        <time>2012-05-06T07:07:29Z</time>
      </trkpt>
      <trkpt lat="48.95242" lon="6.23198">
        <ele>247.1960449</ele>
        <time>2012-05-06T07:07:38Z</time>
      </trkpt>
      <trkpt lat="48.95219" lon="6.23219">
        <ele>250.0802002</ele>
        <time>2012-05-06T07:07:47Z</time>
      </trkpt>
      <trkpt lat="48.95202" lon="6.23231">
        <ele>251.5220947</ele>
        <time>2012-05-06T07:07:54Z</time>
      </trkpt>
      <trkpt lat="48.95174" lon="6.23252">
        <ele>253.4447021</ele>
        <time>2012-05-06T07:08:03Z</time>
      </trkpt>
      <trkpt lat="48.9515" lon="6.23269">
        <ele>253.4447021</ele>
        <time>2012-05-06T07:08:11Z</time>
      </trkpt>
      <trkpt lat="48.95126" lon="6.23288">
        <ele>253.925415</ele>
        <time>2012-05-06T07:08:18Z</time>
      </trkpt>
      <trkpt lat="48.95112" lon="6.23319">
        <ele>253.4447021</ele>
        <time>2012-05-06T07:08:24Z</time>
      </trkpt>
      <trkpt lat="48.9511" lon="6.23332">
        <ele>253.925415</ele>
        <time>2012-05-06T07:08:26Z</time>
      </trkpt>
      <trkpt lat="48.95108" lon="6.23352">
        <ele>254.4060059</ele>
        <time>2012-05-06T07:08:29Z</time>
      </trkpt>
      <trkpt lat="48.95099" lon="6.23385">
        <ele>253.4447021</ele>
        <time>2012-05-06T07:08:34Z</time>
      </trkpt>
      <trkpt lat="48.95083" lon="6.23408">
        <ele>252.9639893</ele>
        <time>2012-05-06T07:08:38Z</time>
      </trkpt>
      <trkpt lat="48.95066" lon="6.23419">
        <ele>250.0802002</ele>
        <time>2012-05-06T07:08:42Z</time>
      </trkpt>
      <trkpt lat="48.95054" lon="6.23425">
        <ele>249.5994873</ele>
        <time>2012-05-06T07:08:48Z</time>
      </trkpt>
      <trkpt lat="48.95052" lon="6.23426">
        <ele>249.5994873</ele>
        <time>2012-05-06T07:08:50Z</time>
      </trkpt>
      <trkpt lat="48.95055" lon="6.23426">
        <ele>250.0802002</ele>
        <time>2012-05-06T07:08:54Z</time>
      </trkpt>
      <trkpt lat="48.95061" lon="6.23421">
        <ele>250.0802002</ele>
        <time>2012-05-06T07:08:57Z</time>
      </trkpt>
      <trkpt lat="48.95079" lon="6.23408">
        <ele>252.0028076</ele>
        <time>2012-05-06T07:09:03Z</time>
      </trkpt>
      <trkpt lat="48.95104" lon="6.234">
        <ele>252.4833984</ele>
        <time>2012-05-06T07:09:10Z</time>
      </trkpt>
      <trkpt lat="48.95136" lon="6.23398">
        <ele>254.8865967</ele>
        <time>2012-05-06T07:09:18Z</time>
      </trkpt>
      <trkpt lat="48.95163" lon="6.23392">
        <ele>255.8480225</ele>
        <time>2012-05-06T07:09:25Z</time>
      </trkpt>
      <trkpt lat="48.95177" lon="6.23371">
        <ele>254.8865967</ele>
        <time>2012-05-06T07:09:30Z</time>
      </trkpt>
      <trkpt lat="48.95197" lon="6.23354">
        <ele>254.8865967</ele>
        <time>2012-05-06T07:09:36Z</time>
      </trkpt>
      <trkpt lat="48.95206" lon="6.23353">
        <ele>254.4060059</ele>
        <time>2012-05-06T07:09:40Z</time>
      </trkpt>
      <trkpt lat="48.95208" lon="6.23345">
        <ele>254.8865967</ele>
        <time>2012-05-06T07:09:44Z</time>
      </trkpt>
      <trkpt lat="48.95199" lon="6.2331">
        <ele>254.4060059</ele>
        <time>2012-05-06T07:09:52Z</time>
      </trkpt>
      <trkpt lat="48.95188" lon="6.23266">
        <ele>251.5220947</ele>
        <time>2012-05-06T07:10:00Z</time>
      </trkpt>
      <trkpt lat="48.95185" lon="6.23251">
        <ele>252.0028076</ele>
        <time>2012-05-06T07:10:04Z</time>
      </trkpt>
      <trkpt lat="48.95191" lon="6.23242">
        <ele>251.5220947</ele>
        <time>2012-05-06T07:10:08Z</time>
      </trkpt>
      <trkpt lat="48.95212" lon="6.23224">
        <ele>251.0413818</ele>
        <time>2012-05-06T07:10:15Z</time>
      </trkpt>
      <trkpt lat="48.95232" lon="6.23209">
        <ele>249.5994873</ele>
        <time>2012-05-06T07:10:19Z</time>
      </trkpt>
      <trkpt lat="48.95238" lon="6.23204">
        <ele>249.1187744</ele>
        <time>2012-05-06T07:10:20Z</time>
      </trkpt>
      <trkpt lat="48.95266" lon="6.23182">
        <ele>248.1575928</ele>
        <time>2012-05-06T07:10:24Z</time>
      </trkpt>
      <trkpt lat="48.95288" lon="6.23166">
        <ele>246.7154541</ele>
        <time>2012-05-06T07:10:27Z</time>
      </trkpt>
      <trkpt lat="48.9534" lon="6.2314">
        <ele>243.831543</ele>
        <time>2012-05-06T07:10:33Z</time>
      </trkpt>
      <trkpt lat="48.95387" lon="6.23121">
        <ele>240.467041</ele>
        <time>2012-05-06T07:10:38Z</time>
      </trkpt>
      <trkpt lat="48.95397" lon="6.23117">
        <ele>240.9476318</ele>
        <time>2012-05-06T07:10:39Z</time>
      </trkpt>
      <trkpt lat="48.95439" lon="6.23111">
        <ele>238.5443115</ele>
        <time>2012-05-06T07:10:43Z</time>
      </trkpt>
      <trkpt lat="48.9546" lon="6.23112">
        <ele>237.5828857</ele>
        <time>2012-05-06T07:10:45Z</time>
      </trkpt>
      <trkpt lat="48.95524" lon="6.23113">
        <ele>235.1796875</ele>
        <time>2012-05-06T07:10:51Z</time>
      </trkpt>
      <trkpt lat="48.95535" lon="6.23111">
        <ele>234.6990967</ele>
        <time>2012-05-06T07:10:52Z</time>
      </trkpt>
      <trkpt lat="48.95576" lon="6.23084">
        <ele>233.7376709</ele>
        <time>2012-05-06T07:10:56Z</time>
      </trkpt>
      <trkpt lat="48.95601" lon="6.23053">
        <ele>232.7764893</ele>
        <time>2012-05-06T07:10:59Z</time>
      </trkpt>
      <trkpt lat="48.95616" lon="6.23015">
        <ele>231.8149414</ele>
        <time>2012-05-06T07:11:02Z</time>
      </trkpt>
      <trkpt lat="48.95612" lon="6.22988">
        <ele>232.2957764</ele>
        <time>2012-05-06T07:11:04Z</time>
      </trkpt>
      <trkpt lat="48.9559" lon="6.22914">
        <ele>231.8149414</ele>
        <time>2012-05-06T07:11:10Z</time>
      </trkpt>
      <trkpt lat="48.95548" lon="6.22835">
        <ele>231.3343506</ele>
        <time>2012-05-06T07:11:18Z</time>
      </trkpt>
      <trkpt lat="48.95495" lon="6.22751">
        <ele>231.3343506</ele>
        <time>2012-05-06T07:11:28Z</time>
      </trkpt>
      <trkpt lat="48.95459" lon="6.22701">
        <ele>231.3343506</ele>
        <time>2012-05-06T07:11:35Z</time>
      </trkpt>
      <trkpt lat="48.9543" lon="6.22662">
        <ele>231.3343506</ele>
        <time>2012-05-06T07:11:41Z</time>
      </trkpt>
      <trkpt lat="48.95388" lon="6.22594">
        <ele>232.2957764</ele>
        <time>2012-05-06T07:11:51Z</time>
      </trkpt>
      <trkpt lat="48.95356" lon="6.22529">
        <ele>232.2957764</ele>
        <time>2012-05-06T07:12:00Z</time>
      </trkpt>
      <trkpt lat="48.9531" lon="6.22428">
        <ele>233.2570801</ele>
        <time>2012-05-06T07:12:13Z</time>
      </trkpt>
      <trkpt lat="48.95268" lon="6.2236">
        <ele>232.7764893</ele>
        <time>2012-05-06T07:12:23Z</time>
      </trkpt>
      <trkpt lat="48.95221" lon="6.22288">
        <ele>233.2570801</ele>
        <time>2012-05-06T07:12:34Z</time>
      </trkpt>
      <trkpt lat="48.95174" lon="6.22213">
        <ele>232.7764893</ele>
        <time>2012-05-06T07:12:45Z</time>
      </trkpt>
      <trkpt lat="48.95121" lon="6.22139">
        <ele>231.8149414</ele>
        <time>2012-05-06T07:12:56Z</time>
      </trkpt>
      <trkpt lat="48.95108" lon="6.22115">
        <ele>230.3730469</ele>
        <time>2012-05-06T07:12:59Z</time>
      </trkpt>
      <trkpt lat="48.95088" lon="6.22049">
        <ele>229.4117432</ele>
        <time>2012-05-06T07:13:06Z</time>
      </trkpt>
      <trkpt lat="48.95083" lon="6.2203">
        <ele>230.3730469</ele>
        <time>2012-05-06T07:13:08Z</time>
      </trkpt>
      <trkpt lat="48.95051" lon="6.21974">
        <ele>229.892334</ele>
        <time>2012-05-06T07:13:15Z</time>
      </trkpt>
      <trkpt lat="48.94988" lon="6.21882">
        <ele>229.4117432</ele>
        <time>2012-05-06T07:13:28Z</time>
      </trkpt>
      <trkpt lat="48.94954" lon="6.21817">
        <ele>228.4504395</ele>
        <time>2012-05-06T07:13:36Z</time>
      </trkpt>
      <trkpt lat="48.94929" lon="6.21748">
        <ele>226.0471191</ele>
        <time>2012-05-06T07:13:43Z</time>
      </trkpt>
      <trkpt lat="48.94907" lon="6.21684">
        <ele>223.6437988</ele>
        <time>2012-05-06T07:13:49Z</time>
      </trkpt>
      <trkpt lat="48.94876" lon="6.21637">
        <ele>221.7211914</ele>
        <time>2012-05-06T07:13:54Z</time>
      </trkpt>
      <trkpt lat="48.94862" lon="6.21619">
        <ele>220.7598877</ele>
        <time>2012-05-06T07:13:56Z</time>
      </trkpt>
      <trkpt lat="48.94839" lon="6.21593">
        <ele>218.3565674</ele>
        <time>2012-05-06T07:13:59Z</time>
      </trkpt>
      <trkpt lat="48.94809" lon="6.21553">
        <ele>216.9146729</ele>
        <time>2012-05-06T07:14:04Z</time>
      </trkpt>
      <trkpt lat="48.94805" lon="6.21547">
        <ele>216.43396</ele>
        <time>2012-05-06T07:14:05Z</time>
      </trkpt>
      <trkpt lat="48.94787" lon="6.21538">
        <ele>216.9146729</ele>
        <time>2012-05-06T07:14:09Z</time>
      </trkpt>
      <trkpt lat="48.94771" lon="6.21553">
        <ele>215.9532471</ele>
        <time>2012-05-06T07:14:12Z</time>
      </trkpt>
      <trkpt lat="48.94723" lon="6.21617">
        <ele>215.4726563</ele>
        <time>2012-05-06T07:14:21Z</time>
      </trkpt>
      <trkpt lat="48.94689" lon="6.21657">
        <ele>215.4726563</ele>
        <time>2012-05-06T07:14:27Z</time>
      </trkpt>
      <trkpt lat="48.94645" lon="6.2171">
        <ele>215.4726563</ele>
        <time>2012-05-06T07:14:35Z</time>
      </trkpt>
      <trkpt lat="48.94614" lon="6.21744">
        <ele>217.3953857</ele>
        <time>2012-05-06T07:14:42Z</time>
      </trkpt>
      <trkpt lat="48.94579" lon="6.21772">
        <ele>219.3179932</ele>
        <time>2012-05-06T07:14:50Z</time>
      </trkpt>
      <trkpt lat="48.94555" lon="6.21789">
        <ele>221.7211914</ele>
        <time>2012-05-06T07:14:56Z</time>
      </trkpt>
      <trkpt lat="48.94519" lon="6.21811">
        <ele>223.6437988</ele>
        <time>2012-05-06T07:15:05Z</time>
      </trkpt>
      <trkpt lat="48.94496" lon="6.21826">
        <ele>225.0859375</ele>
        <time>2012-05-06T07:15:11Z</time>
      </trkpt>
      <trkpt lat="48.94459" lon="6.2185">
        <ele>226.0471191</ele>
        <time>2012-05-06T07:15:21Z</time>
      </trkpt>
      <trkpt lat="48.94448" lon="6.21856">
        <ele>227.4891357</ele>
        <time>2012-05-06T07:15:24Z</time>
      </trkpt>
      <trkpt lat="48.94421" lon="6.2187">
        <ele>227.9697266</ele>
        <time>2012-05-06T07:15:32Z</time>
      </trkpt>
      <trkpt lat="48.94387" lon="6.21876">
        <ele>230.3730469</ele>
        <time>2012-05-06T07:15:42Z</time>
      </trkpt>
      <trkpt lat="48.94356" lon="6.21877">
        <ele>231.3343506</ele>
        <time>2012-05-06T07:15:51Z</time>
      </trkpt>
      <trkpt lat="48.94328" lon="6.21875">
        <ele>233.2570801</ele>
        <time>2012-05-06T07:15:59Z</time>
      </trkpt>
      <trkpt lat="48.94297" lon="6.21874">
        <ele>234.2183838</ele>
        <time>2012-05-06T07:16:08Z</time>
      </trkpt>
      <trkpt lat="48.94261" lon="6.21872">
        <ele>236.1409912</ele>
        <time>2012-05-06T07:16:18Z</time>
      </trkpt>
      <trkpt lat="48.94237" lon="6.21871">
        <ele>237.1022949</ele>
        <time>2012-05-06T07:16:25Z</time>
      </trkpt>
      <trkpt lat="48.94204" lon="6.21869">
        <ele>238.5443115</ele>
        <time>2012-05-06T07:16:34Z</time>
      </trkpt>
      <trkpt lat="48.94165" lon="6.21864">
        <ele>239.9862061</ele>
        <time>2012-05-06T07:16:44Z</time>
      </trkpt>
      <trkpt lat="48.94134" lon="6.21863">
        <ele>239.9862061</ele>
        <time>2012-05-06T07:16:52Z</time>
      </trkpt>
      <trkpt lat="48.94103" lon="6.21863">
        <ele>241.4282227</ele>
        <time>2012-05-06T07:17:00Z</time>
      </trkpt>
      <trkpt lat="48.94061" lon="6.21862">
        <ele>242.3896484</ele>
        <time>2012-05-06T07:17:11Z</time>
      </trkpt>
      <trkpt lat="48.94053" lon="6.2188">
        <ele>242.3896484</ele>
        <time>2012-05-06T07:17:15Z</time>
      </trkpt>
      <trkpt lat="48.94054" lon="6.21893">
        <ele>242.3896484</ele>
        <time>2012-05-06T07:17:17Z</time>
      </trkpt>
      <trkpt lat="48.94066" lon="6.21958">
        <ele>243.831543</ele>
        <time>2012-05-06T07:17:27Z</time>
      </trkpt>
      <trkpt lat="48.94067" lon="6.21965">
        <ele>243.831543</ele>
        <time>2012-05-06T07:17:28Z</time>
      </trkpt>
      <trkpt lat="48.94071" lon="6.21992">
        <ele>244.3122559</ele>
        <time>2012-05-06T07:17:32Z</time>
      </trkpt>
      <trkpt lat="48.94079" lon="6.22045">
        <ele>244.7928467</ele>
        <time>2012-05-06T07:17:40Z</time>
      </trkpt>
      <trkpt lat="48.94086" lon="6.22106">
        <ele>245.7541504</ele>
        <time>2012-05-06T07:17:48Z</time>
      </trkpt>
      <trkpt lat="48.94096" lon="6.22182">
        <ele>245.7541504</ele>
        <time>2012-05-06T07:17:57Z</time>
      </trkpt>
      <trkpt lat="48.9411" lon="6.22268">
        <ele>246.7154541</ele>
        <time>2012-05-06T07:18:07Z</time>
      </trkpt>
      <trkpt lat="48.94122" lon="6.22355">
        <ele>245.7541504</ele>
        <time>2012-05-06T07:18:16Z</time>
      </trkpt>
      <trkpt lat="48.9413" lon="6.22445">
        <ele>246.7154541</ele>
        <time>2012-05-06T07:18:25Z</time>
      </trkpt>
      <trkpt lat="48.9413" lon="6.22455">
        <ele>246.2348633</ele>
        <time>2012-05-06T07:18:26Z</time>
      </trkpt>
      <trkpt lat="48.94123" lon="6.22503">
        <ele>246.7154541</ele>
        <time>2012-05-06T07:18:31Z</time>
      </trkpt>
      <trkpt lat="48.9411" lon="6.22525">
        <ele>247.1960449</ele>
        <time>2012-05-06T07:18:34Z</time>
      </trkpt>
      <trkpt lat="48.94099" lon="6.22535">
        <ele>247.6767578</ele>
        <time>2012-05-06T07:18:36Z</time>
      </trkpt>
      <trkpt lat="48.94047" lon="6.2257">
        <ele>246.7154541</ele>
        <time>2012-05-06T07:18:45Z</time>
      </trkpt>
      <trkpt lat="48.9401" lon="6.22604">
        <ele>244.7928467</ele>
        <time>2012-05-06T07:18:51Z</time>
      </trkpt>
      <trkpt lat="48.94003" lon="6.2261">
        <ele>244.3122559</ele>
        <time>2012-05-06T07:18:52Z</time>
      </trkpt>
      <trkpt lat="48.93977" lon="6.22655">
        <ele>242.8702393</ele>
        <time>2012-05-06T07:18:57Z</time>
      </trkpt>
      <trkpt lat="48.93968" lon="6.22689">
        <ele>242.3896484</ele>
        <time>2012-05-06T07:19:00Z</time>
      </trkpt>
      <trkpt lat="48.93955" lon="6.22786">
        <ele>241.4282227</ele>
        <time>2012-05-06T07:19:08Z</time>
      </trkpt>
      <trkpt lat="48.93946" lon="6.22889">
        <ele>241.4282227</ele>
        <time>2012-05-06T07:19:17Z</time>
      </trkpt>
      <trkpt lat="48.93946" lon="6.22964">
        <ele>242.8702393</ele>
        <time>2012-05-06T07:19:24Z</time>
      </trkpt>
      <trkpt lat="48.93952" lon="6.23067">
        <ele>243.3508301</ele>
        <time>2012-05-06T07:19:34Z</time>
      </trkpt>
      <trkpt lat="48.93951" lon="6.23161">
        <ele>244.7928467</ele>
        <time>2012-05-06T07:19:43Z</time>
      </trkpt>
      <trkpt lat="48.9395" lon="6.23171">
        <ele>244.3122559</ele>
        <time>2012-05-06T07:19:44Z</time>
      </trkpt>
      <trkpt lat="48.93937" lon="6.23209">
        <ele>244.7928467</ele>
        <time>2012-05-06T07:19:48Z</time>
      </trkpt>
      <trkpt lat="48.93926" lon="6.23223">
        <ele>245.2734375</ele>
        <time>2012-05-06T07:19:50Z</time>
      </trkpt>
      <trkpt lat="48.93875" lon="6.23283">
        <ele>245.7541504</ele>
        <time>2012-05-06T07:20:00Z</time>
      </trkpt>
      <trkpt lat="48.93843" lon="6.23336">
        <ele>246.2348633</ele>
        <time>2012-05-06T07:20:08Z</time>
      </trkpt>
      <trkpt lat="48.93805" lon="6.23402">
        <ele>247.6767578</ele>
        <time>2012-05-06T07:20:18Z</time>
      </trkpt>
      <trkpt lat="48.9377" lon="6.23453">
        <ele>249.1187744</ele>
        <time>2012-05-06T07:20:27Z</time>
      </trkpt>
      <trkpt lat="48.93766" lon="6.23458">
        <ele>249.1187744</ele>
        <time>2012-05-06T07:20:28Z</time>
      </trkpt>
      <trkpt lat="48.93728" lon="6.23499">
        <ele>250.0802002</ele>
        <time>2012-05-06T07:20:37Z</time>
      </trkpt>
      <trkpt lat="48.9369" lon="6.23537">
        <ele>252.0028076</ele>
        <time>2012-05-06T07:20:46Z</time>
      </trkpt>
      <trkpt lat="48.93644" lon="6.23575">
        <ele>253.4447021</ele>
        <time>2012-05-06T07:20:57Z</time>
      </trkpt>
      <trkpt lat="48.93602" lon="6.23608">
        <ele>254.8865967</ele>
        <time>2012-05-06T07:21:07Z</time>
      </trkpt>
      <trkpt lat="48.93562" lon="6.23647">
        <ele>255.8480225</ele>
        <time>2012-05-06T07:21:17Z</time>
      </trkpt>
      <trkpt lat="48.93516" lon="6.2369">
        <ele>256.8093262</ele>
        <time>2012-05-06T07:21:28Z</time>
      </trkpt>
      <trkpt lat="48.93479" lon="6.23722">
        <ele>255.8480225</ele>
        <time>2012-05-06T07:21:36Z</time>
      </trkpt>
      <trkpt lat="48.93425" lon="6.23775">
        <ele>255.3673096</ele>
        <time>2012-05-06T07:21:47Z</time>
      </trkpt>
      <trkpt lat="48.93375" lon="6.23842">
        <ele>255.3673096</ele>
        <time>2012-05-06T07:21:58Z</time>
      </trkpt>
      <trkpt lat="48.93331" lon="6.23899">
        <ele>254.8865967</ele>
        <time>2012-05-06T07:22:07Z</time>
      </trkpt>
      <trkpt lat="48.93289" lon="6.23942">
        <ele>255.3673096</ele>
        <time>2012-05-06T07:22:15Z</time>
      </trkpt>
      <trkpt lat="48.93247" lon="6.23969">
        <ele>253.925415</ele>
        <time>2012-05-06T07:22:22Z</time>
      </trkpt>
      <trkpt lat="48.93177" lon="6.24002">
        <ele>253.925415</ele>
        <time>2012-05-06T07:22:33Z</time>
      </trkpt>
      <trkpt lat="48.93116" lon="6.24022">
        <ele>254.8865967</ele>
        <time>2012-05-06T07:22:43Z</time>
      </trkpt>
      <trkpt lat="48.93065" lon="6.24034">
        <ele>252.9639893</ele>
        <time>2012-05-06T07:22:51Z</time>
      </trkpt>
      <trkpt lat="48.93002" lon="6.24051">
        <ele>251.5220947</ele>
        <time>2012-05-06T07:23:00Z</time>
      </trkpt>
      <trkpt lat="48.92968" lon="6.24072">
        <ele>250.0802002</ele>
        <time>2012-05-06T07:23:05Z</time>
      </trkpt>
      <trkpt lat="48.92949" lon="6.2409">
        <ele>249.1187744</ele>
        <time>2012-05-06T07:23:08Z</time>
      </trkpt>
      <trkpt lat="48.92908" lon="6.24135">
        <ele>246.2348633</ele>
        <time>2012-05-06T07:23:14Z</time>
      </trkpt>
      <trkpt lat="48.92902" lon="6.24143">
        <ele>246.2348633</ele>
        <time>2012-05-06T07:23:15Z</time>
      </trkpt>
      <trkpt lat="48.92866" lon="6.2418">
        <ele>243.831543</ele>
        <time>2012-05-06T07:23:20Z</time>
      </trkpt>
      <trkpt lat="48.92859" lon="6.24186">
        <ele>244.7928467</ele>
        <time>2012-05-06T07:23:21Z</time>
      </trkpt>
      <trkpt lat="48.92818" lon="6.24203">
        <ele>243.831543</ele>
        <time>2012-05-06T07:23:26Z</time>
      </trkpt>
      <trkpt lat="48.92779" lon="6.24209">
        <ele>241.9089355</ele>
        <time>2012-05-06T07:23:31Z</time>
      </trkpt>
      <trkpt lat="48.92746" lon="6.24196">
        <ele>239.5054932</ele>
        <time>2012-05-06T07:23:36Z</time>
      </trkpt>
      <trkpt lat="48.92734" lon="6.24183">
        <ele>239.0249023</ele>
        <time>2012-05-06T07:23:38Z</time>
      </trkpt>
      <trkpt lat="48.92714" lon="6.24162">
        <ele>237.1022949</ele>
        <time>2012-05-06T07:23:41Z</time>
      </trkpt>
      <trkpt lat="48.92676" lon="6.24134">
        <ele>234.2183838</ele>
        <time>2012-05-06T07:23:46Z</time>
      </trkpt>
      <trkpt lat="48.92668" lon="6.24131">
        <ele>233.7376709</ele>
        <time>2012-05-06T07:23:47Z</time>
      </trkpt>
      <trkpt lat="48.92651" lon="6.24126">
        <ele>232.7764893</ele>
        <time>2012-05-06T07:23:49Z</time>
      </trkpt>
      <trkpt lat="48.92597" lon="6.24122">
        <ele>231.3343506</ele>
        <time>2012-05-06T07:23:55Z</time>
      </trkpt>
      <trkpt lat="48.92546" lon="6.24119">
        <ele>230.3730469</ele>
        <time>2012-05-06T07:24:01Z</time>
      </trkpt>
      <trkpt lat="48.92498" lon="6.24116">
        <ele>228.9311523</ele>
        <time>2012-05-06T07:24:07Z</time>
      </trkpt>
      <trkpt lat="48.92455" lon="6.2412">
        <ele>229.4117432</ele>
        <time>2012-05-06T07:24:13Z</time>
      </trkpt>
      <trkpt lat="48.92403" lon="6.24137">
        <ele>231.3343506</ele>
        <time>2012-05-06T07:24:21Z</time>
      </trkpt>
      <trkpt lat="48.92372" lon="6.24148">
        <ele>233.2570801</ele>
        <time>2012-05-06T07:24:26Z</time>
      </trkpt>
      <trkpt lat="48.92355" lon="6.24157">
        <ele>232.7764893</ele>
        <time>2012-05-06T07:24:29Z</time>
      </trkpt>
      <trkpt lat="48.92333" lon="6.24188">
        <ele>232.2957764</ele>
        <time>2012-05-06T07:24:34Z</time>
      </trkpt>
      <trkpt lat="48.9233" lon="6.24197">
        <ele>231.8149414</ele>
        <time>2012-05-06T07:24:35Z</time>
      </trkpt>
      <trkpt lat="48.92311" lon="6.2428">
        <ele>233.2570801</ele>
        <time>2012-05-06T07:24:44Z</time>
      </trkpt>
      <trkpt lat="48.92293" lon="6.24333">
        <ele>233.2570801</ele>
        <time>2012-05-06T07:24:50Z</time>
      </trkpt>
      <trkpt lat="48.92274" lon="6.24358">
        <ele>233.7376709</ele>
        <time>2012-05-06T07:24:54Z</time>
      </trkpt>
      <trkpt lat="48.92216" lon="6.24398">
        <ele>233.2570801</ele>
        <time>2012-05-06T07:25:04Z</time>
      </trkpt>
      <trkpt lat="48.92165" lon="6.24431">
        <ele>235.1796875</ele>
        <time>2012-05-06T07:25:13Z</time>
      </trkpt>
      <trkpt lat="48.92144" lon="6.24426">
        <ele>235.6602783</ele>
        <time>2012-05-06T07:25:17Z</time>
      </trkpt>
      <trkpt lat="48.92108" lon="6.24404">
        <ele>235.1796875</ele>
        <time>2012-05-06T07:25:24Z</time>
      </trkpt>
      <trkpt lat="48.92071" lon="6.24394">
        <ele>233.7376709</ele>
        <time>2012-05-06T07:25:31Z</time>
      </trkpt>
      <trkpt lat="48.92021" lon="6.24383">
        <ele>232.7764893</ele>
        <time>2012-05-06T07:25:39Z</time>
      </trkpt>
      <trkpt lat="48.91971" lon="6.24372">
        <ele>229.892334</ele>
        <time>2012-05-06T07:25:46Z</time>
      </trkpt>
      <trkpt lat="48.919" lon="6.24356">
        <ele>227.0085449</ele>
        <time>2012-05-06T07:25:55Z</time>
      </trkpt>
      <trkpt lat="48.91892" lon="6.24355">
        <ele>226.0471191</ele>
        <time>2012-05-06T07:25:56Z</time>
      </trkpt>
      <trkpt lat="48.91806" lon="6.24335">
        <ele>223.6437988</ele>
        <time>2012-05-06T07:26:06Z</time>
      </trkpt>
      <trkpt lat="48.91716" lon="6.24315">
        <ele>220.7598877</ele>
        <time>2012-05-06T07:26:16Z</time>
      </trkpt>
      <trkpt lat="48.91616" lon="6.24293">
        <ele>217.8759766</ele>
        <time>2012-05-06T07:26:27Z</time>
      </trkpt>
      <trkpt lat="48.91531" lon="6.24274">
        <ele>217.3953857</ele>
        <time>2012-05-06T07:26:37Z</time>
      </trkpt>
      <trkpt lat="48.91474" lon="6.24261">
        <ele>214.9919434</ele>
        <time>2012-05-06T07:26:44Z</time>
      </trkpt>
      <trkpt lat="48.91407" lon="6.24247">
        <ele>214.9919434</ele>
        <time>2012-05-06T07:26:53Z</time>
      </trkpt>
      <trkpt lat="48.91369" lon="6.2425">
        <ele>214.0306396</ele>
        <time>2012-05-06T07:26:58Z</time>
      </trkpt>
      <trkpt lat="48.91307" lon="6.2427">
        <ele>212.588623</ele>
        <time>2012-05-06T07:27:06Z</time>
      </trkpt>
      <trkpt lat="48.91237" lon="6.24292">
        <ele>210.6660156</ele>
        <time>2012-05-06T07:27:15Z</time>
      </trkpt>
      <trkpt lat="48.91166" lon="6.24313">
        <ele>207.3013916</ele>
        <time>2012-05-06T07:27:24Z</time>
      </trkpt>
      <trkpt lat="48.91095" lon="6.24336">
        <ele>205.3787842</ele>
        <time>2012-05-06T07:27:33Z</time>
      </trkpt>
      <trkpt lat="48.91019" lon="6.2436">
        <ele>204.4174805</ele>
        <time>2012-05-06T07:27:43Z</time>
      </trkpt>
      <trkpt lat="48.90992" lon="6.24383">
        <ele>202.9754639</ele>
        <time>2012-05-06T07:27:47Z</time>
      </trkpt>
      <trkpt lat="48.90948" lon="6.2445">
        <ele>200.5722656</ele>
        <time>2012-05-06T07:27:55Z</time>
      </trkpt>
      <trkpt lat="48.90928" lon="6.24462">
        <ele>199.130127</ele>
        <time>2012-05-06T07:27:59Z</time>
      </trkpt>
      <trkpt lat="48.90919" lon="6.24454">
        <ele>199.130127</ele>
        <time>2012-05-06T07:28:01Z</time>
      </trkpt>
      <trkpt lat="48.90911" lon="6.24444">
        <ele>200.0916748</ele>
        <time>2012-05-06T07:28:03Z</time>
      </trkpt>
      <trkpt lat="48.90887" lon="6.2443">
        <ele>201.5335693</ele>
        <time>2012-05-06T07:28:08Z</time>
      </trkpt>
      <trkpt lat="48.9085" lon="6.24421">
        <ele>203.9368896</ele>
        <time>2012-05-06T07:28:15Z</time>
      </trkpt>
      <trkpt lat="48.90812" lon="6.24409">
        <ele>202.9754639</ele>
        <time>2012-05-06T07:28:22Z</time>
      </trkpt>
      <trkpt lat="48.90765" lon="6.24394">
        <ele>204.4174805</ele>
        <time>2012-05-06T07:28:31Z</time>
      </trkpt>
      <trkpt lat="48.90733" lon="6.24379">
        <ele>204.4174805</ele>
        <time>2012-05-06T07:28:38Z</time>
      </trkpt>
      <trkpt lat="48.90701" lon="6.24353">
        <ele>206.3400879</ele>
        <time>2012-05-06T07:28:46Z</time>
      </trkpt>
      <trkpt lat="48.9067" lon="6.2432">
        <ele>207.3013916</ele>
        <time>2012-05-06T07:28:55Z</time>
      </trkpt>
      <trkpt lat="48.90631" lon="6.24279">
        <ele>209.704834</ele>
        <time>2012-05-06T07:29:06Z</time>
      </trkpt>
      <trkpt lat="48.90592" lon="6.24238">
        <ele>211.1467285</ele>
        <time>2012-05-06T07:29:17Z</time>
      </trkpt>
      <trkpt lat="48.90549" lon="6.24195">
        <ele>213.0693359</ele>
        <time>2012-05-06T07:29:29Z</time>
      </trkpt>
      <trkpt lat="48.90519" lon="6.24159">
        <ele>213.5500488</ele>
        <time>2012-05-06T07:29:37Z</time>
      </trkpt>
      <trkpt lat="48.9049" lon="6.24112">
        <ele>213.0693359</ele>
        <time>2012-05-06T07:29:45Z</time>
      </trkpt>
      <trkpt lat="48.90451" lon="6.24034">
        <ele>211.6274414</ele>
        <time>2012-05-06T07:29:56Z</time>
      </trkpt>
      <trkpt lat="48.90405" lon="6.23945">
        <ele>209.704834</ele>
        <time>2012-05-06T07:30:08Z</time>
      </trkpt>
      <trkpt lat="48.90371" lon="6.23875">
        <ele>209.2241211</ele>
        <time>2012-05-06T07:30:17Z</time>
      </trkpt>
      <trkpt lat="48.90344" lon="6.23797">
        <ele>207.3013916</ele>
        <time>2012-05-06T07:30:26Z</time>
      </trkpt>
      <trkpt lat="48.90316" lon="6.2373">
        <ele>205.3787842</ele>
        <time>2012-05-06T07:30:34Z</time>
      </trkpt>
      <trkpt lat="48.9027" lon="6.23654">
        <ele>203.9368896</ele>
        <time>2012-05-06T07:30:44Z</time>
      </trkpt>
      <trkpt lat="48.90225" lon="6.23605">
        <ele>202.494873</ele>
        <time>2012-05-06T07:30:52Z</time>
      </trkpt>
      <trkpt lat="48.90166" lon="6.23545">
        <ele>199.6108398</ele>
        <time>2012-05-06T07:31:02Z</time>
      </trkpt>
      <trkpt lat="48.9016" lon="6.23538">
        <ele>199.130127</ele>
        <time>2012-05-06T07:31:03Z</time>
      </trkpt>
      <trkpt lat="48.901" lon="6.23478">
        <ele>197.2075195</ele>
        <time>2012-05-06T07:31:13Z</time>
      </trkpt>
      <trkpt lat="48.90057" lon="6.23449">
        <ele>197.6882324</ele>
        <time>2012-05-06T07:31:20Z</time>
      </trkpt>
      <trkpt lat="48.90038" lon="6.23439">
        <ele>196.2463379</ele>
        <time>2012-05-06T07:31:23Z</time>
      </trkpt>
      <trkpt lat="48.89977" lon="6.23405">
        <ele>194.3237305</ele>
        <time>2012-05-06T07:31:33Z</time>
      </trkpt>
      <trkpt lat="48.89907" lon="6.23363">
        <ele>194.3237305</ele>
        <time>2012-05-06T07:31:44Z</time>
      </trkpt>
      <trkpt lat="48.89861" lon="6.23322">
        <ele>193.3623047</ele>
        <time>2012-05-06T07:31:52Z</time>
      </trkpt>
      <trkpt lat="48.89815" lon="6.23262">
        <ele>192.8817139</ele>
        <time>2012-05-06T07:32:01Z</time>
      </trkpt>
      <trkpt lat="48.89769" lon="6.23185">
        <ele>192.401123</ele>
        <time>2012-05-06T07:32:11Z</time>
      </trkpt>
      <trkpt lat="48.89701" lon="6.23091">
        <ele>190.4783936</ele>
        <time>2012-05-06T07:32:24Z</time>
      </trkpt>
      <trkpt lat="48.89651" lon="6.23047">
        <ele>189.9976807</ele>
        <time>2012-05-06T07:32:32Z</time>
      </trkpt>
      <trkpt lat="48.89611" lon="6.23027">
        <ele>188.0750732</ele>
        <time>2012-05-06T07:32:38Z</time>
      </trkpt>
      <trkpt lat="48.89589" lon="6.23019">
        <ele>187.1137695</ele>
        <time>2012-05-06T07:32:41Z</time>
      </trkpt>
      <trkpt lat="48.89566" lon="6.22997">
        <ele>186.6331787</ele>
        <time>2012-05-06T07:32:45Z</time>
      </trkpt>
      <trkpt lat="48.89562" lon="6.22989">
        <ele>186.1524658</ele>
        <time>2012-05-06T07:32:46Z</time>
      </trkpt>
      <trkpt lat="48.8955" lon="6.22959">
        <ele>188.0750732</ele>
        <time>2012-05-06T07:32:50Z</time>
      </trkpt>
      <trkpt lat="48.89529" lon="6.22919">
        <ele>190.4783936</ele>
        <time>2012-05-06T07:32:57Z</time>
      </trkpt>
      <trkpt lat="48.89502" lon="6.22877">
        <ele>191.9202881</ele>
        <time>2012-05-06T07:33:06Z</time>
      </trkpt>
      <trkpt lat="48.89473" lon="6.22838">
        <ele>194.3237305</ele>
        <time>2012-05-06T07:33:15Z</time>
      </trkpt>
      <trkpt lat="48.89469" lon="6.22834">
        <ele>195.2849121</ele>
        <time>2012-05-06T07:33:16Z</time>
      </trkpt>
      <trkpt lat="48.89439" lon="6.22813">
        <ele>196.7269287</ele>
        <time>2012-05-06T07:33:24Z</time>
      </trkpt>
      <trkpt lat="48.89409" lon="6.22806">
        <ele>196.2463379</ele>
        <time>2012-05-06T07:33:30Z</time>
      </trkpt>
      <trkpt lat="48.89382" lon="6.22804">
        <ele>195.2849121</ele>
        <time>2012-05-06T07:33:35Z</time>
      </trkpt>
      <trkpt lat="48.89376" lon="6.22804">
        <ele>195.765625</ele>
        <time>2012-05-06T07:33:36Z</time>
      </trkpt>
      <trkpt lat="48.89345" lon="6.2279">
        <ele>195.765625</ele>
        <time>2012-05-06T07:33:42Z</time>
      </trkpt>
      <trkpt lat="48.89292" lon="6.22753">
        <ele>196.7269287</ele>
        <time>2012-05-06T07:33:53Z</time>
      </trkpt>
      <trkpt lat="48.89254" lon="6.22723">
        <ele>197.2075195</ele>
        <time>2012-05-06T07:34:02Z</time>
      </trkpt>
      <trkpt lat="48.89244" lon="6.22713">
        <ele>197.2075195</ele>
        <time>2012-05-06T07:34:06Z</time>
      </trkpt>
      <trkpt lat="48.89228" lon="6.22711">
        <ele>197.2075195</ele>
        <time>2012-05-06T07:34:10Z</time>
      </trkpt>
      <trkpt lat="48.89196" lon="6.22709">
        <ele>196.7269287</ele>
        <time>2012-05-06T07:34:16Z</time>
      </trkpt>
      <trkpt lat="48.89149" lon="6.22707">
        <ele>194.8043213</ele>
        <time>2012-05-06T07:34:23Z</time>
      </trkpt>
      <trkpt lat="48.8909" lon="6.22705">
        <ele>192.8817139</ele>
        <time>2012-05-06T07:34:31Z</time>
      </trkpt>
      <trkpt lat="48.89051" lon="6.22703">
        <ele>189.9976807</ele>
        <time>2012-05-06T07:34:36Z</time>
      </trkpt>
      <trkpt lat="48.88998" lon="6.22704">
        <ele>188.5557861</ele>
        <time>2012-05-06T07:34:43Z</time>
      </trkpt>
      <trkpt lat="48.88936" lon="6.22706">
        <ele>187.5943604</ele>
        <time>2012-05-06T07:34:51Z</time>
      </trkpt>
      <trkpt lat="48.88892" lon="6.22698">
        <ele>188.0750732</ele>
        <time>2012-05-06T07:34:57Z</time>
      </trkpt>
      <trkpt lat="48.88854" lon="6.22691">
        <ele>186.6331787</ele>
        <time>2012-05-06T07:35:03Z</time>
      </trkpt>
      <trkpt lat="48.88843" lon="6.22688">
        <ele>186.1524658</ele>
        <time>2012-05-06T07:35:05Z</time>
      </trkpt>
      <trkpt lat="48.88818" lon="6.22696">
        <ele>186.1524658</ele>
        <time>2012-05-06T07:35:10Z</time>
      </trkpt>
      <trkpt lat="48.88815" lon="6.22712">
        <ele>186.1524658</ele>
        <time>2012-05-06T07:35:12Z</time>
      </trkpt>
      <trkpt lat="48.88808" lon="6.22799">
        <ele>185.6717529</ele>
        <time>2012-05-06T07:35:21Z</time>
      </trkpt>
      <trkpt lat="48.88802" lon="6.2285">
        <ele>184.7105713</ele>
        <time>2012-05-06T07:35:26Z</time>
      </trkpt>
      <trkpt lat="48.88783" lon="6.2288">
        <ele>185.1911621</ele>
        <time>2012-05-06T07:35:30Z</time>
      </trkpt>
      <trkpt lat="48.8877" lon="6.22882">
        <ele>185.1911621</ele>
        <time>2012-05-06T07:35:32Z</time>
      </trkpt>
      <trkpt lat="48.88736" lon="6.22876">
        <ele>185.1911621</ele>
        <time>2012-05-06T07:35:37Z</time>
      </trkpt>
      <trkpt lat="48.88677" lon="6.22869">
        <ele>184.7105713</ele>
        <time>2012-05-06T07:35:46Z</time>
      </trkpt>
      <trkpt lat="48.88613" lon="6.22869">
        <ele>184.2298584</ele>
        <time>2012-05-06T07:35:56Z</time>
      </trkpt>
      <trkpt lat="48.88555" lon="6.22871">
        <ele>185.6717529</ele>
        <time>2012-05-06T07:36:05Z</time>
      </trkpt>
      <trkpt lat="48.88494" lon="6.22868">
        <ele>184.7105713</ele>
        <time>2012-05-06T07:36:15Z</time>
      </trkpt>
      <trkpt lat="48.8844" lon="6.22852">
        <ele>184.7105713</ele>
        <time>2012-05-06T07:36:24Z</time>
      </trkpt>
      <trkpt lat="48.884" lon="6.22825">
        <ele>185.6717529</ele>
        <time>2012-05-06T07:36:31Z</time>
      </trkpt>
      <trkpt lat="48.88347" lon="6.22777">
        <ele>186.6331787</ele>
        <time>2012-05-06T07:36:41Z</time>
      </trkpt>
      <trkpt lat="48.88309" lon="6.22737">
        <ele>187.5943604</ele>
        <time>2012-05-06T07:36:49Z</time>
      </trkpt>
      <trkpt lat="48.88263" lon="6.22683">
        <ele>189.5169678</ele>
        <time>2012-05-06T07:36:59Z</time>
      </trkpt>
      <trkpt lat="48.88225" lon="6.22635">
        <ele>189.9976807</ele>
        <time>2012-05-06T07:37:08Z</time>
      </trkpt>
      <trkpt lat="48.88197" lon="6.22593">
        <ele>191.9202881</ele>
        <time>2012-05-06T07:37:16Z</time>
      </trkpt>
      <trkpt lat="48.88177" lon="6.22542">
        <ele>191.9202881</ele>
        <time>2012-05-06T07:37:23Z</time>
      </trkpt>
      <trkpt lat="48.88156" lon="6.22467">
        <ele>189.9976807</ele>
        <time>2012-05-06T07:37:31Z</time>
      </trkpt>
      <trkpt lat="48.88135" lon="6.22386">
        <ele>189.036377</ele>
        <time>2012-05-06T07:37:39Z</time>
      </trkpt>
      <trkpt lat="48.88118" lon="6.22328">
        <ele>189.036377</ele>
        <time>2012-05-06T07:37:45Z</time>
      </trkpt>
      <trkpt lat="48.88094" lon="6.22253">
        <ele>188.5557861</ele>
        <time>2012-05-06T07:37:53Z</time>
      </trkpt>
      <trkpt lat="48.8807" lon="6.22176">
        <ele>188.0750732</ele>
        <time>2012-05-06T07:38:01Z</time>
      </trkpt>
      <trkpt lat="48.88058" lon="6.22103">
        <ele>187.5943604</ele>
        <time>2012-05-06T07:38:08Z</time>
      </trkpt>
      <trkpt lat="48.88042" lon="6.22017">
        <ele>187.1137695</ele>
        <time>2012-05-06T07:38:16Z</time>
      </trkpt>
      <trkpt lat="48.88021" lon="6.21906">
        <ele>186.6331787</ele>
        <time>2012-05-06T07:38:27Z</time>
      </trkpt>
      <trkpt lat="48.88003" lon="6.21813">
        <ele>187.1137695</ele>
        <time>2012-05-06T07:38:37Z</time>
      </trkpt>
      <trkpt lat="48.87987" lon="6.21734">
        <ele>187.1137695</ele>
        <time>2012-05-06T07:38:46Z</time>
      </trkpt>
      <trkpt lat="48.8797" lon="6.21646">
        <ele>188.0750732</ele>
        <time>2012-05-06T07:38:56Z</time>
      </trkpt>
      <trkpt lat="48.87955" lon="6.21563">
        <ele>186.6331787</ele>
        <time>2012-05-06T07:39:05Z</time>
      </trkpt>
      <trkpt lat="48.87939" lon="6.21469">
        <ele>184.7105713</ele>
        <time>2012-05-06T07:39:14Z</time>
      </trkpt>
      <trkpt lat="48.87929" lon="6.21382">
        <ele>185.6717529</ele>
        <time>2012-05-06T07:39:23Z</time>
      </trkpt>
      <trkpt lat="48.87931" lon="6.21331">
        <ele>185.6717529</ele>
        <time>2012-05-06T07:39:29Z</time>
      </trkpt>
      <trkpt lat="48.8794" lon="6.21282">
        <ele>187.1137695</ele>
        <time>2012-05-06T07:39:36Z</time>
      </trkpt>
      <trkpt lat="48.87957" lon="6.21208">
        <ele>189.5169678</ele>
        <time>2012-05-06T07:39:47Z</time>
      </trkpt>
      <trkpt lat="48.87972" lon="6.21144">
        <ele>191.4395752</ele>
        <time>2012-05-06T07:39:56Z</time>
      </trkpt>
      <trkpt lat="48.8799" lon="6.2106">
        <ele>190.4783936</ele>
        <time>2012-05-06T07:40:07Z</time>
      </trkpt>
      <trkpt lat="48.88011" lon="6.2096">
        <ele>190.4783936</ele>
        <time>2012-05-06T07:40:20Z</time>
      </trkpt>
      <trkpt lat="48.88024" lon="6.20897">
        <ele>190.9589844</ele>
        <time>2012-05-06T07:40:28Z</time>
      </trkpt>
      <trkpt lat="48.88041" lon="6.20814">
        <ele>191.9202881</ele>
        <time>2012-05-06T07:40:39Z</time>
      </trkpt>
      <trkpt lat="48.88054" lon="6.20753">
        <ele>192.8817139</ele>
        <time>2012-05-06T07:40:48Z</time>
      </trkpt>
      <trkpt lat="48.88068" lon="6.20687">
        <ele>194.8043213</ele>
        <time>2012-05-06T07:40:59Z</time>
      </trkpt>
      <trkpt lat="48.88086" lon="6.20604">
        <ele>197.2075195</ele>
        <time>2012-05-06T07:41:13Z</time>
      </trkpt>
      <trkpt lat="48.88096" lon="6.20556">
        <ele>199.6108398</ele>
        <time>2012-05-06T07:41:22Z</time>
      </trkpt>
      <trkpt lat="48.88109" lon="6.20495">
        <ele>202.494873</ele>
        <time>2012-05-06T07:41:34Z</time>
      </trkpt>
      <trkpt lat="48.88122" lon="6.20434">
        <ele>203.4561768</ele>
        <time>2012-05-06T07:41:46Z</time>
      </trkpt>
      <trkpt lat="48.88134" lon="6.20379">
        <ele>205.8594971</ele>
        <time>2012-05-06T07:41:57Z</time>
      </trkpt>
      <trkpt lat="48.88147" lon="6.2032">
        <ele>206.8206787</ele>
        <time>2012-05-06T07:42:08Z</time>
      </trkpt>
      <trkpt lat="48.88157" lon="6.20266">
        <ele>207.7821045</ele>
        <time>2012-05-06T07:42:17Z</time>
      </trkpt>
      <trkpt lat="48.88164" lon="6.20204">
        <ele>207.7821045</ele>
        <time>2012-05-06T07:42:26Z</time>
      </trkpt>
      <trkpt lat="48.8817" lon="6.20132">
        <ele>206.3400879</ele>
        <time>2012-05-06T07:42:35Z</time>
      </trkpt>
      <trkpt lat="48.88176" lon="6.20072">
        <ele>204.8980713</ele>
        <time>2012-05-06T07:42:41Z</time>
      </trkpt>
      <trkpt lat="48.88183" lon="6.19986">
        <ele>201.5335693</ele>
        <time>2012-05-06T07:42:48Z</time>
      </trkpt>
      <trkpt lat="48.88192" lon="6.19882">
        <ele>199.6108398</ele>
        <time>2012-05-06T07:42:56Z</time>
      </trkpt>
      <trkpt lat="48.88196" lon="6.19832">
        <ele>198.1689453</ele>
        <time>2012-05-06T07:43:00Z</time>
      </trkpt>
      <trkpt lat="48.88207" lon="6.197">
        <ele>195.765625</ele>
        <time>2012-05-06T07:43:11Z</time>
      </trkpt>
      <trkpt lat="48.88223" lon="6.19517">
        <ele>191.9202881</ele>
        <time>2012-05-06T07:43:26Z</time>
      </trkpt>
      <trkpt lat="48.88235" lon="6.19376">
        <ele>191.4395752</ele>
        <time>2012-05-06T07:43:38Z</time>
      </trkpt>
      <trkpt lat="48.88247" lon="6.19236">
        <ele>190.9589844</ele>
        <time>2012-05-06T07:43:50Z</time>
      </trkpt>
      <trkpt lat="48.88258" lon="6.19117">
        <ele>190.4783936</ele>
        <time>2012-05-06T07:44:00Z</time>
      </trkpt>
      <trkpt lat="48.88267" lon="6.19007">
        <ele>188.5557861</ele>
        <time>2012-05-06T07:44:10Z</time>
      </trkpt>
      <trkpt lat="48.88274" lon="6.18929">
        <ele>189.036377</ele>
        <time>2012-05-06T07:44:18Z</time>
      </trkpt>
      <trkpt lat="48.88281" lon="6.1884">
        <ele>189.9976807</ele>
        <time>2012-05-06T07:44:28Z</time>
      </trkpt>
      <trkpt lat="48.88289" lon="6.1875">
        <ele>190.9589844</ele>
        <time>2012-05-06T07:44:38Z</time>
      </trkpt>
      <trkpt lat="48.88296" lon="6.18662">
        <ele>192.8817139</ele>
        <time>2012-05-06T07:44:48Z</time>
      </trkpt>
      <trkpt lat="48.88303" lon="6.18581">
        <ele>193.8430176</ele>
        <time>2012-05-06T07:44:58Z</time>
      </trkpt>
      <trkpt lat="48.8831" lon="6.18499">
        <ele>194.3237305</ele>
        <time>2012-05-06T07:45:09Z</time>
      </trkpt>
      <trkpt lat="48.88315" lon="6.18434">
        <ele>197.2075195</ele>
        <time>2012-05-06T07:45:18Z</time>
      </trkpt>
      <trkpt lat="48.88321" lon="6.18363">
        <ele>197.6882324</ele>
        <time>2012-05-06T07:45:28Z</time>
      </trkpt>
      <trkpt lat="48.88328" lon="6.18293">
        <ele>199.130127</ele>
        <time>2012-05-06T07:45:38Z</time>
      </trkpt>
      <trkpt lat="48.88333" lon="6.18229">
        <ele>200.0916748</ele>
        <time>2012-05-06T07:45:47Z</time>
      </trkpt>
      <trkpt lat="48.88338" lon="6.18169">
        <ele>200.5722656</ele>
        <time>2012-05-06T07:45:55Z</time>
      </trkpt>
      <trkpt lat="48.88342" lon="6.18107">
        <ele>201.0528564</ele>
        <time>2012-05-06T07:46:03Z</time>
      </trkpt>
      <trkpt lat="48.88348" lon="6.1805">
        <ele>200.5722656</ele>
        <time>2012-05-06T07:46:10Z</time>
      </trkpt>
      <trkpt lat="48.88356" lon="6.17972">
        <ele>200.5722656</ele>
        <time>2012-05-06T07:46:19Z</time>
      </trkpt>
      <trkpt lat="48.88363" lon="6.17879">
        <ele>201.0528564</ele>
        <time>2012-05-06T07:46:30Z</time>
      </trkpt>
      <trkpt lat="48.88372" lon="6.17784">
        <ele>202.0142822</ele>
        <time>2012-05-06T07:46:42Z</time>
      </trkpt>
      <trkpt lat="48.8838" lon="6.17695">
        <ele>203.4561768</ele>
        <time>2012-05-06T07:46:53Z</time>
      </trkpt>
      <trkpt lat="48.88387" lon="6.17605">
        <ele>205.3787842</ele>
        <time>2012-05-06T07:47:04Z</time>
      </trkpt>
      <trkpt lat="48.88393" lon="6.1754">
        <ele>206.3400879</ele>
        <time>2012-05-06T07:47:13Z</time>
      </trkpt>
      <trkpt lat="48.88399" lon="6.17479">
        <ele>206.8206787</ele>
        <time>2012-05-06T07:47:21Z</time>
      </trkpt>
      <trkpt lat="48.88404" lon="6.17416">
        <ele>208.2628174</ele>
        <time>2012-05-06T07:47:29Z</time>
      </trkpt>
      <trkpt lat="48.88412" lon="6.17327">
        <ele>206.3400879</ele>
        <time>2012-05-06T07:47:40Z</time>
      </trkpt>
      <trkpt lat="48.88418" lon="6.17244">
        <ele>203.9368896</ele>
        <time>2012-05-06T07:47:49Z</time>
      </trkpt>
      <trkpt lat="48.88427" lon="6.17139">
        <ele>202.0142822</ele>
        <time>2012-05-06T07:47:59Z</time>
      </trkpt>
      <trkpt lat="48.88437" lon="6.17016">
        <ele>201.5335693</ele>
        <time>2012-05-06T07:48:10Z</time>
      </trkpt>
      <trkpt lat="48.88445" lon="6.16922">
        <ele>201.5335693</ele>
        <time>2012-05-06T07:48:19Z</time>
      </trkpt>
      <trkpt lat="48.88453" lon="6.16819">
        <ele>200.5722656</ele>
        <time>2012-05-06T07:48:29Z</time>
      </trkpt>
      <trkpt lat="48.88459" lon="6.16745">
        <ele>199.6108398</ele>
        <time>2012-05-06T07:48:36Z</time>
      </trkpt>
      <trkpt lat="48.88466" lon="6.16666">
        <ele>197.2075195</ele>
        <time>2012-05-06T07:48:43Z</time>
      </trkpt>
      <trkpt lat="48.88469" lon="6.16616">
        <ele>193.8430176</ele>
        <time>2012-05-06T07:48:47Z</time>
      </trkpt>
      <trkpt lat="48.8847" lon="6.16603">
        <ele>193.8430176</ele>
        <time>2012-05-06T07:48:48Z</time>
      </trkpt>
      <trkpt lat="48.88478" lon="6.16511">
        <ele>191.4395752</ele>
        <time>2012-05-06T07:48:55Z</time>
      </trkpt>
      <trkpt lat="48.88485" lon="6.16412">
        <ele>190.9589844</ele>
        <time>2012-05-06T07:49:03Z</time>
      </trkpt>
      <trkpt lat="48.88493" lon="6.1632">
        <ele>191.4395752</ele>
        <time>2012-05-06T07:49:11Z</time>
      </trkpt>
      <trkpt lat="48.88499" lon="6.16245">
        <ele>191.4395752</ele>
        <time>2012-05-06T07:49:18Z</time>
      </trkpt>
      <trkpt lat="48.88506" lon="6.16157">
        <ele>192.401123</ele>
        <time>2012-05-06T07:49:27Z</time>
      </trkpt>
      <trkpt lat="48.88512" lon="6.16087">
        <ele>194.3237305</ele>
        <time>2012-05-06T07:49:35Z</time>
      </trkpt>
      <trkpt lat="48.88519" lon="6.16003">
        <ele>196.2463379</ele>
        <time>2012-05-06T07:49:46Z</time>
      </trkpt>
      <trkpt lat="48.88527" lon="6.15914">
        <ele>197.6882324</ele>
        <time>2012-05-06T07:49:58Z</time>
      </trkpt>
      <trkpt lat="48.88533" lon="6.15835">
        <ele>199.130127</ele>
        <time>2012-05-06T07:50:09Z</time>
      </trkpt>
      <trkpt lat="48.88539" lon="6.15757">
        <ele>200.0916748</ele>
        <time>2012-05-06T07:50:20Z</time>
      </trkpt>
      <trkpt lat="48.88545" lon="6.15683">
        <ele>201.0528564</ele>
        <time>2012-05-06T07:50:31Z</time>
      </trkpt>
      <trkpt lat="48.8855" lon="6.15628">
        <ele>202.494873</ele>
        <time>2012-05-06T07:50:39Z</time>
      </trkpt>
      <trkpt lat="48.88556" lon="6.15556">
        <ele>202.9754639</ele>
        <time>2012-05-06T07:50:49Z</time>
      </trkpt>
      <trkpt lat="48.88563" lon="6.15471">
        <ele>203.9368896</ele>
        <time>2012-05-06T07:51:01Z</time>
      </trkpt>
      <trkpt lat="48.8857" lon="6.15383">
        <ele>204.8980713</ele>
        <time>2012-05-06T07:51:13Z</time>
      </trkpt>
      <trkpt lat="48.88576" lon="6.15307">
        <ele>204.8980713</ele>
        <time>2012-05-06T07:51:23Z</time>
      </trkpt>
      <trkpt lat="48.88582" lon="6.15235">
        <ele>203.9368896</ele>
        <time>2012-05-06T07:51:32Z</time>
      </trkpt>
      <trkpt lat="48.88589" lon="6.15152">
        <ele>204.8980713</ele>
        <time>2012-05-06T07:51:42Z</time>
      </trkpt>
      <trkpt lat="48.88595" lon="6.15076">
        <ele>204.4174805</ele>
        <time>2012-05-06T07:51:51Z</time>
      </trkpt>
      <trkpt lat="48.88601" lon="6.14995">
        <ele>202.9754639</ele>
        <time>2012-05-06T07:52:00Z</time>
      </trkpt>
      <trkpt lat="48.88608" lon="6.14903">
        <ele>201.5335693</ele>
        <time>2012-05-06T07:52:09Z</time>
      </trkpt>
      <trkpt lat="48.88617" lon="6.14804">
        <ele>201.5335693</ele>
        <time>2012-05-06T07:52:18Z</time>
      </trkpt>
      <trkpt lat="48.88619" lon="6.14784">
        <ele>201.0528564</ele>
        <time>2012-05-06T07:52:20Z</time>
      </trkpt>
      <trkpt lat="48.88623" lon="6.14707">
        <ele>203.4561768</ele>
        <time>2012-05-06T07:52:28Z</time>
      </trkpt>
      <trkpt lat="48.88629" lon="6.14647">
        <ele>204.8980713</ele>
        <time>2012-05-06T07:52:35Z</time>
      </trkpt>
      <trkpt lat="48.88633" lon="6.14596">
        <ele>205.8594971</ele>
        <time>2012-05-06T07:52:41Z</time>
      </trkpt>
      <trkpt lat="48.88634" lon="6.14587">
        <ele>205.8594971</ele>
        <time>2012-05-06T07:52:42Z</time>
      </trkpt>
      <trkpt lat="48.88636" lon="6.14553">
        <ele>206.8206787</ele>
        <time>2012-05-06T07:52:46Z</time>
      </trkpt>
      <trkpt lat="48.88642" lon="6.14482">
        <ele>206.8206787</ele>
        <time>2012-05-06T07:52:54Z</time>
      </trkpt>
      <trkpt lat="48.88647" lon="6.14429">
        <ele>206.8206787</ele>
        <time>2012-05-06T07:53:00Z</time>
      </trkpt>
      <trkpt lat="48.88652" lon="6.14362">
        <ele>208.2628174</ele>
        <time>2012-05-06T07:53:08Z</time>
      </trkpt>
      <trkpt lat="48.88657" lon="6.14306">
        <ele>209.2241211</ele>
        <time>2012-05-06T07:53:15Z</time>
      </trkpt>
      <trkpt lat="48.88662" lon="6.14251">
        <ele>209.704834</ele>
        <time>2012-05-06T07:53:22Z</time>
      </trkpt>
      <trkpt lat="48.88663" lon="6.14243">
        <ele>210.1854248</ele>
        <time>2012-05-06T07:53:23Z</time>
      </trkpt>
      <trkpt lat="48.88663" lon="6.14227">
        <ele>210.1854248</ele>
        <time>2012-05-06T07:53:25Z</time>
      </trkpt>
      <trkpt lat="48.88667" lon="6.14179">
        <ele>210.1854248</ele>
        <time>2012-05-06T07:53:31Z</time>
      </trkpt>
      <trkpt lat="48.88669" lon="6.1414">
        <ele>211.6274414</ele>
        <time>2012-05-06T07:53:36Z</time>
      </trkpt>
      <trkpt lat="48.88673" lon="6.14101">
        <ele>212.1080322</ele>
        <time>2012-05-06T07:53:41Z</time>
      </trkpt>
      <trkpt lat="48.88674" lon="6.14077">
        <ele>212.1080322</ele>
        <time>2012-05-06T07:53:44Z</time>
      </trkpt>
      <trkpt lat="48.88678" lon="6.14022">
        <ele>213.0693359</ele>
        <time>2012-05-06T07:53:51Z</time>
      </trkpt>
      <trkpt lat="48.88678" lon="6.14013">
        <ele>213.5500488</ele>
        <time>2012-05-06T07:53:52Z</time>
      </trkpt>
      <trkpt lat="48.88682" lon="6.1396">
        <ele>214.0306396</ele>
        <time>2012-05-06T07:53:59Z</time>
      </trkpt>
      <trkpt lat="48.88687" lon="6.13907">
        <ele>214.0306396</ele>
        <time>2012-05-06T07:54:06Z</time>
      </trkpt>
      <trkpt lat="48.8869" lon="6.13858">
        <ele>214.5112305</ele>
        <time>2012-05-06T07:54:12Z</time>
      </trkpt>
      <trkpt lat="48.88694" lon="6.13827">
        <ele>214.9919434</ele>
        <time>2012-05-06T07:54:16Z</time>
      </trkpt>
      <trkpt lat="48.88696" lon="6.13779">
        <ele>215.9532471</ele>
        <time>2012-05-06T07:54:22Z</time>
      </trkpt>
      <trkpt lat="48.88697" lon="6.13771">
        <ele>216.43396</ele>
        <time>2012-05-06T07:54:23Z</time>
      </trkpt>
      <trkpt lat="48.887" lon="6.13749">
        <ele>216.9146729</ele>
        <time>2012-05-06T07:54:26Z</time>
      </trkpt>
      <trkpt lat="48.88703" lon="6.13703">
        <ele>217.3953857</ele>
        <time>2012-05-06T07:54:32Z</time>
      </trkpt>
      <trkpt lat="48.88706" lon="6.13666">
        <ele>218.3565674</ele>
        <time>2012-05-06T07:54:37Z</time>
      </trkpt>
      <trkpt lat="48.88709" lon="6.13644">
        <ele>218.3565674</ele>
        <time>2012-05-06T07:54:40Z</time>
      </trkpt>
      <trkpt lat="48.88712" lon="6.13609">
        <ele>219.3179932</ele>
        <time>2012-05-06T07:54:45Z</time>
      </trkpt>
      <trkpt lat="48.88714" lon="6.1358">
        <ele>219.3179932</ele>
        <time>2012-05-06T07:54:49Z</time>
      </trkpt>
      <trkpt lat="48.88716" lon="6.13554">
        <ele>219.3179932</ele>
        <time>2012-05-06T07:54:53Z</time>
      </trkpt>
      <trkpt lat="48.88719" lon="6.13513">
        <ele>219.798584</ele>
        <time>2012-05-06T07:54:59Z</time>
      </trkpt>
      <trkpt lat="48.88721" lon="6.13473">
        <ele>219.3179932</ele>
        <time>2012-05-06T07:55:04Z</time>
      </trkpt>
      <trkpt lat="48.88721" lon="6.13464">
        <ele>219.798584</ele>
        <time>2012-05-06T07:55:05Z</time>
      </trkpt>
      <trkpt lat="48.88723" lon="6.1344">
        <ele>219.798584</ele>
        <time>2012-05-06T07:55:08Z</time>
      </trkpt>
      <trkpt lat="48.88727" lon="6.13381">
        <ele>219.3179932</ele>
        <time>2012-05-06T07:55:15Z</time>
      </trkpt>
      <trkpt lat="48.88731" lon="6.13339">
        <ele>218.8372803</ele>
        <time>2012-05-06T07:55:20Z</time>
      </trkpt>
      <trkpt lat="48.88735" lon="6.13279">
        <ele>218.8372803</ele>
        <time>2012-05-06T07:55:27Z</time>
      </trkpt>
      <trkpt lat="48.8874" lon="6.13203">
        <ele>217.8759766</ele>
        <time>2012-05-06T07:55:35Z</time>
      </trkpt>
      <trkpt lat="48.88747" lon="6.13113">
        <ele>215.9532471</ele>
        <time>2012-05-06T07:55:44Z</time>
      </trkpt>
      <trkpt lat="48.88751" lon="6.13036">
        <ele>215.4726563</ele>
        <time>2012-05-06T07:55:51Z</time>
      </trkpt>
      <trkpt lat="48.88759" lon="6.12942">
        <ele>213.5500488</ele>
        <time>2012-05-06T07:55:59Z</time>
      </trkpt>
      <trkpt lat="48.88769" lon="6.12838">
        <ele>213.0693359</ele>
        <time>2012-05-06T07:56:08Z</time>
      </trkpt>
      <trkpt lat="48.88777" lon="6.12736">
        <ele>212.588623</ele>
        <time>2012-05-06T07:56:17Z</time>
      </trkpt>
      <trkpt lat="48.88783" lon="6.12665">
        <ele>210.1854248</ele>
        <time>2012-05-06T07:56:23Z</time>
      </trkpt>
      <trkpt lat="48.88786" lon="6.12615">
        <ele>208.7434082</ele>
        <time>2012-05-06T07:56:27Z</time>
      </trkpt>
      <trkpt lat="48.88788" lon="6.12576">
        <ele>206.8206787</ele>
        <time>2012-05-06T07:56:30Z</time>
      </trkpt>
      <trkpt lat="48.88794" lon="6.1248">
        <ele>204.8980713</ele>
        <time>2012-05-06T07:56:37Z</time>
      </trkpt>
      <trkpt lat="48.888" lon="6.124">
        <ele>204.8980713</ele>
        <time>2012-05-06T07:56:43Z</time>
      </trkpt>
      <trkpt lat="48.88804" lon="6.12339">
        <ele>204.8980713</ele>
        <time>2012-05-06T07:56:48Z</time>
      </trkpt>
      <trkpt lat="48.88811" lon="6.12249">
        <ele>205.8594971</ele>
        <time>2012-05-06T07:56:56Z</time>
      </trkpt>
      <trkpt lat="48.88819" lon="6.12139">
        <ele>206.8206787</ele>
        <time>2012-05-06T07:57:06Z</time>
      </trkpt>
      <trkpt lat="48.88826" lon="6.12048">
        <ele>207.7821045</ele>
        <time>2012-05-06T07:57:15Z</time>
      </trkpt>
      <trkpt lat="48.88835" lon="6.11958">
        <ele>207.3013916</ele>
        <time>2012-05-06T07:57:24Z</time>
      </trkpt>
      <trkpt lat="48.88842" lon="6.11877">
        <ele>207.3013916</ele>
        <time>2012-05-06T07:57:32Z</time>
      </trkpt>
      <trkpt lat="48.8885" lon="6.11786">
        <ele>206.8206787</ele>
        <time>2012-05-06T07:57:41Z</time>
      </trkpt>
      <trkpt lat="48.88858" lon="6.11693">
        <ele>206.3400879</ele>
        <time>2012-05-06T07:57:50Z</time>
      </trkpt>
      <trkpt lat="48.8887" lon="6.11574">
        <ele>204.4174805</ele>
        <time>2012-05-06T07:58:01Z</time>
      </trkpt>
      <trkpt lat="48.8888" lon="6.11468">
        <ele>203.9368896</ele>
        <time>2012-05-06T07:58:11Z</time>
      </trkpt>
      <trkpt lat="48.88892" lon="6.11368">
        <ele>203.9368896</ele>
        <time>2012-05-06T07:58:21Z</time>
      </trkpt>
      <trkpt lat="48.88894" lon="6.11358">
        <ele>203.4561768</ele>
        <time>2012-05-06T07:58:22Z</time>
      </trkpt>
      <trkpt lat="48.88911" lon="6.11325">
        <ele>203.4561768</ele>
        <time>2012-05-06T07:58:26Z</time>
      </trkpt>
      <trkpt lat="48.88919" lon="6.11287">
        <ele>203.4561768</ele>
        <time>2012-05-06T07:58:30Z</time>
      </trkpt>
      <trkpt lat="48.88914" lon="6.11268">
        <ele>203.9368896</ele>
        <time>2012-05-06T07:58:32Z</time>
      </trkpt>
      <trkpt lat="48.88907" lon="6.11249">
        <ele>203.4561768</ele>
        <time>2012-05-06T07:58:34Z</time>
      </trkpt>
      <trkpt lat="48.88907" lon="6.11199">
        <ele>202.494873</ele>
        <time>2012-05-06T07:58:39Z</time>
      </trkpt>
      <trkpt lat="48.88914" lon="6.1112">
        <ele>202.0142822</ele>
        <time>2012-05-06T07:58:47Z</time>
      </trkpt>
      <trkpt lat="48.88924" lon="6.11028">
        <ele>201.0528564</ele>
        <time>2012-05-06T07:58:56Z</time>
      </trkpt>
      <trkpt lat="48.88932" lon="6.10943">
        <ele>199.6108398</ele>
        <time>2012-05-06T07:59:04Z</time>
      </trkpt>
      <trkpt lat="48.8894" lon="6.10859">
        <ele>199.130127</ele>
        <time>2012-05-06T07:59:12Z</time>
      </trkpt>
      <trkpt lat="48.88952" lon="6.10735">
        <ele>198.6495361</ele>
        <time>2012-05-06T07:59:24Z</time>
      </trkpt>
      <trkpt lat="48.88964" lon="6.10619">
        <ele>197.6882324</ele>
        <time>2012-05-06T07:59:35Z</time>
      </trkpt>
      <trkpt lat="48.88975" lon="6.1051">
        <ele>195.2849121</ele>
        <time>2012-05-06T07:59:45Z</time>
      </trkpt>
      <trkpt lat="48.88985" lon="6.10404">
        <ele>195.2849121</ele>
        <time>2012-05-06T07:59:55Z</time>
      </trkpt>
      <trkpt lat="48.88995" lon="6.10308">
        <ele>195.2849121</ele>
        <time>2012-05-06T08:00:04Z</time>
      </trkpt>
      <trkpt lat="48.89002" lon="6.10229">
        <ele>196.2463379</ele>
        <time>2012-05-06T08:00:12Z</time>
      </trkpt>
      <trkpt lat="48.89008" lon="6.10173">
        <ele>197.2075195</ele>
        <time>2012-05-06T08:00:19Z</time>
      </trkpt>
      <trkpt lat="48.8901" lon="6.10152">
        <ele>198.6495361</ele>
        <time>2012-05-06T08:00:22Z</time>
      </trkpt>
      <trkpt lat="48.89016" lon="6.1009">
        <ele>199.6108398</ele>
        <time>2012-05-06T08:00:31Z</time>
      </trkpt>
      <trkpt lat="48.89022" lon="6.10023">
        <ele>202.0142822</ele>
        <time>2012-05-06T08:00:40Z</time>
      </trkpt>
      <trkpt lat="48.89029" lon="6.09954">
        <ele>201.0528564</ele>
        <time>2012-05-06T08:00:49Z</time>
      </trkpt>
      <trkpt lat="48.89037" lon="6.09871">
        <ele>200.5722656</ele>
        <time>2012-05-06T08:00:59Z</time>
      </trkpt>
      <trkpt lat="48.89044" lon="6.09793">
        <ele>198.1689453</ele>
        <time>2012-05-06T08:01:07Z</time>
      </trkpt>
      <trkpt lat="48.89053" lon="6.097">
        <ele>198.6495361</ele>
        <time>2012-05-06T08:01:16Z</time>
      </trkpt>
      <trkpt lat="48.89061" lon="6.09626">
        <ele>197.6882324</ele>
        <time>2012-05-06T08:01:24Z</time>
      </trkpt>
      <trkpt lat="48.89068" lon="6.09553">
        <ele>199.130127</ele>
        <time>2012-05-06T08:01:33Z</time>
      </trkpt>
      <trkpt lat="48.89076" lon="6.09486">
        <ele>200.5722656</ele>
        <time>2012-05-06T08:01:41Z</time>
      </trkpt>
      <trkpt lat="48.89083" lon="6.09405">
        <ele>201.5335693</ele>
        <time>2012-05-06T08:01:51Z</time>
      </trkpt>
      <trkpt lat="48.8909" lon="6.09341">
        <ele>202.0142822</ele>
        <time>2012-05-06T08:01:59Z</time>
      </trkpt>
      <trkpt lat="48.891" lon="6.09245">
        <ele>202.0142822</ele>
        <time>2012-05-06T08:02:10Z</time>
      </trkpt>
      <trkpt lat="48.89108" lon="6.09158">
        <ele>202.494873</ele>
        <time>2012-05-06T08:02:20Z</time>
      </trkpt>
      <trkpt lat="48.89113" lon="6.09096">
        <ele>202.0142822</ele>
        <time>2012-05-06T08:02:27Z</time>
      </trkpt>
      <trkpt lat="48.89119" lon="6.09041">
        <ele>201.0528564</ele>
        <time>2012-05-06T08:02:33Z</time>
      </trkpt>
      <trkpt lat="48.89124" lon="6.0898">
        <ele>201.0528564</ele>
        <time>2012-05-06T08:02:40Z</time>
      </trkpt>
      <trkpt lat="48.8913" lon="6.0892">
        <ele>200.0916748</ele>
        <time>2012-05-06T08:02:47Z</time>
      </trkpt>
      <trkpt lat="48.89143" lon="6.08836">
        <ele>201.0528564</ele>
        <time>2012-05-06T08:02:56Z</time>
      </trkpt>
      <trkpt lat="48.89153" lon="6.08783">
        <ele>197.6882324</ele>
        <time>2012-05-06T08:03:01Z</time>
      </trkpt>
      <trkpt lat="48.89156" lon="6.08772">
        <ele>197.2075195</ele>
        <time>2012-05-06T08:03:02Z</time>
      </trkpt>
      <trkpt lat="48.89163" lon="6.08749">
        <ele>195.765625</ele>
        <time>2012-05-06T08:03:04Z</time>
      </trkpt>
      <trkpt lat="48.89189" lon="6.08696">
        <ele>193.8430176</ele>
        <time>2012-05-06T08:03:09Z</time>
      </trkpt>
      <trkpt lat="48.89222" lon="6.08663">
        <ele>190.9589844</ele>
        <time>2012-05-06T08:03:13Z</time>
      </trkpt>
      <trkpt lat="48.89231" lon="6.08657">
        <ele>191.4395752</ele>
        <time>2012-05-06T08:03:14Z</time>
      </trkpt>
      <trkpt lat="48.89259" lon="6.08639">
        <ele>189.5169678</ele>
        <time>2012-05-06T08:03:17Z</time>
      </trkpt>
      <trkpt lat="48.89317" lon="6.08597">
        <ele>184.7105713</ele>
        <time>2012-05-06T08:03:23Z</time>
      </trkpt>
      <trkpt lat="48.89326" lon="6.08589">
        <ele>184.7105713</ele>
        <time>2012-05-06T08:03:24Z</time>
      </trkpt>
      <trkpt lat="48.89375" lon="6.0854">
        <ele>186.1524658</ele>
        <time>2012-05-06T08:03:30Z</time>
      </trkpt>
      <trkpt lat="48.89396" lon="6.08505">
        <ele>188.5557861</ele>
        <time>2012-05-06T08:03:34Z</time>
      </trkpt>
      <trkpt lat="48.89404" lon="6.08488">
        <ele>189.5169678</ele>
        <time>2012-05-06T08:03:36Z</time>
      </trkpt>
      <trkpt lat="48.89416" lon="6.08437">
        <ele>190.9589844</ele>
        <time>2012-05-06T08:03:42Z</time>
      </trkpt>
      <trkpt lat="48.89421" lon="6.08405">
        <ele>191.9202881</ele>
        <time>2012-05-06T08:03:46Z</time>
      </trkpt>
      <trkpt lat="48.89422" lon="6.08397">
        <ele>192.401123</ele>
        <time>2012-05-06T08:03:47Z</time>
      </trkpt>
      <trkpt lat="48.89432" lon="6.08325">
        <ele>193.3623047</ele>
        <time>2012-05-06T08:03:56Z</time>
      </trkpt>
      <trkpt lat="48.89432" lon="6.08263">
        <ele>193.8430176</ele>
        <time>2012-05-06T08:04:03Z</time>
      </trkpt>
      <trkpt lat="48.89426" lon="6.08178">
        <ele>192.8817139</ele>
        <time>2012-05-06T08:04:12Z</time>
      </trkpt>
      <trkpt lat="48.89427" lon="6.08108">
        <ele>192.401123</ele>
        <time>2012-05-06T08:04:19Z</time>
      </trkpt>
      <trkpt lat="48.89435" lon="6.08012">
        <ele>191.4395752</ele>
        <time>2012-05-06T08:04:28Z</time>
      </trkpt>
      <trkpt lat="48.89445" lon="6.07934">
        <ele>191.9202881</ele>
        <time>2012-05-06T08:04:36Z</time>
      </trkpt>
      <trkpt lat="48.89461" lon="6.07855">
        <ele>191.9202881</ele>
        <time>2012-05-06T08:04:45Z</time>
      </trkpt>
      <trkpt lat="48.89481" lon="6.07761">
        <ele>190.4783936</ele>
        <time>2012-05-06T08:04:55Z</time>
      </trkpt>
      <trkpt lat="48.895" lon="6.07681">
        <ele>190.9589844</ele>
        <time>2012-05-06T08:05:03Z</time>
      </trkpt>
      <trkpt lat="48.8952" lon="6.07611">
        <ele>191.4395752</ele>
        <time>2012-05-06T08:05:11Z</time>
      </trkpt>
      <trkpt lat="48.89542" lon="6.0754">
        <ele>189.5169678</ele>
        <time>2012-05-06T08:05:19Z</time>
      </trkpt>
      <trkpt lat="48.89563" lon="6.07477">
        <ele>187.1137695</ele>
        <time>2012-05-06T08:05:25Z</time>
      </trkpt>
      <trkpt lat="48.89589" lon="6.07404">
        <ele>184.7105713</ele>
        <time>2012-05-06T08:05:31Z</time>
      </trkpt>
      <trkpt lat="48.89623" lon="6.07313">
        <ele>183.7490234</ele>
        <time>2012-05-06T08:05:39Z</time>
      </trkpt>
      <trkpt lat="48.89652" lon="6.07233">
        <ele>184.7105713</ele>
        <time>2012-05-06T08:05:47Z</time>
      </trkpt>
      <trkpt lat="48.89679" lon="6.07163">
        <ele>184.2298584</ele>
        <time>2012-05-06T08:05:55Z</time>
      </trkpt>
      <trkpt lat="48.89711" lon="6.0709">
        <ele>184.2298584</ele>
        <time>2012-05-06T08:06:04Z</time>
      </trkpt>
      <trkpt lat="48.89749" lon="6.07023">
        <ele>184.7105713</ele>
        <time>2012-05-06T08:06:13Z</time>
      </trkpt>
      <trkpt lat="48.89788" lon="6.06954">
        <ele>184.7105713</ele>
        <time>2012-05-06T08:06:22Z</time>
      </trkpt>
      <trkpt lat="48.89824" lon="6.06894">
        <ele>184.7105713</ele>
        <time>2012-05-06T08:06:30Z</time>
      </trkpt>
      <trkpt lat="48.89864" lon="6.06835">
        <ele>184.2298584</ele>
        <time>2012-05-06T08:06:38Z</time>
      </trkpt>
      <trkpt lat="48.89911" lon="6.06765">
        <ele>182.3071289</ele>
        <time>2012-05-06T08:06:47Z</time>
      </trkpt>
      <trkpt lat="48.89967" lon="6.06683">
        <ele>183.7490234</ele>
        <time>2012-05-06T08:06:58Z</time>
      </trkpt>
      <trkpt lat="48.90029" lon="6.06593">
        <ele>182.7878418</ele>
        <time>2012-05-06T08:07:10Z</time>
      </trkpt>
      <trkpt lat="48.90094" lon="6.06497">
        <ele>181.826416</ele>
        <time>2012-05-06T08:07:23Z</time>
      </trkpt>
      <trkpt lat="48.90135" lon="6.06437">
        <ele>180.8652344</ele>
        <time>2012-05-06T08:07:31Z</time>
      </trkpt>
      <trkpt lat="48.90171" lon="6.06385">
        <ele>179.9038086</ele>
        <time>2012-05-06T08:07:38Z</time>
      </trkpt>
      <trkpt lat="48.90208" lon="6.06325">
        <ele>179.4232178</ele>
        <time>2012-05-06T08:07:46Z</time>
      </trkpt>
      <trkpt lat="48.90213" lon="6.06318">
        <ele>179.9038086</ele>
        <time>2012-05-06T08:07:47Z</time>
      </trkpt>
      <trkpt lat="48.9024" lon="6.06294">
        <ele>180.3845215</ele>
        <time>2012-05-06T08:07:52Z</time>
      </trkpt>
      <trkpt lat="48.90276" lon="6.0627">
        <ele>179.9038086</ele>
        <time>2012-05-06T08:07:58Z</time>
      </trkpt>
      <trkpt lat="48.90295" lon="6.06254">
        <ele>179.9038086</ele>
        <time>2012-05-06T08:08:01Z</time>
      </trkpt>
      <trkpt lat="48.90342" lon="6.06216">
        <ele>179.9038086</ele>
        <time>2012-05-06T08:08:08Z</time>
      </trkpt>
      <trkpt lat="48.90348" lon="6.06211">
        <ele>180.8652344</ele>
        <time>2012-05-06T08:08:09Z</time>
      </trkpt>
      <trkpt lat="48.9039" lon="6.062">
        <ele>181.3458252</ele>
        <time>2012-05-06T08:08:15Z</time>
      </trkpt>
      <trkpt lat="48.90444" lon="6.06189">
        <ele>182.3071289</ele>
        <time>2012-05-06T08:08:23Z</time>
      </trkpt>
      <trkpt lat="48.90494" lon="6.06171">
        <ele>182.7878418</ele>
        <time>2012-05-06T08:08:31Z</time>
      </trkpt>
      <trkpt lat="48.9056" lon="6.06148">
        <ele>184.2298584</ele>
        <time>2012-05-06T08:08:42Z</time>
      </trkpt>
      <trkpt lat="48.90607" lon="6.06128">
        <ele>184.7105713</ele>
        <time>2012-05-06T08:08:50Z</time>
      </trkpt>
      <trkpt lat="48.90636" lon="6.06116">
        <ele>185.6717529</ele>
        <time>2012-05-06T08:08:55Z</time>
      </trkpt>
      <trkpt lat="48.90681" lon="6.06111">
        <ele>184.7105713</ele>
        <time>2012-05-06T08:09:02Z</time>
      </trkpt>
      <trkpt lat="48.90724" lon="6.06114">
        <ele>185.1911621</ele>
        <time>2012-05-06T08:09:08Z</time>
      </trkpt>
      <trkpt lat="48.90798" lon="6.06122">
        <ele>184.2298584</ele>
        <time>2012-05-06T08:09:18Z</time>
      </trkpt>
      <trkpt lat="48.9088" lon="6.0613">
        <ele>184.2298584</ele>
        <time>2012-05-06T08:09:29Z</time>
      </trkpt>
      <trkpt lat="48.90956" lon="6.06138">
        <ele>184.2298584</ele>
        <time>2012-05-06T08:09:39Z</time>
      </trkpt>
      <trkpt lat="48.91051" lon="6.06146">
        <ele>184.2298584</ele>
        <time>2012-05-06T08:09:51Z</time>
      </trkpt>
      <trkpt lat="48.9113" lon="6.06155">
        <ele>183.7490234</ele>
        <time>2012-05-06T08:10:01Z</time>
      </trkpt>
      <trkpt lat="48.91196" lon="6.06161">
        <ele>184.2298584</ele>
        <time>2012-05-06T08:10:10Z</time>
      </trkpt>
      <trkpt lat="48.91267" lon="6.06167">
        <ele>183.2684326</ele>
        <time>2012-05-06T08:10:20Z</time>
      </trkpt>
      <trkpt lat="48.91318" lon="6.06172">
        <ele>183.2684326</ele>
        <time>2012-05-06T08:10:28Z</time>
      </trkpt>
      <trkpt lat="48.91364" lon="6.0618">
        <ele>183.7490234</ele>
        <time>2012-05-06T08:10:35Z</time>
      </trkpt>
      <trkpt lat="48.91417" lon="6.06193">
        <ele>184.2298584</ele>
        <time>2012-05-06T08:10:43Z</time>
      </trkpt>
      <trkpt lat="48.91488" lon="6.06214">
        <ele>184.7105713</ele>
        <time>2012-05-06T08:10:54Z</time>
      </trkpt>
      <trkpt lat="48.91557" lon="6.06237">
        <ele>185.1911621</ele>
        <time>2012-05-06T08:11:05Z</time>
      </trkpt>
      <trkpt lat="48.91579" lon="6.06247">
        <ele>185.1911621</ele>
        <time>2012-05-06T08:11:09Z</time>
      </trkpt>
      <trkpt lat="48.91617" lon="6.06275">
        <ele>186.1524658</ele>
        <time>2012-05-06T08:11:17Z</time>
      </trkpt>
      <trkpt lat="48.91659" lon="6.06303">
        <ele>187.1137695</ele>
        <time>2012-05-06T08:11:25Z</time>
      </trkpt>
      <trkpt lat="48.91676" lon="6.06316">
        <ele>187.5943604</ele>
        <time>2012-05-06T08:11:28Z</time>
      </trkpt>
      <trkpt lat="48.91713" lon="6.0633">
        <ele>187.5943604</ele>
        <time>2012-05-06T08:11:34Z</time>
      </trkpt>
      <trkpt lat="48.91775" lon="6.06341">
        <ele>186.6331787</ele>
        <time>2012-05-06T08:11:43Z</time>
      </trkpt>
      <trkpt lat="48.91843" lon="6.06351">
        <ele>186.1524658</ele>
        <time>2012-05-06T08:11:52Z</time>
      </trkpt>
      <trkpt lat="48.91918" lon="6.06362">
        <ele>186.6331787</ele>
        <time>2012-05-06T08:12:02Z</time>
      </trkpt>
      <trkpt lat="48.91957" lon="6.06381">
        <ele>187.5943604</ele>
        <time>2012-05-06T08:12:08Z</time>
      </trkpt>
      <trkpt lat="48.92012" lon="6.06427">
        <ele>189.036377</ele>
        <time>2012-05-06T08:12:17Z</time>
      </trkpt>
      <trkpt lat="48.92075" lon="6.06475">
        <ele>189.9976807</ele>
        <time>2012-05-06T08:12:27Z</time>
      </trkpt>
      <trkpt lat="48.92132" lon="6.06511">
        <ele>189.9976807</ele>
        <time>2012-05-06T08:12:36Z</time>
      </trkpt>
      <trkpt lat="48.92202" lon="6.06556">
        <ele>191.9202881</ele>
        <time>2012-05-06T08:12:47Z</time>
      </trkpt>
      <trkpt lat="48.92215" lon="6.06564">
        <ele>190.9589844</ele>
        <time>2012-05-06T08:12:49Z</time>
      </trkpt>
      <trkpt lat="48.92267" lon="6.06587">
        <ele>191.9202881</ele>
        <time>2012-05-06T08:12:57Z</time>
      </trkpt>
      <trkpt lat="48.92316" lon="6.06585">
        <ele>191.9202881</ele>
        <time>2012-05-06T08:13:04Z</time>
      </trkpt>
      <trkpt lat="48.92388" lon="6.06566">
        <ele>189.9976807</ele>
        <time>2012-05-06T08:13:14Z</time>
      </trkpt>
      <trkpt lat="48.92458" lon="6.06547">
        <ele>189.036377</ele>
        <time>2012-05-06T08:13:24Z</time>
      </trkpt>
      <trkpt lat="48.92536" lon="6.06526">
        <ele>187.5943604</ele>
        <time>2012-05-06T08:13:35Z</time>
      </trkpt>
      <trkpt lat="48.92601" lon="6.06502">
        <ele>189.036377</ele>
        <time>2012-05-06T08:13:44Z</time>
      </trkpt>
      <trkpt lat="48.92648" lon="6.06491">
        <ele>189.036377</ele>
        <time>2012-05-06T08:13:51Z</time>
      </trkpt>
      <trkpt lat="48.92664" lon="6.06493">
        <ele>188.5557861</ele>
        <time>2012-05-06T08:13:55Z</time>
      </trkpt>
      <trkpt lat="48.92667" lon="6.06491">
        <ele>188.0750732</ele>
        <time>2012-05-06T08:13:59Z</time>
      </trkpt>
      <trkpt lat="48.92667" lon="6.06491">
        <ele>188.5557861</ele>
        <time>2012-05-06T08:16:14Z</time>
      </trkpt>
      <trkpt lat="48.92679" lon="6.06487">
        <ele>189.036377</ele>
        <time>2012-05-06T08:16:18Z</time>
      </trkpt>
      <trkpt lat="48.92704" lon="6.06483">
        <ele>189.036377</ele>
        <time>2012-05-06T08:16:23Z</time>
      </trkpt>
      <trkpt lat="48.92751" lon="6.06476">
        <ele>189.9976807</ele>
        <time>2012-05-06T08:16:30Z</time>
      </trkpt>
      <trkpt lat="48.92808" lon="6.06469">
        <ele>189.9976807</ele>
        <time>2012-05-06T08:16:38Z</time>
      </trkpt>
      <trkpt lat="48.92894" lon="6.06457">
        <ele>190.9589844</ele>
        <time>2012-05-06T08:16:50Z</time>
      </trkpt>
      <trkpt lat="48.92937" lon="6.0645">
        <ele>190.9589844</ele>
        <time>2012-05-06T08:16:56Z</time>
      </trkpt>
      <trkpt lat="48.92997" lon="6.06434">
        <ele>189.5169678</ele>
        <time>2012-05-06T08:17:04Z</time>
      </trkpt>
      <trkpt lat="48.9302" lon="6.06427">
        <ele>188.0750732</ele>
        <time>2012-05-06T08:17:07Z</time>
      </trkpt>
      <trkpt lat="48.93107" lon="6.064">
        <ele>188.5557861</ele>
        <time>2012-05-06T08:17:18Z</time>
      </trkpt>
      <trkpt lat="48.93155" lon="6.06386">
        <ele>186.6331787</ele>
        <time>2012-05-06T08:17:24Z</time>
      </trkpt>
      <trkpt lat="48.93202" lon="6.06371">
        <ele>184.2298584</ele>
        <time>2012-05-06T08:17:30Z</time>
      </trkpt>
      <trkpt lat="48.9328" lon="6.06349">
        <ele>184.2298584</ele>
        <time>2012-05-06T08:17:40Z</time>
      </trkpt>
      <trkpt lat="48.93322" lon="6.06344">
        <ele>182.7878418</ele>
        <time>2012-05-06T08:17:45Z</time>
      </trkpt>
      <trkpt lat="48.93393" lon="6.06342">
        <ele>182.3071289</ele>
        <time>2012-05-06T08:17:53Z</time>
      </trkpt>
      <trkpt lat="48.93462" lon="6.06346">
        <ele>182.7878418</ele>
        <time>2012-05-06T08:18:01Z</time>
      </trkpt>
      <trkpt lat="48.93533" lon="6.06345">
        <ele>184.7105713</ele>
        <time>2012-05-06T08:18:10Z</time>
      </trkpt>
      <trkpt lat="48.93632" lon="6.06338">
        <ele>184.2298584</ele>
        <time>2012-05-06T08:18:23Z</time>
      </trkpt>
      <trkpt lat="48.93639" lon="6.06338">
        <ele>184.2298584</ele>
        <time>2012-05-06T08:18:24Z</time>
      </trkpt>
      <trkpt lat="48.93728" lon="6.06329">
        <ele>183.7490234</ele>
        <time>2012-05-06T08:18:35Z</time>
      </trkpt>
      <trkpt lat="48.93808" lon="6.06319">
        <ele>182.7878418</ele>
        <time>2012-05-06T08:18:45Z</time>
      </trkpt>
      <trkpt lat="48.93878" lon="6.06318">
        <ele>183.2684326</ele>
        <time>2012-05-06T08:18:53Z</time>
      </trkpt>
      <trkpt lat="48.93955" lon="6.0633">
        <ele>183.2684326</ele>
        <time>2012-05-06T08:19:02Z</time>
      </trkpt>
      <trkpt lat="48.93963" lon="6.06331">
        <ele>183.7490234</ele>
        <time>2012-05-06T08:19:03Z</time>
      </trkpt>
      <trkpt lat="48.94039" lon="6.06338">
        <ele>182.3071289</ele>
        <time>2012-05-06T08:19:12Z</time>
      </trkpt>
      <trkpt lat="48.94143" lon="6.06338">
        <ele>181.826416</ele>
        <time>2012-05-06T08:19:24Z</time>
      </trkpt>
      <trkpt lat="48.94195" lon="6.06338">
        <ele>182.7878418</ele>
        <time>2012-05-06T08:19:30Z</time>
      </trkpt>
      <trkpt lat="48.94272" lon="6.06341">
        <ele>182.7878418</ele>
        <time>2012-05-06T08:19:39Z</time>
      </trkpt>
      <trkpt lat="48.94331" lon="6.06349">
        <ele>183.2684326</ele>
        <time>2012-05-06T08:19:46Z</time>
      </trkpt>
      <trkpt lat="48.94387" lon="6.0637">
        <ele>183.2684326</ele>
        <time>2012-05-06T08:19:53Z</time>
      </trkpt>
      <trkpt lat="48.94467" lon="6.06408">
        <ele>183.7490234</ele>
        <time>2012-05-06T08:20:03Z</time>
      </trkpt>
      <trkpt lat="48.94538" lon="6.0644">
        <ele>183.7490234</ele>
        <time>2012-05-06T08:20:12Z</time>
      </trkpt>
      <trkpt lat="48.94594" lon="6.06453">
        <ele>182.7878418</ele>
        <time>2012-05-06T08:20:19Z</time>
      </trkpt>
      <trkpt lat="48.94668" lon="6.06459">
        <ele>182.7878418</ele>
        <time>2012-05-06T08:20:28Z</time>
      </trkpt>
      <trkpt lat="48.94721" lon="6.06457">
        <ele>182.7878418</ele>
        <time>2012-05-06T08:20:35Z</time>
      </trkpt>
      <trkpt lat="48.94786" lon="6.0644">
        <ele>183.7490234</ele>
        <time>2012-05-06T08:20:44Z</time>
      </trkpt>
      <trkpt lat="48.94845" lon="6.06422">
        <ele>186.1524658</ele>
        <time>2012-05-06T08:20:53Z</time>
      </trkpt>
      <trkpt lat="48.94904" lon="6.06404">
        <ele>187.5943604</ele>
        <time>2012-05-06T08:21:03Z</time>
      </trkpt>
      <trkpt lat="48.94946" lon="6.06387">
        <ele>189.036377</ele>
        <time>2012-05-06T08:21:10Z</time>
      </trkpt>
      <trkpt lat="48.9498" lon="6.06356">
        <ele>188.5557861</ele>
        <time>2012-05-06T08:21:16Z</time>
      </trkpt>
      <trkpt lat="48.95017" lon="6.06317">
        <ele>188.5557861</ele>
        <time>2012-05-06T08:21:21Z</time>
      </trkpt>
      <trkpt lat="48.95071" lon="6.06259">
        <ele>185.1911621</ele>
        <time>2012-05-06T08:21:28Z</time>
      </trkpt>
      <trkpt lat="48.95088" lon="6.06242">
        <ele>184.2298584</ele>
        <time>2012-05-06T08:21:30Z</time>
      </trkpt>
      <trkpt lat="48.9515" lon="6.06178">
        <ele>183.7490234</ele>
        <time>2012-05-06T08:21:37Z</time>
      </trkpt>
      <trkpt lat="48.95195" lon="6.06131">
        <ele>181.3458252</ele>
        <time>2012-05-06T08:21:42Z</time>
      </trkpt>
      <trkpt lat="48.95237" lon="6.06087">
        <ele>179.4232178</ele>
        <time>2012-05-06T08:21:47Z</time>
      </trkpt>
      <trkpt lat="48.95262" lon="6.06062">
        <ele>177.9812012</ele>
        <time>2012-05-06T08:21:50Z</time>
      </trkpt>
      <trkpt lat="48.95332" lon="6.06006">
        <ele>178.4619141</ele>
        <time>2012-05-06T08:21:58Z</time>
      </trkpt>
      <trkpt lat="48.95398" lon="6.05963">
        <ele>178.4619141</ele>
        <time>2012-05-06T08:22:06Z</time>
      </trkpt>
      <trkpt lat="48.95489" lon="6.05903">
        <ele>177.9812012</ele>
        <time>2012-05-06T08:22:17Z</time>
      </trkpt>
      <trkpt lat="48.95564" lon="6.05857">
        <ele>176.5393066</ele>
        <time>2012-05-06T08:22:26Z</time>
      </trkpt>
      <trkpt lat="48.95589" lon="6.05843">
        <ele>177.0200195</ele>
        <time>2012-05-06T08:22:29Z</time>
      </trkpt>
      <trkpt lat="48.95632" lon="6.05845">
        <ele>176.5393066</ele>
        <time>2012-05-06T08:22:34Z</time>
      </trkpt>
      <trkpt lat="48.95709" lon="6.05855">
        <ele>177.5006104</ele>
        <time>2012-05-06T08:22:43Z</time>
      </trkpt>
      <trkpt lat="48.9575" lon="6.05843">
        <ele>177.9812012</ele>
        <time>2012-05-06T08:22:48Z</time>
      </trkpt>
      <trkpt lat="48.95805" lon="6.0581">
        <ele>178.4619141</ele>
        <time>2012-05-06T08:22:55Z</time>
      </trkpt>
      <trkpt lat="48.95894" lon="6.05752">
        <ele>178.4619141</ele>
        <time>2012-05-06T08:23:06Z</time>
      </trkpt>
      <trkpt lat="48.95956" lon="6.05711">
        <ele>178.942627</ele>
        <time>2012-05-06T08:23:14Z</time>
      </trkpt>
      <trkpt lat="48.96025" lon="6.05666">
        <ele>178.942627</ele>
        <time>2012-05-06T08:23:23Z</time>
      </trkpt>
      <trkpt lat="48.96103" lon="6.05615">
        <ele>178.942627</ele>
        <time>2012-05-06T08:23:33Z</time>
      </trkpt>
      <trkpt lat="48.96181" lon="6.05564">
        <ele>178.4619141</ele>
        <time>2012-05-06T08:23:43Z</time>
      </trkpt>
      <trkpt lat="48.96263" lon="6.05509">
        <ele>177.9812012</ele>
        <time>2012-05-06T08:23:54Z</time>
      </trkpt>
      <trkpt lat="48.96326" lon="6.05461">
        <ele>179.4232178</ele>
        <time>2012-05-06T08:24:03Z</time>
      </trkpt>
      <trkpt lat="48.96393" lon="6.05403">
        <ele>180.3845215</ele>
        <time>2012-05-06T08:24:13Z</time>
      </trkpt>
      <trkpt lat="48.96439" lon="6.05363">
        <ele>180.8652344</ele>
        <time>2012-05-06T08:24:20Z</time>
      </trkpt>
      <trkpt lat="48.965" lon="6.05311">
        <ele>182.3071289</ele>
        <time>2012-05-06T08:24:29Z</time>
      </trkpt>
      <trkpt lat="48.96554" lon="6.05263">
        <ele>182.3071289</ele>
        <time>2012-05-06T08:24:37Z</time>
      </trkpt>
      <trkpt lat="48.96616" lon="6.0521">
        <ele>182.7878418</ele>
        <time>2012-05-06T08:24:46Z</time>
      </trkpt>
      <trkpt lat="48.96686" lon="6.05152">
        <ele>182.7878418</ele>
        <time>2012-05-06T08:24:56Z</time>
      </trkpt>
      <trkpt lat="48.96733" lon="6.05127">
        <ele>183.2684326</ele>
        <time>2012-05-06T08:25:02Z</time>
      </trkpt>
      <trkpt lat="48.96799" lon="6.0511">
        <ele>184.2298584</ele>
        <time>2012-05-06T08:25:10Z</time>
      </trkpt>
      <trkpt lat="48.96831" lon="6.05103">
        <ele>185.6717529</ele>
        <time>2012-05-06T08:25:14Z</time>
      </trkpt>
      <trkpt lat="48.96921" lon="6.05082">
        <ele>186.6331787</ele>
        <time>2012-05-06T08:25:25Z</time>
      </trkpt>
      <trkpt lat="48.97006" lon="6.05058">
        <ele>187.1137695</ele>
        <time>2012-05-06T08:25:35Z</time>
      </trkpt>
      <trkpt lat="48.97092" lon="6.05035">
        <ele>185.1911621</ele>
        <time>2012-05-06T08:25:45Z</time>
      </trkpt>
      <trkpt lat="48.97181" lon="6.05011">
        <ele>183.7490234</ele>
        <time>2012-05-06T08:25:55Z</time>
      </trkpt>
      <trkpt lat="48.97261" lon="6.0499">
        <ele>183.2684326</ele>
        <time>2012-05-06T08:26:04Z</time>
      </trkpt>
      <trkpt lat="48.97352" lon="6.04966">
        <ele>182.3071289</ele>
        <time>2012-05-06T08:26:14Z</time>
      </trkpt>
      <trkpt lat="48.97432" lon="6.04944">
        <ele>180.8652344</ele>
        <time>2012-05-06T08:26:23Z</time>
      </trkpt>
      <trkpt lat="48.97521" lon="6.04921">
        <ele>180.3845215</ele>
        <time>2012-05-06T08:26:33Z</time>
      </trkpt>
      <trkpt lat="48.9758" lon="6.04904">
        <ele>180.8652344</ele>
        <time>2012-05-06T08:26:40Z</time>
      </trkpt>
      <trkpt lat="48.97648" lon="6.04886">
        <ele>181.826416</ele>
        <time>2012-05-06T08:26:48Z</time>
      </trkpt>
      <trkpt lat="48.97713" lon="6.04868">
        <ele>183.2684326</ele>
        <time>2012-05-06T08:26:56Z</time>
      </trkpt>
      <trkpt lat="48.97791" lon="6.04846">
        <ele>182.7878418</ele>
        <time>2012-05-06T08:27:05Z</time>
      </trkpt>
      <trkpt lat="48.97876" lon="6.04822">
        <ele>183.2684326</ele>
        <time>2012-05-06T08:27:15Z</time>
      </trkpt>
      <trkpt lat="48.97944" lon="6.04804">
        <ele>184.2298584</ele>
        <time>2012-05-06T08:27:23Z</time>
      </trkpt>
      <trkpt lat="48.98034" lon="6.04779">
        <ele>184.7105713</ele>
        <time>2012-05-06T08:27:34Z</time>
      </trkpt>
      <trkpt lat="48.98099" lon="6.04761">
        <ele>185.1911621</ele>
        <time>2012-05-06T08:27:42Z</time>
      </trkpt>
      <trkpt lat="48.98181" lon="6.04738">
        <ele>185.6717529</ele>
        <time>2012-05-06T08:27:52Z</time>
      </trkpt>
      <trkpt lat="48.98256" lon="6.04717">
        <ele>187.1137695</ele>
        <time>2012-05-06T08:28:01Z</time>
      </trkpt>
      <trkpt lat="48.98333" lon="6.04699">
        <ele>187.1137695</ele>
        <time>2012-05-06T08:28:10Z</time>
      </trkpt>
      <trkpt lat="48.98384" lon="6.047">
        <ele>187.1137695</ele>
        <time>2012-05-06T08:28:16Z</time>
      </trkpt>
      <trkpt lat="48.98449" lon="6.04709">
        <ele>189.9976807</ele>
        <time>2012-05-06T08:28:24Z</time>
      </trkpt>
      <trkpt lat="48.98457" lon="6.0471">
        <ele>189.9976807</ele>
        <time>2012-05-06T08:28:25Z</time>
      </trkpt>
      <trkpt lat="48.98532" lon="6.04722">
        <ele>191.9202881</ele>
        <time>2012-05-06T08:28:34Z</time>
      </trkpt>
      <trkpt lat="48.98608" lon="6.04732">
        <ele>193.3623047</ele>
        <time>2012-05-06T08:28:43Z</time>
      </trkpt>
      <trkpt lat="48.98692" lon="6.04744">
        <ele>193.8430176</ele>
        <time>2012-05-06T08:28:53Z</time>
      </trkpt>
      <trkpt lat="48.98771" lon="6.04755">
        <ele>195.765625</ele>
        <time>2012-05-06T08:29:02Z</time>
      </trkpt>
      <trkpt lat="48.98857" lon="6.04766">
        <ele>195.2849121</ele>
        <time>2012-05-06T08:29:12Z</time>
      </trkpt>
      <trkpt lat="48.98922" lon="6.04776">
        <ele>193.8430176</ele>
        <time>2012-05-06T08:29:19Z</time>
      </trkpt>
      <trkpt lat="48.98992" lon="6.04785">
        <ele>190.4783936</ele>
        <time>2012-05-06T08:29:26Z</time>
      </trkpt>
      <trkpt lat="48.99003" lon="6.04787">
        <ele>191.4395752</ele>
        <time>2012-05-06T08:29:27Z</time>
      </trkpt>
      <trkpt lat="48.99067" lon="6.04796">
        <ele>189.5169678</ele>
        <time>2012-05-06T08:29:33Z</time>
      </trkpt>
      <trkpt lat="48.991" lon="6.04801">
        <ele>188.0750732</ele>
        <time>2012-05-06T08:29:36Z</time>
      </trkpt>
      <trkpt lat="48.99192" lon="6.04814">
        <ele>185.6717529</ele>
        <time>2012-05-06T08:29:44Z</time>
      </trkpt>
      <trkpt lat="48.99228" lon="6.04819">
        <ele>183.7490234</ele>
        <time>2012-05-06T08:29:47Z</time>
      </trkpt>
      <trkpt lat="48.99321" lon="6.04833">
        <ele>182.3071289</ele>
        <time>2012-05-06T08:29:55Z</time>
      </trkpt>
      <trkpt lat="48.99332" lon="6.04834">
        <ele>180.8652344</ele>
        <time>2012-05-06T08:29:56Z</time>
      </trkpt>
      <trkpt lat="48.99406" lon="6.04838">
        <ele>183.2684326</ele>
        <time>2012-05-06T08:30:03Z</time>
      </trkpt>
      <trkpt lat="48.99474" lon="6.04841">
        <ele>183.7490234</ele>
        <time>2012-05-06T08:30:10Z</time>
      </trkpt>
      <trkpt lat="48.9955" lon="6.04854">
        <ele>186.1524658</ele>
        <time>2012-05-06T08:30:18Z</time>
      </trkpt>
      <trkpt lat="48.99614" lon="6.04873">
        <ele>186.1524658</ele>
        <time>2012-05-06T08:30:25Z</time>
      </trkpt>
      <trkpt lat="48.99688" lon="6.04895">
        <ele>187.1137695</ele>
        <time>2012-05-06T08:30:33Z</time>
      </trkpt>
      <trkpt lat="48.99774" lon="6.04919">
        <ele>188.5557861</ele>
        <time>2012-05-06T08:30:42Z</time>
      </trkpt>
      <trkpt lat="48.99887" lon="6.04952">
        <ele>190.9589844</ele>
        <time>2012-05-06T08:30:54Z</time>
      </trkpt>
      <trkpt lat="48.99924" lon="6.04963">
        <ele>192.401123</ele>
        <time>2012-05-06T08:30:58Z</time>
      </trkpt>
      <trkpt lat="48.99989" lon="6.04981">
        <ele>193.8430176</ele>
        <time>2012-05-06T08:31:05Z</time>
      </trkpt>
      <trkpt lat="49.00054" lon="6.04998">
        <ele>193.8430176</ele>
        <time>2012-05-06T08:31:12Z</time>
      </trkpt>
      <trkpt lat="49.00113" lon="6.05014">
        <ele>191.4395752</ele>
        <time>2012-05-06T08:31:18Z</time>
      </trkpt>
      <trkpt lat="49.00191" lon="6.05036">
        <ele>189.5169678</ele>
        <time>2012-05-06T08:31:26Z</time>
      </trkpt>
      <trkpt lat="49.00278" lon="6.05061">
        <ele>188.0750732</ele>
        <time>2012-05-06T08:31:35Z</time>
      </trkpt>
      <trkpt lat="49.00368" lon="6.05086">
        <ele>187.5943604</ele>
        <time>2012-05-06T08:31:44Z</time>
      </trkpt>
      <trkpt lat="49.00454" lon="6.05111">
        <ele>185.6717529</ele>
        <time>2012-05-06T08:31:53Z</time>
      </trkpt>
      <trkpt lat="49.00551" lon="6.0514">
        <ele>185.1911621</ele>
        <time>2012-05-06T08:32:03Z</time>
      </trkpt>
      <trkpt lat="49.00639" lon="6.05164">
        <ele>184.2298584</ele>
        <time>2012-05-06T08:32:12Z</time>
      </trkpt>
      <trkpt lat="49.00725" lon="6.05188">
        <ele>183.7490234</ele>
        <time>2012-05-06T08:32:21Z</time>
      </trkpt>
      <trkpt lat="49.00788" lon="6.05208">
        <ele>184.7105713</ele>
        <time>2012-05-06T08:32:28Z</time>
      </trkpt>
      <trkpt lat="49.0086" lon="6.05229">
        <ele>185.1911621</ele>
        <time>2012-05-06T08:32:36Z</time>
      </trkpt>
      <trkpt lat="49.00933" lon="6.0525">
        <ele>184.7105713</ele>
        <time>2012-05-06T08:32:44Z</time>
      </trkpt>
      <trkpt lat="49.01018" lon="6.05274">
        <ele>182.7878418</ele>
        <time>2012-05-06T08:32:53Z</time>
      </trkpt>
      <trkpt lat="49.01104" lon="6.05298">
        <ele>181.826416</ele>
        <time>2012-05-06T08:33:02Z</time>
      </trkpt>
      <trkpt lat="49.01181" lon="6.05319">
        <ele>180.3845215</ele>
        <time>2012-05-06T08:33:10Z</time>
      </trkpt>
      <trkpt lat="49.01247" lon="6.05338">
        <ele>180.3845215</ele>
        <time>2012-05-06T08:33:17Z</time>
      </trkpt>
      <trkpt lat="49.01322" lon="6.05358">
        <ele>179.9038086</ele>
        <time>2012-05-06T08:33:25Z</time>
      </trkpt>
      <trkpt lat="49.01402" lon="6.0538">
        <ele>178.4619141</ele>
        <time>2012-05-06T08:33:33Z</time>
      </trkpt>
      <trkpt lat="49.01479" lon="6.05401">
        <ele>177.9812012</ele>
        <time>2012-05-06T08:33:41Z</time>
      </trkpt>
      <trkpt lat="49.01562" lon="6.05424">
        <ele>178.942627</ele>
        <time>2012-05-06T08:33:50Z</time>
      </trkpt>
      <trkpt lat="49.01625" lon="6.05449">
        <ele>179.9038086</ele>
        <time>2012-05-06T08:33:57Z</time>
      </trkpt>
      <trkpt lat="49.01687" lon="6.05489">
        <ele>177.9812012</ele>
        <time>2012-05-06T08:34:04Z</time>
      </trkpt>
      <trkpt lat="49.0175" lon="6.05539">
        <ele>177.5006104</ele>
        <time>2012-05-06T08:34:11Z</time>
      </trkpt>
      <trkpt lat="49.01812" lon="6.05588">
        <ele>177.0200195</ele>
        <time>2012-05-06T08:34:18Z</time>
      </trkpt>
      <trkpt lat="49.0187" lon="6.05632">
        <ele>177.9812012</ele>
        <time>2012-05-06T08:34:25Z</time>
      </trkpt>
      <trkpt lat="49.01932" lon="6.05668">
        <ele>179.4232178</ele>
        <time>2012-05-06T08:34:32Z</time>
      </trkpt>
      <trkpt lat="49.01989" lon="6.05692">
        <ele>179.4232178</ele>
        <time>2012-05-06T08:34:38Z</time>
      </trkpt>
      <trkpt lat="49.02061" lon="6.05707">
        <ele>179.4232178</ele>
        <time>2012-05-06T08:34:45Z</time>
      </trkpt>
      <trkpt lat="49.02122" lon="6.05708">
        <ele>178.942627</ele>
        <time>2012-05-06T08:34:51Z</time>
      </trkpt>
      <trkpt lat="49.02172" lon="6.05691">
        <ele>177.5006104</ele>
        <time>2012-05-06T08:34:56Z</time>
      </trkpt>
      <trkpt lat="49.02249" lon="6.05655">
        <ele>178.4619141</ele>
        <time>2012-05-06T08:35:04Z</time>
      </trkpt>
      <trkpt lat="49.02329" lon="6.05619">
        <ele>178.942627</ele>
        <time>2012-05-06T08:35:13Z</time>
      </trkpt>
      <trkpt lat="49.02392" lon="6.05602">
        <ele>178.942627</ele>
        <time>2012-05-06T08:35:20Z</time>
      </trkpt>
      <trkpt lat="49.02455" lon="6.05599">
        <ele>179.9038086</ele>
        <time>2012-05-06T08:35:27Z</time>
      </trkpt>
      <trkpt lat="49.02463" lon="6.05599">
        <ele>179.4232178</ele>
        <time>2012-05-06T08:35:28Z</time>
      </trkpt>
      <trkpt lat="49.02541" lon="6.05603">
        <ele>179.4232178</ele>
        <time>2012-05-06T08:35:37Z</time>
      </trkpt>
      <trkpt lat="49.02608" lon="6.05603">
        <ele>180.3845215</ele>
        <time>2012-05-06T08:35:45Z</time>
      </trkpt>
      <trkpt lat="49.02685" lon="6.05602">
        <ele>179.4232178</ele>
        <time>2012-05-06T08:35:54Z</time>
      </trkpt>
      <trkpt lat="49.02737" lon="6.05599">
        <ele>176.5393066</ele>
        <time>2012-05-06T08:36:00Z</time>
      </trkpt>
      <trkpt lat="49.02811" lon="6.05588">
        <ele>175.5778809</ele>
        <time>2012-05-06T08:36:08Z</time>
      </trkpt>
      <trkpt lat="49.02905" lon="6.05574">
        <ele>174.1358643</ele>
        <time>2012-05-06T08:36:18Z</time>
      </trkpt>
      <trkpt lat="49.02976" lon="6.05567">
        <ele>174.1358643</ele>
        <time>2012-05-06T08:36:26Z</time>
      </trkpt>
      <trkpt lat="49.02993" lon="6.05568">
        <ele>174.6165771</ele>
        <time>2012-05-06T08:36:28Z</time>
      </trkpt>
      <trkpt lat="49.03035" lon="6.05587">
        <ele>174.6165771</ele>
        <time>2012-05-06T08:36:33Z</time>
      </trkpt>
      <trkpt lat="49.031" lon="6.05638">
        <ele>175.5778809</ele>
        <time>2012-05-06T08:36:42Z</time>
      </trkpt>
      <trkpt lat="49.03159" lon="6.05685">
        <ele>176.5393066</ele>
        <time>2012-05-06T08:36:51Z</time>
      </trkpt>
      <trkpt lat="49.03178" lon="6.057">
        <ele>177.9812012</ele>
        <time>2012-05-06T08:36:54Z</time>
      </trkpt>
      <trkpt lat="49.03231" lon="6.05743">
        <ele>178.4619141</ele>
        <time>2012-05-06T08:37:02Z</time>
      </trkpt>
      <trkpt lat="49.03296" lon="6.05797">
        <ele>177.0200195</ele>
        <time>2012-05-06T08:37:11Z</time>
      </trkpt>
      <trkpt lat="49.03339" lon="6.0584">
        <ele>177.9812012</ele>
        <time>2012-05-06T08:37:17Z</time>
      </trkpt>
      <trkpt lat="49.03387" lon="6.05886">
        <ele>177.5006104</ele>
        <time>2012-05-06T08:37:24Z</time>
      </trkpt>
      <trkpt lat="49.03444" lon="6.05946">
        <ele>176.5393066</ele>
        <time>2012-05-06T08:37:32Z</time>
      </trkpt>
      <trkpt lat="49.03487" lon="6.0599">
        <ele>175.09729</ele>
        <time>2012-05-06T08:37:38Z</time>
      </trkpt>
      <trkpt lat="49.03543" lon="6.06055">
        <ele>175.5778809</ele>
        <time>2012-05-06T08:37:46Z</time>
      </trkpt>
      <trkpt lat="49.036" lon="6.06108">
        <ele>175.09729</ele>
        <time>2012-05-06T08:37:54Z</time>
      </trkpt>
      <trkpt lat="49.03637" lon="6.06137">
        <ele>175.09729</ele>
        <time>2012-05-06T08:37:59Z</time>
      </trkpt>
      <trkpt lat="49.03659" lon="6.06169">
        <ele>174.6165771</ele>
        <time>2012-05-06T08:38:03Z</time>
      </trkpt>
      <trkpt lat="49.03682" lon="6.06246">
        <ele>174.6165771</ele>
        <time>2012-05-06T08:38:10Z</time>
      </trkpt>
      <trkpt lat="49.03709" lon="6.06348">
        <ele>176.0585938</ele>
        <time>2012-05-06T08:38:19Z</time>
      </trkpt>
      <trkpt lat="49.03729" lon="6.06442">
        <ele>175.09729</ele>
        <time>2012-05-06T08:38:27Z</time>
      </trkpt>
      <trkpt lat="49.03749" lon="6.06559">
        <ele>176.0585938</ele>
        <time>2012-05-06T08:38:37Z</time>
      </trkpt>
      <trkpt lat="49.0377" lon="6.06674">
        <ele>177.9812012</ele>
        <time>2012-05-06T08:38:47Z</time>
      </trkpt>
      <trkpt lat="49.03791" lon="6.06748">
        <ele>179.4232178</ele>
        <time>2012-05-06T08:38:54Z</time>
      </trkpt>
      <trkpt lat="49.038" lon="6.0678">
        <ele>179.4232178</ele>
        <time>2012-05-06T08:38:57Z</time>
      </trkpt>
      <trkpt lat="49.03807" lon="6.06844">
        <ele>182.3071289</ele>
        <time>2012-05-06T08:39:03Z</time>
      </trkpt>
      <trkpt lat="49.03806" lon="6.06854">
        <ele>181.826416</ele>
        <time>2012-05-06T08:39:04Z</time>
      </trkpt>
      <trkpt lat="49.038" lon="6.0691">
        <ele>183.2684326</ele>
        <time>2012-05-06T08:39:10Z</time>
      </trkpt>
      <trkpt lat="49.03797" lon="6.06928">
        <ele>184.7105713</ele>
        <time>2012-05-06T08:39:12Z</time>
      </trkpt>
      <trkpt lat="49.0378" lon="6.07004">
        <ele>185.6717529</ele>
        <time>2012-05-06T08:39:21Z</time>
      </trkpt>
      <trkpt lat="49.03758" lon="6.0706">
        <ele>187.1137695</ele>
        <time>2012-05-06T08:39:28Z</time>
      </trkpt>
      <trkpt lat="49.03741" lon="6.07121">
        <ele>187.1137695</ele>
        <time>2012-05-06T08:39:35Z</time>
      </trkpt>
      <trkpt lat="49.03729" lon="6.07173">
        <ele>188.0750732</ele>
        <time>2012-05-06T08:39:41Z</time>
      </trkpt>
      <trkpt lat="49.03719" lon="6.07206">
        <ele>189.036377</ele>
        <time>2012-05-06T08:39:45Z</time>
      </trkpt>
      <trkpt lat="49.03708" lon="6.07267">
        <ele>190.4783936</ele>
        <time>2012-05-06T08:39:52Z</time>
      </trkpt>
      <trkpt lat="49.03699" lon="6.07319">
        <ele>191.4395752</ele>
        <time>2012-05-06T08:39:58Z</time>
      </trkpt>
      <trkpt lat="49.03689" lon="6.07392">
        <ele>190.9589844</ele>
        <time>2012-05-06T08:40:06Z</time>
      </trkpt>
      <trkpt lat="49.03684" lon="6.07431">
        <ele>189.036377</ele>
        <time>2012-05-06T08:40:10Z</time>
      </trkpt>
      <trkpt lat="49.03682" lon="6.07452">
        <ele>190.4783936</ele>
        <time>2012-05-06T08:40:12Z</time>
      </trkpt>
      <trkpt lat="49.03675" lon="6.07495">
        <ele>189.036377</ele>
        <time>2012-05-06T08:40:16Z</time>
      </trkpt>
      <trkpt lat="49.03657" lon="6.07581">
        <ele>188.0750732</ele>
        <time>2012-05-06T08:40:24Z</time>
      </trkpt>
      <trkpt lat="49.03634" lon="6.07657">
        <ele>189.5169678</ele>
        <time>2012-05-06T08:40:32Z</time>
      </trkpt>
      <trkpt lat="49.03601" lon="6.07764">
        <ele>189.9976807</ele>
        <time>2012-05-06T08:40:43Z</time>
      </trkpt>
      <trkpt lat="49.03567" lon="6.07876">
        <ele>189.5169678</ele>
        <time>2012-05-06T08:40:54Z</time>
      </trkpt>
      <trkpt lat="49.0354" lon="6.07967">
        <ele>189.9976807</ele>
        <time>2012-05-06T08:41:03Z</time>
      </trkpt>
      <trkpt lat="49.03515" lon="6.08057">
        <ele>191.4395752</ele>
        <time>2012-05-06T08:41:12Z</time>
      </trkpt>
      <trkpt lat="49.03502" lon="6.08108">
        <ele>189.9976807</ele>
        <time>2012-05-06T08:41:17Z</time>
      </trkpt>
      <trkpt lat="49.03477" lon="6.08212">
        <ele>191.9202881</ele>
        <time>2012-05-06T08:41:27Z</time>
      </trkpt>
      <trkpt lat="49.03451" lon="6.08332">
        <ele>191.9202881</ele>
        <time>2012-05-06T08:41:38Z</time>
      </trkpt>
      <trkpt lat="49.03432" lon="6.08403">
        <ele>191.9202881</ele>
        <time>2012-05-06T08:41:45Z</time>
      </trkpt>
      <trkpt lat="49.03406" lon="6.08468">
        <ele>193.3623047</ele>
        <time>2012-05-06T08:41:52Z</time>
      </trkpt>
      <trkpt lat="49.03373" lon="6.08523">
        <ele>193.8430176</ele>
        <time>2012-05-06T08:41:59Z</time>
      </trkpt>
      <trkpt lat="49.03333" lon="6.08574">
        <ele>194.8043213</ele>
        <time>2012-05-06T08:42:07Z</time>
      </trkpt>
      <trkpt lat="49.03306" lon="6.08605">
        <ele>194.3237305</ele>
        <time>2012-05-06T08:42:12Z</time>
      </trkpt>
      <trkpt lat="49.03289" lon="6.08635">
        <ele>194.8043213</ele>
        <time>2012-05-06T08:42:16Z</time>
      </trkpt>
      <trkpt lat="49.03282" lon="6.08652">
        <ele>195.765625</ele>
        <time>2012-05-06T08:42:18Z</time>
      </trkpt>
      <trkpt lat="49.03273" lon="6.08708">
        <ele>196.7269287</ele>
        <time>2012-05-06T08:42:24Z</time>
      </trkpt>
      <trkpt lat="49.03276" lon="6.08807">
        <ele>197.2075195</ele>
        <time>2012-05-06T08:42:34Z</time>
      </trkpt>
      <trkpt lat="49.03278" lon="6.08877">
        <ele>199.130127</ele>
        <time>2012-05-06T08:42:42Z</time>
      </trkpt>
      <trkpt lat="49.03275" lon="6.08948">
        <ele>201.5335693</ele>
        <time>2012-05-06T08:42:51Z</time>
      </trkpt>
      <trkpt lat="49.0327" lon="6.09009">
        <ele>203.4561768</ele>
        <time>2012-05-06T08:42:59Z</time>
      </trkpt>
      <trkpt lat="49.03264" lon="6.09082">
        <ele>206.3400879</ele>
        <time>2012-05-06T08:43:09Z</time>
      </trkpt>
      <trkpt lat="49.03255" lon="6.09136">
        <ele>207.3013916</ele>
        <time>2012-05-06T08:43:17Z</time>
      </trkpt>
      <trkpt lat="49.0324" lon="6.09185">
        <ele>208.2628174</ele>
        <time>2012-05-06T08:43:25Z</time>
      </trkpt>
      <trkpt lat="49.03217" lon="6.09237">
        <ele>210.1854248</ele>
        <time>2012-05-06T08:43:35Z</time>
      </trkpt>
      <trkpt lat="49.03193" lon="6.0928">
        <ele>212.588623</ele>
        <time>2012-05-06T08:43:44Z</time>
      </trkpt>
      <trkpt lat="49.03171" lon="6.0932">
        <ele>214.9919434</ele>
        <time>2012-05-06T08:43:53Z</time>
      </trkpt>
      <trkpt lat="49.03155" lon="6.09362">
        <ele>217.3953857</ele>
        <time>2012-05-06T08:44:02Z</time>
      </trkpt>
      <trkpt lat="49.03144" lon="6.09407">
        <ele>217.8759766</ele>
        <time>2012-05-06T08:44:10Z</time>
      </trkpt>
      <trkpt lat="49.03139" lon="6.09451">
        <ele>218.8372803</ele>
        <time>2012-05-06T08:44:17Z</time>
      </trkpt>
      <trkpt lat="49.03133" lon="6.09498">
        <ele>221.2406006</ele>
        <time>2012-05-06T08:44:25Z</time>
      </trkpt>
      <trkpt lat="49.03124" lon="6.09543">
        <ele>222.6824951</ele>
        <time>2012-05-06T08:44:33Z</time>
      </trkpt>
      <trkpt lat="49.03112" lon="6.096">
        <ele>225.0859375</ele>
        <time>2012-05-06T08:44:42Z</time>
      </trkpt>
      <trkpt lat="49.0311" lon="6.09614">
        <ele>225.0859375</ele>
        <time>2012-05-06T08:44:44Z</time>
      </trkpt>
      <trkpt lat="49.03109" lon="6.0964">
        <ele>225.5665283</ele>
        <time>2012-05-06T08:44:48Z</time>
      </trkpt>
      <trkpt lat="49.03116" lon="6.0967">
        <ele>225.5665283</ele>
        <time>2012-05-06T08:44:53Z</time>
      </trkpt>
      <trkpt lat="49.03131" lon="6.09729">
        <ele>226.527832</ele>
        <time>2012-05-06T08:45:02Z</time>
      </trkpt>
      <trkpt lat="49.03137" lon="6.09778">
        <ele>225.0859375</ele>
        <time>2012-05-06T08:45:09Z</time>
      </trkpt>
      <trkpt lat="49.03147" lon="6.09797">
        <ele>224.1245117</ele>
        <time>2012-05-06T08:45:13Z</time>
      </trkpt>
      <trkpt lat="49.03187" lon="6.09821">
        <ele>223.163208</ele>
        <time>2012-05-06T08:45:20Z</time>
      </trkpt>
      <trkpt lat="49.0325" lon="6.0987">
        <ele>222.6824951</ele>
        <time>2012-05-06T08:45:30Z</time>
      </trkpt>
      <trkpt lat="49.03262" lon="6.09882">
        <ele>222.6824951</ele>
        <time>2012-05-06T08:45:32Z</time>
      </trkpt>
      <trkpt lat="49.0331" lon="6.09951">
        <ele>223.163208</ele>
        <time>2012-05-06T08:45:41Z</time>
      </trkpt>
      <trkpt lat="49.03372" lon="6.10014">
        <ele>222.6824951</ele>
        <time>2012-05-06T08:45:51Z</time>
      </trkpt>
      <trkpt lat="49.03446" lon="6.10088">
        <ele>222.6824951</ele>
        <time>2012-05-06T08:46:03Z</time>
      </trkpt>
      <trkpt lat="49.03491" lon="6.10123">
        <ele>223.163208</ele>
        <time>2012-05-06T08:46:10Z</time>
      </trkpt>
      <trkpt lat="49.03529" lon="6.10146">
        <ele>225.0859375</ele>
        <time>2012-05-06T08:46:16Z</time>
      </trkpt>
      <trkpt lat="49.03567" lon="6.10172">
        <ele>226.0471191</ele>
        <time>2012-05-06T08:46:23Z</time>
      </trkpt>
      <trkpt lat="49.0362" lon="6.10215">
        <ele>227.9697266</ele>
        <time>2012-05-06T08:46:33Z</time>
      </trkpt>
      <trkpt lat="49.03656" lon="6.10262">
        <ele>229.4117432</ele>
        <time>2012-05-06T08:46:41Z</time>
      </trkpt>
      <trkpt lat="49.037" lon="6.10325">
        <ele>230.3730469</ele>
        <time>2012-05-06T08:46:51Z</time>
      </trkpt>
      <trkpt lat="49.03739" lon="6.10389">
        <ele>229.4117432</ele>
        <time>2012-05-06T08:47:00Z</time>
      </trkpt>
      <trkpt lat="49.03777" lon="6.10455">
        <ele>230.8537598</ele>
        <time>2012-05-06T08:47:09Z</time>
      </trkpt>
      <trkpt lat="49.03818" lon="6.10524">
        <ele>230.3730469</ele>
        <time>2012-05-06T08:47:18Z</time>
      </trkpt>
      <trkpt lat="49.03827" lon="6.10539">
        <ele>230.3730469</ele>
        <time>2012-05-06T08:47:20Z</time>
      </trkpt>
      <trkpt lat="49.03868" lon="6.10581">
        <ele>230.8537598</ele>
        <time>2012-05-06T08:47:27Z</time>
      </trkpt>
      <trkpt lat="49.03929" lon="6.10633">
        <ele>231.8149414</ele>
        <time>2012-05-06T08:47:37Z</time>
      </trkpt>
      <trkpt lat="49.03966" lon="6.1067">
        <ele>233.2570801</ele>
        <time>2012-05-06T08:47:44Z</time>
      </trkpt>
      <trkpt lat="49.03971" lon="6.10675">
        <ele>233.2570801</ele>
        <time>2012-05-06T08:47:45Z</time>
      </trkpt>
      <trkpt lat="49.04011" lon="6.10725">
        <ele>232.7764893</ele>
        <time>2012-05-06T08:47:53Z</time>
      </trkpt>
      <trkpt lat="49.04055" lon="6.10778">
        <ele>231.8149414</ele>
        <time>2012-05-06T08:48:01Z</time>
      </trkpt>
      <trkpt lat="49.04115" lon="6.10848">
        <ele>229.892334</ele>
        <time>2012-05-06T08:48:11Z</time>
      </trkpt>
      <trkpt lat="49.04171" lon="6.10918">
        <ele>227.9697266</ele>
        <time>2012-05-06T08:48:20Z</time>
      </trkpt>
      <trkpt lat="49.04227" lon="6.10974">
        <ele>227.4891357</ele>
        <time>2012-05-06T08:48:28Z</time>
      </trkpt>
      <trkpt lat="49.04273" lon="6.11004">
        <ele>226.527832</ele>
        <time>2012-05-06T08:48:34Z</time>
      </trkpt>
      <trkpt lat="49.04327" lon="6.11031">
        <ele>225.5665283</ele>
        <time>2012-05-06T08:48:41Z</time>
      </trkpt>
      <trkpt lat="49.04353" lon="6.11046">
        <ele>222.6824951</ele>
        <time>2012-05-06T08:48:44Z</time>
      </trkpt>
      <trkpt lat="49.04391" lon="6.11068">
        <ele>219.3179932</ele>
        <time>2012-05-06T08:48:48Z</time>
      </trkpt>
      <trkpt lat="49.04412" lon="6.11077">
        <ele>218.3565674</ele>
        <time>2012-05-06T08:48:50Z</time>
      </trkpt>
      <trkpt lat="49.04445" lon="6.11083">
        <ele>215.9532471</ele>
        <time>2012-05-06T08:48:53Z</time>
      </trkpt>
      <trkpt lat="49.0448" lon="6.1108">
        <ele>211.6274414</ele>
        <time>2012-05-06T08:48:56Z</time>
      </trkpt>
      <trkpt lat="49.04528" lon="6.11071">
        <ele>208.7434082</ele>
        <time>2012-05-06T08:49:00Z</time>
      </trkpt>
      <trkpt lat="49.0454" lon="6.11069">
        <ele>209.704834</ele>
        <time>2012-05-06T08:49:01Z</time>
      </trkpt>
      <trkpt lat="49.04609" lon="6.11056">
        <ele>206.8206787</ele>
        <time>2012-05-06T08:49:07Z</time>
      </trkpt>
      <trkpt lat="49.0465" lon="6.11068">
        <ele>207.7821045</ele>
        <time>2012-05-06T08:49:11Z</time>
      </trkpt>
      <trkpt lat="49.04683" lon="6.11101">
        <ele>207.3013916</ele>
        <time>2012-05-06T08:49:15Z</time>
      </trkpt>
      <trkpt lat="49.04706" lon="6.11151">
        <ele>207.7821045</ele>
        <time>2012-05-06T08:49:19Z</time>
      </trkpt>
      <trkpt lat="49.0471" lon="6.11165">
        <ele>207.7821045</ele>
        <time>2012-05-06T08:49:20Z</time>
      </trkpt>
      <trkpt lat="49.04727" lon="6.11231">
        <ele>206.3400879</ele>
        <time>2012-05-06T08:49:25Z</time>
      </trkpt>
      <trkpt lat="49.04737" lon="6.11274">
        <ele>206.8206787</ele>
        <time>2012-05-06T08:49:28Z</time>
      </trkpt>
      <trkpt lat="49.04761" lon="6.11321">
        <ele>207.7821045</ele>
        <time>2012-05-06T08:49:32Z</time>
      </trkpt>
      <trkpt lat="49.04819" lon="6.114">
        <ele>204.8980713</ele>
        <time>2012-05-06T08:49:40Z</time>
      </trkpt>
      <trkpt lat="49.04882" lon="6.11486">
        <ele>205.3787842</ele>
        <time>2012-05-06T08:49:49Z</time>
      </trkpt>
      <trkpt lat="49.04912" lon="6.11517">
        <ele>205.3787842</ele>
        <time>2012-05-06T08:49:53Z</time>
      </trkpt>
      <trkpt lat="49.04961" lon="6.11551">
        <ele>206.8206787</ele>
        <time>2012-05-06T08:49:59Z</time>
      </trkpt>
      <trkpt lat="49.0503" lon="6.116">
        <ele>208.7434082</ele>
        <time>2012-05-06T08:50:08Z</time>
      </trkpt>
      <trkpt lat="49.05083" lon="6.11645">
        <ele>206.8206787</ele>
        <time>2012-05-06T08:50:15Z</time>
      </trkpt>
      <trkpt lat="49.05138" lon="6.11684">
        <ele>205.3787842</ele>
        <time>2012-05-06T08:50:22Z</time>
      </trkpt>
      <trkpt lat="49.05196" lon="6.11708">
        <ele>204.8980713</ele>
        <time>2012-05-06T08:50:29Z</time>
      </trkpt>
      <trkpt lat="49.0523" lon="6.11722">
        <ele>203.4561768</ele>
        <time>2012-05-06T08:50:33Z</time>
      </trkpt>
      <trkpt lat="49.053" lon="6.11752">
        <ele>202.0142822</ele>
        <time>2012-05-06T08:50:41Z</time>
      </trkpt>
      <trkpt lat="49.0534" lon="6.11785">
        <ele>201.0528564</ele>
        <time>2012-05-06T08:50:46Z</time>
      </trkpt>
      <trkpt lat="49.05375" lon="6.1183">
        <ele>200.0916748</ele>
        <time>2012-05-06T08:50:51Z</time>
      </trkpt>
      <trkpt lat="49.054" lon="6.11888">
        <ele>199.130127</ele>
        <time>2012-05-06T08:50:56Z</time>
      </trkpt>
      <trkpt lat="49.05412" lon="6.11927">
        <ele>198.1689453</ele>
        <time>2012-05-06T08:50:59Z</time>
      </trkpt>
      <trkpt lat="49.05466" lon="6.12101">
        <ele>196.2463379</ele>
        <time>2012-05-06T08:51:12Z</time>
      </trkpt>
      <trkpt lat="49.05478" lon="6.12141">
        <ele>194.8043213</ele>
        <time>2012-05-06T08:51:15Z</time>
      </trkpt>
      <trkpt lat="49.05531" lon="6.12301">
        <ele>193.3623047</ele>
        <time>2012-05-06T08:51:27Z</time>
      </trkpt>
      <trkpt lat="49.05561" lon="6.12366">
        <ele>192.8817139</ele>
        <time>2012-05-06T08:51:33Z</time>
      </trkpt>
      <trkpt lat="49.05566" lon="6.12375">
        <ele>192.401123</ele>
        <time>2012-05-06T08:51:34Z</time>
      </trkpt>
      <trkpt lat="49.05593" lon="6.12422">
        <ele>191.9202881</ele>
        <time>2012-05-06T08:51:39Z</time>
      </trkpt>
      <trkpt lat="49.05617" lon="6.12441">
        <ele>191.9202881</ele>
        <time>2012-05-06T08:51:43Z</time>
      </trkpt>
      <trkpt lat="49.0563" lon="6.12432">
        <ele>191.4395752</ele>
        <time>2012-05-06T08:51:45Z</time>
      </trkpt>
      <trkpt lat="49.05677" lon="6.12388">
        <ele>192.8817139</ele>
        <time>2012-05-06T08:51:53Z</time>
      </trkpt>
      <trkpt lat="49.057" lon="6.12367">
        <ele>193.8430176</ele>
        <time>2012-05-06T08:51:57Z</time>
      </trkpt>
      <trkpt lat="49.05735" lon="6.12335">
        <ele>194.8043213</ele>
        <time>2012-05-06T08:52:03Z</time>
      </trkpt>
      <trkpt lat="49.05768" lon="6.123">
        <ele>194.8043213</ele>
        <time>2012-05-06T08:52:09Z</time>
      </trkpt>
      <trkpt lat="49.05813" lon="6.12248">
        <ele>195.765625</ele>
        <time>2012-05-06T08:52:17Z</time>
      </trkpt>
      <trkpt lat="49.05867" lon="6.12194">
        <ele>196.2463379</ele>
        <time>2012-05-06T08:52:26Z</time>
      </trkpt>
      <trkpt lat="49.05912" lon="6.12149">
        <ele>195.765625</ele>
        <time>2012-05-06T08:52:34Z</time>
      </trkpt>
      <trkpt lat="49.05937" lon="6.12121">
        <ele>197.2075195</ele>
        <time>2012-05-06T08:52:39Z</time>
      </trkpt>
      <trkpt lat="49.05942" lon="6.12116">
        <ele>198.1689453</ele>
        <time>2012-05-06T08:52:40Z</time>
      </trkpt>
      <trkpt lat="49.05956" lon="6.12084">
        <ele>196.7269287</ele>
        <time>2012-05-06T08:52:44Z</time>
      </trkpt>
      <trkpt lat="49.05959" lon="6.12055">
        <ele>195.765625</ele>
        <time>2012-05-06T08:52:47Z</time>
      </trkpt>
      <trkpt lat="49.05959" lon="6.12035">
        <ele>195.765625</ele>
        <time>2012-05-06T08:52:49Z</time>
      </trkpt>
      <trkpt lat="49.05971" lon="6.11985">
        <ele>195.2849121</ele>
        <time>2012-05-06T08:52:54Z</time>
      </trkpt>
      <trkpt lat="49.05977" lon="6.11978">
        <ele>194.8043213</ele>
        <time>2012-05-06T08:52:55Z</time>
      </trkpt>
      <trkpt lat="49.06002" lon="6.1195">
        <ele>191.9202881</ele>
        <time>2012-05-06T08:52:59Z</time>
      </trkpt>
      <trkpt lat="49.06055" lon="6.11918">
        <ele>191.9202881</ele>
        <time>2012-05-06T08:53:06Z</time>
      </trkpt>
      <trkpt lat="49.06071" lon="6.11911">
        <ele>190.9589844</ele>
        <time>2012-05-06T08:53:08Z</time>
      </trkpt>
      <trkpt lat="49.06107" lon="6.11882">
        <ele>191.4395752</ele>
        <time>2012-05-06T08:53:13Z</time>
      </trkpt>
      <trkpt lat="49.06113" lon="6.11875">
        <ele>191.9202881</ele>
        <time>2012-05-06T08:53:14Z</time>
      </trkpt>
      <trkpt lat="49.06123" lon="6.11857">
        <ele>192.8817139</ele>
        <time>2012-05-06T08:53:16Z</time>
      </trkpt>
      <trkpt lat="49.06129" lon="6.11824">
        <ele>192.401123</ele>
        <time>2012-05-06T08:53:19Z</time>
      </trkpt>
      <trkpt lat="49.06129" lon="6.11813">
        <ele>193.3623047</ele>
        <time>2012-05-06T08:53:20Z</time>
      </trkpt>
      <trkpt lat="49.06129" lon="6.11792">
        <ele>192.8817139</ele>
        <time>2012-05-06T08:53:22Z</time>
      </trkpt>
      <trkpt lat="49.06131" lon="6.11771">
        <ele>194.3237305</ele>
        <time>2012-05-06T08:53:24Z</time>
      </trkpt>
      <trkpt lat="49.06142" lon="6.11745">
        <ele>193.8430176</ele>
        <time>2012-05-06T08:53:27Z</time>
      </trkpt>
      <trkpt lat="49.06147" lon="6.11739">
        <ele>194.8043213</ele>
        <time>2012-05-06T08:53:28Z</time>
      </trkpt>
      <trkpt lat="49.0618" lon="6.11689">
        <ele>197.2075195</ele>
        <time>2012-05-06T08:53:35Z</time>
      </trkpt>
      <trkpt lat="49.06218" lon="6.11645">
        <ele>196.7269287</ele>
        <time>2012-05-06T08:53:42Z</time>
      </trkpt>
      <trkpt lat="49.0623" lon="6.11634">
        <ele>197.2075195</ele>
        <time>2012-05-06T08:53:44Z</time>
      </trkpt>
      <trkpt lat="49.06258" lon="6.11627">
        <ele>197.2075195</ele>
        <time>2012-05-06T08:53:48Z</time>
      </trkpt>
      <trkpt lat="49.06318" lon="6.1164">
        <ele>196.7269287</ele>
        <time>2012-05-06T08:53:56Z</time>
      </trkpt>
      <trkpt lat="49.0637" lon="6.11653">
        <ele>195.2849121</ele>
        <time>2012-05-06T08:54:03Z</time>
      </trkpt>
      <trkpt lat="49.06428" lon="6.11667">
        <ele>194.8043213</ele>
        <time>2012-05-06T08:54:11Z</time>
      </trkpt>
      <trkpt lat="49.06485" lon="6.11682">
        <ele>196.2463379</ele>
        <time>2012-05-06T08:54:19Z</time>
      </trkpt>
      <trkpt lat="49.06533" lon="6.11695">
        <ele>198.6495361</ele>
        <time>2012-05-06T08:54:26Z</time>
      </trkpt>
      <trkpt lat="49.06539" lon="6.11698">
        <ele>198.6495361</ele>
        <time>2012-05-06T08:54:27Z</time>
      </trkpt>
      <trkpt lat="49.06564" lon="6.11696">
        <ele>197.6882324</ele>
        <time>2012-05-06T08:54:31Z</time>
      </trkpt>
      <trkpt lat="49.06596" lon="6.11692">
        <ele>199.130127</ele>
        <time>2012-05-06T08:54:36Z</time>
      </trkpt>
      <trkpt lat="49.06636" lon="6.11689">
        <ele>200.0916748</ele>
        <time>2012-05-06T08:54:42Z</time>
      </trkpt>
      <trkpt lat="49.06706" lon="6.11684">
        <ele>199.130127</ele>
        <time>2012-05-06T08:54:53Z</time>
      </trkpt>
      <trkpt lat="49.06759" lon="6.11685">
        <ele>199.130127</ele>
        <time>2012-05-06T08:55:01Z</time>
      </trkpt>
      <trkpt lat="49.06801" lon="6.11687">
        <ele>196.7269287</ele>
        <time>2012-05-06T08:55:07Z</time>
      </trkpt>
      <trkpt lat="49.06865" lon="6.1169">
        <ele>194.3237305</ele>
        <time>2012-05-06T08:55:15Z</time>
      </trkpt>
      <trkpt lat="49.06933" lon="6.11689">
        <ele>192.401123</ele>
        <time>2012-05-06T08:55:23Z</time>
      </trkpt>
      <trkpt lat="49.06981" lon="6.11675">
        <ele>190.4783936</ele>
        <time>2012-05-06T08:55:29Z</time>
      </trkpt>
      <trkpt lat="49.0704" lon="6.11649">
        <ele>190.4783936</ele>
        <time>2012-05-06T08:55:37Z</time>
      </trkpt>
      <trkpt lat="49.07074" lon="6.11618">
        <ele>190.9589844</ele>
        <time>2012-05-06T08:55:42Z</time>
      </trkpt>
      <trkpt lat="49.07108" lon="6.11564">
        <ele>190.4783936</ele>
        <time>2012-05-06T08:55:48Z</time>
      </trkpt>
      <trkpt lat="49.07143" lon="6.11486">
        <ele>189.036377</ele>
        <time>2012-05-06T08:55:56Z</time>
      </trkpt>
      <trkpt lat="49.07176" lon="6.11409">
        <ele>189.036377</ele>
        <time>2012-05-06T08:56:04Z</time>
      </trkpt>
      <trkpt lat="49.07198" lon="6.11348">
        <ele>189.036377</ele>
        <time>2012-05-06T08:56:10Z</time>
      </trkpt>
      <trkpt lat="49.07219" lon="6.11319">
        <ele>187.5943604</ele>
        <time>2012-05-06T08:56:14Z</time>
      </trkpt>
      <trkpt lat="49.07245" lon="6.11294">
        <ele>187.1137695</ele>
        <time>2012-05-06T08:56:18Z</time>
      </trkpt>
      <trkpt lat="49.07266" lon="6.11276">
        <ele>185.6717529</ele>
        <time>2012-05-06T08:56:21Z</time>
      </trkpt>
      <trkpt lat="49.07291" lon="6.11278">
        <ele>185.1911621</ele>
        <time>2012-05-06T08:56:24Z</time>
      </trkpt>
      <trkpt lat="49.07313" lon="6.11299">
        <ele>185.1911621</ele>
        <time>2012-05-06T08:56:27Z</time>
      </trkpt>
      <trkpt lat="49.07376" lon="6.11382">
        <ele>186.6331787</ele>
        <time>2012-05-06T08:56:37Z</time>
      </trkpt>
      <trkpt lat="49.0744" lon="6.11476">
        <ele>186.1524658</ele>
        <time>2012-05-06T08:56:48Z</time>
      </trkpt>
      <trkpt lat="49.07492" lon="6.11564">
        <ele>185.6717529</ele>
        <time>2012-05-06T08:56:58Z</time>
      </trkpt>
      <trkpt lat="49.07518" lon="6.11607">
        <ele>184.2298584</ele>
        <time>2012-05-06T08:57:03Z</time>
      </trkpt>
      <trkpt lat="49.07563" lon="6.11673">
        <ele>182.3071289</ele>
        <time>2012-05-06T08:57:10Z</time>
      </trkpt>
      <trkpt lat="49.07585" lon="6.11704">
        <ele>181.3458252</ele>
        <time>2012-05-06T08:57:13Z</time>
      </trkpt>
      <trkpt lat="49.07647" lon="6.11799">
        <ele>178.4619141</ele>
        <time>2012-05-06T08:57:22Z</time>
      </trkpt>
      <trkpt lat="49.07654" lon="6.1181">
        <ele>178.4619141</ele>
        <time>2012-05-06T08:57:23Z</time>
      </trkpt>
      <trkpt lat="49.07722" lon="6.11929">
        <ele>177.9812012</ele>
        <time>2012-05-06T08:57:34Z</time>
      </trkpt>
      <trkpt lat="49.07759" lon="6.12002">
        <ele>178.942627</ele>
        <time>2012-05-06T08:57:41Z</time>
      </trkpt>
      <trkpt lat="49.07773" lon="6.12045">
        <ele>180.3845215</ele>
        <time>2012-05-06T08:57:45Z</time>
      </trkpt>
      <trkpt lat="49.07795" lon="6.12126">
        <ele>181.826416</ele>
        <time>2012-05-06T08:57:53Z</time>
      </trkpt>
      <trkpt lat="49.07815" lon="6.1218">
        <ele>182.3071289</ele>
        <time>2012-05-06T08:57:59Z</time>
      </trkpt>
      <trkpt lat="49.0785" lon="6.12243">
        <ele>182.7878418</ele>
        <time>2012-05-06T08:58:07Z</time>
      </trkpt>
      <trkpt lat="49.0787" lon="6.12269">
        <ele>181.826416</ele>
        <time>2012-05-06T08:58:11Z</time>
      </trkpt>
      <trkpt lat="49.07884" lon="6.12304">
        <ele>182.3071289</ele>
        <time>2012-05-06T08:58:15Z</time>
      </trkpt>
      <trkpt lat="49.07901" lon="6.12349">
        <ele>183.2684326</ele>
        <time>2012-05-06T08:58:20Z</time>
      </trkpt>
      <trkpt lat="49.07943" lon="6.12428">
        <ele>184.7105713</ele>
        <time>2012-05-06T08:58:30Z</time>
      </trkpt>
      <trkpt lat="49.07974" lon="6.12487">
        <ele>186.6331787</ele>
        <time>2012-05-06T08:58:38Z</time>
      </trkpt>
      <trkpt lat="49.08002" lon="6.1254">
        <ele>187.1137695</ele>
        <time>2012-05-06T08:58:45Z</time>
      </trkpt>
      <trkpt lat="49.0804" lon="6.12611">
        <ele>186.6331787</ele>
        <time>2012-05-06T08:58:54Z</time>
      </trkpt>
      <trkpt lat="49.08087" lon="6.12699">
        <ele>188.0750732</ele>
        <time>2012-05-06T08:59:05Z</time>
      </trkpt>
      <trkpt lat="49.0812" lon="6.12737">
        <ele>187.1137695</ele>
        <time>2012-05-06T08:59:11Z</time>
      </trkpt>
      <trkpt lat="49.08167" lon="6.12767">
        <ele>185.1911621</ele>
        <time>2012-05-06T08:59:18Z</time>
      </trkpt>
      <trkpt lat="49.08205" lon="6.12789">
        <ele>183.2684326</ele>
        <time>2012-05-06T08:59:23Z</time>
      </trkpt>
      <trkpt lat="49.08268" lon="6.12831">
        <ele>181.3458252</ele>
        <time>2012-05-06T08:59:31Z</time>
      </trkpt>
      <trkpt lat="49.08302" lon="6.1287">
        <ele>179.4232178</ele>
        <time>2012-05-06T08:59:36Z</time>
      </trkpt>
      <trkpt lat="49.08345" lon="6.12937">
        <ele>179.9038086</ele>
        <time>2012-05-06T08:59:43Z</time>
      </trkpt>
      <trkpt lat="49.08403" lon="6.13026">
        <ele>181.3458252</ele>
        <time>2012-05-06T08:59:53Z</time>
      </trkpt>
      <trkpt lat="49.08477" lon="6.1314">
        <ele>180.3845215</ele>
        <time>2012-05-06T09:00:06Z</time>
      </trkpt>
      <trkpt lat="49.08537" lon="6.13233">
        <ele>177.9812012</ele>
        <time>2012-05-06T09:00:16Z</time>
      </trkpt>
      <trkpt lat="49.08582" lon="6.13306">
        <ele>179.9038086</ele>
        <time>2012-05-06T09:00:24Z</time>
      </trkpt>
      <trkpt lat="49.08588" lon="6.13315">
        <ele>179.9038086</ele>
        <time>2012-05-06T09:00:25Z</time>
      </trkpt>
      <trkpt lat="49.08641" lon="6.13396">
        <ele>181.3458252</ele>
        <time>2012-05-06T09:00:35Z</time>
      </trkpt>
      <trkpt lat="49.08686" lon="6.13466">
        <ele>185.1911621</ele>
        <time>2012-05-06T09:00:44Z</time>
      </trkpt>
      <trkpt lat="49.0869" lon="6.13473">
        <ele>184.7105713</ele>
        <time>2012-05-06T09:00:45Z</time>
      </trkpt>
      <trkpt lat="49.08725" lon="6.13529">
        <ele>186.6331787</ele>
        <time>2012-05-06T09:00:53Z</time>
      </trkpt>
      <trkpt lat="49.08771" lon="6.136">
        <ele>187.1137695</ele>
        <time>2012-05-06T09:01:03Z</time>
      </trkpt>
      <trkpt lat="49.0878" lon="6.13616">
        <ele>187.1137695</ele>
        <time>2012-05-06T09:01:05Z</time>
      </trkpt>
      <trkpt lat="49.08792" lon="6.13651">
        <ele>188.0750732</ele>
        <time>2012-05-06T09:01:09Z</time>
      </trkpt>
      <trkpt lat="49.08797" lon="6.13696">
        <ele>188.0750732</ele>
        <time>2012-05-06T09:01:14Z</time>
      </trkpt>
      <trkpt lat="49.08787" lon="6.13759">
        <ele>188.0750732</ele>
        <time>2012-05-06T09:01:22Z</time>
      </trkpt>
      <trkpt lat="49.08772" lon="6.13825">
        <ele>188.0750732</ele>
        <time>2012-05-06T09:01:31Z</time>
      </trkpt>
      <trkpt lat="49.08758" lon="6.13886">
        <ele>188.5557861</ele>
        <time>2012-05-06T09:01:40Z</time>
      </trkpt>
      <trkpt lat="49.08752" lon="6.13912">
        <ele>188.5557861</ele>
        <time>2012-05-06T09:01:45Z</time>
      </trkpt>
      <trkpt lat="49.08751" lon="6.13915">
        <ele>189.036377</ele>
        <time>2012-05-06T09:01:49Z</time>
      </trkpt>
      <trkpt lat="49.0875" lon="6.13913">
        <ele>188.5557861</ele>
        <time>2012-05-06T09:02:10Z</time>
      </trkpt>
      <trkpt lat="49.08751" lon="6.13914">
        <ele>189.036377</ele>
        <time>2012-05-06T09:02:12Z</time>
      </trkpt>
      <trkpt lat="49.08751" lon="6.13912">
        <ele>188.5557861</ele>
        <time>2012-05-06T09:02:30Z</time>
      </trkpt>
      <trkpt lat="49.08751" lon="6.13912">
        <ele>188.5557861</ele>
        <time>2012-05-06T09:02:31Z</time>
      </trkpt>
      <trkpt lat="49.0875" lon="6.13914">
        <ele>188.5557861</ele>
        <time>2012-05-06T09:03:16Z</time>
      </trkpt>
      <trkpt lat="49.08751" lon="6.13916">
        <ele>188.0750732</ele>
        <time>2012-05-06T09:03:20Z</time>
      </trkpt>
      <trkpt lat="49.08751" lon="6.13917">
        <ele>188.0750732</ele>
        <time>2012-05-06T09:03:23Z</time>
      </trkpt>
      <trkpt lat="49.08751" lon="6.13918">
        <ele>188.0750732</ele>
        <time>2012-05-06T09:03:24Z</time>
      </trkpt>
      <trkpt lat="49.08748" lon="6.13936">
        <ele>188.5557861</ele>
        <time>2012-05-06T09:03:28Z</time>
      </trkpt>
      <trkpt lat="49.08741" lon="6.13968">
        <ele>187.5943604</ele>
        <time>2012-05-06T09:03:35Z</time>
      </trkpt>
      <trkpt lat="49.08739" lon="6.13978">
        <ele>187.5943604</ele>
        <time>2012-05-06T09:03:37Z</time>
      </trkpt>
      <trkpt lat="49.08719" lon="6.14008">
        <ele>187.5943604</ele>
        <time>2012-05-06T09:03:43Z</time>
      </trkpt>
      <trkpt lat="49.08703" lon="6.14026">
        <ele>189.036377</ele>
        <time>2012-05-06T09:03:47Z</time>
      </trkpt>
      <trkpt lat="49.08706" lon="6.14049">
        <ele>188.5557861</ele>
        <time>2012-05-06T09:03:50Z</time>
      </trkpt>
      <trkpt lat="49.08721" lon="6.14063">
        <ele>188.5557861</ele>
        <time>2012-05-06T09:03:53Z</time>
      </trkpt>
      <trkpt lat="49.08731" lon="6.14074">
        <ele>187.5943604</ele>
        <time>2012-05-06T09:03:55Z</time>
      </trkpt>
      <trkpt lat="49.0877" lon="6.1413">
        <ele>188.0750732</ele>
        <time>2012-05-06T09:04:03Z</time>
      </trkpt>
      <trkpt lat="49.08812" lon="6.14193">
        <ele>187.5943604</ele>
        <time>2012-05-06T09:04:12Z</time>
      </trkpt>
      <trkpt lat="49.08864" lon="6.14275">
        <ele>188.0750732</ele>
        <time>2012-05-06T09:04:23Z</time>
      </trkpt>
      <trkpt lat="49.08911" lon="6.14347">
        <ele>187.5943604</ele>
        <time>2012-05-06T09:04:33Z</time>
      </trkpt>
      <trkpt lat="49.08953" lon="6.14412">
        <ele>187.5943604</ele>
        <time>2012-05-06T09:04:42Z</time>
      </trkpt>
      <trkpt lat="49.08997" lon="6.14486">
        <ele>188.5557861</ele>
        <time>2012-05-06T09:04:52Z</time>
      </trkpt>
      <trkpt lat="49.09038" lon="6.14553">
        <ele>188.5557861</ele>
        <time>2012-05-06T09:05:01Z</time>
      </trkpt>
      <trkpt lat="49.09076" lon="6.14615">
        <ele>187.5943604</ele>
        <time>2012-05-06T09:05:09Z</time>
      </trkpt>
      <trkpt lat="49.09113" lon="6.14674">
        <ele>187.1137695</ele>
        <time>2012-05-06T09:05:17Z</time>
      </trkpt>
      <trkpt lat="49.09154" lon="6.14742">
        <ele>187.1137695</ele>
        <time>2012-05-06T09:05:26Z</time>
      </trkpt>
      <trkpt lat="49.09194" lon="6.14813">
        <ele>186.6331787</ele>
        <time>2012-05-06T09:05:35Z</time>
      </trkpt>
      <trkpt lat="49.09204" lon="6.14834">
        <ele>187.5943604</ele>
        <time>2012-05-06T09:05:39Z</time>
      </trkpt>
      <trkpt lat="49.09207" lon="6.14838">
        <ele>187.5943604</ele>
        <time>2012-05-06T09:05:43Z</time>
      </trkpt>
      <trkpt lat="49.09206" lon="6.14836">
        <ele>188.0750732</ele>
        <time>2012-05-06T09:06:08Z</time>
      </trkpt>
      <trkpt lat="49.09207" lon="6.14837">
        <ele>187.5943604</ele>
        <time>2012-05-06T09:06:09Z</time>
      </trkpt>
      <trkpt lat="49.09216" lon="6.14853">
        <ele>187.5943604</ele>
        <time>2012-05-06T09:06:13Z</time>
      </trkpt>
      <trkpt lat="49.09233" lon="6.14879">
        <ele>187.1137695</ele>
        <time>2012-05-06T09:06:18Z</time>
      </trkpt>
      <trkpt lat="49.09261" lon="6.14932">
        <ele>186.6331787</ele>
        <time>2012-05-06T09:06:26Z</time>
      </trkpt>
      <trkpt lat="49.09293" lon="6.15009">
        <ele>186.1524658</ele>
        <time>2012-05-06T09:06:36Z</time>
      </trkpt>
      <trkpt lat="49.09331" lon="6.15095">
        <ele>186.6331787</ele>
        <time>2012-05-06T09:06:47Z</time>
      </trkpt>
      <trkpt lat="49.09347" lon="6.15133">
        <ele>186.1524658</ele>
        <time>2012-05-06T09:06:52Z</time>
      </trkpt>
      <trkpt lat="49.09362" lon="6.15159">
        <ele>186.6331787</ele>
        <time>2012-05-06T09:06:56Z</time>
      </trkpt>
      <trkpt lat="49.09389" lon="6.152">
        <ele>187.5943604</ele>
        <time>2012-05-06T09:07:03Z</time>
      </trkpt>
      <trkpt lat="49.09392" lon="6.15205">
        <ele>187.1137695</ele>
        <time>2012-05-06T09:07:04Z</time>
      </trkpt>
      <trkpt lat="49.09423" lon="6.15249">
        <ele>186.6331787</ele>
        <time>2012-05-06T09:07:11Z</time>
      </trkpt>
      <trkpt lat="49.09463" lon="6.15302">
        <ele>186.6331787</ele>
        <time>2012-05-06T09:07:19Z</time>
      </trkpt>
      <trkpt lat="49.09493" lon="6.15343">
        <ele>185.1911621</ele>
        <time>2012-05-06T09:07:25Z</time>
      </trkpt>
      <trkpt lat="49.0954" lon="6.15399">
        <ele>186.6331787</ele>
        <time>2012-05-06T09:07:34Z</time>
      </trkpt>
      <trkpt lat="49.09572" lon="6.15429">
        <ele>185.6717529</ele>
        <time>2012-05-06T09:07:40Z</time>
      </trkpt>
      <trkpt lat="49.09578" lon="6.15433">
        <ele>185.1911621</ele>
        <time>2012-05-06T09:07:41Z</time>
      </trkpt>
      <trkpt lat="49.09623" lon="6.15442">
        <ele>186.1524658</ele>
        <time>2012-05-06T09:07:48Z</time>
      </trkpt>
      <trkpt lat="49.09636" lon="6.15445">
        <ele>186.1524658</ele>
        <time>2012-05-06T09:07:50Z</time>
      </trkpt>
      <trkpt lat="49.09664" lon="6.15471">
        <ele>186.6331787</ele>
        <time>2012-05-06T09:07:55Z</time>
      </trkpt>
      <trkpt lat="49.09708" lon="6.15526">
        <ele>187.1137695</ele>
        <time>2012-05-06T09:08:04Z</time>
      </trkpt>
      <trkpt lat="49.09743" lon="6.15567">
        <ele>187.1137695</ele>
        <time>2012-05-06T09:08:11Z</time>
      </trkpt>
      <trkpt lat="49.09753" lon="6.15579">
        <ele>185.6717529</ele>
        <time>2012-05-06T09:08:13Z</time>
      </trkpt>
      <trkpt lat="49.09796" lon="6.15639">
        <ele>185.6717529</ele>
        <time>2012-05-06T09:08:22Z</time>
      </trkpt>
      <trkpt lat="49.09826" lon="6.15681">
        <ele>185.1911621</ele>
        <time>2012-05-06T09:08:29Z</time>
      </trkpt>
      <trkpt lat="49.09862" lon="6.15718">
        <ele>185.6717529</ele>
        <time>2012-05-06T09:08:37Z</time>
      </trkpt>
      <trkpt lat="49.0989" lon="6.15743">
        <ele>185.6717529</ele>
        <time>2012-05-06T09:08:44Z</time>
      </trkpt>
      <trkpt lat="49.09905" lon="6.15752">
        <ele>186.6331787</ele>
        <time>2012-05-06T09:08:49Z</time>
      </trkpt>
      <trkpt lat="49.09906" lon="6.15753">
        <ele>186.1524658</ele>
        <time>2012-05-06T09:08:52Z</time>
      </trkpt>
      <trkpt lat="49.09907" lon="6.15754">
        <ele>186.1524658</ele>
        <time>2012-05-06T09:09:03Z</time>
      </trkpt>
      <trkpt lat="49.09914" lon="6.1577">
        <ele>186.1524658</ele>
        <time>2012-05-06T09:09:07Z</time>
      </trkpt>
      <trkpt lat="49.09919" lon="6.15791">
        <ele>186.1524658</ele>
        <time>2012-05-06T09:09:13Z</time>
      </trkpt>
      <trkpt lat="49.09929" lon="6.15798">
        <ele>186.6331787</ele>
        <time>2012-05-06T09:09:19Z</time>
      </trkpt>
      <trkpt lat="49.09934" lon="6.15801">
        <ele>186.1524658</ele>
        <time>2012-05-06T09:09:24Z</time>
      </trkpt>
    </trkseg>
  </trk>
</gpx>